<?xml version="1.0" encoding="UTF-8" standalone="no" ?>
<gpx xmlns="http://www.topografix.com/GPX/1/1" xmlns:xsi="http://www.w3.org/2001/XMLSchema-instance" xsi:schemaLocation="http://www.topografix.com/GPX/1/1 http://www.topografix.com/GPX/1/1/gpx.xsd" version="1.1" creator="VisuGPX - https://www.visugpx.com">
  <metadata>
    <name>Rando des Picosés 2013</name>
    <desc><![CDATA[Super Rando

VttTeamVosges]]></desc>
  </metadata>
  <trk>
    <name><![CDATA[Dommartin 2013]]></name>
    <trkseg>
      <trkpt lat="47.99898" lon="6.64433">
        <ele>411.1</ele>
        <time>2013-05-20T06:33:31Z</time>
      </trkpt>
      <trkpt lat="47.99899" lon="6.64433">
        <ele>408.7</ele>
        <time>2013-05-20T06:33:34Z</time>
      </trkpt>
      <trkpt lat="47.99897" lon="6.64432">
        <ele>407.26</ele>
        <time>2013-05-20T06:33:51Z</time>
      </trkpt>
      <trkpt lat="47.99897" lon="6.64431">
        <ele>407.26</ele>
        <time>2013-05-20T06:34:11Z</time>
      </trkpt>
      <trkpt lat="47.99898" lon="6.64431">
        <ele>407.26</ele>
        <time>2013-05-20T06:34:22Z</time>
      </trkpt>
      <trkpt lat="47.99895" lon="6.64424">
        <ele>408.22</ele>
        <time>2013-05-20T06:34:27Z</time>
      </trkpt>
      <trkpt lat="47.99908" lon="6.64422">
        <ele>407.26</ele>
        <time>2013-05-20T06:34:35Z</time>
      </trkpt>
      <trkpt lat="47.9992" lon="6.64437">
        <ele>406.77</ele>
        <time>2013-05-20T06:34:45Z</time>
      </trkpt>
      <trkpt lat="47.99943" lon="6.64452">
        <ele>405.81</ele>
        <time>2013-05-20T06:34:54Z</time>
      </trkpt>
      <trkpt lat="47.99955" lon="6.64459">
        <ele>404.85</ele>
        <time>2013-05-20T06:34:57Z</time>
      </trkpt>
      <trkpt lat="47.99959" lon="6.64461">
        <ele>404.37</ele>
        <time>2013-05-20T06:34:58Z</time>
      </trkpt>
      <trkpt lat="47.99963" lon="6.64464">
        <ele>404.37</ele>
        <time>2013-05-20T06:34:59Z</time>
      </trkpt>
      <trkpt lat="47.99967" lon="6.64467">
        <ele>404.85</ele>
        <time>2013-05-20T06:35:00Z</time>
      </trkpt>
      <trkpt lat="47.9997" lon="6.64472">
        <ele>404.37</ele>
        <time>2013-05-20T06:35:01Z</time>
      </trkpt>
      <trkpt lat="47.99972" lon="6.64478">
        <ele>404.37</ele>
        <time>2013-05-20T06:35:02Z</time>
      </trkpt>
      <trkpt lat="47.99974" lon="6.64484">
        <ele>404.37</ele>
        <time>2013-05-20T06:35:03Z</time>
      </trkpt>
      <trkpt lat="47.99974" lon="6.64497">
        <ele>403.89</ele>
        <time>2013-05-20T06:35:05Z</time>
      </trkpt>
      <trkpt lat="47.99974" lon="6.64504">
        <ele>403.89</ele>
        <time>2013-05-20T06:35:06Z</time>
      </trkpt>
      <trkpt lat="47.99973" lon="6.6451">
        <ele>404.37</ele>
        <time>2013-05-20T06:35:07Z</time>
      </trkpt>
      <trkpt lat="47.99972" lon="6.64523">
        <ele>403.89</ele>
        <time>2013-05-20T06:35:09Z</time>
      </trkpt>
      <trkpt lat="47.99972" lon="6.6453">
        <ele>403.41</ele>
        <time>2013-05-20T06:35:10Z</time>
      </trkpt>
      <trkpt lat="47.99973" lon="6.64535">
        <ele>403.89</ele>
        <time>2013-05-20T06:35:11Z</time>
      </trkpt>
      <trkpt lat="47.99977" lon="6.64538">
        <ele>403.41</ele>
        <time>2013-05-20T06:35:12Z</time>
      </trkpt>
      <trkpt lat="47.99981" lon="6.64538">
        <ele>403.41</ele>
        <time>2013-05-20T06:35:13Z</time>
      </trkpt>
      <trkpt lat="47.99985" lon="6.64537">
        <ele>403.41</ele>
        <time>2013-05-20T06:35:14Z</time>
      </trkpt>
      <trkpt lat="47.9999" lon="6.64536">
        <ele>402.45</ele>
        <time>2013-05-20T06:35:15Z</time>
      </trkpt>
      <trkpt lat="48" lon="6.64532">
        <ele>401.97</ele>
        <time>2013-05-20T06:35:17Z</time>
      </trkpt>
      <trkpt lat="48.0005" lon="6.64516">
        <ele>400.53</ele>
        <time>2013-05-20T06:35:26Z</time>
      </trkpt>
      <trkpt lat="48.00056" lon="6.64515">
        <ele>400.53</ele>
        <time>2013-05-20T06:35:27Z</time>
      </trkpt>
      <trkpt lat="48.0006" lon="6.64515">
        <ele>400.53</ele>
        <time>2013-05-20T06:35:28Z</time>
      </trkpt>
      <trkpt lat="48.00065" lon="6.64515">
        <ele>400.05</ele>
        <time>2013-05-20T06:35:29Z</time>
      </trkpt>
      <trkpt lat="48.0007" lon="6.64516">
        <ele>400.05</ele>
        <time>2013-05-20T06:35:30Z</time>
      </trkpt>
      <trkpt lat="48.00073" lon="6.64513">
        <ele>400.05</ele>
        <time>2013-05-20T06:35:31Z</time>
      </trkpt>
      <trkpt lat="48.00076" lon="6.64508">
        <ele>400.53</ele>
        <time>2013-05-20T06:35:32Z</time>
      </trkpt>
      <trkpt lat="48.00076" lon="6.64501">
        <ele>400.05</ele>
        <time>2013-05-20T06:35:33Z</time>
      </trkpt>
      <trkpt lat="48.00077" lon="6.64495">
        <ele>399.57</ele>
        <time>2013-05-20T06:35:34Z</time>
      </trkpt>
      <trkpt lat="48.00077" lon="6.6449">
        <ele>400.05</ele>
        <time>2013-05-20T06:35:35Z</time>
      </trkpt>
      <trkpt lat="48.00077" lon="6.64485">
        <ele>400.05</ele>
        <time>2013-05-20T06:35:36Z</time>
      </trkpt>
      <trkpt lat="48.00078" lon="6.64423">
        <ele>401.01</ele>
        <time>2013-05-20T06:35:49Z</time>
      </trkpt>
      <trkpt lat="48.00077" lon="6.64362">
        <ele>400.53</ele>
        <time>2013-05-20T06:36:03Z</time>
      </trkpt>
      <trkpt lat="48.00079" lon="6.64286">
        <ele>401.97</ele>
        <time>2013-05-20T06:36:17Z</time>
      </trkpt>
      <trkpt lat="48.00079" lon="6.64164">
        <ele>401.97</ele>
        <time>2013-05-20T06:36:34Z</time>
      </trkpt>
      <trkpt lat="48.00078" lon="6.64143">
        <ele>402.45</ele>
        <time>2013-05-20T06:36:37Z</time>
      </trkpt>
      <trkpt lat="48.00078" lon="6.64136">
        <ele>402.93</ele>
        <time>2013-05-20T06:36:38Z</time>
      </trkpt>
      <trkpt lat="48.00076" lon="6.64055">
        <ele>401.49</ele>
        <time>2013-05-20T06:36:50Z</time>
      </trkpt>
      <trkpt lat="48.00077" lon="6.64051">
        <ele>401.97</ele>
        <time>2013-05-20T06:36:51Z</time>
      </trkpt>
      <trkpt lat="48.0008" lon="6.64045">
        <ele>401.97</ele>
        <time>2013-05-20T06:36:52Z</time>
      </trkpt>
      <trkpt lat="48.00082" lon="6.6404">
        <ele>402.45</ele>
        <time>2013-05-20T06:36:53Z</time>
      </trkpt>
      <trkpt lat="48.00085" lon="6.64034">
        <ele>402.45</ele>
        <time>2013-05-20T06:36:54Z</time>
      </trkpt>
      <trkpt lat="48.00087" lon="6.64029">
        <ele>401.97</ele>
        <time>2013-05-20T06:36:55Z</time>
      </trkpt>
      <trkpt lat="48.00089" lon="6.64022">
        <ele>401.97</ele>
        <time>2013-05-20T06:36:56Z</time>
      </trkpt>
      <trkpt lat="48.00087" lon="6.64016">
        <ele>401.97</ele>
        <time>2013-05-20T06:36:57Z</time>
      </trkpt>
      <trkpt lat="48.00084" lon="6.64014">
        <ele>402.93</ele>
        <time>2013-05-20T06:36:58Z</time>
      </trkpt>
      <trkpt lat="48.0008" lon="6.64012">
        <ele>401.97</ele>
        <time>2013-05-20T06:36:59Z</time>
      </trkpt>
      <trkpt lat="48.00076" lon="6.64009">
        <ele>401.97</ele>
        <time>2013-05-20T06:37:00Z</time>
      </trkpt>
      <trkpt lat="48.00072" lon="6.64005">
        <ele>403.41</ele>
        <time>2013-05-20T06:37:01Z</time>
      </trkpt>
      <trkpt lat="48.00067" lon="6.64">
        <ele>402.93</ele>
        <time>2013-05-20T06:37:02Z</time>
      </trkpt>
      <trkpt lat="48.00062" lon="6.63997">
        <ele>403.41</ele>
        <time>2013-05-20T06:37:03Z</time>
      </trkpt>
      <trkpt lat="48.00041" lon="6.63985">
        <ele>404.85</ele>
        <time>2013-05-20T06:37:07Z</time>
      </trkpt>
      <trkpt lat="48.00035" lon="6.63983">
        <ele>403.89</ele>
        <time>2013-05-20T06:37:08Z</time>
      </trkpt>
      <trkpt lat="48.00018" lon="6.63982">
        <ele>402.45</ele>
        <time>2013-05-20T06:37:11Z</time>
      </trkpt>
      <trkpt lat="47.99996" lon="6.63985">
        <ele>401.01</ele>
        <time>2013-05-20T06:37:15Z</time>
      </trkpt>
      <trkpt lat="47.99991" lon="6.63985">
        <ele>401.97</ele>
        <time>2013-05-20T06:37:16Z</time>
      </trkpt>
      <trkpt lat="47.99959" lon="6.63976">
        <ele>401.97</ele>
        <time>2013-05-20T06:37:22Z</time>
      </trkpt>
      <trkpt lat="47.99955" lon="6.63972">
        <ele>402.45</ele>
        <time>2013-05-20T06:37:23Z</time>
      </trkpt>
      <trkpt lat="47.9995" lon="6.63968">
        <ele>402.45</ele>
        <time>2013-05-20T06:37:24Z</time>
      </trkpt>
      <trkpt lat="47.99945" lon="6.63964">
        <ele>402.45</ele>
        <time>2013-05-20T06:37:25Z</time>
      </trkpt>
      <trkpt lat="47.99941" lon="6.63959">
        <ele>402.45</ele>
        <time>2013-05-20T06:37:26Z</time>
      </trkpt>
      <trkpt lat="47.99936" lon="6.63955">
        <ele>401.97</ele>
        <time>2013-05-20T06:37:27Z</time>
      </trkpt>
      <trkpt lat="47.99932" lon="6.6395">
        <ele>402.45</ele>
        <time>2013-05-20T06:37:28Z</time>
      </trkpt>
      <trkpt lat="47.99864" lon="6.63873">
        <ele>402.45</ele>
        <time>2013-05-20T06:37:45Z</time>
      </trkpt>
      <trkpt lat="47.99805" lon="6.63848">
        <ele>402.93</ele>
        <time>2013-05-20T06:37:58Z</time>
      </trkpt>
      <trkpt lat="47.99794" lon="6.63838">
        <ele>403.89</ele>
        <time>2013-05-20T06:38:01Z</time>
      </trkpt>
      <trkpt lat="47.99792" lon="6.63833">
        <ele>403.41</ele>
        <time>2013-05-20T06:38:02Z</time>
      </trkpt>
      <trkpt lat="47.9979" lon="6.63827">
        <ele>403.89</ele>
        <time>2013-05-20T06:38:03Z</time>
      </trkpt>
      <trkpt lat="47.9976" lon="6.63739">
        <ele>403.89</ele>
        <time>2013-05-20T06:38:19Z</time>
      </trkpt>
      <trkpt lat="47.99752" lon="6.63725">
        <ele>403.89</ele>
        <time>2013-05-20T06:38:23Z</time>
      </trkpt>
      <trkpt lat="47.99748" lon="6.63724">
        <ele>403.41</ele>
        <time>2013-05-20T06:38:24Z</time>
      </trkpt>
      <trkpt lat="47.99745" lon="6.63726">
        <ele>402.93</ele>
        <time>2013-05-20T06:38:25Z</time>
      </trkpt>
      <trkpt lat="47.99742" lon="6.63732">
        <ele>403.41</ele>
        <time>2013-05-20T06:38:26Z</time>
      </trkpt>
      <trkpt lat="47.99742" lon="6.63739">
        <ele>403.41</ele>
        <time>2013-05-20T06:38:27Z</time>
      </trkpt>
      <trkpt lat="47.99742" lon="6.63747">
        <ele>403.89</ele>
        <time>2013-05-20T06:38:28Z</time>
      </trkpt>
      <trkpt lat="47.99744" lon="6.63754">
        <ele>403.89</ele>
        <time>2013-05-20T06:38:29Z</time>
      </trkpt>
      <trkpt lat="47.99746" lon="6.63761">
        <ele>403.89</ele>
        <time>2013-05-20T06:38:30Z</time>
      </trkpt>
      <trkpt lat="47.99748" lon="6.63767">
        <ele>403.89</ele>
        <time>2013-05-20T06:38:31Z</time>
      </trkpt>
      <trkpt lat="47.99751" lon="6.63773">
        <ele>404.37</ele>
        <time>2013-05-20T06:38:32Z</time>
      </trkpt>
      <trkpt lat="47.99754" lon="6.63778">
        <ele>404.85</ele>
        <time>2013-05-20T06:38:33Z</time>
      </trkpt>
      <trkpt lat="47.99756" lon="6.63781">
        <ele>404.85</ele>
        <time>2013-05-20T06:38:34Z</time>
      </trkpt>
      <trkpt lat="47.99758" lon="6.63784">
        <ele>405.33</ele>
        <time>2013-05-20T06:38:35Z</time>
      </trkpt>
      <trkpt lat="47.99766" lon="6.6382">
        <ele>407.26</ele>
        <time>2013-05-20T06:38:44Z</time>
      </trkpt>
      <trkpt lat="47.99763" lon="6.63823">
        <ele>407.74</ele>
        <time>2013-05-20T06:38:45Z</time>
      </trkpt>
      <trkpt lat="47.9976" lon="6.63826">
        <ele>407.74</ele>
        <time>2013-05-20T06:38:46Z</time>
      </trkpt>
      <trkpt lat="47.99757" lon="6.63828">
        <ele>407.74</ele>
        <time>2013-05-20T06:38:47Z</time>
      </trkpt>
      <trkpt lat="47.99754" lon="6.63831">
        <ele>407.26</ele>
        <time>2013-05-20T06:38:48Z</time>
      </trkpt>
      <trkpt lat="47.99752" lon="6.63835">
        <ele>407.26</ele>
        <time>2013-05-20T06:38:49Z</time>
      </trkpt>
      <trkpt lat="47.9975" lon="6.63839">
        <ele>407.26</ele>
        <time>2013-05-20T06:38:50Z</time>
      </trkpt>
      <trkpt lat="47.99749" lon="6.63844">
        <ele>407.74</ele>
        <time>2013-05-20T06:38:51Z</time>
      </trkpt>
      <trkpt lat="47.99747" lon="6.63849">
        <ele>407.74</ele>
        <time>2013-05-20T06:38:52Z</time>
      </trkpt>
      <trkpt lat="47.99741" lon="6.63864">
        <ele>408.22</ele>
        <time>2013-05-20T06:38:56Z</time>
      </trkpt>
      <trkpt lat="47.99738" lon="6.63864">
        <ele>408.22</ele>
        <time>2013-05-20T06:38:57Z</time>
      </trkpt>
      <trkpt lat="47.99735" lon="6.63863">
        <ele>408.22</ele>
        <time>2013-05-20T06:38:58Z</time>
      </trkpt>
      <trkpt lat="47.99725" lon="6.63859">
        <ele>409.66</ele>
        <time>2013-05-20T06:39:01Z</time>
      </trkpt>
      <trkpt lat="47.99683" lon="6.63836">
        <ele>410.62</ele>
        <time>2013-05-20T06:39:15Z</time>
      </trkpt>
      <trkpt lat="47.99648" lon="6.63812">
        <ele>409.66</ele>
        <time>2013-05-20T06:39:27Z</time>
      </trkpt>
      <trkpt lat="47.99622" lon="6.6377">
        <ele>412.06</ele>
        <time>2013-05-20T06:39:39Z</time>
      </trkpt>
      <trkpt lat="47.99594" lon="6.63732">
        <ele>415.43</ele>
        <time>2013-05-20T06:39:52Z</time>
      </trkpt>
      <trkpt lat="47.99559" lon="6.63719">
        <ele>418.31</ele>
        <time>2013-05-20T06:40:05Z</time>
      </trkpt>
      <trkpt lat="47.99516" lon="6.63726">
        <ele>421.68</ele>
        <time>2013-05-20T06:40:21Z</time>
      </trkpt>
      <trkpt lat="47.99514" lon="6.63728">
        <ele>422.64</ele>
        <time>2013-05-20T06:40:22Z</time>
      </trkpt>
      <trkpt lat="47.99512" lon="6.6373">
        <ele>422.64</ele>
        <time>2013-05-20T06:40:23Z</time>
      </trkpt>
      <trkpt lat="47.99512" lon="6.63733">
        <ele>422.64</ele>
        <time>2013-05-20T06:40:24Z</time>
      </trkpt>
      <trkpt lat="47.99513" lon="6.63736">
        <ele>422.64</ele>
        <time>2013-05-20T06:40:25Z</time>
      </trkpt>
      <trkpt lat="47.99514" lon="6.63738">
        <ele>423.12</ele>
        <time>2013-05-20T06:40:26Z</time>
      </trkpt>
      <trkpt lat="47.99515" lon="6.6374">
        <ele>422.64</ele>
        <time>2013-05-20T06:40:27Z</time>
      </trkpt>
      <trkpt lat="47.99517" lon="6.63743">
        <ele>423.12</ele>
        <time>2013-05-20T06:40:28Z</time>
      </trkpt>
      <trkpt lat="47.99519" lon="6.63746">
        <ele>422.64</ele>
        <time>2013-05-20T06:40:29Z</time>
      </trkpt>
      <trkpt lat="47.99521" lon="6.63749">
        <ele>423.12</ele>
        <time>2013-05-20T06:40:30Z</time>
      </trkpt>
      <trkpt lat="47.99545" lon="6.63798">
        <ele>426.48</ele>
        <time>2013-05-20T06:40:44Z</time>
      </trkpt>
      <trkpt lat="47.99582" lon="6.63875">
        <ele>426.48</ele>
        <time>2013-05-20T06:41:01Z</time>
      </trkpt>
      <trkpt lat="47.99626" lon="6.6396">
        <ele>425.52</ele>
        <time>2013-05-20T06:41:17Z</time>
      </trkpt>
      <trkpt lat="47.99655" lon="6.64007">
        <ele>425.52</ele>
        <time>2013-05-20T06:41:26Z</time>
      </trkpt>
      <trkpt lat="47.99657" lon="6.64014">
        <ele>425.04</ele>
        <time>2013-05-20T06:41:27Z</time>
      </trkpt>
      <trkpt lat="47.99658" lon="6.64022">
        <ele>425.52</ele>
        <time>2013-05-20T06:41:28Z</time>
      </trkpt>
      <trkpt lat="47.99656" lon="6.64029">
        <ele>425.04</ele>
        <time>2013-05-20T06:41:29Z</time>
      </trkpt>
      <trkpt lat="47.99655" lon="6.64035">
        <ele>425.04</ele>
        <time>2013-05-20T06:41:30Z</time>
      </trkpt>
      <trkpt lat="47.99654" lon="6.64041">
        <ele>426</ele>
        <time>2013-05-20T06:41:31Z</time>
      </trkpt>
      <trkpt lat="47.99654" lon="6.64046">
        <ele>426</ele>
        <time>2013-05-20T06:41:32Z</time>
      </trkpt>
      <trkpt lat="47.99644" lon="6.64071">
        <ele>428.89</ele>
        <time>2013-05-20T06:41:39Z</time>
      </trkpt>
      <trkpt lat="47.9962" lon="6.64095">
        <ele>430.81</ele>
        <time>2013-05-20T06:41:49Z</time>
      </trkpt>
      <trkpt lat="47.99623" lon="6.64127">
        <ele>432.73</ele>
        <time>2013-05-20T06:41:56Z</time>
      </trkpt>
      <trkpt lat="47.99629" lon="6.64169">
        <ele>434.65</ele>
        <time>2013-05-20T06:42:06Z</time>
      </trkpt>
      <trkpt lat="47.99628" lon="6.64172">
        <ele>434.65</ele>
        <time>2013-05-20T06:42:07Z</time>
      </trkpt>
      <trkpt lat="47.99625" lon="6.64173">
        <ele>434.65</ele>
        <time>2013-05-20T06:42:08Z</time>
      </trkpt>
      <trkpt lat="47.99624" lon="6.6417">
        <ele>434.65</ele>
        <time>2013-05-20T06:42:09Z</time>
      </trkpt>
      <trkpt lat="47.99623" lon="6.64166">
        <ele>435.61</ele>
        <time>2013-05-20T06:42:10Z</time>
      </trkpt>
      <trkpt lat="47.99622" lon="6.64162">
        <ele>436.1</ele>
        <time>2013-05-20T06:42:11Z</time>
      </trkpt>
      <trkpt lat="47.99615" lon="6.64148">
        <ele>436.58</ele>
        <time>2013-05-20T06:42:15Z</time>
      </trkpt>
      <trkpt lat="47.99612" lon="6.64148">
        <ele>437.06</ele>
        <time>2013-05-20T06:42:16Z</time>
      </trkpt>
      <trkpt lat="47.9961" lon="6.64149">
        <ele>437.54</ele>
        <time>2013-05-20T06:42:17Z</time>
      </trkpt>
      <trkpt lat="47.99608" lon="6.64152">
        <ele>438.5</ele>
        <time>2013-05-20T06:42:18Z</time>
      </trkpt>
      <trkpt lat="47.99606" lon="6.64155">
        <ele>438.5</ele>
        <time>2013-05-20T06:42:19Z</time>
      </trkpt>
      <trkpt lat="47.99605" lon="6.6416">
        <ele>439.46</ele>
        <time>2013-05-20T06:42:20Z</time>
      </trkpt>
      <trkpt lat="47.99605" lon="6.64164">
        <ele>439.46</ele>
        <time>2013-05-20T06:42:21Z</time>
      </trkpt>
      <trkpt lat="47.99605" lon="6.64169">
        <ele>439.94</ele>
        <time>2013-05-20T06:42:22Z</time>
      </trkpt>
      <trkpt lat="47.99605" lon="6.64173">
        <ele>439.94</ele>
        <time>2013-05-20T06:42:23Z</time>
      </trkpt>
      <trkpt lat="47.99606" lon="6.64178">
        <ele>439.46</ele>
        <time>2013-05-20T06:42:24Z</time>
      </trkpt>
      <trkpt lat="47.99606" lon="6.64182">
        <ele>439.94</ele>
        <time>2013-05-20T06:42:25Z</time>
      </trkpt>
      <trkpt lat="47.99608" lon="6.64192">
        <ele>440.9</ele>
        <time>2013-05-20T06:42:27Z</time>
      </trkpt>
      <trkpt lat="47.9962" lon="6.64255">
        <ele>443.79</ele>
        <time>2013-05-20T06:42:42Z</time>
      </trkpt>
      <trkpt lat="47.99621" lon="6.64296">
        <ele>446.67</ele>
        <time>2013-05-20T06:42:53Z</time>
      </trkpt>
      <trkpt lat="47.99616" lon="6.64344">
        <ele>449.55</ele>
        <time>2013-05-20T06:43:05Z</time>
      </trkpt>
      <trkpt lat="47.99612" lon="6.64366">
        <ele>451</ele>
        <time>2013-05-20T06:43:11Z</time>
      </trkpt>
      <trkpt lat="47.99587" lon="6.64391">
        <ele>453.88</ele>
        <time>2013-05-20T06:43:23Z</time>
      </trkpt>
      <trkpt lat="47.99585" lon="6.64391">
        <ele>454.36</ele>
        <time>2013-05-20T06:43:24Z</time>
      </trkpt>
      <trkpt lat="47.99583" lon="6.64392">
        <ele>454.84</ele>
        <time>2013-05-20T06:43:25Z</time>
      </trkpt>
      <trkpt lat="47.99581" lon="6.64392">
        <ele>454.84</ele>
        <time>2013-05-20T06:43:26Z</time>
      </trkpt>
      <trkpt lat="47.99578" lon="6.64392">
        <ele>454.84</ele>
        <time>2013-05-20T06:43:27Z</time>
      </trkpt>
      <trkpt lat="47.99576" lon="6.64392">
        <ele>455.32</ele>
        <time>2013-05-20T06:43:28Z</time>
      </trkpt>
      <trkpt lat="47.99558" lon="6.64403">
        <ele>456.28</ele>
        <time>2013-05-20T06:43:38Z</time>
      </trkpt>
      <trkpt lat="47.99554" lon="6.64439">
        <ele>459.17</ele>
        <time>2013-05-20T06:43:48Z</time>
      </trkpt>
      <trkpt lat="47.99552" lon="6.64456">
        <ele>460.13</ele>
        <time>2013-05-20T06:43:55Z</time>
      </trkpt>
      <trkpt lat="47.99562" lon="6.64504">
        <ele>462.05</ele>
        <time>2013-05-20T06:44:08Z</time>
      </trkpt>
      <trkpt lat="47.99575" lon="6.64529">
        <ele>463.97</ele>
        <time>2013-05-20T06:44:19Z</time>
      </trkpt>
      <trkpt lat="47.99595" lon="6.6456">
        <ele>466.38</ele>
        <time>2013-05-20T06:44:32Z</time>
      </trkpt>
      <trkpt lat="47.99623" lon="6.64598">
        <ele>469.26</ele>
        <time>2013-05-20T06:44:48Z</time>
      </trkpt>
      <trkpt lat="47.99645" lon="6.64639">
        <ele>471.66</ele>
        <time>2013-05-20T06:45:04Z</time>
      </trkpt>
      <trkpt lat="47.99658" lon="6.64688">
        <ele>473.59</ele>
        <time>2013-05-20T06:45:20Z</time>
      </trkpt>
      <trkpt lat="47.99672" lon="6.64725">
        <ele>476.47</ele>
        <time>2013-05-20T06:45:33Z</time>
      </trkpt>
      <trkpt lat="47.99688" lon="6.64763">
        <ele>478.87</ele>
        <time>2013-05-20T06:45:47Z</time>
      </trkpt>
      <trkpt lat="47.99693" lon="6.64783">
        <ele>479.84</ele>
        <time>2013-05-20T06:45:54Z</time>
      </trkpt>
      <trkpt lat="47.99694" lon="6.64785">
        <ele>479.84</ele>
        <time>2013-05-20T06:45:55Z</time>
      </trkpt>
      <trkpt lat="47.99695" lon="6.64788">
        <ele>479.84</ele>
        <time>2013-05-20T06:45:56Z</time>
      </trkpt>
      <trkpt lat="47.99696" lon="6.64791">
        <ele>480.32</ele>
        <time>2013-05-20T06:45:57Z</time>
      </trkpt>
      <trkpt lat="47.99696" lon="6.64794">
        <ele>480.32</ele>
        <time>2013-05-20T06:45:58Z</time>
      </trkpt>
      <trkpt lat="47.99706" lon="6.64821">
        <ele>482.24</ele>
        <time>2013-05-20T06:46:09Z</time>
      </trkpt>
      <trkpt lat="47.99704" lon="6.64842">
        <ele>483.68</ele>
        <time>2013-05-20T06:46:17Z</time>
      </trkpt>
      <trkpt lat="47.99704" lon="6.64874">
        <ele>485.12</ele>
        <time>2013-05-20T06:46:29Z</time>
      </trkpt>
      <trkpt lat="47.99703" lon="6.64891">
        <ele>485.12</ele>
        <time>2013-05-20T06:46:34Z</time>
      </trkpt>
      <trkpt lat="47.99708" lon="6.64945">
        <ele>488.49</ele>
        <time>2013-05-20T06:46:50Z</time>
      </trkpt>
      <trkpt lat="47.99711" lon="6.64967">
        <ele>489.93</ele>
        <time>2013-05-20T06:46:57Z</time>
      </trkpt>
      <trkpt lat="47.99711" lon="6.64971">
        <ele>489.93</ele>
        <time>2013-05-20T06:46:58Z</time>
      </trkpt>
      <trkpt lat="47.99717" lon="6.65011">
        <ele>492.33</ele>
        <time>2013-05-20T06:47:10Z</time>
      </trkpt>
      <trkpt lat="47.99727" lon="6.65054">
        <ele>494.26</ele>
        <time>2013-05-20T06:47:22Z</time>
      </trkpt>
      <trkpt lat="47.99749" lon="6.65092">
        <ele>497.14</ele>
        <time>2013-05-20T06:47:38Z</time>
      </trkpt>
      <trkpt lat="47.99769" lon="6.6513">
        <ele>499.54</ele>
        <time>2013-05-20T06:47:53Z</time>
      </trkpt>
      <trkpt lat="47.9977" lon="6.6517">
        <ele>500.98</ele>
        <time>2013-05-20T06:48:06Z</time>
      </trkpt>
      <trkpt lat="47.99768" lon="6.65208">
        <ele>503.39</ele>
        <time>2013-05-20T06:48:17Z</time>
      </trkpt>
      <trkpt lat="47.99764" lon="6.6525">
        <ele>506.75</ele>
        <time>2013-05-20T06:48:31Z</time>
      </trkpt>
      <trkpt lat="47.99762" lon="6.6529">
        <ele>508.67</ele>
        <time>2013-05-20T06:48:43Z</time>
      </trkpt>
      <trkpt lat="47.9974" lon="6.65318">
        <ele>511.56</ele>
        <time>2013-05-20T06:48:55Z</time>
      </trkpt>
      <trkpt lat="47.99724" lon="6.6535">
        <ele>513</ele>
        <time>2013-05-20T06:49:06Z</time>
      </trkpt>
      <trkpt lat="47.99719" lon="6.6538">
        <ele>514.92</ele>
        <time>2013-05-20T06:49:15Z</time>
      </trkpt>
      <trkpt lat="47.99714" lon="6.65414">
        <ele>515.88</ele>
        <time>2013-05-20T06:49:26Z</time>
      </trkpt>
      <trkpt lat="47.99697" lon="6.65458">
        <ele>516.85</ele>
        <time>2013-05-20T06:49:38Z</time>
      </trkpt>
      <trkpt lat="47.99694" lon="6.65472">
        <ele>515.4</ele>
        <time>2013-05-20T06:49:41Z</time>
      </trkpt>
      <trkpt lat="47.9969" lon="6.65503">
        <ele>515.4</ele>
        <time>2013-05-20T06:49:46Z</time>
      </trkpt>
      <trkpt lat="47.99687" lon="6.65519">
        <ele>514.44</ele>
        <time>2013-05-20T06:49:48Z</time>
      </trkpt>
      <trkpt lat="47.99682" lon="6.65542">
        <ele>512.52</ele>
        <time>2013-05-20T06:49:51Z</time>
      </trkpt>
      <trkpt lat="47.99682" lon="6.6555">
        <ele>512.52</ele>
        <time>2013-05-20T06:49:52Z</time>
      </trkpt>
      <trkpt lat="47.99683" lon="6.65557">
        <ele>511.56</ele>
        <time>2013-05-20T06:49:53Z</time>
      </trkpt>
      <trkpt lat="47.99685" lon="6.65564">
        <ele>511.56</ele>
        <time>2013-05-20T06:49:54Z</time>
      </trkpt>
      <trkpt lat="47.99688" lon="6.6557">
        <ele>510.12</ele>
        <time>2013-05-20T06:49:55Z</time>
      </trkpt>
      <trkpt lat="47.99693" lon="6.65574">
        <ele>509.16</ele>
        <time>2013-05-20T06:49:56Z</time>
      </trkpt>
      <trkpt lat="47.99698" lon="6.65578">
        <ele>508.67</ele>
        <time>2013-05-20T06:49:57Z</time>
      </trkpt>
      <trkpt lat="47.99704" lon="6.65583">
        <ele>508.19</ele>
        <time>2013-05-20T06:49:58Z</time>
      </trkpt>
      <trkpt lat="47.99706" lon="6.65589">
        <ele>508.67</ele>
        <time>2013-05-20T06:49:59Z</time>
      </trkpt>
      <trkpt lat="47.99717" lon="6.65605">
        <ele>505.79</ele>
        <time>2013-05-20T06:50:02Z</time>
      </trkpt>
      <trkpt lat="47.99719" lon="6.65611">
        <ele>505.31</ele>
        <time>2013-05-20T06:50:03Z</time>
      </trkpt>
      <trkpt lat="47.99718" lon="6.65617">
        <ele>504.83</ele>
        <time>2013-05-20T06:50:04Z</time>
      </trkpt>
      <trkpt lat="47.99714" lon="6.65628">
        <ele>503.87</ele>
        <time>2013-05-20T06:50:06Z</time>
      </trkpt>
      <trkpt lat="47.99708" lon="6.65673">
        <ele>506.75</ele>
        <time>2013-05-20T06:50:17Z</time>
      </trkpt>
      <trkpt lat="47.9971" lon="6.65678">
        <ele>507.23</ele>
        <time>2013-05-20T06:50:19Z</time>
      </trkpt>
      <trkpt lat="47.99714" lon="6.65714">
        <ele>510.6</ele>
        <time>2013-05-20T06:50:31Z</time>
      </trkpt>
      <trkpt lat="47.99727" lon="6.6578">
        <ele>511.56</ele>
        <time>2013-05-20T06:50:47Z</time>
      </trkpt>
      <trkpt lat="47.99736" lon="6.65813">
        <ele>510.6</ele>
        <time>2013-05-20T06:50:52Z</time>
      </trkpt>
      <trkpt lat="47.9974" lon="6.65821">
        <ele>510.6</ele>
        <time>2013-05-20T06:50:53Z</time>
      </trkpt>
      <trkpt lat="47.99744" lon="6.65828">
        <ele>511.08</ele>
        <time>2013-05-20T06:50:54Z</time>
      </trkpt>
      <trkpt lat="47.99749" lon="6.65835">
        <ele>509.64</ele>
        <time>2013-05-20T06:50:55Z</time>
      </trkpt>
      <trkpt lat="47.99754" lon="6.6584">
        <ele>509.64</ele>
        <time>2013-05-20T06:50:56Z</time>
      </trkpt>
      <trkpt lat="47.9976" lon="6.65846">
        <ele>509.16</ele>
        <time>2013-05-20T06:50:57Z</time>
      </trkpt>
      <trkpt lat="47.99795" lon="6.65872">
        <ele>505.31</ele>
        <time>2013-05-20T06:51:02Z</time>
      </trkpt>
      <trkpt lat="47.99812" lon="6.6588">
        <ele>503.87</ele>
        <time>2013-05-20T06:51:04Z</time>
      </trkpt>
      <trkpt lat="47.99819" lon="6.6588">
        <ele>502.43</ele>
        <time>2013-05-20T06:51:05Z</time>
      </trkpt>
      <trkpt lat="47.99825" lon="6.65878">
        <ele>500.98</ele>
        <time>2013-05-20T06:51:06Z</time>
      </trkpt>
      <trkpt lat="47.99829" lon="6.65874">
        <ele>499.06</ele>
        <time>2013-05-20T06:51:07Z</time>
      </trkpt>
      <trkpt lat="47.99831" lon="6.65872">
        <ele>498.1</ele>
        <time>2013-05-20T06:51:08Z</time>
      </trkpt>
      <trkpt lat="47.99834" lon="6.65873">
        <ele>498.1</ele>
        <time>2013-05-20T06:51:09Z</time>
      </trkpt>
      <trkpt lat="47.99835" lon="6.65875">
        <ele>497.62</ele>
        <time>2013-05-20T06:51:10Z</time>
      </trkpt>
      <trkpt lat="47.99836" lon="6.65877">
        <ele>497.62</ele>
        <time>2013-05-20T06:51:11Z</time>
      </trkpt>
      <trkpt lat="47.99835" lon="6.65878">
        <ele>497.14</ele>
        <time>2013-05-20T06:51:12Z</time>
      </trkpt>
      <trkpt lat="47.99833" lon="6.6588">
        <ele>497.62</ele>
        <time>2013-05-20T06:51:13Z</time>
      </trkpt>
      <trkpt lat="47.99832" lon="6.65882">
        <ele>498.1</ele>
        <time>2013-05-20T06:51:14Z</time>
      </trkpt>
      <trkpt lat="47.99831" lon="6.65884">
        <ele>498.58</ele>
        <time>2013-05-20T06:51:15Z</time>
      </trkpt>
      <trkpt lat="47.99829" lon="6.65886">
        <ele>499.06</ele>
        <time>2013-05-20T06:51:16Z</time>
      </trkpt>
      <trkpt lat="47.99827" lon="6.65887">
        <ele>499.06</ele>
        <time>2013-05-20T06:51:17Z</time>
      </trkpt>
      <trkpt lat="47.99815" lon="6.6589">
        <ele>502.43</ele>
        <time>2013-05-20T06:51:25Z</time>
      </trkpt>
      <trkpt lat="47.9981" lon="6.65888">
        <ele>502.91</ele>
        <time>2013-05-20T06:51:29Z</time>
      </trkpt>
      <trkpt lat="47.99798" lon="6.65884">
        <ele>506.27</ele>
        <time>2013-05-20T06:51:38Z</time>
      </trkpt>
      <trkpt lat="47.99782" lon="6.65879">
        <ele>509.64</ele>
        <time>2013-05-20T06:51:48Z</time>
      </trkpt>
      <trkpt lat="47.9976" lon="6.65873">
        <ele>512.52</ele>
        <time>2013-05-20T06:52:00Z</time>
      </trkpt>
      <trkpt lat="47.99742" lon="6.65871">
        <ele>515.88</ele>
        <time>2013-05-20T06:52:12Z</time>
      </trkpt>
      <trkpt lat="47.9973" lon="6.65867">
        <ele>518.29</ele>
        <time>2013-05-20T06:52:18Z</time>
      </trkpt>
      <trkpt lat="47.99714" lon="6.65864">
        <ele>521.17</ele>
        <time>2013-05-20T06:52:29Z</time>
      </trkpt>
      <trkpt lat="47.99713" lon="6.65863">
        <ele>520.69</ele>
        <time>2013-05-20T06:52:30Z</time>
      </trkpt>
      <trkpt lat="47.99702" lon="6.65856">
        <ele>524.06</ele>
        <time>2013-05-20T06:52:39Z</time>
      </trkpt>
      <trkpt lat="47.99689" lon="6.65847">
        <ele>526.46</ele>
        <time>2013-05-20T06:52:48Z</time>
      </trkpt>
      <trkpt lat="47.9967" lon="6.65834">
        <ele>530.3</ele>
        <time>2013-05-20T06:53:00Z</time>
      </trkpt>
      <trkpt lat="47.99646" lon="6.65819">
        <ele>533.19</ele>
        <time>2013-05-20T06:53:11Z</time>
      </trkpt>
      <trkpt lat="47.99632" lon="6.65815">
        <ele>535.11</ele>
        <time>2013-05-20T06:53:19Z</time>
      </trkpt>
      <trkpt lat="47.99631" lon="6.65814">
        <ele>535.11</ele>
        <time>2013-05-20T06:53:20Z</time>
      </trkpt>
      <trkpt lat="47.99629" lon="6.65814">
        <ele>535.59</ele>
        <time>2013-05-20T06:53:21Z</time>
      </trkpt>
      <trkpt lat="47.99628" lon="6.65813">
        <ele>535.59</ele>
        <time>2013-05-20T06:53:22Z</time>
      </trkpt>
      <trkpt lat="47.99627" lon="6.65813">
        <ele>536.07</ele>
        <time>2013-05-20T06:53:23Z</time>
      </trkpt>
      <trkpt lat="47.99626" lon="6.65812">
        <ele>536.07</ele>
        <time>2013-05-20T06:53:24Z</time>
      </trkpt>
      <trkpt lat="47.99614" lon="6.6581">
        <ele>538.96</ele>
        <time>2013-05-20T06:53:32Z</time>
      </trkpt>
      <trkpt lat="47.99608" lon="6.65809">
        <ele>539.44</ele>
        <time>2013-05-20T06:53:36Z</time>
      </trkpt>
      <trkpt lat="47.99606" lon="6.65809">
        <ele>539.44</ele>
        <time>2013-05-20T06:53:37Z</time>
      </trkpt>
      <trkpt lat="47.99604" lon="6.65808">
        <ele>539.92</ele>
        <time>2013-05-20T06:53:38Z</time>
      </trkpt>
      <trkpt lat="47.99592" lon="6.65801">
        <ele>542.8</ele>
        <time>2013-05-20T06:53:49Z</time>
      </trkpt>
      <trkpt lat="47.9959" lon="6.65802">
        <ele>542.32</ele>
        <time>2013-05-20T06:53:50Z</time>
      </trkpt>
      <trkpt lat="47.99588" lon="6.65802">
        <ele>542.8</ele>
        <time>2013-05-20T06:53:51Z</time>
      </trkpt>
      <trkpt lat="47.99586" lon="6.65802">
        <ele>543.28</ele>
        <time>2013-05-20T06:53:52Z</time>
      </trkpt>
      <trkpt lat="47.99585" lon="6.65801">
        <ele>543.76</ele>
        <time>2013-05-20T06:53:53Z</time>
      </trkpt>
      <trkpt lat="47.99583" lon="6.65801">
        <ele>544.24</ele>
        <time>2013-05-20T06:53:54Z</time>
      </trkpt>
      <trkpt lat="47.99581" lon="6.658">
        <ele>543.76</ele>
        <time>2013-05-20T06:53:55Z</time>
      </trkpt>
      <trkpt lat="47.99572" lon="6.65799">
        <ele>545.69</ele>
        <time>2013-05-20T06:54:01Z</time>
      </trkpt>
      <trkpt lat="47.99559" lon="6.65797">
        <ele>547.13</ele>
        <time>2013-05-20T06:54:09Z</time>
      </trkpt>
      <trkpt lat="47.99558" lon="6.65798">
        <ele>548.09</ele>
        <time>2013-05-20T06:54:10Z</time>
      </trkpt>
      <trkpt lat="47.99556" lon="6.65798">
        <ele>548.09</ele>
        <time>2013-05-20T06:54:11Z</time>
      </trkpt>
      <trkpt lat="47.99536" lon="6.65807">
        <ele>550.97</ele>
        <time>2013-05-20T06:54:24Z</time>
      </trkpt>
      <trkpt lat="47.99534" lon="6.65807">
        <ele>551.45</ele>
        <time>2013-05-20T06:54:25Z</time>
      </trkpt>
      <trkpt lat="47.99533" lon="6.65808">
        <ele>551.93</ele>
        <time>2013-05-20T06:54:26Z</time>
      </trkpt>
      <trkpt lat="47.99532" lon="6.65809">
        <ele>551.93</ele>
        <time>2013-05-20T06:54:27Z</time>
      </trkpt>
      <trkpt lat="47.9953" lon="6.6581">
        <ele>552.41</ele>
        <time>2013-05-20T06:54:28Z</time>
      </trkpt>
      <trkpt lat="47.99528" lon="6.6581">
        <ele>552.41</ele>
        <time>2013-05-20T06:54:29Z</time>
      </trkpt>
      <trkpt lat="47.99526" lon="6.6581">
        <ele>552.9</ele>
        <time>2013-05-20T06:54:30Z</time>
      </trkpt>
      <trkpt lat="47.99525" lon="6.65811">
        <ele>552.9</ele>
        <time>2013-05-20T06:54:31Z</time>
      </trkpt>
      <trkpt lat="47.99523" lon="6.65812">
        <ele>552.41</ele>
        <time>2013-05-20T06:54:32Z</time>
      </trkpt>
      <trkpt lat="47.99521" lon="6.65812">
        <ele>553.38</ele>
        <time>2013-05-20T06:54:33Z</time>
      </trkpt>
      <trkpt lat="47.99517" lon="6.65813">
        <ele>553.86</ele>
        <time>2013-05-20T06:54:35Z</time>
      </trkpt>
      <trkpt lat="47.99516" lon="6.65814">
        <ele>553.86</ele>
        <time>2013-05-20T06:54:36Z</time>
      </trkpt>
      <trkpt lat="47.99514" lon="6.65815">
        <ele>553.86</ele>
        <time>2013-05-20T06:54:37Z</time>
      </trkpt>
      <trkpt lat="47.99512" lon="6.65815">
        <ele>553.86</ele>
        <time>2013-05-20T06:54:38Z</time>
      </trkpt>
      <trkpt lat="47.99511" lon="6.65815">
        <ele>553.86</ele>
        <time>2013-05-20T06:54:39Z</time>
      </trkpt>
      <trkpt lat="47.99509" lon="6.65816">
        <ele>554.82</ele>
        <time>2013-05-20T06:54:40Z</time>
      </trkpt>
      <trkpt lat="47.99508" lon="6.65816">
        <ele>554.34</ele>
        <time>2013-05-20T06:54:41Z</time>
      </trkpt>
      <trkpt lat="47.99495" lon="6.65817">
        <ele>555.3</ele>
        <time>2013-05-20T06:54:49Z</time>
      </trkpt>
      <trkpt lat="47.99494" lon="6.65817">
        <ele>555.3</ele>
        <time>2013-05-20T06:54:50Z</time>
      </trkpt>
      <trkpt lat="47.99492" lon="6.65816">
        <ele>555.3</ele>
        <time>2013-05-20T06:54:51Z</time>
      </trkpt>
      <trkpt lat="47.99491" lon="6.65815">
        <ele>555.3</ele>
        <time>2013-05-20T06:54:52Z</time>
      </trkpt>
      <trkpt lat="47.99489" lon="6.65814">
        <ele>555.3</ele>
        <time>2013-05-20T06:54:53Z</time>
      </trkpt>
      <trkpt lat="47.99482" lon="6.65804">
        <ele>555.78</ele>
        <time>2013-05-20T06:55:01Z</time>
      </trkpt>
      <trkpt lat="47.99482" lon="6.65803">
        <ele>556.26</ele>
        <time>2013-05-20T06:55:02Z</time>
      </trkpt>
      <trkpt lat="47.99482" lon="6.658">
        <ele>556.26</ele>
        <time>2013-05-20T06:55:03Z</time>
      </trkpt>
      <trkpt lat="47.99482" lon="6.65798">
        <ele>555.78</ele>
        <time>2013-05-20T06:55:04Z</time>
      </trkpt>
      <trkpt lat="47.99482" lon="6.65795">
        <ele>555.3</ele>
        <time>2013-05-20T06:55:05Z</time>
      </trkpt>
      <trkpt lat="47.99481" lon="6.65786">
        <ele>555.78</ele>
        <time>2013-05-20T06:55:09Z</time>
      </trkpt>
      <trkpt lat="47.99484" lon="6.65772">
        <ele>556.26</ele>
        <time>2013-05-20T06:55:18Z</time>
      </trkpt>
      <trkpt lat="47.99485" lon="6.6577">
        <ele>556.26</ele>
        <time>2013-05-20T06:55:19Z</time>
      </trkpt>
      <trkpt lat="47.99501" lon="6.65742">
        <ele>556.74</ele>
        <time>2013-05-20T06:55:33Z</time>
      </trkpt>
      <trkpt lat="47.99521" lon="6.65703">
        <ele>557.7</ele>
        <time>2013-05-20T06:55:47Z</time>
      </trkpt>
      <trkpt lat="47.99529" lon="6.65668">
        <ele>557.7</ele>
        <time>2013-05-20T06:55:57Z</time>
      </trkpt>
      <trkpt lat="47.99528" lon="6.65666">
        <ele>557.22</ele>
        <time>2013-05-20T06:55:58Z</time>
      </trkpt>
      <trkpt lat="47.99527" lon="6.65662">
        <ele>557.7</ele>
        <time>2013-05-20T06:55:59Z</time>
      </trkpt>
      <trkpt lat="47.99527" lon="6.65659">
        <ele>557.22</ele>
        <time>2013-05-20T06:56:00Z</time>
      </trkpt>
      <trkpt lat="47.99526" lon="6.65656">
        <ele>557.22</ele>
        <time>2013-05-20T06:56:01Z</time>
      </trkpt>
      <trkpt lat="47.99525" lon="6.65653">
        <ele>558.18</ele>
        <time>2013-05-20T06:56:02Z</time>
      </trkpt>
      <trkpt lat="47.99512" lon="6.65621">
        <ele>558.66</ele>
        <time>2013-05-20T06:56:14Z</time>
      </trkpt>
      <trkpt lat="47.99495" lon="6.65577">
        <ele>559.14</ele>
        <time>2013-05-20T06:56:29Z</time>
      </trkpt>
      <trkpt lat="47.99493" lon="6.65532">
        <ele>560.59</ele>
        <time>2013-05-20T06:56:43Z</time>
      </trkpt>
      <trkpt lat="47.99499" lon="6.65497">
        <ele>561.07</ele>
        <time>2013-05-20T06:56:54Z</time>
      </trkpt>
      <trkpt lat="47.99503" lon="6.65491">
        <ele>561.55</ele>
        <time>2013-05-20T06:57:01Z</time>
      </trkpt>
      <trkpt lat="47.99505" lon="6.6549">
        <ele>561.55</ele>
        <time>2013-05-20T06:57:02Z</time>
      </trkpt>
      <trkpt lat="47.99517" lon="6.6548">
        <ele>561.55</ele>
        <time>2013-05-20T06:57:11Z</time>
      </trkpt>
      <trkpt lat="47.99518" lon="6.6548">
        <ele>561.55</ele>
        <time>2013-05-20T06:57:12Z</time>
      </trkpt>
      <trkpt lat="47.99536" lon="6.65467">
        <ele>561.55</ele>
        <time>2013-05-20T06:57:23Z</time>
      </trkpt>
      <trkpt lat="47.99566" lon="6.65451">
        <ele>562.03</ele>
        <time>2013-05-20T06:57:34Z</time>
      </trkpt>
      <trkpt lat="47.99591" lon="6.65405">
        <ele>562.51</ele>
        <time>2013-05-20T06:57:47Z</time>
      </trkpt>
      <trkpt lat="47.9959" lon="6.65346">
        <ele>562.99</ele>
        <time>2013-05-20T06:58:01Z</time>
      </trkpt>
      <trkpt lat="47.99599" lon="6.65291">
        <ele>563.47</ele>
        <time>2013-05-20T06:58:13Z</time>
      </trkpt>
      <trkpt lat="47.99618" lon="6.65243">
        <ele>563.95</ele>
        <time>2013-05-20T06:58:25Z</time>
      </trkpt>
      <trkpt lat="47.99629" lon="6.65186">
        <ele>564.43</ele>
        <time>2013-05-20T06:58:38Z</time>
      </trkpt>
      <trkpt lat="47.99613" lon="6.65147">
        <ele>564.43</ele>
        <time>2013-05-20T06:58:49Z</time>
      </trkpt>
      <trkpt lat="47.99602" lon="6.65102">
        <ele>566.35</ele>
        <time>2013-05-20T06:59:01Z</time>
      </trkpt>
      <trkpt lat="47.99591" lon="6.65054">
        <ele>565.87</ele>
        <time>2013-05-20T06:59:13Z</time>
      </trkpt>
      <trkpt lat="47.99578" lon="6.65013">
        <ele>567.8</ele>
        <time>2013-05-20T06:59:23Z</time>
      </trkpt>
      <trkpt lat="47.9957" lon="6.64969">
        <ele>568.28</ele>
        <time>2013-05-20T06:59:34Z</time>
      </trkpt>
      <trkpt lat="47.99552" lon="6.64921">
        <ele>567.8</ele>
        <time>2013-05-20T06:59:46Z</time>
      </trkpt>
      <trkpt lat="47.99534" lon="6.64876">
        <ele>570.2</ele>
        <time>2013-05-20T06:59:58Z</time>
      </trkpt>
      <trkpt lat="47.9951" lon="6.64887">
        <ele>572.12</ele>
        <time>2013-05-20T07:00:08Z</time>
      </trkpt>
      <trkpt lat="47.99493" lon="6.64928">
        <ele>574.04</ele>
        <time>2013-05-20T07:00:21Z</time>
      </trkpt>
      <trkpt lat="47.99472" lon="6.64947">
        <ele>575.97</ele>
        <time>2013-05-20T07:00:34Z</time>
      </trkpt>
      <trkpt lat="47.99457" lon="6.6493">
        <ele>577.89</ele>
        <time>2013-05-20T07:00:47Z</time>
      </trkpt>
      <trkpt lat="47.99442" lon="6.64907">
        <ele>580.29</ele>
        <time>2013-05-20T07:00:59Z</time>
      </trkpt>
      <trkpt lat="47.9944" lon="6.64906">
        <ele>580.77</ele>
        <time>2013-05-20T07:01:00Z</time>
      </trkpt>
      <trkpt lat="47.99422" lon="6.64883">
        <ele>583.66</ele>
        <time>2013-05-20T07:01:14Z</time>
      </trkpt>
      <trkpt lat="47.99415" lon="6.64855">
        <ele>585.1</ele>
        <time>2013-05-20T07:01:26Z</time>
      </trkpt>
      <trkpt lat="47.99408" lon="6.64838">
        <ele>586.06</ele>
        <time>2013-05-20T07:01:33Z</time>
      </trkpt>
      <trkpt lat="47.99395" lon="6.64812">
        <ele>588.46</ele>
        <time>2013-05-20T07:01:45Z</time>
      </trkpt>
      <trkpt lat="47.99378" lon="6.6479">
        <ele>589.91</ele>
        <time>2013-05-20T07:01:59Z</time>
      </trkpt>
      <trkpt lat="47.99362" lon="6.64767">
        <ele>591.83</ele>
        <time>2013-05-20T07:02:10Z</time>
      </trkpt>
      <trkpt lat="47.99361" lon="6.64766">
        <ele>592.79</ele>
        <time>2013-05-20T07:02:11Z</time>
      </trkpt>
      <trkpt lat="47.99335" lon="6.64751">
        <ele>595.19</ele>
        <time>2013-05-20T07:02:24Z</time>
      </trkpt>
      <trkpt lat="47.99322" lon="6.64735">
        <ele>597.12</ele>
        <time>2013-05-20T07:02:32Z</time>
      </trkpt>
      <trkpt lat="47.9932" lon="6.64734">
        <ele>597.12</ele>
        <time>2013-05-20T07:02:33Z</time>
      </trkpt>
      <trkpt lat="47.99299" lon="6.6471">
        <ele>599.52</ele>
        <time>2013-05-20T07:02:45Z</time>
      </trkpt>
      <trkpt lat="47.99297" lon="6.64709">
        <ele>599.04</ele>
        <time>2013-05-20T07:02:46Z</time>
      </trkpt>
      <trkpt lat="47.9928" lon="6.647">
        <ele>600</ele>
        <time>2013-05-20T07:02:54Z</time>
      </trkpt>
      <trkpt lat="47.99279" lon="6.64699">
        <ele>600.48</ele>
        <time>2013-05-20T07:02:55Z</time>
      </trkpt>
      <trkpt lat="47.99277" lon="6.64699">
        <ele>600.96</ele>
        <time>2013-05-20T07:02:56Z</time>
      </trkpt>
      <trkpt lat="47.99276" lon="6.64698">
        <ele>601.44</ele>
        <time>2013-05-20T07:02:57Z</time>
      </trkpt>
      <trkpt lat="47.99275" lon="6.64697">
        <ele>601.44</ele>
        <time>2013-05-20T07:02:58Z</time>
      </trkpt>
      <trkpt lat="47.99274" lon="6.64696">
        <ele>601.44</ele>
        <time>2013-05-20T07:02:59Z</time>
      </trkpt>
      <trkpt lat="47.99272" lon="6.64696">
        <ele>601.92</ele>
        <time>2013-05-20T07:03:00Z</time>
      </trkpt>
      <trkpt lat="47.99271" lon="6.64695">
        <ele>601.92</ele>
        <time>2013-05-20T07:03:01Z</time>
      </trkpt>
      <trkpt lat="47.99269" lon="6.64695">
        <ele>602.4</ele>
        <time>2013-05-20T07:03:02Z</time>
      </trkpt>
      <trkpt lat="47.9924" lon="6.64692">
        <ele>603.36</ele>
        <time>2013-05-20T07:03:14Z</time>
      </trkpt>
      <trkpt lat="47.99216" lon="6.64687">
        <ele>606.25</ele>
        <time>2013-05-20T07:03:27Z</time>
      </trkpt>
      <trkpt lat="47.99191" lon="6.64678">
        <ele>608.17</ele>
        <time>2013-05-20T07:03:40Z</time>
      </trkpt>
      <trkpt lat="47.99164" lon="6.64672">
        <ele>610.09</ele>
        <time>2013-05-20T07:03:56Z</time>
      </trkpt>
      <trkpt lat="47.99142" lon="6.64645">
        <ele>610.57</ele>
        <time>2013-05-20T07:04:11Z</time>
      </trkpt>
      <trkpt lat="47.99142" lon="6.64642">
        <ele>610.57</ele>
        <time>2013-05-20T07:04:12Z</time>
      </trkpt>
      <trkpt lat="47.99141" lon="6.64639">
        <ele>610.57</ele>
        <time>2013-05-20T07:04:13Z</time>
      </trkpt>
      <trkpt lat="47.99141" lon="6.64636">
        <ele>610.57</ele>
        <time>2013-05-20T07:04:14Z</time>
      </trkpt>
      <trkpt lat="47.9914" lon="6.64633">
        <ele>610.57</ele>
        <time>2013-05-20T07:04:15Z</time>
      </trkpt>
      <trkpt lat="47.9914" lon="6.64631">
        <ele>611.06</ele>
        <time>2013-05-20T07:04:16Z</time>
      </trkpt>
      <trkpt lat="47.99138" lon="6.64625">
        <ele>611.06</ele>
        <time>2013-05-20T07:04:18Z</time>
      </trkpt>
      <trkpt lat="47.99137" lon="6.64621">
        <ele>611.54</ele>
        <time>2013-05-20T07:04:19Z</time>
      </trkpt>
      <trkpt lat="47.99136" lon="6.64618">
        <ele>611.06</ele>
        <time>2013-05-20T07:04:20Z</time>
      </trkpt>
      <trkpt lat="47.99135" lon="6.64615">
        <ele>611.06</ele>
        <time>2013-05-20T07:04:21Z</time>
      </trkpt>
      <trkpt lat="47.99134" lon="6.64612">
        <ele>611.06</ele>
        <time>2013-05-20T07:04:22Z</time>
      </trkpt>
      <trkpt lat="47.99124" lon="6.64575">
        <ele>612.02</ele>
        <time>2013-05-20T07:04:35Z</time>
      </trkpt>
      <trkpt lat="47.99117" lon="6.64542">
        <ele>612.5</ele>
        <time>2013-05-20T07:04:47Z</time>
      </trkpt>
      <trkpt lat="47.9912" lon="6.64497">
        <ele>612.5</ele>
        <time>2013-05-20T07:04:58Z</time>
      </trkpt>
      <trkpt lat="47.99123" lon="6.64453">
        <ele>614.9</ele>
        <time>2013-05-20T07:05:10Z</time>
      </trkpt>
      <trkpt lat="47.99126" lon="6.64401">
        <ele>615.86</ele>
        <time>2013-05-20T07:05:25Z</time>
      </trkpt>
      <trkpt lat="47.99123" lon="6.64389">
        <ele>616.34</ele>
        <time>2013-05-20T07:05:29Z</time>
      </trkpt>
      <trkpt lat="47.99098" lon="6.64387">
        <ele>618.26</ele>
        <time>2013-05-20T07:05:40Z</time>
      </trkpt>
      <trkpt lat="47.99089" lon="6.64397">
        <ele>618.26</ele>
        <time>2013-05-20T07:05:45Z</time>
      </trkpt>
      <trkpt lat="47.99072" lon="6.64416">
        <ele>619.23</ele>
        <time>2013-05-20T07:05:56Z</time>
      </trkpt>
      <trkpt lat="47.9905" lon="6.64446">
        <ele>622.11</ele>
        <time>2013-05-20T07:06:10Z</time>
      </trkpt>
      <trkpt lat="47.99044" lon="6.64455">
        <ele>623.07</ele>
        <time>2013-05-20T07:06:15Z</time>
      </trkpt>
      <trkpt lat="47.99042" lon="6.64458">
        <ele>623.07</ele>
        <time>2013-05-20T07:06:16Z</time>
      </trkpt>
      <trkpt lat="47.99041" lon="6.64461">
        <ele>623.07</ele>
        <time>2013-05-20T07:06:17Z</time>
      </trkpt>
      <trkpt lat="47.99039" lon="6.64464">
        <ele>623.55</ele>
        <time>2013-05-20T07:06:18Z</time>
      </trkpt>
      <trkpt lat="47.99038" lon="6.64467">
        <ele>623.55</ele>
        <time>2013-05-20T07:06:19Z</time>
      </trkpt>
      <trkpt lat="47.99037" lon="6.64471">
        <ele>624.03</ele>
        <time>2013-05-20T07:06:20Z</time>
      </trkpt>
      <trkpt lat="47.99036" lon="6.64474">
        <ele>624.51</ele>
        <time>2013-05-20T07:06:21Z</time>
      </trkpt>
      <trkpt lat="47.99035" lon="6.64477">
        <ele>624.51</ele>
        <time>2013-05-20T07:06:22Z</time>
      </trkpt>
      <trkpt lat="47.99033" lon="6.6448">
        <ele>624.51</ele>
        <time>2013-05-20T07:06:23Z</time>
      </trkpt>
      <trkpt lat="47.99032" lon="6.64482">
        <ele>624.99</ele>
        <time>2013-05-20T07:06:24Z</time>
      </trkpt>
      <trkpt lat="47.99031" lon="6.64486">
        <ele>624.99</ele>
        <time>2013-05-20T07:06:25Z</time>
      </trkpt>
      <trkpt lat="47.9903" lon="6.64489">
        <ele>625.47</ele>
        <time>2013-05-20T07:06:26Z</time>
      </trkpt>
      <trkpt lat="47.99029" lon="6.64492">
        <ele>624.99</ele>
        <time>2013-05-20T07:06:27Z</time>
      </trkpt>
      <trkpt lat="47.99027" lon="6.64495">
        <ele>625.47</ele>
        <time>2013-05-20T07:06:28Z</time>
      </trkpt>
      <trkpt lat="47.99026" lon="6.64497">
        <ele>625.96</ele>
        <time>2013-05-20T07:06:29Z</time>
      </trkpt>
      <trkpt lat="47.99024" lon="6.645">
        <ele>625.96</ele>
        <time>2013-05-20T07:06:30Z</time>
      </trkpt>
      <trkpt lat="47.99023" lon="6.64502">
        <ele>625.96</ele>
        <time>2013-05-20T07:06:31Z</time>
      </trkpt>
      <trkpt lat="47.99003" lon="6.64526">
        <ele>628.36</ele>
        <time>2013-05-20T07:06:44Z</time>
      </trkpt>
      <trkpt lat="47.98982" lon="6.64559">
        <ele>631.72</ele>
        <time>2013-05-20T07:07:00Z</time>
      </trkpt>
      <trkpt lat="47.9896" lon="6.64582">
        <ele>633.17</ele>
        <time>2013-05-20T07:07:14Z</time>
      </trkpt>
      <trkpt lat="47.98948" lon="6.64588">
        <ele>633.17</ele>
        <time>2013-05-20T07:07:21Z</time>
      </trkpt>
      <trkpt lat="47.98928" lon="6.64604">
        <ele>637.01</ele>
        <time>2013-05-20T07:07:33Z</time>
      </trkpt>
      <trkpt lat="47.98904" lon="6.64624">
        <ele>638.45</ele>
        <time>2013-05-20T07:07:47Z</time>
      </trkpt>
      <trkpt lat="47.98891" lon="6.64633">
        <ele>639.89</ele>
        <time>2013-05-20T07:07:55Z</time>
      </trkpt>
      <trkpt lat="47.98868" lon="6.6465">
        <ele>641.82</ele>
        <time>2013-05-20T07:08:08Z</time>
      </trkpt>
      <trkpt lat="47.98842" lon="6.64668">
        <ele>644.7</ele>
        <time>2013-05-20T07:08:23Z</time>
      </trkpt>
      <trkpt lat="47.98815" lon="6.64685">
        <ele>645.66</ele>
        <time>2013-05-20T07:08:38Z</time>
      </trkpt>
      <trkpt lat="47.98795" lon="6.64701">
        <ele>648.55</ele>
        <time>2013-05-20T07:08:49Z</time>
      </trkpt>
      <trkpt lat="47.98766" lon="6.64728">
        <ele>649.99</ele>
        <time>2013-05-20T07:09:03Z</time>
      </trkpt>
      <trkpt lat="47.98744" lon="6.64747">
        <ele>651.43</ele>
        <time>2013-05-20T07:09:12Z</time>
      </trkpt>
      <trkpt lat="47.98743" lon="6.64749">
        <ele>651.91</ele>
        <time>2013-05-20T07:09:13Z</time>
      </trkpt>
      <trkpt lat="47.98741" lon="6.64749">
        <ele>651.91</ele>
        <time>2013-05-20T07:09:14Z</time>
      </trkpt>
      <trkpt lat="47.98739" lon="6.64748">
        <ele>651.43</ele>
        <time>2013-05-20T07:09:15Z</time>
      </trkpt>
      <trkpt lat="47.98737" lon="6.64747">
        <ele>652.39</ele>
        <time>2013-05-20T07:09:16Z</time>
      </trkpt>
      <trkpt lat="47.98735" lon="6.64745">
        <ele>651.43</ele>
        <time>2013-05-20T07:09:17Z</time>
      </trkpt>
      <trkpt lat="47.98734" lon="6.64743">
        <ele>651.91</ele>
        <time>2013-05-20T07:09:18Z</time>
      </trkpt>
      <trkpt lat="47.98734" lon="6.6474">
        <ele>651.43</ele>
        <time>2013-05-20T07:09:19Z</time>
      </trkpt>
      <trkpt lat="47.98733" lon="6.64736">
        <ele>650.95</ele>
        <time>2013-05-20T07:09:20Z</time>
      </trkpt>
      <trkpt lat="47.98733" lon="6.64732">
        <ele>650.95</ele>
        <time>2013-05-20T07:09:21Z</time>
      </trkpt>
      <trkpt lat="47.98734" lon="6.64728">
        <ele>650.47</ele>
        <time>2013-05-20T07:09:22Z</time>
      </trkpt>
      <trkpt lat="47.9874" lon="6.64705">
        <ele>649.99</ele>
        <time>2013-05-20T07:09:27Z</time>
      </trkpt>
      <trkpt lat="47.98742" lon="6.64698">
        <ele>649.03</ele>
        <time>2013-05-20T07:09:28Z</time>
      </trkpt>
      <trkpt lat="47.98745" lon="6.64691">
        <ele>648.55</ele>
        <time>2013-05-20T07:09:29Z</time>
      </trkpt>
      <trkpt lat="47.9875" lon="6.64677">
        <ele>648.55</ele>
        <time>2013-05-20T07:09:31Z</time>
      </trkpt>
      <trkpt lat="47.98752" lon="6.6467">
        <ele>648.07</ele>
        <time>2013-05-20T07:09:32Z</time>
      </trkpt>
      <trkpt lat="47.98753" lon="6.64662">
        <ele>647.1</ele>
        <time>2013-05-20T07:09:33Z</time>
      </trkpt>
      <trkpt lat="47.98753" lon="6.64654">
        <ele>646.14</ele>
        <time>2013-05-20T07:09:34Z</time>
      </trkpt>
      <trkpt lat="47.9875" lon="6.64646">
        <ele>645.18</ele>
        <time>2013-05-20T07:09:35Z</time>
      </trkpt>
      <trkpt lat="47.98746" lon="6.6464">
        <ele>644.22</ele>
        <time>2013-05-20T07:09:36Z</time>
      </trkpt>
      <trkpt lat="47.98737" lon="6.64631">
        <ele>641.82</ele>
        <time>2013-05-20T07:09:38Z</time>
      </trkpt>
      <trkpt lat="47.98718" lon="6.6462">
        <ele>637.97</ele>
        <time>2013-05-20T07:09:41Z</time>
      </trkpt>
      <trkpt lat="47.98695" lon="6.64614">
        <ele>634.13</ele>
        <time>2013-05-20T07:09:44Z</time>
      </trkpt>
      <trkpt lat="47.98676" lon="6.64611">
        <ele>630.76</ele>
        <time>2013-05-20T07:09:47Z</time>
      </trkpt>
      <trkpt lat="47.98656" lon="6.64609">
        <ele>625.96</ele>
        <time>2013-05-20T07:09:50Z</time>
      </trkpt>
      <trkpt lat="47.98638" lon="6.64608">
        <ele>624.03</ele>
        <time>2013-05-20T07:09:53Z</time>
      </trkpt>
      <trkpt lat="47.98632" lon="6.64608">
        <ele>622.59</ele>
        <time>2013-05-20T07:09:54Z</time>
      </trkpt>
      <trkpt lat="47.98621" lon="6.6461">
        <ele>619.71</ele>
        <time>2013-05-20T07:09:56Z</time>
      </trkpt>
      <trkpt lat="47.98616" lon="6.64612">
        <ele>619.71</ele>
        <time>2013-05-20T07:09:57Z</time>
      </trkpt>
      <trkpt lat="47.98604" lon="6.64615">
        <ele>618.26</ele>
        <time>2013-05-20T07:09:59Z</time>
      </trkpt>
      <trkpt lat="47.9859" lon="6.6462">
        <ele>614.9</ele>
        <time>2013-05-20T07:10:01Z</time>
      </trkpt>
      <trkpt lat="47.98576" lon="6.64628">
        <ele>612.02</ele>
        <time>2013-05-20T07:10:03Z</time>
      </trkpt>
      <trkpt lat="47.98557" lon="6.64635">
        <ele>607.69</ele>
        <time>2013-05-20T07:10:06Z</time>
      </trkpt>
      <trkpt lat="47.98551" lon="6.64638">
        <ele>606.25</ele>
        <time>2013-05-20T07:10:07Z</time>
      </trkpt>
      <trkpt lat="47.98526" lon="6.64648">
        <ele>601.92</ele>
        <time>2013-05-20T07:10:11Z</time>
      </trkpt>
      <trkpt lat="47.98513" lon="6.64655">
        <ele>599.52</ele>
        <time>2013-05-20T07:10:13Z</time>
      </trkpt>
      <trkpt lat="47.98496" lon="6.64667">
        <ele>594.71</ele>
        <time>2013-05-20T07:10:16Z</time>
      </trkpt>
      <trkpt lat="47.98481" lon="6.6468">
        <ele>591.35</ele>
        <time>2013-05-20T07:10:19Z</time>
      </trkpt>
      <trkpt lat="47.98468" lon="6.6469">
        <ele>588.46</ele>
        <time>2013-05-20T07:10:22Z</time>
      </trkpt>
      <trkpt lat="47.98464" lon="6.64696">
        <ele>587.5</ele>
        <time>2013-05-20T07:10:24Z</time>
      </trkpt>
      <trkpt lat="47.98461" lon="6.64707">
        <ele>588.46</ele>
        <time>2013-05-20T07:10:29Z</time>
      </trkpt>
      <trkpt lat="47.98453" lon="6.64722">
        <ele>591.83</ele>
        <time>2013-05-20T07:10:37Z</time>
      </trkpt>
      <trkpt lat="47.98445" lon="6.64739">
        <ele>593.27</ele>
        <time>2013-05-20T07:10:46Z</time>
      </trkpt>
      <trkpt lat="47.98445" lon="6.64745">
        <ele>593.75</ele>
        <time>2013-05-20T07:10:48Z</time>
      </trkpt>
      <trkpt lat="47.98444" lon="6.64749">
        <ele>593.27</ele>
        <time>2013-05-20T07:10:49Z</time>
      </trkpt>
      <trkpt lat="47.98443" lon="6.64752">
        <ele>593.27</ele>
        <time>2013-05-20T07:10:50Z</time>
      </trkpt>
      <trkpt lat="47.98441" lon="6.64755">
        <ele>593.27</ele>
        <time>2013-05-20T07:10:51Z</time>
      </trkpt>
      <trkpt lat="47.98439" lon="6.64759">
        <ele>594.23</ele>
        <time>2013-05-20T07:10:52Z</time>
      </trkpt>
      <trkpt lat="47.98431" lon="6.64778">
        <ele>592.31</ele>
        <time>2013-05-20T07:10:55Z</time>
      </trkpt>
      <trkpt lat="47.98428" lon="6.64785">
        <ele>592.31</ele>
        <time>2013-05-20T07:10:56Z</time>
      </trkpt>
      <trkpt lat="47.98426" lon="6.64792">
        <ele>591.83</ele>
        <time>2013-05-20T07:10:57Z</time>
      </trkpt>
      <trkpt lat="47.98414" lon="6.64834">
        <ele>589.91</ele>
        <time>2013-05-20T07:11:05Z</time>
      </trkpt>
      <trkpt lat="47.98396" lon="6.64882">
        <ele>592.79</ele>
        <time>2013-05-20T07:11:18Z</time>
      </trkpt>
      <trkpt lat="47.98388" lon="6.64918">
        <ele>591.83</ele>
        <time>2013-05-20T07:11:26Z</time>
      </trkpt>
      <trkpt lat="47.98384" lon="6.64938">
        <ele>594.23</ele>
        <time>2013-05-20T07:11:33Z</time>
      </trkpt>
      <trkpt lat="47.98382" lon="6.64949">
        <ele>594.23</ele>
        <time>2013-05-20T07:11:37Z</time>
      </trkpt>
      <trkpt lat="47.98382" lon="6.64953">
        <ele>594.71</ele>
        <time>2013-05-20T07:11:38Z</time>
      </trkpt>
      <trkpt lat="47.98381" lon="6.64956">
        <ele>595.19</ele>
        <time>2013-05-20T07:11:39Z</time>
      </trkpt>
      <trkpt lat="47.98381" lon="6.64959">
        <ele>595.67</ele>
        <time>2013-05-20T07:11:40Z</time>
      </trkpt>
      <trkpt lat="47.9838" lon="6.64962">
        <ele>595.19</ele>
        <time>2013-05-20T07:11:41Z</time>
      </trkpt>
      <trkpt lat="47.9838" lon="6.64965">
        <ele>595.67</ele>
        <time>2013-05-20T07:11:42Z</time>
      </trkpt>
      <trkpt lat="47.98379" lon="6.64969">
        <ele>595.67</ele>
        <time>2013-05-20T07:11:43Z</time>
      </trkpt>
      <trkpt lat="47.98379" lon="6.64972">
        <ele>595.19</ele>
        <time>2013-05-20T07:11:44Z</time>
      </trkpt>
      <trkpt lat="47.98356" lon="6.65016">
        <ele>595.67</ele>
        <time>2013-05-20T07:12:00Z</time>
      </trkpt>
      <trkpt lat="47.98336" lon="6.65031">
        <ele>595.19</ele>
        <time>2013-05-20T07:12:08Z</time>
      </trkpt>
      <trkpt lat="47.98326" lon="6.65049">
        <ele>595.67</ele>
        <time>2013-05-20T07:12:15Z</time>
      </trkpt>
      <trkpt lat="47.98326" lon="6.65052">
        <ele>596.15</ele>
        <time>2013-05-20T07:12:16Z</time>
      </trkpt>
      <trkpt lat="47.98325" lon="6.65055">
        <ele>596.64</ele>
        <time>2013-05-20T07:12:17Z</time>
      </trkpt>
      <trkpt lat="47.98322" lon="6.65078">
        <ele>598.56</ele>
        <time>2013-05-20T07:12:28Z</time>
      </trkpt>
      <trkpt lat="47.98311" lon="6.65101">
        <ele>600</ele>
        <time>2013-05-20T07:12:34Z</time>
      </trkpt>
      <trkpt lat="47.98309" lon="6.65105">
        <ele>600.48</ele>
        <time>2013-05-20T07:12:35Z</time>
      </trkpt>
      <trkpt lat="47.98309" lon="6.65108">
        <ele>600.48</ele>
        <time>2013-05-20T07:12:36Z</time>
      </trkpt>
      <trkpt lat="47.98292" lon="6.65145">
        <ele>601.92</ele>
        <time>2013-05-20T07:12:48Z</time>
      </trkpt>
      <trkpt lat="47.9828" lon="6.65186">
        <ele>601.44</ele>
        <time>2013-05-20T07:12:58Z</time>
      </trkpt>
      <trkpt lat="47.98269" lon="6.65241">
        <ele>601.92</ele>
        <time>2013-05-20T07:13:10Z</time>
      </trkpt>
      <trkpt lat="47.98268" lon="6.65283">
        <ele>603.85</ele>
        <time>2013-05-20T07:13:20Z</time>
      </trkpt>
      <trkpt lat="47.98282" lon="6.65333">
        <ele>607.69</ele>
        <time>2013-05-20T07:13:32Z</time>
      </trkpt>
      <trkpt lat="47.98288" lon="6.65345">
        <ele>608.65</ele>
        <time>2013-05-20T07:13:36Z</time>
      </trkpt>
      <trkpt lat="47.9829" lon="6.65347">
        <ele>608.65</ele>
        <time>2013-05-20T07:13:37Z</time>
      </trkpt>
      <trkpt lat="47.98291" lon="6.65351">
        <ele>609.13</ele>
        <time>2013-05-20T07:13:38Z</time>
      </trkpt>
      <trkpt lat="47.98292" lon="6.65354">
        <ele>609.13</ele>
        <time>2013-05-20T07:13:39Z</time>
      </trkpt>
      <trkpt lat="47.98294" lon="6.65357">
        <ele>608.17</ele>
        <time>2013-05-20T07:13:40Z</time>
      </trkpt>
      <trkpt lat="47.98297" lon="6.65379">
        <ele>608.17</ele>
        <time>2013-05-20T07:13:47Z</time>
      </trkpt>
      <trkpt lat="47.98297" lon="6.65381">
        <ele>608.65</ele>
        <time>2013-05-20T07:13:48Z</time>
      </trkpt>
      <trkpt lat="47.98297" lon="6.65383">
        <ele>608.65</ele>
        <time>2013-05-20T07:13:49Z</time>
      </trkpt>
      <trkpt lat="47.98297" lon="6.65386">
        <ele>608.65</ele>
        <time>2013-05-20T07:13:50Z</time>
      </trkpt>
      <trkpt lat="47.98298" lon="6.65389">
        <ele>609.13</ele>
        <time>2013-05-20T07:13:51Z</time>
      </trkpt>
      <trkpt lat="47.98298" lon="6.65392">
        <ele>609.13</ele>
        <time>2013-05-20T07:13:52Z</time>
      </trkpt>
      <trkpt lat="47.98299" lon="6.65394">
        <ele>609.61</ele>
        <time>2013-05-20T07:13:53Z</time>
      </trkpt>
      <trkpt lat="47.98299" lon="6.65396">
        <ele>609.61</ele>
        <time>2013-05-20T07:13:54Z</time>
      </trkpt>
      <trkpt lat="47.98299" lon="6.65398">
        <ele>611.06</ele>
        <time>2013-05-20T07:13:55Z</time>
      </trkpt>
      <trkpt lat="47.98299" lon="6.65399">
        <ele>611.06</ele>
        <time>2013-05-20T07:13:56Z</time>
      </trkpt>
      <trkpt lat="47.98305" lon="6.65431">
        <ele>612.98</ele>
        <time>2013-05-20T07:14:09Z</time>
      </trkpt>
      <trkpt lat="47.9831" lon="6.65471">
        <ele>614.42</ele>
        <time>2013-05-20T07:14:22Z</time>
      </trkpt>
      <trkpt lat="47.98307" lon="6.65507">
        <ele>615.86</ele>
        <time>2013-05-20T07:14:34Z</time>
      </trkpt>
      <trkpt lat="47.983" lon="6.65529">
        <ele>618.26</ele>
        <time>2013-05-20T07:14:42Z</time>
      </trkpt>
      <trkpt lat="47.9829" lon="6.6557">
        <ele>620.19</ele>
        <time>2013-05-20T07:14:57Z</time>
      </trkpt>
      <trkpt lat="47.98289" lon="6.65587">
        <ele>621.15</ele>
        <time>2013-05-20T07:15:03Z</time>
      </trkpt>
      <trkpt lat="47.9829" lon="6.6559">
        <ele>621.15</ele>
        <time>2013-05-20T07:15:04Z</time>
      </trkpt>
      <trkpt lat="47.98291" lon="6.65593">
        <ele>621.63</ele>
        <time>2013-05-20T07:15:05Z</time>
      </trkpt>
      <trkpt lat="47.98291" lon="6.65597">
        <ele>621.63</ele>
        <time>2013-05-20T07:15:06Z</time>
      </trkpt>
      <trkpt lat="47.98292" lon="6.656">
        <ele>621.15</ele>
        <time>2013-05-20T07:15:07Z</time>
      </trkpt>
      <trkpt lat="47.98301" lon="6.65635">
        <ele>621.15</ele>
        <time>2013-05-20T07:15:19Z</time>
      </trkpt>
      <trkpt lat="47.98307" lon="6.65661">
        <ele>622.11</ele>
        <time>2013-05-20T07:15:27Z</time>
      </trkpt>
      <trkpt lat="47.98307" lon="6.65664">
        <ele>622.11</ele>
        <time>2013-05-20T07:15:28Z</time>
      </trkpt>
      <trkpt lat="47.98308" lon="6.65667">
        <ele>622.11</ele>
        <time>2013-05-20T07:15:29Z</time>
      </trkpt>
      <trkpt lat="47.98308" lon="6.65669">
        <ele>622.11</ele>
        <time>2013-05-20T07:15:30Z</time>
      </trkpt>
      <trkpt lat="47.98311" lon="6.65716">
        <ele>624.51</ele>
        <time>2013-05-20T07:15:43Z</time>
      </trkpt>
      <trkpt lat="47.98315" lon="6.6577">
        <ele>624.99</ele>
        <time>2013-05-20T07:15:58Z</time>
      </trkpt>
      <trkpt lat="47.98313" lon="6.65814">
        <ele>624.99</ele>
        <time>2013-05-20T07:16:11Z</time>
      </trkpt>
      <trkpt lat="47.9832" lon="6.65865">
        <ele>624.51</ele>
        <time>2013-05-20T07:16:21Z</time>
      </trkpt>
      <trkpt lat="47.98321" lon="6.65919">
        <ele>625.96</ele>
        <time>2013-05-20T07:16:32Z</time>
      </trkpt>
      <trkpt lat="47.98319" lon="6.65943">
        <ele>627.4</ele>
        <time>2013-05-20T07:16:38Z</time>
      </trkpt>
      <trkpt lat="47.98313" lon="6.6598">
        <ele>620.67</ele>
        <time>2013-05-20T07:16:47Z</time>
      </trkpt>
      <trkpt lat="47.98312" lon="6.65984">
        <ele>633.17</ele>
        <time>2013-05-20T07:16:48Z</time>
      </trkpt>
      <trkpt lat="47.98312" lon="6.65987">
        <ele>627.88</ele>
        <time>2013-05-20T07:16:49Z</time>
      </trkpt>
      <trkpt lat="47.9831" lon="6.66034">
        <ele>628.36</ele>
        <time>2013-05-20T07:17:01Z</time>
      </trkpt>
      <trkpt lat="47.98315" lon="6.66084">
        <ele>627.88</ele>
        <time>2013-05-20T07:17:13Z</time>
      </trkpt>
      <trkpt lat="47.98321" lon="6.66136">
        <ele>628.84</ele>
        <time>2013-05-20T07:17:30Z</time>
      </trkpt>
      <trkpt lat="47.98323" lon="6.66164">
        <ele>630.28</ele>
        <time>2013-05-20T07:17:40Z</time>
      </trkpt>
      <trkpt lat="47.98323" lon="6.66166">
        <ele>629.8</ele>
        <time>2013-05-20T07:17:41Z</time>
      </trkpt>
      <trkpt lat="47.98323" lon="6.66169">
        <ele>629.8</ele>
        <time>2013-05-20T07:17:42Z</time>
      </trkpt>
      <trkpt lat="47.98323" lon="6.66172">
        <ele>629.32</ele>
        <time>2013-05-20T07:17:43Z</time>
      </trkpt>
      <trkpt lat="47.98322" lon="6.66175">
        <ele>629.8</ele>
        <time>2013-05-20T07:17:44Z</time>
      </trkpt>
      <trkpt lat="47.98322" lon="6.66178">
        <ele>629.8</ele>
        <time>2013-05-20T07:17:45Z</time>
      </trkpt>
      <trkpt lat="47.98317" lon="6.66215">
        <ele>631.24</ele>
        <time>2013-05-20T07:17:58Z</time>
      </trkpt>
      <trkpt lat="47.98317" lon="6.66222">
        <ele>632.2</ele>
        <time>2013-05-20T07:18:01Z</time>
      </trkpt>
      <trkpt lat="47.98318" lon="6.66224">
        <ele>631.72</ele>
        <time>2013-05-20T07:18:02Z</time>
      </trkpt>
      <trkpt lat="47.98318" lon="6.66227">
        <ele>631.72</ele>
        <time>2013-05-20T07:18:03Z</time>
      </trkpt>
      <trkpt lat="47.98319" lon="6.66229">
        <ele>632.2</ele>
        <time>2013-05-20T07:18:04Z</time>
      </trkpt>
      <trkpt lat="47.9832" lon="6.66231">
        <ele>632.2</ele>
        <time>2013-05-20T07:18:05Z</time>
      </trkpt>
      <trkpt lat="47.98323" lon="6.66236">
        <ele>632.68</ele>
        <time>2013-05-20T07:18:07Z</time>
      </trkpt>
      <trkpt lat="47.98327" lon="6.66247">
        <ele>633.17</ele>
        <time>2013-05-20T07:18:11Z</time>
      </trkpt>
      <trkpt lat="47.98334" lon="6.6626">
        <ele>634.61</ele>
        <time>2013-05-20T07:18:18Z</time>
      </trkpt>
      <trkpt lat="47.9836" lon="6.66291">
        <ele>637.01</ele>
        <time>2013-05-20T07:18:33Z</time>
      </trkpt>
      <trkpt lat="47.98361" lon="6.66293">
        <ele>637.01</ele>
        <time>2013-05-20T07:18:34Z</time>
      </trkpt>
      <trkpt lat="47.98362" lon="6.66297">
        <ele>637.97</ele>
        <time>2013-05-20T07:18:36Z</time>
      </trkpt>
      <trkpt lat="47.98348" lon="6.66312">
        <ele>638.93</ele>
        <time>2013-05-20T07:18:47Z</time>
      </trkpt>
      <trkpt lat="47.9833" lon="6.66323">
        <ele>641.82</ele>
        <time>2013-05-20T07:18:58Z</time>
      </trkpt>
      <trkpt lat="47.98319" lon="6.66332">
        <ele>643.26</ele>
        <time>2013-05-20T07:19:06Z</time>
      </trkpt>
      <trkpt lat="47.98291" lon="6.66351">
        <ele>646.14</ele>
        <time>2013-05-20T07:19:22Z</time>
      </trkpt>
      <trkpt lat="47.9827" lon="6.66375">
        <ele>649.03</ele>
        <time>2013-05-20T07:19:35Z</time>
      </trkpt>
      <trkpt lat="47.98259" lon="6.66394">
        <ele>649.99</ele>
        <time>2013-05-20T07:19:43Z</time>
      </trkpt>
      <trkpt lat="47.98238" lon="6.66413">
        <ele>650.47</ele>
        <time>2013-05-20T07:19:55Z</time>
      </trkpt>
      <trkpt lat="47.9822" lon="6.66448">
        <ele>653.35</ele>
        <time>2013-05-20T07:20:09Z</time>
      </trkpt>
      <trkpt lat="47.98215" lon="6.66461">
        <ele>654.8</ele>
        <time>2013-05-20T07:20:14Z</time>
      </trkpt>
      <trkpt lat="47.98202" lon="6.66482">
        <ele>656.24</ele>
        <time>2013-05-20T07:20:24Z</time>
      </trkpt>
      <trkpt lat="47.98185" lon="6.6651">
        <ele>657.2</ele>
        <time>2013-05-20T07:20:34Z</time>
      </trkpt>
      <trkpt lat="47.98184" lon="6.66515">
        <ele>657.2</ele>
        <time>2013-05-20T07:20:35Z</time>
      </trkpt>
      <trkpt lat="47.98184" lon="6.6652">
        <ele>657.2</ele>
        <time>2013-05-20T07:20:36Z</time>
      </trkpt>
      <trkpt lat="47.98185" lon="6.66524">
        <ele>657.2</ele>
        <time>2013-05-20T07:20:37Z</time>
      </trkpt>
      <trkpt lat="47.98185" lon="6.66528">
        <ele>657.68</ele>
        <time>2013-05-20T07:20:38Z</time>
      </trkpt>
      <trkpt lat="47.98186" lon="6.66532">
        <ele>657.2</ele>
        <time>2013-05-20T07:20:39Z</time>
      </trkpt>
      <trkpt lat="47.98186" lon="6.66536">
        <ele>657.2</ele>
        <time>2013-05-20T07:20:40Z</time>
      </trkpt>
      <trkpt lat="47.98187" lon="6.6654">
        <ele>657.2</ele>
        <time>2013-05-20T07:20:41Z</time>
      </trkpt>
      <trkpt lat="47.98187" lon="6.66543">
        <ele>657.2</ele>
        <time>2013-05-20T07:20:42Z</time>
      </trkpt>
      <trkpt lat="47.98193" lon="6.66589">
        <ele>656.72</ele>
        <time>2013-05-20T07:20:55Z</time>
      </trkpt>
      <trkpt lat="47.98191" lon="6.66596">
        <ele>656.72</ele>
        <time>2013-05-20T07:20:58Z</time>
      </trkpt>
      <trkpt lat="47.9819" lon="6.66599">
        <ele>657.2</ele>
        <time>2013-05-20T07:20:59Z</time>
      </trkpt>
      <trkpt lat="47.98189" lon="6.66602">
        <ele>657.2</ele>
        <time>2013-05-20T07:21:00Z</time>
      </trkpt>
      <trkpt lat="47.98189" lon="6.66605">
        <ele>657.68</ele>
        <time>2013-05-20T07:21:01Z</time>
      </trkpt>
      <trkpt lat="47.98188" lon="6.66607">
        <ele>657.2</ele>
        <time>2013-05-20T07:21:02Z</time>
      </trkpt>
      <trkpt lat="47.98187" lon="6.6661">
        <ele>657.68</ele>
        <time>2013-05-20T07:21:03Z</time>
      </trkpt>
      <trkpt lat="47.98186" lon="6.66612">
        <ele>657.68</ele>
        <time>2013-05-20T07:21:04Z</time>
      </trkpt>
      <trkpt lat="47.98186" lon="6.66615">
        <ele>657.2</ele>
        <time>2013-05-20T07:21:05Z</time>
      </trkpt>
      <trkpt lat="47.98173" lon="6.66657">
        <ele>658.16</ele>
        <time>2013-05-20T07:21:18Z</time>
      </trkpt>
      <trkpt lat="47.98166" lon="6.66702">
        <ele>661.52</ele>
        <time>2013-05-20T07:21:31Z</time>
      </trkpt>
      <trkpt lat="47.98156" lon="6.66752">
        <ele>662.97</ele>
        <time>2013-05-20T07:21:46Z</time>
      </trkpt>
      <trkpt lat="47.98144" lon="6.66793">
        <ele>664.41</ele>
        <time>2013-05-20T07:21:59Z</time>
      </trkpt>
      <trkpt lat="47.98138" lon="6.66814">
        <ele>665.37</ele>
        <time>2013-05-20T07:22:06Z</time>
      </trkpt>
      <trkpt lat="47.98137" lon="6.66816">
        <ele>665.85</ele>
        <time>2013-05-20T07:22:07Z</time>
      </trkpt>
      <trkpt lat="47.98131" lon="6.6683">
        <ele>667.29</ele>
        <time>2013-05-20T07:22:13Z</time>
      </trkpt>
      <trkpt lat="47.98104" lon="6.66854">
        <ele>668.73</ele>
        <time>2013-05-20T07:22:27Z</time>
      </trkpt>
      <trkpt lat="47.98078" lon="6.66893">
        <ele>670.18</ele>
        <time>2013-05-20T07:22:42Z</time>
      </trkpt>
      <trkpt lat="47.98054" lon="6.66931">
        <ele>674.02</ele>
        <time>2013-05-20T07:22:56Z</time>
      </trkpt>
      <trkpt lat="47.98027" lon="6.66991">
        <ele>675.94</ele>
        <time>2013-05-20T07:23:14Z</time>
      </trkpt>
      <trkpt lat="47.9801" lon="6.67028">
        <ele>678.83</ele>
        <time>2013-05-20T07:23:28Z</time>
      </trkpt>
      <trkpt lat="47.97993" lon="6.67072">
        <ele>677.87</ele>
        <time>2013-05-20T07:23:42Z</time>
      </trkpt>
      <trkpt lat="47.97982" lon="6.67122">
        <ele>677.87</ele>
        <time>2013-05-20T07:23:56Z</time>
      </trkpt>
      <trkpt lat="47.97971" lon="6.67157">
        <ele>677.39</ele>
        <time>2013-05-20T07:24:09Z</time>
      </trkpt>
      <trkpt lat="47.97959" lon="6.67198">
        <ele>679.31</ele>
        <time>2013-05-20T07:24:20Z</time>
      </trkpt>
      <trkpt lat="47.97945" lon="6.67246">
        <ele>681.71</ele>
        <time>2013-05-20T07:24:34Z</time>
      </trkpt>
      <trkpt lat="47.97944" lon="6.67273">
        <ele>685.08</ele>
        <time>2013-05-20T07:24:43Z</time>
      </trkpt>
      <trkpt lat="47.97953" lon="6.67306">
        <ele>687</ele>
        <time>2013-05-20T07:24:55Z</time>
      </trkpt>
      <trkpt lat="47.97953" lon="6.67314">
        <ele>688.44</ele>
        <time>2013-05-20T07:24:58Z</time>
      </trkpt>
      <trkpt lat="47.97958" lon="6.67351">
        <ele>689.4</ele>
        <time>2013-05-20T07:25:12Z</time>
      </trkpt>
      <trkpt lat="47.97963" lon="6.67386">
        <ele>692.29</ele>
        <time>2013-05-20T07:25:27Z</time>
      </trkpt>
      <trkpt lat="47.97966" lon="6.6739">
        <ele>692.77</ele>
        <time>2013-05-20T07:25:30Z</time>
      </trkpt>
      <trkpt lat="47.9797" lon="6.67393">
        <ele>693.73</ele>
        <time>2013-05-20T07:25:33Z</time>
      </trkpt>
      <trkpt lat="47.97973" lon="6.67394">
        <ele>693.73</ele>
        <time>2013-05-20T07:25:35Z</time>
      </trkpt>
      <trkpt lat="47.97975" lon="6.67395">
        <ele>693.25</ele>
        <time>2013-05-20T07:25:36Z</time>
      </trkpt>
      <trkpt lat="47.97978" lon="6.67398">
        <ele>694.21</ele>
        <time>2013-05-20T07:25:38Z</time>
      </trkpt>
      <trkpt lat="47.97968" lon="6.67426">
        <ele>693.73</ele>
        <time>2013-05-20T07:25:49Z</time>
      </trkpt>
      <trkpt lat="47.97958" lon="6.67459">
        <ele>692.29</ele>
        <time>2013-05-20T07:26:01Z</time>
      </trkpt>
      <trkpt lat="47.97954" lon="6.67501">
        <ele>691.81</ele>
        <time>2013-05-20T07:26:12Z</time>
      </trkpt>
      <trkpt lat="47.97952" lon="6.6751">
        <ele>692.29</ele>
        <time>2013-05-20T07:26:16Z</time>
      </trkpt>
      <trkpt lat="47.9795" lon="6.67561">
        <ele>693.73</ele>
        <time>2013-05-20T07:26:31Z</time>
      </trkpt>
      <trkpt lat="47.97948" lon="6.67595">
        <ele>694.69</ele>
        <time>2013-05-20T07:26:43Z</time>
      </trkpt>
      <trkpt lat="47.97948" lon="6.67615">
        <ele>694.69</ele>
        <time>2013-05-20T07:26:49Z</time>
      </trkpt>
      <trkpt lat="47.97942" lon="6.67642">
        <ele>694.69</ele>
        <time>2013-05-20T07:26:58Z</time>
      </trkpt>
      <trkpt lat="47.97941" lon="6.67648">
        <ele>695.65</ele>
        <time>2013-05-20T07:27:02Z</time>
      </trkpt>
      <trkpt lat="47.97956" lon="6.6766">
        <ele>697.09</ele>
        <time>2013-05-20T07:27:14Z</time>
      </trkpt>
      <trkpt lat="47.97966" lon="6.6767">
        <ele>697.57</ele>
        <time>2013-05-20T07:27:19Z</time>
      </trkpt>
      <trkpt lat="47.97986" lon="6.67691">
        <ele>698.05</ele>
        <time>2013-05-20T07:27:31Z</time>
      </trkpt>
      <trkpt lat="47.98005" lon="6.67705">
        <ele>699.02</ele>
        <time>2013-05-20T07:27:44Z</time>
      </trkpt>
      <trkpt lat="47.98015" lon="6.67715">
        <ele>699.5</ele>
        <time>2013-05-20T07:27:50Z</time>
      </trkpt>
      <trkpt lat="47.98032" lon="6.67733">
        <ele>697.09</ele>
        <time>2013-05-20T07:27:58Z</time>
      </trkpt>
      <trkpt lat="47.98033" lon="6.67737">
        <ele>697.57</ele>
        <time>2013-05-20T07:27:59Z</time>
      </trkpt>
      <trkpt lat="47.98035" lon="6.67742">
        <ele>697.09</ele>
        <time>2013-05-20T07:28:00Z</time>
      </trkpt>
      <trkpt lat="47.98037" lon="6.67747">
        <ele>697.57</ele>
        <time>2013-05-20T07:28:01Z</time>
      </trkpt>
      <trkpt lat="47.98039" lon="6.67751">
        <ele>697.57</ele>
        <time>2013-05-20T07:28:02Z</time>
      </trkpt>
      <trkpt lat="47.9805" lon="6.67788">
        <ele>696.61</ele>
        <time>2013-05-20T07:28:10Z</time>
      </trkpt>
      <trkpt lat="47.98051" lon="6.6779">
        <ele>696.61</ele>
        <time>2013-05-20T07:28:11Z</time>
      </trkpt>
      <trkpt lat="47.98054" lon="6.67795">
        <ele>697.09</ele>
        <time>2013-05-20T07:28:24Z</time>
      </trkpt>
      <trkpt lat="47.98056" lon="6.67797">
        <ele>696.61</ele>
        <time>2013-05-20T07:28:57Z</time>
      </trkpt>
      <trkpt lat="47.9805" lon="6.67793">
        <ele>696.61</ele>
        <time>2013-05-20T07:29:29Z</time>
      </trkpt>
      <trkpt lat="47.98053" lon="6.67784">
        <ele>696.61</ele>
        <time>2013-05-20T07:30:06Z</time>
      </trkpt>
      <trkpt lat="47.98052" lon="6.67778">
        <ele>696.61</ele>
        <time>2013-05-20T07:30:43Z</time>
      </trkpt>
      <trkpt lat="47.98055" lon="6.67777">
        <ele>696.61</ele>
        <time>2013-05-20T07:31:16Z</time>
      </trkpt>
      <trkpt lat="47.98057" lon="6.67784">
        <ele>696.61</ele>
        <time>2013-05-20T07:31:50Z</time>
      </trkpt>
      <trkpt lat="47.98058" lon="6.67785">
        <ele>697.09</ele>
        <time>2013-05-20T07:32:24Z</time>
      </trkpt>
      <trkpt lat="47.98057" lon="6.6779">
        <ele>696.61</ele>
        <time>2013-05-20T07:32:58Z</time>
      </trkpt>
      <trkpt lat="47.98055" lon="6.67796">
        <ele>694.69</ele>
        <time>2013-05-20T07:33:29Z</time>
      </trkpt>
      <trkpt lat="47.98057" lon="6.67803">
        <ele>695.17</ele>
        <time>2013-05-20T07:33:59Z</time>
      </trkpt>
      <trkpt lat="47.98061" lon="6.67798">
        <ele>697.57</ele>
        <time>2013-05-20T07:34:32Z</time>
      </trkpt>
      <trkpt lat="47.98057" lon="6.67792">
        <ele>695.17</ele>
        <time>2013-05-20T07:35:08Z</time>
      </trkpt>
      <trkpt lat="47.98054" lon="6.67788">
        <ele>695.65</ele>
        <time>2013-05-20T07:35:24Z</time>
      </trkpt>
      <trkpt lat="47.98051" lon="6.67793">
        <ele>695.65</ele>
        <time>2013-05-20T07:35:44Z</time>
      </trkpt>
      <trkpt lat="47.9805" lon="6.67794">
        <ele>696.61</ele>
        <time>2013-05-20T07:36:03Z</time>
      </trkpt>
      <trkpt lat="47.98048" lon="6.67795">
        <ele>696.61</ele>
        <time>2013-05-20T07:36:30Z</time>
      </trkpt>
      <trkpt lat="47.98049" lon="6.67794">
        <ele>696.61</ele>
        <time>2013-05-20T07:36:52Z</time>
      </trkpt>
      <trkpt lat="47.98048" lon="6.67792">
        <ele>696.61</ele>
        <time>2013-05-20T07:37:17Z</time>
      </trkpt>
      <trkpt lat="47.98045" lon="6.67788">
        <ele>697.09</ele>
        <time>2013-05-20T07:37:36Z</time>
      </trkpt>
      <trkpt lat="47.98044" lon="6.67786">
        <ele>697.09</ele>
        <time>2013-05-20T07:37:55Z</time>
      </trkpt>
      <trkpt lat="47.98044" lon="6.67783">
        <ele>698.05</ele>
        <time>2013-05-20T07:38:08Z</time>
      </trkpt>
      <trkpt lat="47.98042" lon="6.67784">
        <ele>697.57</ele>
        <time>2013-05-20T07:38:09Z</time>
      </trkpt>
      <trkpt lat="47.98041" lon="6.67787">
        <ele>697.09</ele>
        <time>2013-05-20T07:38:10Z</time>
      </trkpt>
      <trkpt lat="47.98039" lon="6.6779">
        <ele>698.05</ele>
        <time>2013-05-20T07:38:11Z</time>
      </trkpt>
      <trkpt lat="47.98038" lon="6.67794">
        <ele>698.05</ele>
        <time>2013-05-20T07:38:12Z</time>
      </trkpt>
      <trkpt lat="47.98037" lon="6.67796">
        <ele>697.57</ele>
        <time>2013-05-20T07:38:13Z</time>
      </trkpt>
      <trkpt lat="47.98036" lon="6.67798">
        <ele>697.57</ele>
        <time>2013-05-20T07:38:14Z</time>
      </trkpt>
      <trkpt lat="47.98035" lon="6.678">
        <ele>697.09</ele>
        <time>2013-05-20T07:38:15Z</time>
      </trkpt>
      <trkpt lat="47.98033" lon="6.67803">
        <ele>698.53</ele>
        <time>2013-05-20T07:38:16Z</time>
      </trkpt>
      <trkpt lat="47.98032" lon="6.67805">
        <ele>698.05</ele>
        <time>2013-05-20T07:38:17Z</time>
      </trkpt>
      <trkpt lat="47.9803" lon="6.67807">
        <ele>698.05</ele>
        <time>2013-05-20T07:38:18Z</time>
      </trkpt>
      <trkpt lat="47.98029" lon="6.67809">
        <ele>698.53</ele>
        <time>2013-05-20T07:38:19Z</time>
      </trkpt>
      <trkpt lat="47.98028" lon="6.67811">
        <ele>698.53</ele>
        <time>2013-05-20T07:38:20Z</time>
      </trkpt>
      <trkpt lat="47.98026" lon="6.67813">
        <ele>697.57</ele>
        <time>2013-05-20T07:38:21Z</time>
      </trkpt>
      <trkpt lat="47.98023" lon="6.67816">
        <ele>699.02</ele>
        <time>2013-05-20T07:38:22Z</time>
      </trkpt>
      <trkpt lat="47.98021" lon="6.67818">
        <ele>698.53</ele>
        <time>2013-05-20T07:38:23Z</time>
      </trkpt>
      <trkpt lat="47.98019" lon="6.6782">
        <ele>699.02</ele>
        <time>2013-05-20T07:38:24Z</time>
      </trkpt>
      <trkpt lat="47.98006" lon="6.67862">
        <ele>699.5</ele>
        <time>2013-05-20T07:38:34Z</time>
      </trkpt>
      <trkpt lat="47.98002" lon="6.67925">
        <ele>700.94</ele>
        <time>2013-05-20T07:38:46Z</time>
      </trkpt>
      <trkpt lat="47.98003" lon="6.67996">
        <ele>701.9</ele>
        <time>2013-05-20T07:38:58Z</time>
      </trkpt>
      <trkpt lat="47.98013" lon="6.68049">
        <ele>701.42</ele>
        <time>2013-05-20T07:39:08Z</time>
      </trkpt>
      <trkpt lat="47.98017" lon="6.68058">
        <ele>701.42</ele>
        <time>2013-05-20T07:39:10Z</time>
      </trkpt>
      <trkpt lat="47.98018" lon="6.68063">
        <ele>700.94</ele>
        <time>2013-05-20T07:39:11Z</time>
      </trkpt>
      <trkpt lat="47.9802" lon="6.68068">
        <ele>700.94</ele>
        <time>2013-05-20T07:39:12Z</time>
      </trkpt>
      <trkpt lat="47.98022" lon="6.68073">
        <ele>701.42</ele>
        <time>2013-05-20T07:39:13Z</time>
      </trkpt>
      <trkpt lat="47.98024" lon="6.68078">
        <ele>701.42</ele>
        <time>2013-05-20T07:39:14Z</time>
      </trkpt>
      <trkpt lat="47.9805" lon="6.68122">
        <ele>701.9</ele>
        <time>2013-05-20T07:39:26Z</time>
      </trkpt>
      <trkpt lat="47.98072" lon="6.68151">
        <ele>703.34</ele>
        <time>2013-05-20T07:39:36Z</time>
      </trkpt>
      <trkpt lat="47.98076" lon="6.68163">
        <ele>703.82</ele>
        <time>2013-05-20T07:39:39Z</time>
      </trkpt>
      <trkpt lat="47.98076" lon="6.68167">
        <ele>703.82</ele>
        <time>2013-05-20T07:39:40Z</time>
      </trkpt>
      <trkpt lat="47.98072" lon="6.68181">
        <ele>705.75</ele>
        <time>2013-05-20T07:39:44Z</time>
      </trkpt>
      <trkpt lat="47.98057" lon="6.68192">
        <ele>707.67</ele>
        <time>2013-05-20T07:39:54Z</time>
      </trkpt>
      <trkpt lat="47.98046" lon="6.68202">
        <ele>708.63</ele>
        <time>2013-05-20T07:40:08Z</time>
      </trkpt>
      <trkpt lat="47.98042" lon="6.68208">
        <ele>710.07</ele>
        <time>2013-05-20T07:40:10Z</time>
      </trkpt>
      <trkpt lat="47.98025" lon="6.68257">
        <ele>712.47</ele>
        <time>2013-05-20T07:40:22Z</time>
      </trkpt>
      <trkpt lat="47.98019" lon="6.68284">
        <ele>713.92</ele>
        <time>2013-05-20T07:40:28Z</time>
      </trkpt>
      <trkpt lat="47.98012" lon="6.6833">
        <ele>716.32</ele>
        <time>2013-05-20T07:40:40Z</time>
      </trkpt>
      <trkpt lat="47.98009" lon="6.68377">
        <ele>718.24</ele>
        <time>2013-05-20T07:40:54Z</time>
      </trkpt>
      <trkpt lat="47.98017" lon="6.68439">
        <ele>721.13</ele>
        <time>2013-05-20T07:41:11Z</time>
      </trkpt>
      <trkpt lat="47.98028" lon="6.68486">
        <ele>724.01</ele>
        <time>2013-05-20T07:41:24Z</time>
      </trkpt>
      <trkpt lat="47.98035" lon="6.68513">
        <ele>724.01</ele>
        <time>2013-05-20T07:41:32Z</time>
      </trkpt>
      <trkpt lat="47.98035" lon="6.68516">
        <ele>724.49</ele>
        <time>2013-05-20T07:41:33Z</time>
      </trkpt>
      <trkpt lat="47.98036" lon="6.68517">
        <ele>724.01</ele>
        <time>2013-05-20T07:41:34Z</time>
      </trkpt>
      <trkpt lat="47.98037" lon="6.68519">
        <ele>724.01</ele>
        <time>2013-05-20T07:41:35Z</time>
      </trkpt>
      <trkpt lat="47.98038" lon="6.68521">
        <ele>724.49</ele>
        <time>2013-05-20T07:41:36Z</time>
      </trkpt>
      <trkpt lat="47.98039" lon="6.68523">
        <ele>724.49</ele>
        <time>2013-05-20T07:41:37Z</time>
      </trkpt>
      <trkpt lat="47.9804" lon="6.68525">
        <ele>724.49</ele>
        <time>2013-05-20T07:41:38Z</time>
      </trkpt>
      <trkpt lat="47.98056" lon="6.68544">
        <ele>725.93</ele>
        <time>2013-05-20T07:41:50Z</time>
      </trkpt>
      <trkpt lat="47.98069" lon="6.68569">
        <ele>727.37</ele>
        <time>2013-05-20T07:42:00Z</time>
      </trkpt>
      <trkpt lat="47.98074" lon="6.68575">
        <ele>727.37</ele>
        <time>2013-05-20T07:42:04Z</time>
      </trkpt>
      <trkpt lat="47.98084" lon="6.686">
        <ele>728.34</ele>
        <time>2013-05-20T07:42:18Z</time>
      </trkpt>
      <trkpt lat="47.98087" lon="6.68604">
        <ele>728.82</ele>
        <time>2013-05-20T07:42:21Z</time>
      </trkpt>
      <trkpt lat="47.98095" lon="6.68613">
        <ele>729.3</ele>
        <time>2013-05-20T07:42:27Z</time>
      </trkpt>
      <trkpt lat="47.98106" lon="6.68626">
        <ele>731.22</ele>
        <time>2013-05-20T07:42:34Z</time>
      </trkpt>
      <trkpt lat="47.98118" lon="6.68647">
        <ele>732.18</ele>
        <time>2013-05-20T07:42:46Z</time>
      </trkpt>
      <trkpt lat="47.98121" lon="6.68659">
        <ele>733.62</ele>
        <time>2013-05-20T07:42:54Z</time>
      </trkpt>
      <trkpt lat="47.98131" lon="6.68678">
        <ele>733.62</ele>
        <time>2013-05-20T07:43:00Z</time>
      </trkpt>
      <trkpt lat="47.98139" lon="6.68686">
        <ele>733.62</ele>
        <time>2013-05-20T07:43:05Z</time>
      </trkpt>
      <trkpt lat="47.98144" lon="6.68691">
        <ele>735.07</ele>
        <time>2013-05-20T07:43:08Z</time>
      </trkpt>
      <trkpt lat="47.98154" lon="6.68707">
        <ele>736.51</ele>
        <time>2013-05-20T07:43:16Z</time>
      </trkpt>
      <trkpt lat="47.98158" lon="6.68712">
        <ele>736.99</ele>
        <time>2013-05-20T07:43:21Z</time>
      </trkpt>
      <trkpt lat="47.98172" lon="6.68707">
        <ele>740.35</ele>
        <time>2013-05-20T07:43:32Z</time>
      </trkpt>
      <trkpt lat="47.98188" lon="6.68678">
        <ele>742.28</ele>
        <time>2013-05-20T07:43:45Z</time>
      </trkpt>
      <trkpt lat="47.98204" lon="6.68656">
        <ele>744.2</ele>
        <time>2013-05-20T07:44:01Z</time>
      </trkpt>
      <trkpt lat="47.98209" lon="6.68661">
        <ele>745.16</ele>
        <time>2013-05-20T07:44:13Z</time>
      </trkpt>
      <trkpt lat="47.98215" lon="6.68684">
        <ele>747.08</ele>
        <time>2013-05-20T07:44:27Z</time>
      </trkpt>
      <trkpt lat="47.98216" lon="6.68704">
        <ele>748.52</ele>
        <time>2013-05-20T07:44:40Z</time>
      </trkpt>
      <trkpt lat="47.98218" lon="6.68738">
        <ele>749.49</ele>
        <time>2013-05-20T07:44:53Z</time>
      </trkpt>
      <trkpt lat="47.98224" lon="6.6876">
        <ele>751.41</ele>
        <time>2013-05-20T07:45:06Z</time>
      </trkpt>
      <trkpt lat="47.98226" lon="6.68759">
        <ele>751.89</ele>
        <time>2013-05-20T07:45:11Z</time>
      </trkpt>
      <trkpt lat="47.98228" lon="6.68757">
        <ele>752.37</ele>
        <time>2013-05-20T07:45:13Z</time>
      </trkpt>
      <trkpt lat="47.98233" lon="6.68741">
        <ele>752.85</ele>
        <time>2013-05-20T07:45:24Z</time>
      </trkpt>
      <trkpt lat="47.98237" lon="6.68731">
        <ele>752.85</ele>
        <time>2013-05-20T07:45:30Z</time>
      </trkpt>
      <trkpt lat="47.98239" lon="6.68723">
        <ele>752.37</ele>
        <time>2013-05-20T07:45:33Z</time>
      </trkpt>
      <trkpt lat="47.98241" lon="6.68715">
        <ele>752.85</ele>
        <time>2013-05-20T07:45:36Z</time>
      </trkpt>
      <trkpt lat="47.98244" lon="6.68708">
        <ele>753.33</ele>
        <time>2013-05-20T07:45:39Z</time>
      </trkpt>
      <trkpt lat="47.98245" lon="6.687">
        <ele>753.81</ele>
        <time>2013-05-20T07:45:42Z</time>
      </trkpt>
      <trkpt lat="47.98252" lon="6.68686">
        <ele>753.33</ele>
        <time>2013-05-20T07:45:45Z</time>
      </trkpt>
      <trkpt lat="47.98254" lon="6.68682">
        <ele>753.81</ele>
        <time>2013-05-20T07:45:46Z</time>
      </trkpt>
      <trkpt lat="47.98271" lon="6.68648">
        <ele>755.73</ele>
        <time>2013-05-20T07:45:59Z</time>
      </trkpt>
      <trkpt lat="47.98273" lon="6.68637">
        <ele>756.21</ele>
        <time>2013-05-20T07:46:03Z</time>
      </trkpt>
      <trkpt lat="47.98279" lon="6.68624">
        <ele>757.66</ele>
        <time>2013-05-20T07:46:11Z</time>
      </trkpt>
      <trkpt lat="47.98282" lon="6.68619">
        <ele>758.14</ele>
        <time>2013-05-20T07:46:15Z</time>
      </trkpt>
      <trkpt lat="47.98293" lon="6.68584">
        <ele>759.58</ele>
        <time>2013-05-20T07:46:27Z</time>
      </trkpt>
      <trkpt lat="47.98301" lon="6.68554">
        <ele>761.98</ele>
        <time>2013-05-20T07:46:40Z</time>
      </trkpt>
      <trkpt lat="47.98322" lon="6.68516">
        <ele>763.9</ele>
        <time>2013-05-20T07:46:55Z</time>
      </trkpt>
      <trkpt lat="47.98328" lon="6.68506">
        <ele>763.9</ele>
        <time>2013-05-20T07:47:00Z</time>
      </trkpt>
      <trkpt lat="47.9835" lon="6.68475">
        <ele>766.31</ele>
        <time>2013-05-20T07:47:15Z</time>
      </trkpt>
      <trkpt lat="47.98363" lon="6.68462">
        <ele>767.27</ele>
        <time>2013-05-20T07:47:24Z</time>
      </trkpt>
      <trkpt lat="47.98374" lon="6.68449">
        <ele>768.71</ele>
        <time>2013-05-20T07:47:32Z</time>
      </trkpt>
      <trkpt lat="47.98385" lon="6.68434">
        <ele>767.75</ele>
        <time>2013-05-20T07:47:40Z</time>
      </trkpt>
      <trkpt lat="47.98402" lon="6.68378">
        <ele>765.83</ele>
        <time>2013-05-20T07:47:52Z</time>
      </trkpt>
      <trkpt lat="47.98403" lon="6.68365">
        <ele>765.35</ele>
        <time>2013-05-20T07:47:54Z</time>
      </trkpt>
      <trkpt lat="47.98402" lon="6.68291">
        <ele>763.9</ele>
        <time>2013-05-20T07:48:04Z</time>
      </trkpt>
      <trkpt lat="47.98403" lon="6.6826">
        <ele>761.98</ele>
        <time>2013-05-20T07:48:07Z</time>
      </trkpt>
      <trkpt lat="47.98401" lon="6.68157">
        <ele>758.62</ele>
        <time>2013-05-20T07:48:16Z</time>
      </trkpt>
      <trkpt lat="47.98399" lon="6.6811">
        <ele>756.21</ele>
        <time>2013-05-20T07:48:20Z</time>
      </trkpt>
      <trkpt lat="47.98397" lon="6.68038">
        <ele>754.29</ele>
        <time>2013-05-20T07:48:26Z</time>
      </trkpt>
      <trkpt lat="47.98399" lon="6.68026">
        <ele>753.33</ele>
        <time>2013-05-20T07:48:27Z</time>
      </trkpt>
      <trkpt lat="47.98402" lon="6.68015">
        <ele>752.85</ele>
        <time>2013-05-20T07:48:28Z</time>
      </trkpt>
      <trkpt lat="47.98405" lon="6.68003">
        <ele>752.85</ele>
        <time>2013-05-20T07:48:29Z</time>
      </trkpt>
      <trkpt lat="47.98433" lon="6.67943">
        <ele>749.49</ele>
        <time>2013-05-20T07:48:35Z</time>
      </trkpt>
      <trkpt lat="47.98439" lon="6.67933">
        <ele>749.49</ele>
        <time>2013-05-20T07:48:36Z</time>
      </trkpt>
      <trkpt lat="47.98464" lon="6.67902">
        <ele>745.64</ele>
        <time>2013-05-20T07:48:40Z</time>
      </trkpt>
      <trkpt lat="47.9847" lon="6.67898">
        <ele>744.68</ele>
        <time>2013-05-20T07:48:41Z</time>
      </trkpt>
      <trkpt lat="47.98476" lon="6.67898">
        <ele>744.2</ele>
        <time>2013-05-20T07:48:42Z</time>
      </trkpt>
      <trkpt lat="47.98482" lon="6.67902">
        <ele>744.2</ele>
        <time>2013-05-20T07:48:43Z</time>
      </trkpt>
      <trkpt lat="47.98486" lon="6.67905">
        <ele>744.2</ele>
        <time>2013-05-20T07:48:44Z</time>
      </trkpt>
      <trkpt lat="47.98499" lon="6.67914">
        <ele>746.6</ele>
        <time>2013-05-20T07:48:49Z</time>
      </trkpt>
      <trkpt lat="47.98532" lon="6.67931">
        <ele>749</ele>
        <time>2013-05-20T07:49:03Z</time>
      </trkpt>
      <trkpt lat="47.98567" lon="6.67941">
        <ele>751.89</ele>
        <time>2013-05-20T07:49:19Z</time>
      </trkpt>
      <trkpt lat="47.98583" lon="6.67978">
        <ele>753.81</ele>
        <time>2013-05-20T07:49:32Z</time>
      </trkpt>
      <trkpt lat="47.98586" lon="6.68012">
        <ele>757.18</ele>
        <time>2013-05-20T07:49:43Z</time>
      </trkpt>
      <trkpt lat="47.986" lon="6.68048">
        <ele>757.18</ele>
        <time>2013-05-20T07:49:54Z</time>
      </trkpt>
      <trkpt lat="47.98625" lon="6.68088">
        <ele>757.18</ele>
        <time>2013-05-20T07:50:07Z</time>
      </trkpt>
      <trkpt lat="47.9865" lon="6.6812">
        <ele>756.21</ele>
        <time>2013-05-20T07:50:17Z</time>
      </trkpt>
      <trkpt lat="47.98663" lon="6.68135">
        <ele>754.77</ele>
        <time>2013-05-20T07:50:20Z</time>
      </trkpt>
      <trkpt lat="47.98673" lon="6.68146">
        <ele>754.77</ele>
        <time>2013-05-20T07:50:22Z</time>
      </trkpt>
      <trkpt lat="47.98693" lon="6.68164">
        <ele>753.33</ele>
        <time>2013-05-20T07:50:26Z</time>
      </trkpt>
      <trkpt lat="47.98696" lon="6.68168">
        <ele>752.85</ele>
        <time>2013-05-20T07:50:27Z</time>
      </trkpt>
      <trkpt lat="47.98699" lon="6.68173">
        <ele>752.37</ele>
        <time>2013-05-20T07:50:28Z</time>
      </trkpt>
      <trkpt lat="47.98704" lon="6.68184">
        <ele>751.89</ele>
        <time>2013-05-20T07:50:30Z</time>
      </trkpt>
      <trkpt lat="47.98706" lon="6.6819">
        <ele>751.89</ele>
        <time>2013-05-20T07:50:31Z</time>
      </trkpt>
      <trkpt lat="47.98709" lon="6.68195">
        <ele>751.41</ele>
        <time>2013-05-20T07:50:32Z</time>
      </trkpt>
      <trkpt lat="47.98712" lon="6.682">
        <ele>751.89</ele>
        <time>2013-05-20T07:50:33Z</time>
      </trkpt>
      <trkpt lat="47.98716" lon="6.68204">
        <ele>751.89</ele>
        <time>2013-05-20T07:50:34Z</time>
      </trkpt>
      <trkpt lat="47.98721" lon="6.68208">
        <ele>751.41</ele>
        <time>2013-05-20T07:50:35Z</time>
      </trkpt>
      <trkpt lat="47.98725" lon="6.68211">
        <ele>751.41</ele>
        <time>2013-05-20T07:50:36Z</time>
      </trkpt>
      <trkpt lat="47.98729" lon="6.68214">
        <ele>751.41</ele>
        <time>2013-05-20T07:50:37Z</time>
      </trkpt>
      <trkpt lat="47.98731" lon="6.68217">
        <ele>751.89</ele>
        <time>2013-05-20T07:50:38Z</time>
      </trkpt>
      <trkpt lat="47.98733" lon="6.6822">
        <ele>752.37</ele>
        <time>2013-05-20T07:50:39Z</time>
      </trkpt>
      <trkpt lat="47.98736" lon="6.68224">
        <ele>752.37</ele>
        <time>2013-05-20T07:50:40Z</time>
      </trkpt>
      <trkpt lat="47.98757" lon="6.68286">
        <ele>753.81</ele>
        <time>2013-05-20T07:50:50Z</time>
      </trkpt>
      <trkpt lat="47.98758" lon="6.68298">
        <ele>754.77</ele>
        <time>2013-05-20T07:50:52Z</time>
      </trkpt>
      <trkpt lat="47.9876" lon="6.68331">
        <ele>756.21</ele>
        <time>2013-05-20T07:50:58Z</time>
      </trkpt>
      <trkpt lat="47.98751" lon="6.684">
        <ele>757.18</ele>
        <time>2013-05-20T07:51:10Z</time>
      </trkpt>
      <trkpt lat="47.98753" lon="6.6846">
        <ele>760.54</ele>
        <time>2013-05-20T07:51:20Z</time>
      </trkpt>
      <trkpt lat="47.98754" lon="6.68464">
        <ele>761.5</ele>
        <time>2013-05-20T07:51:21Z</time>
      </trkpt>
      <trkpt lat="47.98756" lon="6.68481">
        <ele>761.02</ele>
        <time>2013-05-20T07:51:24Z</time>
      </trkpt>
      <trkpt lat="47.98756" lon="6.68489">
        <ele>761.02</ele>
        <time>2013-05-20T07:51:25Z</time>
      </trkpt>
      <trkpt lat="47.98756" lon="6.68497">
        <ele>761.02</ele>
        <time>2013-05-20T07:51:26Z</time>
      </trkpt>
      <trkpt lat="47.98755" lon="6.68507">
        <ele>760.06</ele>
        <time>2013-05-20T07:51:27Z</time>
      </trkpt>
      <trkpt lat="47.98755" lon="6.68515">
        <ele>760.54</ele>
        <time>2013-05-20T07:51:28Z</time>
      </trkpt>
      <trkpt lat="47.98752" lon="6.68561">
        <ele>758.62</ele>
        <time>2013-05-20T07:51:34Z</time>
      </trkpt>
      <trkpt lat="47.98751" lon="6.68569">
        <ele>758.62</ele>
        <time>2013-05-20T07:51:35Z</time>
      </trkpt>
      <trkpt lat="47.98751" lon="6.68589">
        <ele>757.66</ele>
        <time>2013-05-20T07:51:37Z</time>
      </trkpt>
      <trkpt lat="47.98752" lon="6.68599">
        <ele>757.66</ele>
        <time>2013-05-20T07:51:38Z</time>
      </trkpt>
      <trkpt lat="47.98753" lon="6.68608">
        <ele>756.69</ele>
        <time>2013-05-20T07:51:39Z</time>
      </trkpt>
      <trkpt lat="47.98754" lon="6.68647">
        <ele>756.21</ele>
        <time>2013-05-20T07:51:43Z</time>
      </trkpt>
      <trkpt lat="47.98755" lon="6.68658">
        <ele>755.25</ele>
        <time>2013-05-20T07:51:44Z</time>
      </trkpt>
      <trkpt lat="47.98756" lon="6.68668">
        <ele>754.29</ele>
        <time>2013-05-20T07:51:45Z</time>
      </trkpt>
      <trkpt lat="47.98771" lon="6.68733">
        <ele>749.97</ele>
        <time>2013-05-20T07:51:52Z</time>
      </trkpt>
      <trkpt lat="47.98772" lon="6.68742">
        <ele>749.49</ele>
        <time>2013-05-20T07:51:53Z</time>
      </trkpt>
      <trkpt lat="47.98773" lon="6.68751">
        <ele>749.97</ele>
        <time>2013-05-20T07:51:54Z</time>
      </trkpt>
      <trkpt lat="47.98772" lon="6.68758">
        <ele>749.49</ele>
        <time>2013-05-20T07:51:55Z</time>
      </trkpt>
      <trkpt lat="47.98771" lon="6.68765">
        <ele>749.97</ele>
        <time>2013-05-20T07:51:56Z</time>
      </trkpt>
      <trkpt lat="47.9877" lon="6.68771">
        <ele>749.49</ele>
        <time>2013-05-20T07:51:57Z</time>
      </trkpt>
      <trkpt lat="47.98768" lon="6.68775">
        <ele>750.45</ele>
        <time>2013-05-20T07:51:58Z</time>
      </trkpt>
      <trkpt lat="47.98766" lon="6.68783">
        <ele>751.41</ele>
        <time>2013-05-20T07:52:00Z</time>
      </trkpt>
      <trkpt lat="47.98758" lon="6.68818">
        <ele>753.81</ele>
        <time>2013-05-20T07:52:08Z</time>
      </trkpt>
      <trkpt lat="47.98759" lon="6.68821">
        <ele>753.81</ele>
        <time>2013-05-20T07:52:09Z</time>
      </trkpt>
      <trkpt lat="47.98759" lon="6.68824">
        <ele>753.81</ele>
        <time>2013-05-20T07:52:10Z</time>
      </trkpt>
      <trkpt lat="47.98759" lon="6.68827">
        <ele>753.33</ele>
        <time>2013-05-20T07:52:11Z</time>
      </trkpt>
      <trkpt lat="47.9876" lon="6.68831">
        <ele>753.81</ele>
        <time>2013-05-20T07:52:12Z</time>
      </trkpt>
      <trkpt lat="47.98761" lon="6.68834">
        <ele>753.81</ele>
        <time>2013-05-20T07:52:13Z</time>
      </trkpt>
      <trkpt lat="47.98763" lon="6.68837">
        <ele>753.81</ele>
        <time>2013-05-20T07:52:14Z</time>
      </trkpt>
      <trkpt lat="47.98763" lon="6.68841">
        <ele>754.77</ele>
        <time>2013-05-20T07:52:15Z</time>
      </trkpt>
      <trkpt lat="47.98764" lon="6.68844">
        <ele>754.77</ele>
        <time>2013-05-20T07:52:16Z</time>
      </trkpt>
      <trkpt lat="47.98764" lon="6.68847">
        <ele>754.77</ele>
        <time>2013-05-20T07:52:17Z</time>
      </trkpt>
      <trkpt lat="47.98765" lon="6.68849">
        <ele>755.25</ele>
        <time>2013-05-20T07:52:18Z</time>
      </trkpt>
      <trkpt lat="47.98766" lon="6.68852">
        <ele>754.77</ele>
        <time>2013-05-20T07:52:19Z</time>
      </trkpt>
      <trkpt lat="47.98766" lon="6.68856">
        <ele>755.25</ele>
        <time>2013-05-20T07:52:20Z</time>
      </trkpt>
      <trkpt lat="47.98767" lon="6.68859">
        <ele>755.25</ele>
        <time>2013-05-20T07:52:21Z</time>
      </trkpt>
      <trkpt lat="47.98776" lon="6.68886">
        <ele>756.69</ele>
        <time>2013-05-20T07:52:31Z</time>
      </trkpt>
      <trkpt lat="47.98777" lon="6.6889">
        <ele>755.73</ele>
        <time>2013-05-20T07:52:32Z</time>
      </trkpt>
      <trkpt lat="47.98779" lon="6.68894">
        <ele>755.73</ele>
        <time>2013-05-20T07:52:33Z</time>
      </trkpt>
      <trkpt lat="47.98781" lon="6.68897">
        <ele>756.69</ele>
        <time>2013-05-20T07:52:34Z</time>
      </trkpt>
      <trkpt lat="47.98783" lon="6.68899">
        <ele>756.21</ele>
        <time>2013-05-20T07:52:35Z</time>
      </trkpt>
      <trkpt lat="47.98794" lon="6.68909">
        <ele>756.21</ele>
        <time>2013-05-20T07:52:40Z</time>
      </trkpt>
      <trkpt lat="47.98817" lon="6.68915">
        <ele>754.29</ele>
        <time>2013-05-20T07:52:51Z</time>
      </trkpt>
      <trkpt lat="47.98845" lon="6.68915">
        <ele>752.37</ele>
        <time>2013-05-20T07:52:58Z</time>
      </trkpt>
      <trkpt lat="47.98881" lon="6.68892">
        <ele>750.45</ele>
        <time>2013-05-20T07:53:07Z</time>
      </trkpt>
      <trkpt lat="47.98885" lon="6.68887">
        <ele>749</ele>
        <time>2013-05-20T07:53:08Z</time>
      </trkpt>
      <trkpt lat="47.98909" lon="6.68862">
        <ele>747.56</ele>
        <time>2013-05-20T07:53:15Z</time>
      </trkpt>
      <trkpt lat="47.98927" lon="6.6885">
        <ele>744.68</ele>
        <time>2013-05-20T07:53:23Z</time>
      </trkpt>
      <trkpt lat="47.98936" lon="6.68846">
        <ele>744.2</ele>
        <time>2013-05-20T07:53:25Z</time>
      </trkpt>
      <trkpt lat="47.98948" lon="6.68842">
        <ele>743.24</ele>
        <time>2013-05-20T07:53:27Z</time>
      </trkpt>
      <trkpt lat="47.98967" lon="6.68831">
        <ele>741.31</ele>
        <time>2013-05-20T07:53:31Z</time>
      </trkpt>
      <trkpt lat="47.98972" lon="6.68827">
        <ele>741.31</ele>
        <time>2013-05-20T07:53:32Z</time>
      </trkpt>
      <trkpt lat="47.98982" lon="6.6882">
        <ele>739.87</ele>
        <time>2013-05-20T07:53:34Z</time>
      </trkpt>
      <trkpt lat="47.98988" lon="6.68817">
        <ele>739.87</ele>
        <time>2013-05-20T07:53:35Z</time>
      </trkpt>
      <trkpt lat="47.98993" lon="6.68816">
        <ele>738.91</ele>
        <time>2013-05-20T07:53:36Z</time>
      </trkpt>
      <trkpt lat="47.98999" lon="6.68815">
        <ele>738.43</ele>
        <time>2013-05-20T07:53:37Z</time>
      </trkpt>
      <trkpt lat="47.99005" lon="6.68815">
        <ele>738.43</ele>
        <time>2013-05-20T07:53:38Z</time>
      </trkpt>
      <trkpt lat="47.9901" lon="6.68816">
        <ele>736.99</ele>
        <time>2013-05-20T07:53:39Z</time>
      </trkpt>
      <trkpt lat="47.99015" lon="6.68817">
        <ele>736.99</ele>
        <time>2013-05-20T07:53:40Z</time>
      </trkpt>
      <trkpt lat="47.9902" lon="6.68819">
        <ele>736.99</ele>
        <time>2013-05-20T07:53:41Z</time>
      </trkpt>
      <trkpt lat="47.99025" lon="6.68821">
        <ele>736.03</ele>
        <time>2013-05-20T07:53:42Z</time>
      </trkpt>
      <trkpt lat="47.9903" lon="6.68823">
        <ele>735.07</ele>
        <time>2013-05-20T07:53:43Z</time>
      </trkpt>
      <trkpt lat="47.99034" lon="6.68826">
        <ele>735.07</ele>
        <time>2013-05-20T07:53:44Z</time>
      </trkpt>
      <trkpt lat="47.99043" lon="6.68831">
        <ele>734.58</ele>
        <time>2013-05-20T07:53:46Z</time>
      </trkpt>
      <trkpt lat="47.99047" lon="6.68833">
        <ele>734.58</ele>
        <time>2013-05-20T07:53:47Z</time>
      </trkpt>
      <trkpt lat="47.99052" lon="6.68836">
        <ele>734.1</ele>
        <time>2013-05-20T07:53:48Z</time>
      </trkpt>
      <trkpt lat="47.99057" lon="6.68838">
        <ele>733.14</ele>
        <time>2013-05-20T07:53:49Z</time>
      </trkpt>
      <trkpt lat="47.99062" lon="6.68841">
        <ele>732.66</ele>
        <time>2013-05-20T07:53:50Z</time>
      </trkpt>
      <trkpt lat="47.99068" lon="6.68842">
        <ele>732.66</ele>
        <time>2013-05-20T07:53:51Z</time>
      </trkpt>
      <trkpt lat="47.99075" lon="6.68842">
        <ele>732.66</ele>
        <time>2013-05-20T07:53:52Z</time>
      </trkpt>
      <trkpt lat="47.99081" lon="6.68841">
        <ele>732.66</ele>
        <time>2013-05-20T07:53:53Z</time>
      </trkpt>
      <trkpt lat="47.99088" lon="6.68841">
        <ele>731.7</ele>
        <time>2013-05-20T07:53:54Z</time>
      </trkpt>
      <trkpt lat="47.99095" lon="6.68842">
        <ele>731.22</ele>
        <time>2013-05-20T07:53:55Z</time>
      </trkpt>
      <trkpt lat="47.99101" lon="6.68844">
        <ele>730.74</ele>
        <time>2013-05-20T07:53:56Z</time>
      </trkpt>
      <trkpt lat="47.99107" lon="6.68845">
        <ele>731.22</ele>
        <time>2013-05-20T07:53:57Z</time>
      </trkpt>
      <trkpt lat="47.99113" lon="6.68846">
        <ele>730.26</ele>
        <time>2013-05-20T07:53:58Z</time>
      </trkpt>
      <trkpt lat="47.99121" lon="6.68846">
        <ele>730.26</ele>
        <time>2013-05-20T07:53:59Z</time>
      </trkpt>
      <trkpt lat="47.99128" lon="6.68846">
        <ele>729.3</ele>
        <time>2013-05-20T07:54:00Z</time>
      </trkpt>
      <trkpt lat="47.99135" lon="6.68848">
        <ele>728.82</ele>
        <time>2013-05-20T07:54:01Z</time>
      </trkpt>
      <trkpt lat="47.99143" lon="6.6885">
        <ele>727.86</ele>
        <time>2013-05-20T07:54:02Z</time>
      </trkpt>
      <trkpt lat="47.99149" lon="6.68854">
        <ele>727.86</ele>
        <time>2013-05-20T07:54:03Z</time>
      </trkpt>
      <trkpt lat="47.99156" lon="6.68859">
        <ele>727.37</ele>
        <time>2013-05-20T07:54:04Z</time>
      </trkpt>
      <trkpt lat="47.99162" lon="6.68866">
        <ele>727.37</ele>
        <time>2013-05-20T07:54:05Z</time>
      </trkpt>
      <trkpt lat="47.99168" lon="6.68873">
        <ele>726.89</ele>
        <time>2013-05-20T07:54:06Z</time>
      </trkpt>
      <trkpt lat="47.99185" lon="6.68894">
        <ele>724.49</ele>
        <time>2013-05-20T07:54:09Z</time>
      </trkpt>
      <trkpt lat="47.99196" lon="6.68907">
        <ele>723.53</ele>
        <time>2013-05-20T07:54:11Z</time>
      </trkpt>
      <trkpt lat="47.992" lon="6.68915">
        <ele>722.57</ele>
        <time>2013-05-20T07:54:12Z</time>
      </trkpt>
      <trkpt lat="47.99203" lon="6.68923">
        <ele>722.57</ele>
        <time>2013-05-20T07:54:13Z</time>
      </trkpt>
      <trkpt lat="47.99207" lon="6.68933">
        <ele>722.09</ele>
        <time>2013-05-20T07:54:14Z</time>
      </trkpt>
      <trkpt lat="47.99229" lon="6.69005">
        <ele>718.72</ele>
        <time>2013-05-20T07:54:21Z</time>
      </trkpt>
      <trkpt lat="47.99231" lon="6.69013">
        <ele>718.24</ele>
        <time>2013-05-20T07:54:22Z</time>
      </trkpt>
      <trkpt lat="47.99234" lon="6.69018">
        <ele>717.28</ele>
        <time>2013-05-20T07:54:23Z</time>
      </trkpt>
      <trkpt lat="47.99236" lon="6.69023">
        <ele>717.28</ele>
        <time>2013-05-20T07:54:24Z</time>
      </trkpt>
      <trkpt lat="47.99239" lon="6.69027">
        <ele>717.28</ele>
        <time>2013-05-20T07:54:25Z</time>
      </trkpt>
      <trkpt lat="47.99242" lon="6.6903">
        <ele>717.28</ele>
        <time>2013-05-20T07:54:26Z</time>
      </trkpt>
      <trkpt lat="47.9926" lon="6.69058">
        <ele>713.92</ele>
        <time>2013-05-20T07:54:32Z</time>
      </trkpt>
      <trkpt lat="47.99265" lon="6.69062">
        <ele>713.92</ele>
        <time>2013-05-20T07:54:33Z</time>
      </trkpt>
      <trkpt lat="47.99269" lon="6.69066">
        <ele>712.47</ele>
        <time>2013-05-20T07:54:34Z</time>
      </trkpt>
      <trkpt lat="47.99272" lon="6.6907">
        <ele>711.99</ele>
        <time>2013-05-20T07:54:35Z</time>
      </trkpt>
      <trkpt lat="47.99275" lon="6.69073">
        <ele>712.47</ele>
        <time>2013-05-20T07:54:36Z</time>
      </trkpt>
      <trkpt lat="47.99278" lon="6.69076">
        <ele>712.47</ele>
        <time>2013-05-20T07:54:37Z</time>
      </trkpt>
      <trkpt lat="47.99285" lon="6.6909">
        <ele>711.51</ele>
        <time>2013-05-20T07:54:40Z</time>
      </trkpt>
      <trkpt lat="47.99289" lon="6.69096">
        <ele>711.51</ele>
        <time>2013-05-20T07:54:41Z</time>
      </trkpt>
      <trkpt lat="47.99295" lon="6.69109">
        <ele>710.55</ele>
        <time>2013-05-20T07:54:43Z</time>
      </trkpt>
      <trkpt lat="47.99298" lon="6.69114">
        <ele>710.07</ele>
        <time>2013-05-20T07:54:44Z</time>
      </trkpt>
      <trkpt lat="47.99301" lon="6.69118">
        <ele>709.59</ele>
        <time>2013-05-20T07:54:45Z</time>
      </trkpt>
      <trkpt lat="47.99305" lon="6.69121">
        <ele>709.11</ele>
        <time>2013-05-20T07:54:46Z</time>
      </trkpt>
      <trkpt lat="47.99309" lon="6.69124">
        <ele>708.63</ele>
        <time>2013-05-20T07:54:47Z</time>
      </trkpt>
      <trkpt lat="47.99314" lon="6.69125">
        <ele>707.67</ele>
        <time>2013-05-20T07:54:48Z</time>
      </trkpt>
      <trkpt lat="47.99319" lon="6.69126">
        <ele>707.67</ele>
        <time>2013-05-20T07:54:49Z</time>
      </trkpt>
      <trkpt lat="47.99324" lon="6.69128">
        <ele>707.67</ele>
        <time>2013-05-20T07:54:50Z</time>
      </trkpt>
      <trkpt lat="47.9933" lon="6.69129">
        <ele>707.67</ele>
        <time>2013-05-20T07:54:51Z</time>
      </trkpt>
      <trkpt lat="47.99336" lon="6.69131">
        <ele>706.23</ele>
        <time>2013-05-20T07:54:52Z</time>
      </trkpt>
      <trkpt lat="47.99342" lon="6.69134">
        <ele>706.71</ele>
        <time>2013-05-20T07:54:53Z</time>
      </trkpt>
      <trkpt lat="47.99347" lon="6.69138">
        <ele>706.71</ele>
        <time>2013-05-20T07:54:54Z</time>
      </trkpt>
      <trkpt lat="47.99352" lon="6.69144">
        <ele>706.23</ele>
        <time>2013-05-20T07:54:55Z</time>
      </trkpt>
      <trkpt lat="47.99365" lon="6.69154">
        <ele>703.34</ele>
        <time>2013-05-20T07:54:57Z</time>
      </trkpt>
      <trkpt lat="47.9937" lon="6.69156">
        <ele>702.86</ele>
        <time>2013-05-20T07:54:58Z</time>
      </trkpt>
      <trkpt lat="47.99374" lon="6.69155">
        <ele>701.9</ele>
        <time>2013-05-20T07:54:59Z</time>
      </trkpt>
      <trkpt lat="47.99376" lon="6.69154">
        <ele>701.9</ele>
        <time>2013-05-20T07:55:00Z</time>
      </trkpt>
      <trkpt lat="47.99377" lon="6.69152">
        <ele>701.9</ele>
        <time>2013-05-20T07:55:01Z</time>
      </trkpt>
      <trkpt lat="47.99378" lon="6.69151">
        <ele>701.9</ele>
        <time>2013-05-20T07:55:02Z</time>
      </trkpt>
      <trkpt lat="47.99378" lon="6.69149">
        <ele>701.42</ele>
        <time>2013-05-20T07:55:03Z</time>
      </trkpt>
      <trkpt lat="47.99376" lon="6.69143">
        <ele>701.9</ele>
        <time>2013-05-20T07:55:17Z</time>
      </trkpt>
      <trkpt lat="47.99377" lon="6.6914">
        <ele>702.38</ele>
        <time>2013-05-20T07:55:27Z</time>
      </trkpt>
      <trkpt lat="47.99378" lon="6.69138">
        <ele>701.9</ele>
        <time>2013-05-20T07:55:28Z</time>
      </trkpt>
      <trkpt lat="47.99378" lon="6.69135">
        <ele>701.9</ele>
        <time>2013-05-20T07:55:29Z</time>
      </trkpt>
      <trkpt lat="47.99379" lon="6.69131">
        <ele>701.9</ele>
        <time>2013-05-20T07:55:30Z</time>
      </trkpt>
      <trkpt lat="47.99379" lon="6.69126">
        <ele>702.38</ele>
        <time>2013-05-20T07:55:31Z</time>
      </trkpt>
      <trkpt lat="47.99378" lon="6.69121">
        <ele>700.94</ele>
        <time>2013-05-20T07:55:32Z</time>
      </trkpt>
      <trkpt lat="47.99379" lon="6.69116">
        <ele>700.46</ele>
        <time>2013-05-20T07:55:33Z</time>
      </trkpt>
      <trkpt lat="47.99379" lon="6.6911">
        <ele>700.46</ele>
        <time>2013-05-20T07:55:34Z</time>
      </trkpt>
      <trkpt lat="47.9938" lon="6.69103">
        <ele>699.98</ele>
        <time>2013-05-20T07:55:35Z</time>
      </trkpt>
      <trkpt lat="47.99381" lon="6.69083">
        <ele>699.02</ele>
        <time>2013-05-20T07:55:38Z</time>
      </trkpt>
      <trkpt lat="47.99381" lon="6.69076">
        <ele>698.53</ele>
        <time>2013-05-20T07:55:39Z</time>
      </trkpt>
      <trkpt lat="47.99381" lon="6.69068">
        <ele>697.57</ele>
        <time>2013-05-20T07:55:40Z</time>
      </trkpt>
      <trkpt lat="47.99381" lon="6.6906">
        <ele>697.09</ele>
        <time>2013-05-20T07:55:41Z</time>
      </trkpt>
      <trkpt lat="47.99381" lon="6.69052">
        <ele>696.61</ele>
        <time>2013-05-20T07:55:42Z</time>
      </trkpt>
      <trkpt lat="47.99383" lon="6.69035">
        <ele>694.69</ele>
        <time>2013-05-20T07:55:44Z</time>
      </trkpt>
      <trkpt lat="47.99388" lon="6.69012">
        <ele>694.21</ele>
        <time>2013-05-20T07:55:46Z</time>
      </trkpt>
      <trkpt lat="47.99392" lon="6.68989">
        <ele>692.77</ele>
        <time>2013-05-20T07:55:48Z</time>
      </trkpt>
      <trkpt lat="47.99397" lon="6.68954">
        <ele>687.96</ele>
        <time>2013-05-20T07:55:51Z</time>
      </trkpt>
      <trkpt lat="47.99401" lon="6.68921">
        <ele>684.6</ele>
        <time>2013-05-20T07:55:54Z</time>
      </trkpt>
      <trkpt lat="47.99402" lon="6.68909">
        <ele>684.6</ele>
        <time>2013-05-20T07:55:55Z</time>
      </trkpt>
      <trkpt lat="47.99402" lon="6.68898">
        <ele>684.12</ele>
        <time>2013-05-20T07:55:56Z</time>
      </trkpt>
      <trkpt lat="47.994" lon="6.68885">
        <ele>683.63</ele>
        <time>2013-05-20T07:55:57Z</time>
      </trkpt>
      <trkpt lat="47.99398" lon="6.68873">
        <ele>682.67</ele>
        <time>2013-05-20T07:55:58Z</time>
      </trkpt>
      <trkpt lat="47.99396" lon="6.6886">
        <ele>681.71</ele>
        <time>2013-05-20T07:55:59Z</time>
      </trkpt>
      <trkpt lat="47.99393" lon="6.68848">
        <ele>679.79</ele>
        <time>2013-05-20T07:56:00Z</time>
      </trkpt>
      <trkpt lat="47.9939" lon="6.68836">
        <ele>678.83</ele>
        <time>2013-05-20T07:56:01Z</time>
      </trkpt>
      <trkpt lat="47.99374" lon="6.6879">
        <ele>674.98</ele>
        <time>2013-05-20T07:56:05Z</time>
      </trkpt>
      <trkpt lat="47.99358" lon="6.68739">
        <ele>671.14</ele>
        <time>2013-05-20T07:56:09Z</time>
      </trkpt>
      <trkpt lat="47.9935" lon="6.68709">
        <ele>667.29</ele>
        <time>2013-05-20T07:56:11Z</time>
      </trkpt>
      <trkpt lat="47.99338" lon="6.6867">
        <ele>664.41</ele>
        <time>2013-05-20T07:56:14Z</time>
      </trkpt>
      <trkpt lat="47.99329" lon="6.68637">
        <ele>660.08</ele>
        <time>2013-05-20T07:56:17Z</time>
      </trkpt>
      <trkpt lat="47.9932" lon="6.68606">
        <ele>656.72</ele>
        <time>2013-05-20T07:56:20Z</time>
      </trkpt>
      <trkpt lat="47.99319" lon="6.68597">
        <ele>656.72</ele>
        <time>2013-05-20T07:56:21Z</time>
      </trkpt>
      <trkpt lat="47.99314" lon="6.68548">
        <ele>655.28</ele>
        <time>2013-05-20T07:56:29Z</time>
      </trkpt>
      <trkpt lat="47.99314" lon="6.68499">
        <ele>652.87</ele>
        <time>2013-05-20T07:56:37Z</time>
      </trkpt>
      <trkpt lat="47.99315" lon="6.68487">
        <ele>653.35</ele>
        <time>2013-05-20T07:56:38Z</time>
      </trkpt>
      <trkpt lat="47.99316" lon="6.68477">
        <ele>652.39</ele>
        <time>2013-05-20T07:56:39Z</time>
      </trkpt>
      <trkpt lat="47.99318" lon="6.6846">
        <ele>650.47</ele>
        <time>2013-05-20T07:56:41Z</time>
      </trkpt>
      <trkpt lat="47.99321" lon="6.68454">
        <ele>649.03</ele>
        <time>2013-05-20T07:56:42Z</time>
      </trkpt>
      <trkpt lat="47.99325" lon="6.68448">
        <ele>649.03</ele>
        <time>2013-05-20T07:56:43Z</time>
      </trkpt>
      <trkpt lat="47.9933" lon="6.68444">
        <ele>649.03</ele>
        <time>2013-05-20T07:56:44Z</time>
      </trkpt>
      <trkpt lat="47.9935" lon="6.6842">
        <ele>650.47</ele>
        <time>2013-05-20T07:56:53Z</time>
      </trkpt>
      <trkpt lat="47.99359" lon="6.68407">
        <ele>652.87</ele>
        <time>2013-05-20T07:57:00Z</time>
      </trkpt>
      <trkpt lat="47.99377" lon="6.68385">
        <ele>655.28</ele>
        <time>2013-05-20T07:57:13Z</time>
      </trkpt>
      <trkpt lat="47.99394" lon="6.68348">
        <ele>657.2</ele>
        <time>2013-05-20T07:57:29Z</time>
      </trkpt>
      <trkpt lat="47.99411" lon="6.68316">
        <ele>660.08</ele>
        <time>2013-05-20T07:57:45Z</time>
      </trkpt>
      <trkpt lat="47.99424" lon="6.68288">
        <ele>663.45</ele>
        <time>2013-05-20T07:58:00Z</time>
      </trkpt>
      <trkpt lat="47.99426" lon="6.68284">
        <ele>664.41</ele>
        <time>2013-05-20T07:58:02Z</time>
      </trkpt>
      <trkpt lat="47.99435" lon="6.68257">
        <ele>667.77</ele>
        <time>2013-05-20T07:58:14Z</time>
      </trkpt>
      <trkpt lat="47.99439" lon="6.68245">
        <ele>669.22</ele>
        <time>2013-05-20T07:58:20Z</time>
      </trkpt>
      <trkpt lat="47.99447" lon="6.68212">
        <ele>672.58</ele>
        <time>2013-05-20T07:58:34Z</time>
      </trkpt>
      <trkpt lat="47.99449" lon="6.68203">
        <ele>674.98</ele>
        <time>2013-05-20T07:58:38Z</time>
      </trkpt>
      <trkpt lat="47.9945" lon="6.68202">
        <ele>675.46</ele>
        <time>2013-05-20T07:58:39Z</time>
      </trkpt>
      <trkpt lat="47.9945" lon="6.682">
        <ele>675.46</ele>
        <time>2013-05-20T07:58:40Z</time>
      </trkpt>
      <trkpt lat="47.99451" lon="6.68198">
        <ele>675.94</ele>
        <time>2013-05-20T07:58:41Z</time>
      </trkpt>
      <trkpt lat="47.99451" lon="6.68196">
        <ele>676.91</ele>
        <time>2013-05-20T07:58:42Z</time>
      </trkpt>
      <trkpt lat="47.99452" lon="6.68193">
        <ele>677.39</ele>
        <time>2013-05-20T07:58:43Z</time>
      </trkpt>
      <trkpt lat="47.99459" lon="6.68175">
        <ele>679.31</ele>
        <time>2013-05-20T07:58:52Z</time>
      </trkpt>
      <trkpt lat="47.99462" lon="6.68151">
        <ele>681.71</ele>
        <time>2013-05-20T07:59:06Z</time>
      </trkpt>
      <trkpt lat="47.99461" lon="6.6814">
        <ele>682.19</ele>
        <time>2013-05-20T07:59:11Z</time>
      </trkpt>
      <trkpt lat="47.99461" lon="6.68138">
        <ele>682.19</ele>
        <time>2013-05-20T07:59:12Z</time>
      </trkpt>
      <trkpt lat="47.99462" lon="6.68136">
        <ele>682.19</ele>
        <time>2013-05-20T07:59:13Z</time>
      </trkpt>
      <trkpt lat="47.9946" lon="6.6813">
        <ele>683.15</ele>
        <time>2013-05-20T07:59:18Z</time>
      </trkpt>
      <trkpt lat="47.99459" lon="6.68128">
        <ele>683.63</ele>
        <time>2013-05-20T07:59:19Z</time>
      </trkpt>
      <trkpt lat="47.99461" lon="6.6811">
        <ele>684.6</ele>
        <time>2013-05-20T07:59:29Z</time>
      </trkpt>
      <trkpt lat="47.99462" lon="6.68107">
        <ele>685.08</ele>
        <time>2013-05-20T07:59:30Z</time>
      </trkpt>
      <trkpt lat="47.99465" lon="6.68092">
        <ele>686.52</ele>
        <time>2013-05-20T07:59:37Z</time>
      </trkpt>
      <trkpt lat="47.99466" lon="6.6809">
        <ele>687.96</ele>
        <time>2013-05-20T07:59:38Z</time>
      </trkpt>
      <trkpt lat="47.99466" lon="6.68088">
        <ele>687.48</ele>
        <time>2013-05-20T07:59:39Z</time>
      </trkpt>
      <trkpt lat="47.99467" lon="6.68086">
        <ele>687.48</ele>
        <time>2013-05-20T07:59:40Z</time>
      </trkpt>
      <trkpt lat="47.99467" lon="6.68076">
        <ele>688.92</ele>
        <time>2013-05-20T07:59:45Z</time>
      </trkpt>
      <trkpt lat="47.99466" lon="6.68074">
        <ele>689.4</ele>
        <time>2013-05-20T07:59:46Z</time>
      </trkpt>
      <trkpt lat="47.99466" lon="6.68061">
        <ele>691.33</ele>
        <time>2013-05-20T07:59:51Z</time>
      </trkpt>
      <trkpt lat="47.99465" lon="6.68038">
        <ele>691.81</ele>
        <time>2013-05-20T08:00:03Z</time>
      </trkpt>
      <trkpt lat="47.99467" lon="6.68023">
        <ele>691.81</ele>
        <time>2013-05-20T08:00:09Z</time>
      </trkpt>
      <trkpt lat="47.99467" lon="6.68021">
        <ele>692.77</ele>
        <time>2013-05-20T08:00:10Z</time>
      </trkpt>
      <trkpt lat="47.99467" lon="6.68019">
        <ele>692.77</ele>
        <time>2013-05-20T08:00:11Z</time>
      </trkpt>
      <trkpt lat="47.99467" lon="6.68017">
        <ele>693.25</ele>
        <time>2013-05-20T08:00:12Z</time>
      </trkpt>
      <trkpt lat="47.99467" lon="6.68014">
        <ele>692.77</ele>
        <time>2013-05-20T08:00:13Z</time>
      </trkpt>
      <trkpt lat="47.99467" lon="6.68012">
        <ele>693.25</ele>
        <time>2013-05-20T08:00:14Z</time>
      </trkpt>
      <trkpt lat="47.99467" lon="6.68009">
        <ele>693.73</ele>
        <time>2013-05-20T08:00:15Z</time>
      </trkpt>
      <trkpt lat="47.99468" lon="6.67994">
        <ele>695.17</ele>
        <time>2013-05-20T08:00:23Z</time>
      </trkpt>
      <trkpt lat="47.99467" lon="6.67991">
        <ele>694.69</ele>
        <time>2013-05-20T08:00:24Z</time>
      </trkpt>
      <trkpt lat="47.99466" lon="6.6797">
        <ele>696.61</ele>
        <time>2013-05-20T08:00:37Z</time>
      </trkpt>
      <trkpt lat="47.99467" lon="6.67945">
        <ele>696.61</ele>
        <time>2013-05-20T08:00:47Z</time>
      </trkpt>
      <trkpt lat="47.99462" lon="6.67935">
        <ele>697.09</ele>
        <time>2013-05-20T08:00:52Z</time>
      </trkpt>
      <trkpt lat="47.99459" lon="6.67926">
        <ele>697.09</ele>
        <time>2013-05-20T08:00:57Z</time>
      </trkpt>
      <trkpt lat="47.99462" lon="6.67908">
        <ele>698.05</ele>
        <time>2013-05-20T08:01:04Z</time>
      </trkpt>
      <trkpt lat="47.99457" lon="6.67887">
        <ele>699.98</ele>
        <time>2013-05-20T08:01:14Z</time>
      </trkpt>
      <trkpt lat="47.99455" lon="6.67875">
        <ele>699.98</ele>
        <time>2013-05-20T08:01:17Z</time>
      </trkpt>
      <trkpt lat="47.99443" lon="6.67844">
        <ele>701.9</ele>
        <time>2013-05-20T08:01:30Z</time>
      </trkpt>
      <trkpt lat="47.99441" lon="6.67836">
        <ele>702.86</ele>
        <time>2013-05-20T08:01:34Z</time>
      </trkpt>
      <trkpt lat="47.9944" lon="6.67826">
        <ele>703.82</ele>
        <time>2013-05-20T08:01:38Z</time>
      </trkpt>
      <trkpt lat="47.99432" lon="6.67791">
        <ele>705.26</ele>
        <time>2013-05-20T08:01:54Z</time>
      </trkpt>
      <trkpt lat="47.99434" lon="6.67776">
        <ele>706.23</ele>
        <time>2013-05-20T08:01:59Z</time>
      </trkpt>
      <trkpt lat="47.99437" lon="6.6776">
        <ele>705.75</ele>
        <time>2013-05-20T08:02:04Z</time>
      </trkpt>
      <trkpt lat="47.99437" lon="6.67757">
        <ele>706.23</ele>
        <time>2013-05-20T08:02:05Z</time>
      </trkpt>
      <trkpt lat="47.99436" lon="6.67748">
        <ele>705.75</ele>
        <time>2013-05-20T08:02:09Z</time>
      </trkpt>
      <trkpt lat="47.99435" lon="6.67745">
        <ele>705.75</ele>
        <time>2013-05-20T08:02:10Z</time>
      </trkpt>
      <trkpt lat="47.99434" lon="6.67738">
        <ele>706.23</ele>
        <time>2013-05-20T08:02:13Z</time>
      </trkpt>
      <trkpt lat="47.99433" lon="6.67735">
        <ele>705.75</ele>
        <time>2013-05-20T08:02:14Z</time>
      </trkpt>
      <trkpt lat="47.99429" lon="6.6771">
        <ele>705.26</ele>
        <time>2013-05-20T08:02:23Z</time>
      </trkpt>
      <trkpt lat="47.99429" lon="6.67707">
        <ele>705.75</ele>
        <time>2013-05-20T08:02:24Z</time>
      </trkpt>
      <trkpt lat="47.99428" lon="6.67705">
        <ele>705.75</ele>
        <time>2013-05-20T08:02:25Z</time>
      </trkpt>
      <trkpt lat="47.99427" lon="6.67703">
        <ele>705.75</ele>
        <time>2013-05-20T08:02:26Z</time>
      </trkpt>
      <trkpt lat="47.99426" lon="6.67701">
        <ele>706.23</ele>
        <time>2013-05-20T08:02:27Z</time>
      </trkpt>
      <trkpt lat="47.99425" lon="6.67697">
        <ele>705.75</ele>
        <time>2013-05-20T08:02:28Z</time>
      </trkpt>
      <trkpt lat="47.99425" lon="6.67694">
        <ele>705.75</ele>
        <time>2013-05-20T08:02:29Z</time>
      </trkpt>
      <trkpt lat="47.99422" lon="6.67661">
        <ele>705.26</ele>
        <time>2013-05-20T08:02:39Z</time>
      </trkpt>
      <trkpt lat="47.99422" lon="6.67659">
        <ele>705.75</ele>
        <time>2013-05-20T08:02:40Z</time>
      </trkpt>
      <trkpt lat="47.99422" lon="6.67656">
        <ele>705.75</ele>
        <time>2013-05-20T08:02:41Z</time>
      </trkpt>
      <trkpt lat="47.99422" lon="6.67653">
        <ele>706.23</ele>
        <time>2013-05-20T08:02:42Z</time>
      </trkpt>
      <trkpt lat="47.99422" lon="6.67651">
        <ele>706.23</ele>
        <time>2013-05-20T08:02:43Z</time>
      </trkpt>
      <trkpt lat="47.99422" lon="6.67648">
        <ele>706.23</ele>
        <time>2013-05-20T08:02:44Z</time>
      </trkpt>
      <trkpt lat="47.99423" lon="6.67627">
        <ele>707.19</ele>
        <time>2013-05-20T08:02:50Z</time>
      </trkpt>
      <trkpt lat="47.99423" lon="6.67599">
        <ele>707.67</ele>
        <time>2013-05-20T08:02:59Z</time>
      </trkpt>
      <trkpt lat="47.99419" lon="6.67557">
        <ele>704.3</ele>
        <time>2013-05-20T08:03:08Z</time>
      </trkpt>
      <trkpt lat="47.99419" lon="6.67512">
        <ele>700.46</ele>
        <time>2013-05-20T08:03:17Z</time>
      </trkpt>
      <trkpt lat="47.9943" lon="6.67486">
        <ele>697.09</ele>
        <time>2013-05-20T08:03:22Z</time>
      </trkpt>
      <trkpt lat="47.99432" lon="6.6748">
        <ele>696.61</ele>
        <time>2013-05-20T08:03:23Z</time>
      </trkpt>
      <trkpt lat="47.9944" lon="6.67466">
        <ele>695.65</ele>
        <time>2013-05-20T08:03:25Z</time>
      </trkpt>
      <trkpt lat="47.99448" lon="6.67454">
        <ele>696.13</ele>
        <time>2013-05-20T08:03:27Z</time>
      </trkpt>
      <trkpt lat="47.99483" lon="6.67425">
        <ele>696.13</ele>
        <time>2013-05-20T08:03:37Z</time>
      </trkpt>
      <trkpt lat="47.99513" lon="6.67411">
        <ele>694.21</ele>
        <time>2013-05-20T08:03:47Z</time>
      </trkpt>
      <trkpt lat="47.99523" lon="6.67414">
        <ele>695.65</ele>
        <time>2013-05-20T08:03:52Z</time>
      </trkpt>
      <trkpt lat="47.99525" lon="6.67414">
        <ele>695.17</ele>
        <time>2013-05-20T08:03:53Z</time>
      </trkpt>
      <trkpt lat="47.99527" lon="6.67414">
        <ele>695.17</ele>
        <time>2013-05-20T08:03:54Z</time>
      </trkpt>
      <trkpt lat="47.99529" lon="6.67413">
        <ele>695.65</ele>
        <time>2013-05-20T08:03:55Z</time>
      </trkpt>
      <trkpt lat="47.99532" lon="6.67412">
        <ele>695.17</ele>
        <time>2013-05-20T08:03:56Z</time>
      </trkpt>
      <trkpt lat="47.99534" lon="6.6741">
        <ele>695.65</ele>
        <time>2013-05-20T08:03:57Z</time>
      </trkpt>
      <trkpt lat="47.99536" lon="6.67409">
        <ele>695.17</ele>
        <time>2013-05-20T08:03:58Z</time>
      </trkpt>
      <trkpt lat="47.99538" lon="6.67408">
        <ele>695.17</ele>
        <time>2013-05-20T08:03:59Z</time>
      </trkpt>
      <trkpt lat="47.99552" lon="6.67403">
        <ele>691.81</ele>
        <time>2013-05-20T08:04:05Z</time>
      </trkpt>
      <trkpt lat="47.99555" lon="6.67402">
        <ele>690.36</ele>
        <time>2013-05-20T08:04:07Z</time>
      </trkpt>
      <trkpt lat="47.99563" lon="6.67399">
        <ele>688.44</ele>
        <time>2013-05-20T08:04:12Z</time>
      </trkpt>
      <trkpt lat="47.99574" lon="6.67394">
        <ele>684.6</ele>
        <time>2013-05-20T08:04:17Z</time>
      </trkpt>
      <trkpt lat="47.99576" lon="6.67393">
        <ele>684.6</ele>
        <time>2013-05-20T08:04:18Z</time>
      </trkpt>
      <trkpt lat="47.99586" lon="6.67389">
        <ele>681.23</ele>
        <time>2013-05-20T08:04:24Z</time>
      </trkpt>
      <trkpt lat="47.99596" lon="6.67388">
        <ele>678.35</ele>
        <time>2013-05-20T08:04:31Z</time>
      </trkpt>
      <trkpt lat="47.99606" lon="6.6738">
        <ele>675.46</ele>
        <time>2013-05-20T08:04:36Z</time>
      </trkpt>
      <trkpt lat="47.99613" lon="6.67372">
        <ele>672.1</ele>
        <time>2013-05-20T08:04:40Z</time>
      </trkpt>
      <trkpt lat="47.99624" lon="6.67367">
        <ele>668.25</ele>
        <time>2013-05-20T08:04:45Z</time>
      </trkpt>
      <trkpt lat="47.99633" lon="6.6736">
        <ele>664.89</ele>
        <time>2013-05-20T08:04:49Z</time>
      </trkpt>
      <trkpt lat="47.99644" lon="6.67348">
        <ele>661.04</ele>
        <time>2013-05-20T08:04:54Z</time>
      </trkpt>
      <trkpt lat="47.9965" lon="6.67332">
        <ele>657.2</ele>
        <time>2013-05-20T08:05:01Z</time>
      </trkpt>
      <trkpt lat="47.99653" lon="6.67328">
        <ele>656.24</ele>
        <time>2013-05-20T08:05:04Z</time>
      </trkpt>
      <trkpt lat="47.99656" lon="6.67327">
        <ele>655.76</ele>
        <time>2013-05-20T08:05:05Z</time>
      </trkpt>
      <trkpt lat="47.99658" lon="6.67327">
        <ele>655.76</ele>
        <time>2013-05-20T08:05:06Z</time>
      </trkpt>
      <trkpt lat="47.99661" lon="6.67327">
        <ele>654.8</ele>
        <time>2013-05-20T08:05:07Z</time>
      </trkpt>
      <trkpt lat="47.99663" lon="6.67327">
        <ele>654.31</ele>
        <time>2013-05-20T08:05:08Z</time>
      </trkpt>
      <trkpt lat="47.99666" lon="6.67326">
        <ele>653.35</ele>
        <time>2013-05-20T08:05:10Z</time>
      </trkpt>
      <trkpt lat="47.99679" lon="6.67319">
        <ele>648.55</ele>
        <time>2013-05-20T08:05:14Z</time>
      </trkpt>
      <trkpt lat="47.99682" lon="6.67317">
        <ele>648.55</ele>
        <time>2013-05-20T08:05:15Z</time>
      </trkpt>
      <trkpt lat="47.99694" lon="6.67305">
        <ele>644.22</ele>
        <time>2013-05-20T08:05:18Z</time>
      </trkpt>
      <trkpt lat="47.99698" lon="6.67301">
        <ele>644.22</ele>
        <time>2013-05-20T08:05:19Z</time>
      </trkpt>
      <trkpt lat="47.99713" lon="6.67296">
        <ele>640.86</ele>
        <time>2013-05-20T08:05:23Z</time>
      </trkpt>
      <trkpt lat="47.99726" lon="6.67294">
        <ele>637.49</ele>
        <time>2013-05-20T08:05:26Z</time>
      </trkpt>
      <trkpt lat="47.99741" lon="6.6729">
        <ele>635.57</ele>
        <time>2013-05-20T08:05:30Z</time>
      </trkpt>
      <trkpt lat="47.99761" lon="6.67283">
        <ele>633.17</ele>
        <time>2013-05-20T08:05:34Z</time>
      </trkpt>
      <trkpt lat="47.99767" lon="6.67278">
        <ele>631.72</ele>
        <time>2013-05-20T08:05:35Z</time>
      </trkpt>
      <trkpt lat="47.99772" lon="6.67274">
        <ele>631.72</ele>
        <time>2013-05-20T08:05:36Z</time>
      </trkpt>
      <trkpt lat="47.9979" lon="6.67257">
        <ele>627.88</ele>
        <time>2013-05-20T08:05:40Z</time>
      </trkpt>
      <trkpt lat="47.99799" lon="6.67251">
        <ele>627.88</ele>
        <time>2013-05-20T08:05:42Z</time>
      </trkpt>
      <trkpt lat="47.99803" lon="6.67249">
        <ele>627.4</ele>
        <time>2013-05-20T08:05:43Z</time>
      </trkpt>
      <trkpt lat="47.99807" lon="6.67245">
        <ele>626.92</ele>
        <time>2013-05-20T08:05:44Z</time>
      </trkpt>
      <trkpt lat="47.9981" lon="6.67241">
        <ele>627.4</ele>
        <time>2013-05-20T08:05:45Z</time>
      </trkpt>
      <trkpt lat="47.99812" lon="6.67236">
        <ele>626.92</ele>
        <time>2013-05-20T08:05:46Z</time>
      </trkpt>
      <trkpt lat="47.99814" lon="6.67231">
        <ele>626.44</ele>
        <time>2013-05-20T08:05:47Z</time>
      </trkpt>
      <trkpt lat="47.99817" lon="6.67224">
        <ele>625.47</ele>
        <time>2013-05-20T08:05:49Z</time>
      </trkpt>
      <trkpt lat="47.99828" lon="6.67199">
        <ele>622.59</ele>
        <time>2013-05-20T08:05:55Z</time>
      </trkpt>
      <trkpt lat="47.99833" lon="6.67183">
        <ele>621.15</ele>
        <time>2013-05-20T08:05:57Z</time>
      </trkpt>
      <trkpt lat="47.9984" lon="6.6715">
        <ele>617.78</ele>
        <time>2013-05-20T08:06:00Z</time>
      </trkpt>
      <trkpt lat="47.99845" lon="6.67129">
        <ele>614.9</ele>
        <time>2013-05-20T08:06:02Z</time>
      </trkpt>
      <trkpt lat="47.99848" lon="6.67119">
        <ele>614.9</ele>
        <time>2013-05-20T08:06:03Z</time>
      </trkpt>
      <trkpt lat="47.99862" lon="6.67065">
        <ele>611.54</ele>
        <time>2013-05-20T08:06:08Z</time>
      </trkpt>
      <trkpt lat="47.99867" lon="6.67034">
        <ele>608.17</ele>
        <time>2013-05-20T08:06:11Z</time>
      </trkpt>
      <trkpt lat="47.99869" lon="6.67026">
        <ele>607.69</ele>
        <time>2013-05-20T08:06:12Z</time>
      </trkpt>
      <trkpt lat="47.99873" lon="6.67002">
        <ele>604.33</ele>
        <time>2013-05-20T08:06:15Z</time>
      </trkpt>
      <trkpt lat="47.99875" lon="6.66995">
        <ele>604.81</ele>
        <time>2013-05-20T08:06:16Z</time>
      </trkpt>
      <trkpt lat="47.99876" lon="6.66988">
        <ele>603.85</ele>
        <time>2013-05-20T08:06:17Z</time>
      </trkpt>
      <trkpt lat="47.99867" lon="6.66947">
        <ele>600.96</ele>
        <time>2013-05-20T08:06:26Z</time>
      </trkpt>
      <trkpt lat="47.9986" lon="6.66906">
        <ele>599.04</ele>
        <time>2013-05-20T08:06:35Z</time>
      </trkpt>
      <trkpt lat="47.99854" lon="6.66892">
        <ele>598.08</ele>
        <time>2013-05-20T08:06:38Z</time>
      </trkpt>
      <trkpt lat="47.99851" lon="6.6689">
        <ele>597.6</ele>
        <time>2013-05-20T08:06:39Z</time>
      </trkpt>
      <trkpt lat="47.99849" lon="6.6689">
        <ele>596.64</ele>
        <time>2013-05-20T08:06:40Z</time>
      </trkpt>
      <trkpt lat="47.99846" lon="6.66892">
        <ele>594.71</ele>
        <time>2013-05-20T08:06:41Z</time>
      </trkpt>
      <trkpt lat="47.99843" lon="6.66896">
        <ele>593.27</ele>
        <time>2013-05-20T08:06:42Z</time>
      </trkpt>
      <trkpt lat="47.99841" lon="6.66901">
        <ele>592.79</ele>
        <time>2013-05-20T08:06:43Z</time>
      </trkpt>
      <trkpt lat="47.99837" lon="6.66906">
        <ele>592.79</ele>
        <time>2013-05-20T08:06:44Z</time>
      </trkpt>
      <trkpt lat="47.99829" lon="6.6692">
        <ele>588.46</ele>
        <time>2013-05-20T08:06:46Z</time>
      </trkpt>
      <trkpt lat="47.99825" lon="6.66927">
        <ele>587.02</ele>
        <time>2013-05-20T08:06:47Z</time>
      </trkpt>
      <trkpt lat="47.99812" lon="6.6695">
        <ele>583.66</ele>
        <time>2013-05-20T08:06:50Z</time>
      </trkpt>
      <trkpt lat="47.99801" lon="6.66963">
        <ele>581.73</ele>
        <time>2013-05-20T08:06:52Z</time>
      </trkpt>
      <trkpt lat="47.99796" lon="6.66968">
        <ele>581.25</ele>
        <time>2013-05-20T08:06:53Z</time>
      </trkpt>
      <trkpt lat="47.9979" lon="6.66973">
        <ele>579.81</ele>
        <time>2013-05-20T08:06:54Z</time>
      </trkpt>
      <trkpt lat="47.99776" lon="6.66982">
        <ele>577.41</ele>
        <time>2013-05-20T08:06:56Z</time>
      </trkpt>
      <trkpt lat="47.99768" lon="6.66985">
        <ele>575.97</ele>
        <time>2013-05-20T08:06:57Z</time>
      </trkpt>
      <trkpt lat="47.99759" lon="6.66989">
        <ele>575.01</ele>
        <time>2013-05-20T08:06:58Z</time>
      </trkpt>
      <trkpt lat="47.99745" lon="6.66994">
        <ele>572.6</ele>
        <time>2013-05-20T08:07:00Z</time>
      </trkpt>
      <trkpt lat="47.9974" lon="6.66996">
        <ele>571.16</ele>
        <time>2013-05-20T08:07:01Z</time>
      </trkpt>
      <trkpt lat="47.99722" lon="6.67004">
        <ele>567.8</ele>
        <time>2013-05-20T08:07:04Z</time>
      </trkpt>
      <trkpt lat="47.99714" lon="6.67004">
        <ele>566.35</ele>
        <time>2013-05-20T08:07:05Z</time>
      </trkpt>
      <trkpt lat="47.99705" lon="6.67002">
        <ele>566.35</ele>
        <time>2013-05-20T08:07:06Z</time>
      </trkpt>
      <trkpt lat="47.99696" lon="6.67">
        <ele>565.39</ele>
        <time>2013-05-20T08:07:07Z</time>
      </trkpt>
      <trkpt lat="47.99688" lon="6.66999">
        <ele>564.91</ele>
        <time>2013-05-20T08:07:08Z</time>
      </trkpt>
      <trkpt lat="47.99681" lon="6.66994">
        <ele>562.99</ele>
        <time>2013-05-20T08:07:09Z</time>
      </trkpt>
      <trkpt lat="47.99675" lon="6.66987">
        <ele>562.03</ele>
        <time>2013-05-20T08:07:10Z</time>
      </trkpt>
      <trkpt lat="47.99669" lon="6.66978">
        <ele>561.07</ele>
        <time>2013-05-20T08:07:11Z</time>
      </trkpt>
      <trkpt lat="47.99664" lon="6.66969">
        <ele>559.62</ele>
        <time>2013-05-20T08:07:12Z</time>
      </trkpt>
      <trkpt lat="47.99659" lon="6.6696">
        <ele>558.18</ele>
        <time>2013-05-20T08:07:13Z</time>
      </trkpt>
      <trkpt lat="47.9965" lon="6.66947">
        <ele>554.82</ele>
        <time>2013-05-20T08:07:15Z</time>
      </trkpt>
      <trkpt lat="47.99645" lon="6.66941">
        <ele>554.82</ele>
        <time>2013-05-20T08:07:16Z</time>
      </trkpt>
      <trkpt lat="47.99639" lon="6.66938">
        <ele>553.86</ele>
        <time>2013-05-20T08:07:17Z</time>
      </trkpt>
      <trkpt lat="47.99632" lon="6.66936">
        <ele>552.9</ele>
        <time>2013-05-20T08:07:18Z</time>
      </trkpt>
      <trkpt lat="47.99626" lon="6.66935">
        <ele>550.97</ele>
        <time>2013-05-20T08:07:19Z</time>
      </trkpt>
      <trkpt lat="47.9962" lon="6.66934">
        <ele>550.49</ele>
        <time>2013-05-20T08:07:20Z</time>
      </trkpt>
      <trkpt lat="47.99586" lon="6.6693">
        <ele>547.13</ele>
        <time>2013-05-20T08:07:24Z</time>
      </trkpt>
      <trkpt lat="47.9957" lon="6.66928">
        <ele>545.2</ele>
        <time>2013-05-20T08:07:26Z</time>
      </trkpt>
      <trkpt lat="47.99564" lon="6.66926">
        <ele>545.2</ele>
        <time>2013-05-20T08:07:27Z</time>
      </trkpt>
      <trkpt lat="47.99549" lon="6.6691">
        <ele>543.76</ele>
        <time>2013-05-20T08:07:35Z</time>
      </trkpt>
      <trkpt lat="47.99532" lon="6.66891">
        <ele>542.8</ele>
        <time>2013-05-20T08:07:41Z</time>
      </trkpt>
      <trkpt lat="47.99527" lon="6.6689">
        <ele>541.84</ele>
        <time>2013-05-20T08:07:42Z</time>
      </trkpt>
      <trkpt lat="47.99508" lon="6.66891">
        <ele>537.99</ele>
        <time>2013-05-20T08:07:48Z</time>
      </trkpt>
      <trkpt lat="47.99502" lon="6.66893">
        <ele>534.63</ele>
        <time>2013-05-20T08:07:50Z</time>
      </trkpt>
      <trkpt lat="47.99485" lon="6.66898">
        <ele>532.71</ele>
        <time>2013-05-20T08:07:53Z</time>
      </trkpt>
      <trkpt lat="47.9947" lon="6.669">
        <ele>531.27</ele>
        <time>2013-05-20T08:07:55Z</time>
      </trkpt>
      <trkpt lat="47.9945" lon="6.66894">
        <ele>528.86</ele>
        <time>2013-05-20T08:07:58Z</time>
      </trkpt>
      <trkpt lat="47.99447" lon="6.66893">
        <ele>528.86</ele>
        <time>2013-05-20T08:07:59Z</time>
      </trkpt>
      <trkpt lat="47.99447" lon="6.66891">
        <ele>528.86</ele>
        <time>2013-05-20T08:08:00Z</time>
      </trkpt>
      <trkpt lat="47.99448" lon="6.66889">
        <ele>529.34</ele>
        <time>2013-05-20T08:08:01Z</time>
      </trkpt>
      <trkpt lat="47.99449" lon="6.66887">
        <ele>528.38</ele>
        <time>2013-05-20T08:08:02Z</time>
      </trkpt>
      <trkpt lat="47.99451" lon="6.66885">
        <ele>527.9</ele>
        <time>2013-05-20T08:08:03Z</time>
      </trkpt>
      <trkpt lat="47.99453" lon="6.66882">
        <ele>528.38</ele>
        <time>2013-05-20T08:08:04Z</time>
      </trkpt>
      <trkpt lat="47.99456" lon="6.6688">
        <ele>527.9</ele>
        <time>2013-05-20T08:08:05Z</time>
      </trkpt>
      <trkpt lat="47.99459" lon="6.66877">
        <ele>527.42</ele>
        <time>2013-05-20T08:08:06Z</time>
      </trkpt>
      <trkpt lat="47.9949" lon="6.66838">
        <ele>524.54</ele>
        <time>2013-05-20T08:08:15Z</time>
      </trkpt>
      <trkpt lat="47.9952" lon="6.66804">
        <ele>521.17</ele>
        <time>2013-05-20T08:08:21Z</time>
      </trkpt>
      <trkpt lat="47.99565" lon="6.66757">
        <ele>516.85</ele>
        <time>2013-05-20T08:08:27Z</time>
      </trkpt>
      <trkpt lat="47.99592" lon="6.6673">
        <ele>513</ele>
        <time>2013-05-20T08:08:30Z</time>
      </trkpt>
      <trkpt lat="47.99613" lon="6.6671">
        <ele>509.16</ele>
        <time>2013-05-20T08:08:32Z</time>
      </trkpt>
      <trkpt lat="47.99634" lon="6.66693">
        <ele>504.35</ele>
        <time>2013-05-20T08:08:34Z</time>
      </trkpt>
      <trkpt lat="47.99664" lon="6.6667">
        <ele>500.5</ele>
        <time>2013-05-20T08:08:37Z</time>
      </trkpt>
      <trkpt lat="47.99672" lon="6.6666">
        <ele>500.02</ele>
        <time>2013-05-20T08:08:38Z</time>
      </trkpt>
      <trkpt lat="47.99678" lon="6.66648">
        <ele>499.54</ele>
        <time>2013-05-20T08:08:39Z</time>
      </trkpt>
      <trkpt lat="47.99687" lon="6.66619">
        <ele>498.58</ele>
        <time>2013-05-20T08:08:41Z</time>
      </trkpt>
      <trkpt lat="47.99699" lon="6.66593">
        <ele>497.62</ele>
        <time>2013-05-20T08:08:43Z</time>
      </trkpt>
      <trkpt lat="47.99721" lon="6.66546">
        <ele>495.22</ele>
        <time>2013-05-20T08:08:47Z</time>
      </trkpt>
      <trkpt lat="47.99733" lon="6.66523">
        <ele>494.26</ele>
        <time>2013-05-20T08:08:49Z</time>
      </trkpt>
      <trkpt lat="47.99751" lon="6.66486">
        <ele>491.37</ele>
        <time>2013-05-20T08:08:52Z</time>
      </trkpt>
      <trkpt lat="47.9976" lon="6.66475">
        <ele>489.45</ele>
        <time>2013-05-20T08:08:53Z</time>
      </trkpt>
      <trkpt lat="47.99787" lon="6.66442">
        <ele>485.12</ele>
        <time>2013-05-20T08:08:56Z</time>
      </trkpt>
      <trkpt lat="47.99813" lon="6.66402">
        <ele>479.84</ele>
        <time>2013-05-20T08:08:59Z</time>
      </trkpt>
      <trkpt lat="47.99826" lon="6.66377">
        <ele>475.99</ele>
        <time>2013-05-20T08:09:01Z</time>
      </trkpt>
      <trkpt lat="47.99835" lon="6.66353">
        <ele>473.11</ele>
        <time>2013-05-20T08:09:03Z</time>
      </trkpt>
      <trkpt lat="47.99849" lon="6.66324">
        <ele>469.74</ele>
        <time>2013-05-20T08:09:06Z</time>
      </trkpt>
      <trkpt lat="47.99855" lon="6.66317">
        <ele>469.26</ele>
        <time>2013-05-20T08:09:07Z</time>
      </trkpt>
      <trkpt lat="47.99861" lon="6.66311">
        <ele>468.78</ele>
        <time>2013-05-20T08:09:08Z</time>
      </trkpt>
      <trkpt lat="47.99867" lon="6.66306">
        <ele>468.3</ele>
        <time>2013-05-20T08:09:09Z</time>
      </trkpt>
      <trkpt lat="47.99899" lon="6.66293">
        <ele>467.34</ele>
        <time>2013-05-20T08:09:14Z</time>
      </trkpt>
      <trkpt lat="47.99903" lon="6.6629">
        <ele>466.38</ele>
        <time>2013-05-20T08:09:15Z</time>
      </trkpt>
      <trkpt lat="47.99935" lon="6.66273">
        <ele>464.45</ele>
        <time>2013-05-20T08:09:20Z</time>
      </trkpt>
      <trkpt lat="47.99965" lon="6.66252">
        <ele>461.57</ele>
        <time>2013-05-20T08:09:24Z</time>
      </trkpt>
      <trkpt lat="47.99972" lon="6.66248">
        <ele>461.57</ele>
        <time>2013-05-20T08:09:25Z</time>
      </trkpt>
      <trkpt lat="47.99991" lon="6.66256">
        <ele>460.61</ele>
        <time>2013-05-20T08:09:28Z</time>
      </trkpt>
      <trkpt lat="47.99994" lon="6.66258">
        <ele>460.13</ele>
        <time>2013-05-20T08:09:29Z</time>
      </trkpt>
      <trkpt lat="48.00001" lon="6.66268">
        <ele>459.65</ele>
        <time>2013-05-20T08:09:30Z</time>
      </trkpt>
      <trkpt lat="48.00026" lon="6.66309">
        <ele>459.17</ele>
        <time>2013-05-20T08:09:36Z</time>
      </trkpt>
      <trkpt lat="48.00029" lon="6.66316">
        <ele>459.17</ele>
        <time>2013-05-20T08:09:37Z</time>
      </trkpt>
      <trkpt lat="48.00032" lon="6.66324">
        <ele>459.17</ele>
        <time>2013-05-20T08:09:38Z</time>
      </trkpt>
      <trkpt lat="48.00034" lon="6.66333">
        <ele>458.69</ele>
        <time>2013-05-20T08:09:39Z</time>
      </trkpt>
      <trkpt lat="48.00036" lon="6.66343">
        <ele>457.72</ele>
        <time>2013-05-20T08:09:40Z</time>
      </trkpt>
      <trkpt lat="48.00047" lon="6.66386">
        <ele>456.76</ele>
        <time>2013-05-20T08:09:44Z</time>
      </trkpt>
      <trkpt lat="48.0005" lon="6.66394">
        <ele>456.76</ele>
        <time>2013-05-20T08:09:45Z</time>
      </trkpt>
      <trkpt lat="48.00056" lon="6.66409">
        <ele>455.8</ele>
        <time>2013-05-20T08:09:47Z</time>
      </trkpt>
      <trkpt lat="48.00063" lon="6.66421">
        <ele>455.8</ele>
        <time>2013-05-20T08:09:49Z</time>
      </trkpt>
      <trkpt lat="48.00067" lon="6.66426">
        <ele>455.8</ele>
        <time>2013-05-20T08:09:50Z</time>
      </trkpt>
      <trkpt lat="48.00111" lon="6.66476">
        <ele>453.4</ele>
        <time>2013-05-20T08:10:01Z</time>
      </trkpt>
      <trkpt lat="48.00126" lon="6.6648">
        <ele>452.44</ele>
        <time>2013-05-20T08:10:05Z</time>
      </trkpt>
      <trkpt lat="48.00131" lon="6.66478">
        <ele>452.92</ele>
        <time>2013-05-20T08:10:06Z</time>
      </trkpt>
      <trkpt lat="48.00135" lon="6.66475">
        <ele>452.44</ele>
        <time>2013-05-20T08:10:07Z</time>
      </trkpt>
      <trkpt lat="48.00139" lon="6.66469">
        <ele>451</ele>
        <time>2013-05-20T08:10:08Z</time>
      </trkpt>
      <trkpt lat="48.00143" lon="6.66463">
        <ele>451</ele>
        <time>2013-05-20T08:10:09Z</time>
      </trkpt>
      <trkpt lat="48.00147" lon="6.66456">
        <ele>450.52</ele>
        <time>2013-05-20T08:10:10Z</time>
      </trkpt>
      <trkpt lat="48.00149" lon="6.6645">
        <ele>449.55</ele>
        <time>2013-05-20T08:10:11Z</time>
      </trkpt>
      <trkpt lat="48.00152" lon="6.66443">
        <ele>448.11</ele>
        <time>2013-05-20T08:10:12Z</time>
      </trkpt>
      <trkpt lat="48.00156" lon="6.66437">
        <ele>448.11</ele>
        <time>2013-05-20T08:10:13Z</time>
      </trkpt>
      <trkpt lat="48.0016" lon="6.66431">
        <ele>447.63</ele>
        <time>2013-05-20T08:10:14Z</time>
      </trkpt>
      <trkpt lat="48.00164" lon="6.66427">
        <ele>446.19</ele>
        <time>2013-05-20T08:10:15Z</time>
      </trkpt>
      <trkpt lat="48.00169" lon="6.66423">
        <ele>446.67</ele>
        <time>2013-05-20T08:10:16Z</time>
      </trkpt>
      <trkpt lat="48.00173" lon="6.6642">
        <ele>445.23</ele>
        <time>2013-05-20T08:10:17Z</time>
      </trkpt>
      <trkpt lat="48.00178" lon="6.66417">
        <ele>445.23</ele>
        <time>2013-05-20T08:10:18Z</time>
      </trkpt>
      <trkpt lat="48.00184" lon="6.66415">
        <ele>444.27</ele>
        <time>2013-05-20T08:10:19Z</time>
      </trkpt>
      <trkpt lat="48.0019" lon="6.66414">
        <ele>443.31</ele>
        <time>2013-05-20T08:10:20Z</time>
      </trkpt>
      <trkpt lat="48.00206" lon="6.66413">
        <ele>441.86</ele>
        <time>2013-05-20T08:10:23Z</time>
      </trkpt>
      <trkpt lat="48.00211" lon="6.66413">
        <ele>440.9</ele>
        <time>2013-05-20T08:10:24Z</time>
      </trkpt>
      <trkpt lat="48.00215" lon="6.66412">
        <ele>440.9</ele>
        <time>2013-05-20T08:10:25Z</time>
      </trkpt>
      <trkpt lat="48.00219" lon="6.6641">
        <ele>440.42</ele>
        <time>2013-05-20T08:10:26Z</time>
      </trkpt>
      <trkpt lat="48.00221" lon="6.66406">
        <ele>439.94</ele>
        <time>2013-05-20T08:10:27Z</time>
      </trkpt>
      <trkpt lat="48.00222" lon="6.66402">
        <ele>439.46</ele>
        <time>2013-05-20T08:10:28Z</time>
      </trkpt>
      <trkpt lat="48.00222" lon="6.66397">
        <ele>439.94</ele>
        <time>2013-05-20T08:10:29Z</time>
      </trkpt>
      <trkpt lat="48.00221" lon="6.66392">
        <ele>440.42</ele>
        <time>2013-05-20T08:10:30Z</time>
      </trkpt>
      <trkpt lat="48.0022" lon="6.66386">
        <ele>440.42</ele>
        <time>2013-05-20T08:10:31Z</time>
      </trkpt>
      <trkpt lat="48.00216" lon="6.66355">
        <ele>439.46</ele>
        <time>2013-05-20T08:10:36Z</time>
      </trkpt>
      <trkpt lat="48.00207" lon="6.66296">
        <ele>438.98</ele>
        <time>2013-05-20T08:10:49Z</time>
      </trkpt>
      <trkpt lat="48.00205" lon="6.66295">
        <ele>438.98</ele>
        <time>2013-05-20T08:10:50Z</time>
      </trkpt>
      <trkpt lat="48.00203" lon="6.66293">
        <ele>438.98</ele>
        <time>2013-05-20T08:10:51Z</time>
      </trkpt>
      <trkpt lat="48.00203" lon="6.66291">
        <ele>438.5</ele>
        <time>2013-05-20T08:10:52Z</time>
      </trkpt>
      <trkpt lat="48.00204" lon="6.66289">
        <ele>438.98</ele>
        <time>2013-05-20T08:10:53Z</time>
      </trkpt>
      <trkpt lat="48.00205" lon="6.66289">
        <ele>438.98</ele>
        <time>2013-05-20T08:10:54Z</time>
      </trkpt>
      <trkpt lat="48.00209" lon="6.66296">
        <ele>438.98</ele>
        <time>2013-05-20T08:10:57Z</time>
      </trkpt>
      <trkpt lat="48.0021" lon="6.66299">
        <ele>439.46</ele>
        <time>2013-05-20T08:10:58Z</time>
      </trkpt>
      <trkpt lat="48.00211" lon="6.66302">
        <ele>439.46</ele>
        <time>2013-05-20T08:10:59Z</time>
      </trkpt>
      <trkpt lat="48.00214" lon="6.66309">
        <ele>439.94</ele>
        <time>2013-05-20T08:11:09Z</time>
      </trkpt>
      <trkpt lat="48.00218" lon="6.66317">
        <ele>441.38</ele>
        <time>2013-05-20T08:11:16Z</time>
      </trkpt>
      <trkpt lat="48.00219" lon="6.66319">
        <ele>440.9</ele>
        <time>2013-05-20T08:11:17Z</time>
      </trkpt>
      <trkpt lat="48.00228" lon="6.66339">
        <ele>444.27</ele>
        <time>2013-05-20T08:11:27Z</time>
      </trkpt>
      <trkpt lat="48.00229" lon="6.66341">
        <ele>444.27</ele>
        <time>2013-05-20T08:11:28Z</time>
      </trkpt>
      <trkpt lat="48.00229" lon="6.66343">
        <ele>444.27</ele>
        <time>2013-05-20T08:11:29Z</time>
      </trkpt>
      <trkpt lat="48.00229" lon="6.66346">
        <ele>444.27</ele>
        <time>2013-05-20T08:11:30Z</time>
      </trkpt>
      <trkpt lat="48.0023" lon="6.66348">
        <ele>444.27</ele>
        <time>2013-05-20T08:11:31Z</time>
      </trkpt>
      <trkpt lat="48.0023" lon="6.66351">
        <ele>444.75</ele>
        <time>2013-05-20T08:11:32Z</time>
      </trkpt>
      <trkpt lat="48.00231" lon="6.66354">
        <ele>445.23</ele>
        <time>2013-05-20T08:11:33Z</time>
      </trkpt>
      <trkpt lat="48.00232" lon="6.66356">
        <ele>445.23</ele>
        <time>2013-05-20T08:11:34Z</time>
      </trkpt>
      <trkpt lat="48.00237" lon="6.66386">
        <ele>448.11</ele>
        <time>2013-05-20T08:11:46Z</time>
      </trkpt>
      <trkpt lat="48.00245" lon="6.66435">
        <ele>450.03</ele>
        <time>2013-05-20T08:12:01Z</time>
      </trkpt>
      <trkpt lat="48.00253" lon="6.66476">
        <ele>451.48</ele>
        <time>2013-05-20T08:12:14Z</time>
      </trkpt>
      <trkpt lat="48.00257" lon="6.66493">
        <ele>453.4</ele>
        <time>2013-05-20T08:12:20Z</time>
      </trkpt>
      <trkpt lat="48.00261" lon="6.66533">
        <ele>456.76</ele>
        <time>2013-05-20T08:12:33Z</time>
      </trkpt>
      <trkpt lat="48.00267" lon="6.66564">
        <ele>459.17</ele>
        <time>2013-05-20T08:12:46Z</time>
      </trkpt>
      <trkpt lat="48.00271" lon="6.66586">
        <ele>461.09</ele>
        <time>2013-05-20T08:12:56Z</time>
      </trkpt>
      <trkpt lat="48.0028" lon="6.66611">
        <ele>462.53</ele>
        <time>2013-05-20T08:13:06Z</time>
      </trkpt>
      <trkpt lat="48.00286" lon="6.66623">
        <ele>465.42</ele>
        <time>2013-05-20T08:13:12Z</time>
      </trkpt>
      <trkpt lat="48.00287" lon="6.66626">
        <ele>465.9</ele>
        <time>2013-05-20T08:13:13Z</time>
      </trkpt>
      <trkpt lat="48.00287" lon="6.66629">
        <ele>466.38</ele>
        <time>2013-05-20T08:13:14Z</time>
      </trkpt>
      <trkpt lat="48.00288" lon="6.66633">
        <ele>465.9</ele>
        <time>2013-05-20T08:13:15Z</time>
      </trkpt>
      <trkpt lat="48.00289" lon="6.66636">
        <ele>466.38</ele>
        <time>2013-05-20T08:13:16Z</time>
      </trkpt>
      <trkpt lat="48.0029" lon="6.6664">
        <ele>465.42</ele>
        <time>2013-05-20T08:13:17Z</time>
      </trkpt>
      <trkpt lat="48.0029" lon="6.66642">
        <ele>466.38</ele>
        <time>2013-05-20T08:13:18Z</time>
      </trkpt>
      <trkpt lat="48.00291" lon="6.66645">
        <ele>466.86</ele>
        <time>2013-05-20T08:13:19Z</time>
      </trkpt>
      <trkpt lat="48.00291" lon="6.66647">
        <ele>466.86</ele>
        <time>2013-05-20T08:13:20Z</time>
      </trkpt>
      <trkpt lat="48.00292" lon="6.6665">
        <ele>467.34</ele>
        <time>2013-05-20T08:13:21Z</time>
      </trkpt>
      <trkpt lat="48.00293" lon="6.66652">
        <ele>467.34</ele>
        <time>2013-05-20T08:13:22Z</time>
      </trkpt>
      <trkpt lat="48.00295" lon="6.6666">
        <ele>467.82</ele>
        <time>2013-05-20T08:13:25Z</time>
      </trkpt>
      <trkpt lat="48.00295" lon="6.66662">
        <ele>467.82</ele>
        <time>2013-05-20T08:13:26Z</time>
      </trkpt>
      <trkpt lat="48.00294" lon="6.66665">
        <ele>467.82</ele>
        <time>2013-05-20T08:13:27Z</time>
      </trkpt>
      <trkpt lat="48.00294" lon="6.66667">
        <ele>468.3</ele>
        <time>2013-05-20T08:13:28Z</time>
      </trkpt>
      <trkpt lat="48.00295" lon="6.6667">
        <ele>468.3</ele>
        <time>2013-05-20T08:13:29Z</time>
      </trkpt>
      <trkpt lat="48.00296" lon="6.66674">
        <ele>468.3</ele>
        <time>2013-05-20T08:13:30Z</time>
      </trkpt>
      <trkpt lat="48.00296" lon="6.66676">
        <ele>468.78</ele>
        <time>2013-05-20T08:13:31Z</time>
      </trkpt>
      <trkpt lat="48.00297" lon="6.6668">
        <ele>468.3</ele>
        <time>2013-05-20T08:13:32Z</time>
      </trkpt>
      <trkpt lat="48.00298" lon="6.66684">
        <ele>467.82</ele>
        <time>2013-05-20T08:13:33Z</time>
      </trkpt>
      <trkpt lat="48.00302" lon="6.66705">
        <ele>466.86</ele>
        <time>2013-05-20T08:13:38Z</time>
      </trkpt>
      <trkpt lat="48.00306" lon="6.66743">
        <ele>468.78</ele>
        <time>2013-05-20T08:13:48Z</time>
      </trkpt>
      <trkpt lat="48.00324" lon="6.66765">
        <ele>470.7</ele>
        <time>2013-05-20T08:13:59Z</time>
      </trkpt>
      <trkpt lat="48.00336" lon="6.66798">
        <ele>473.59</ele>
        <time>2013-05-20T08:14:11Z</time>
      </trkpt>
      <trkpt lat="48.00341" lon="6.66812">
        <ele>474.07</ele>
        <time>2013-05-20T08:14:16Z</time>
      </trkpt>
      <trkpt lat="48.00341" lon="6.66815">
        <ele>473.59</ele>
        <time>2013-05-20T08:14:17Z</time>
      </trkpt>
      <trkpt lat="48.00342" lon="6.66819">
        <ele>474.07</ele>
        <time>2013-05-20T08:14:18Z</time>
      </trkpt>
      <trkpt lat="48.00342" lon="6.66822">
        <ele>474.07</ele>
        <time>2013-05-20T08:14:19Z</time>
      </trkpt>
      <trkpt lat="48.00343" lon="6.66824">
        <ele>474.07</ele>
        <time>2013-05-20T08:14:20Z</time>
      </trkpt>
      <trkpt lat="48.00343" lon="6.66826">
        <ele>474.07</ele>
        <time>2013-05-20T08:14:21Z</time>
      </trkpt>
      <trkpt lat="48.00343" lon="6.66829">
        <ele>474.07</ele>
        <time>2013-05-20T08:14:22Z</time>
      </trkpt>
      <trkpt lat="48.00343" lon="6.66832">
        <ele>474.07</ele>
        <time>2013-05-20T08:14:23Z</time>
      </trkpt>
      <trkpt lat="48.00349" lon="6.66869">
        <ele>476.95</ele>
        <time>2013-05-20T08:14:35Z</time>
      </trkpt>
      <trkpt lat="48.0035" lon="6.66905">
        <ele>475.99</ele>
        <time>2013-05-20T08:14:46Z</time>
      </trkpt>
      <trkpt lat="48.0035" lon="6.6693">
        <ele>477.43</ele>
        <time>2013-05-20T08:14:53Z</time>
      </trkpt>
      <trkpt lat="48.00349" lon="6.66954">
        <ele>480.32</ele>
        <time>2013-05-20T08:15:00Z</time>
      </trkpt>
      <trkpt lat="48.0035" lon="6.6696">
        <ele>480.32</ele>
        <time>2013-05-20T08:15:02Z</time>
      </trkpt>
      <trkpt lat="48.0035" lon="6.66963">
        <ele>480.8</ele>
        <time>2013-05-20T08:15:03Z</time>
      </trkpt>
      <trkpt lat="48.00353" lon="6.66995">
        <ele>482.24</ele>
        <time>2013-05-20T08:15:14Z</time>
      </trkpt>
      <trkpt lat="48.00352" lon="6.67002">
        <ele>481.76</ele>
        <time>2013-05-20T08:15:16Z</time>
      </trkpt>
      <trkpt lat="48.00352" lon="6.67006">
        <ele>482.24</ele>
        <time>2013-05-20T08:15:17Z</time>
      </trkpt>
      <trkpt lat="48.00352" lon="6.6701">
        <ele>481.76</ele>
        <time>2013-05-20T08:15:18Z</time>
      </trkpt>
      <trkpt lat="48.00353" lon="6.67014">
        <ele>482.72</ele>
        <time>2013-05-20T08:15:19Z</time>
      </trkpt>
      <trkpt lat="48.00353" lon="6.67018">
        <ele>482.72</ele>
        <time>2013-05-20T08:15:20Z</time>
      </trkpt>
      <trkpt lat="48.00353" lon="6.67022">
        <ele>482.24</ele>
        <time>2013-05-20T08:15:21Z</time>
      </trkpt>
      <trkpt lat="48.00353" lon="6.67027">
        <ele>481.76</ele>
        <time>2013-05-20T08:15:22Z</time>
      </trkpt>
      <trkpt lat="48.00353" lon="6.67031">
        <ele>482.72</ele>
        <time>2013-05-20T08:15:23Z</time>
      </trkpt>
      <trkpt lat="48.00353" lon="6.67042">
        <ele>482.72</ele>
        <time>2013-05-20T08:15:26Z</time>
      </trkpt>
      <trkpt lat="48.00353" lon="6.67045">
        <ele>483.68</ele>
        <time>2013-05-20T08:15:27Z</time>
      </trkpt>
      <trkpt lat="48.00353" lon="6.67049">
        <ele>482.72</ele>
        <time>2013-05-20T08:15:28Z</time>
      </trkpt>
      <trkpt lat="48.00357" lon="6.671">
        <ele>485.6</ele>
        <time>2013-05-20T08:15:40Z</time>
      </trkpt>
      <trkpt lat="48.00361" lon="6.67139">
        <ele>486.08</ele>
        <time>2013-05-20T08:15:51Z</time>
      </trkpt>
      <trkpt lat="48.00361" lon="6.67141">
        <ele>486.56</ele>
        <time>2013-05-20T08:15:52Z</time>
      </trkpt>
      <trkpt lat="48.00361" lon="6.67143">
        <ele>486.56</ele>
        <time>2013-05-20T08:15:53Z</time>
      </trkpt>
      <trkpt lat="48.00361" lon="6.67145">
        <ele>486.08</ele>
        <time>2013-05-20T08:15:54Z</time>
      </trkpt>
      <trkpt lat="48.00362" lon="6.67148">
        <ele>487.53</ele>
        <time>2013-05-20T08:15:55Z</time>
      </trkpt>
      <trkpt lat="48.00363" lon="6.67151">
        <ele>487.53</ele>
        <time>2013-05-20T08:15:56Z</time>
      </trkpt>
      <trkpt lat="48.00364" lon="6.67153">
        <ele>487.53</ele>
        <time>2013-05-20T08:15:57Z</time>
      </trkpt>
      <trkpt lat="48.00365" lon="6.67155">
        <ele>488.49</ele>
        <time>2013-05-20T08:15:58Z</time>
      </trkpt>
      <trkpt lat="48.00366" lon="6.67157">
        <ele>488.49</ele>
        <time>2013-05-20T08:15:59Z</time>
      </trkpt>
      <trkpt lat="48.00366" lon="6.67159">
        <ele>488.49</ele>
        <time>2013-05-20T08:16:00Z</time>
      </trkpt>
      <trkpt lat="48.00367" lon="6.67161">
        <ele>489.45</ele>
        <time>2013-05-20T08:16:01Z</time>
      </trkpt>
      <trkpt lat="48.00373" lon="6.67182">
        <ele>490.89</ele>
        <time>2013-05-20T08:16:08Z</time>
      </trkpt>
      <trkpt lat="48.00374" lon="6.67185">
        <ele>490.89</ele>
        <time>2013-05-20T08:16:09Z</time>
      </trkpt>
      <trkpt lat="48.00378" lon="6.67204">
        <ele>491.37</ele>
        <time>2013-05-20T08:16:14Z</time>
      </trkpt>
      <trkpt lat="48.00379" lon="6.67207">
        <ele>491.37</ele>
        <time>2013-05-20T08:16:15Z</time>
      </trkpt>
      <trkpt lat="48.00382" lon="6.67219">
        <ele>491.37</ele>
        <time>2013-05-20T08:16:20Z</time>
      </trkpt>
      <trkpt lat="48.00382" lon="6.67222">
        <ele>491.37</ele>
        <time>2013-05-20T08:16:21Z</time>
      </trkpt>
      <trkpt lat="48.00385" lon="6.67261">
        <ele>492.81</ele>
        <time>2013-05-20T08:16:34Z</time>
      </trkpt>
      <trkpt lat="48.0039" lon="6.6729">
        <ele>494.26</ele>
        <time>2013-05-20T08:16:46Z</time>
      </trkpt>
      <trkpt lat="48.0039" lon="6.67316">
        <ele>495.7</ele>
        <time>2013-05-20T08:16:54Z</time>
      </trkpt>
      <trkpt lat="48.00392" lon="6.67325">
        <ele>495.7</ele>
        <time>2013-05-20T08:16:57Z</time>
      </trkpt>
      <trkpt lat="48.00394" lon="6.67328">
        <ele>495.7</ele>
        <time>2013-05-20T08:16:58Z</time>
      </trkpt>
      <trkpt lat="48.00397" lon="6.6734">
        <ele>496.18</ele>
        <time>2013-05-20T08:17:02Z</time>
      </trkpt>
      <trkpt lat="48.00397" lon="6.67357">
        <ele>497.14</ele>
        <time>2013-05-20T08:17:08Z</time>
      </trkpt>
      <trkpt lat="48.00398" lon="6.67391">
        <ele>499.54</ele>
        <time>2013-05-20T08:17:21Z</time>
      </trkpt>
      <trkpt lat="48.00397" lon="6.67393">
        <ele>500.02</ele>
        <time>2013-05-20T08:17:22Z</time>
      </trkpt>
      <trkpt lat="48.00398" lon="6.67427">
        <ele>501.95</ele>
        <time>2013-05-20T08:17:35Z</time>
      </trkpt>
      <trkpt lat="48.004" lon="6.67448">
        <ele>504.83</ele>
        <time>2013-05-20T08:17:43Z</time>
      </trkpt>
      <trkpt lat="48.00401" lon="6.67451">
        <ele>505.31</ele>
        <time>2013-05-20T08:17:44Z</time>
      </trkpt>
      <trkpt lat="48.00399" lon="6.6748">
        <ele>507.23</ele>
        <time>2013-05-20T08:17:58Z</time>
      </trkpt>
      <trkpt lat="48.00402" lon="6.67479">
        <ele>508.19</ele>
        <time>2013-05-20T08:18:01Z</time>
      </trkpt>
      <trkpt lat="48.0041" lon="6.67463">
        <ele>509.64</ele>
        <time>2013-05-20T08:18:13Z</time>
      </trkpt>
      <trkpt lat="48.00419" lon="6.67445">
        <ele>511.08</ele>
        <time>2013-05-20T08:18:21Z</time>
      </trkpt>
      <trkpt lat="48.00421" lon="6.67437">
        <ele>512.04</ele>
        <time>2013-05-20T08:18:24Z</time>
      </trkpt>
      <trkpt lat="48.00422" lon="6.67407">
        <ele>512.52</ele>
        <time>2013-05-20T08:18:36Z</time>
      </trkpt>
      <trkpt lat="48.00424" lon="6.67372">
        <ele>513.96</ele>
        <time>2013-05-20T08:18:48Z</time>
      </trkpt>
      <trkpt lat="48.00422" lon="6.6734">
        <ele>513.48</ele>
        <time>2013-05-20T08:18:58Z</time>
      </trkpt>
      <trkpt lat="48.00421" lon="6.67321">
        <ele>514.44</ele>
        <time>2013-05-20T08:19:06Z</time>
      </trkpt>
      <trkpt lat="48.00421" lon="6.67297">
        <ele>515.88</ele>
        <time>2013-05-20T08:19:12Z</time>
      </trkpt>
      <trkpt lat="48.00423" lon="6.6726">
        <ele>518.77</ele>
        <time>2013-05-20T08:19:22Z</time>
      </trkpt>
      <trkpt lat="48.00426" lon="6.67218">
        <ele>521.65</ele>
        <time>2013-05-20T08:19:35Z</time>
      </trkpt>
      <trkpt lat="48.00427" lon="6.67203">
        <ele>523.58</ele>
        <time>2013-05-20T08:19:43Z</time>
      </trkpt>
      <trkpt lat="48.00432" lon="6.67167">
        <ele>523.58</ele>
        <time>2013-05-20T08:19:57Z</time>
      </trkpt>
      <trkpt lat="48.00434" lon="6.67126">
        <ele>525.98</ele>
        <time>2013-05-20T08:20:09Z</time>
      </trkpt>
      <trkpt lat="48.00435" lon="6.67119">
        <ele>526.94</ele>
        <time>2013-05-20T08:20:12Z</time>
      </trkpt>
      <trkpt lat="48.00434" lon="6.67129">
        <ele>527.42</ele>
        <time>2013-05-20T08:20:24Z</time>
      </trkpt>
      <trkpt lat="48.00437" lon="6.67152">
        <ele>529.34</ele>
        <time>2013-05-20T08:20:37Z</time>
      </trkpt>
      <trkpt lat="48.00439" lon="6.67173">
        <ele>531.27</ele>
        <time>2013-05-20T08:20:50Z</time>
      </trkpt>
      <trkpt lat="48.0044" lon="6.67187">
        <ele>531.75</ele>
        <time>2013-05-20T08:20:58Z</time>
      </trkpt>
      <trkpt lat="48.00442" lon="6.67216">
        <ele>535.11</ele>
        <time>2013-05-20T08:21:12Z</time>
      </trkpt>
      <trkpt lat="48.00446" lon="6.67234">
        <ele>536.55</ele>
        <time>2013-05-20T08:21:22Z</time>
      </trkpt>
      <trkpt lat="48.00455" lon="6.67267">
        <ele>537.99</ele>
        <time>2013-05-20T08:21:36Z</time>
      </trkpt>
      <trkpt lat="48.00456" lon="6.67288">
        <ele>538.96</ele>
        <time>2013-05-20T08:21:46Z</time>
      </trkpt>
      <trkpt lat="48.00459" lon="6.67327">
        <ele>539.92</ele>
        <time>2013-05-20T08:22:01Z</time>
      </trkpt>
      <trkpt lat="48.00464" lon="6.67352">
        <ele>541.84</ele>
        <time>2013-05-20T08:22:11Z</time>
      </trkpt>
      <trkpt lat="48.00465" lon="6.67381">
        <ele>545.2</ele>
        <time>2013-05-20T08:22:23Z</time>
      </trkpt>
      <trkpt lat="48.00466" lon="6.67408">
        <ele>547.13</ele>
        <time>2013-05-20T08:22:36Z</time>
      </trkpt>
      <trkpt lat="48.00466" lon="6.67413">
        <ele>547.61</ele>
        <time>2013-05-20T08:22:39Z</time>
      </trkpt>
      <trkpt lat="48.00467" lon="6.67434">
        <ele>548.09</ele>
        <time>2013-05-20T08:22:49Z</time>
      </trkpt>
      <trkpt lat="48.0047" lon="6.67462">
        <ele>550.01</ele>
        <time>2013-05-20T08:23:01Z</time>
      </trkpt>
      <trkpt lat="48.00474" lon="6.67483">
        <ele>551.93</ele>
        <time>2013-05-20T08:23:12Z</time>
      </trkpt>
      <trkpt lat="48.00478" lon="6.67496">
        <ele>552.9</ele>
        <time>2013-05-20T08:23:18Z</time>
      </trkpt>
      <trkpt lat="48.00479" lon="6.67508">
        <ele>553.86</ele>
        <time>2013-05-20T08:23:24Z</time>
      </trkpt>
      <trkpt lat="48.00483" lon="6.67537">
        <ele>554.34</ele>
        <time>2013-05-20T08:23:39Z</time>
      </trkpt>
      <trkpt lat="48.00485" lon="6.67568">
        <ele>557.22</ele>
        <time>2013-05-20T08:23:51Z</time>
      </trkpt>
      <trkpt lat="48.00487" lon="6.67601">
        <ele>559.14</ele>
        <time>2013-05-20T08:24:05Z</time>
      </trkpt>
      <trkpt lat="48.00486" lon="6.67614">
        <ele>560.11</ele>
        <time>2013-05-20T08:24:11Z</time>
      </trkpt>
      <trkpt lat="48.00486" lon="6.67628">
        <ele>560.59</ele>
        <time>2013-05-20T08:24:18Z</time>
      </trkpt>
      <trkpt lat="48.00492" lon="6.67661">
        <ele>562.51</ele>
        <time>2013-05-20T08:24:32Z</time>
      </trkpt>
      <trkpt lat="48.00495" lon="6.67689">
        <ele>564.43</ele>
        <time>2013-05-20T08:24:45Z</time>
      </trkpt>
      <trkpt lat="48.00502" lon="6.6771">
        <ele>566.35</ele>
        <time>2013-05-20T08:24:55Z</time>
      </trkpt>
      <trkpt lat="48.005" lon="6.67723">
        <ele>568.28</ele>
        <time>2013-05-20T08:25:02Z</time>
      </trkpt>
      <trkpt lat="48.00491" lon="6.6776">
        <ele>569.72</ele>
        <time>2013-05-20T08:25:16Z</time>
      </trkpt>
      <trkpt lat="48.00484" lon="6.67776">
        <ele>570.2</ele>
        <time>2013-05-20T08:25:24Z</time>
      </trkpt>
      <trkpt lat="48.0048" lon="6.67781">
        <ele>569.72</ele>
        <time>2013-05-20T08:25:27Z</time>
      </trkpt>
      <trkpt lat="48.00481" lon="6.6779">
        <ele>569.72</ele>
        <time>2013-05-20T08:25:31Z</time>
      </trkpt>
      <trkpt lat="48.00482" lon="6.67794">
        <ele>570.68</ele>
        <time>2013-05-20T08:25:33Z</time>
      </trkpt>
      <trkpt lat="48.0048" lon="6.67817">
        <ele>572.6</ele>
        <time>2013-05-20T08:25:44Z</time>
      </trkpt>
      <trkpt lat="48.00481" lon="6.67848">
        <ele>573.56</ele>
        <time>2013-05-20T08:25:54Z</time>
      </trkpt>
      <trkpt lat="48.00478" lon="6.67857">
        <ele>574.53</ele>
        <time>2013-05-20T08:25:58Z</time>
      </trkpt>
      <trkpt lat="48.00472" lon="6.67878">
        <ele>576.45</ele>
        <time>2013-05-20T08:26:07Z</time>
      </trkpt>
      <trkpt lat="48.00467" lon="6.67909">
        <ele>577.89</ele>
        <time>2013-05-20T08:26:21Z</time>
      </trkpt>
      <trkpt lat="48.00466" lon="6.67921">
        <ele>579.33</ele>
        <time>2013-05-20T08:26:26Z</time>
      </trkpt>
      <trkpt lat="48.00466" lon="6.67938">
        <ele>581.73</ele>
        <time>2013-05-20T08:26:39Z</time>
      </trkpt>
      <trkpt lat="48.00466" lon="6.67944">
        <ele>582.22</ele>
        <time>2013-05-20T08:26:43Z</time>
      </trkpt>
      <trkpt lat="48.00467" lon="6.67966">
        <ele>582.7</ele>
        <time>2013-05-20T08:26:53Z</time>
      </trkpt>
      <trkpt lat="48.00469" lon="6.67996">
        <ele>585.1</ele>
        <time>2013-05-20T08:27:07Z</time>
      </trkpt>
      <trkpt lat="48.00469" lon="6.68013">
        <ele>585.58</ele>
        <time>2013-05-20T08:27:18Z</time>
      </trkpt>
      <trkpt lat="48.00471" lon="6.68025">
        <ele>586.06</ele>
        <time>2013-05-20T08:27:30Z</time>
      </trkpt>
      <trkpt lat="48.00472" lon="6.6803">
        <ele>586.54</ele>
        <time>2013-05-20T08:27:35Z</time>
      </trkpt>
      <trkpt lat="48.00476" lon="6.68046">
        <ele>587.02</ele>
        <time>2013-05-20T08:27:47Z</time>
      </trkpt>
      <trkpt lat="48.00486" lon="6.68077">
        <ele>589.43</ele>
        <time>2013-05-20T08:28:01Z</time>
      </trkpt>
      <trkpt lat="48.00493" lon="6.68109">
        <ele>591.35</ele>
        <time>2013-05-20T08:28:14Z</time>
      </trkpt>
      <trkpt lat="48.00501" lon="6.68143">
        <ele>594.23</ele>
        <time>2013-05-20T08:28:28Z</time>
      </trkpt>
      <trkpt lat="48.00503" lon="6.68154">
        <ele>594.71</ele>
        <time>2013-05-20T08:28:32Z</time>
      </trkpt>
      <trkpt lat="48.00507" lon="6.68167">
        <ele>594.23</ele>
        <time>2013-05-20T08:28:37Z</time>
      </trkpt>
      <trkpt lat="48.00517" lon="6.68196">
        <ele>598.08</ele>
        <time>2013-05-20T08:28:50Z</time>
      </trkpt>
      <trkpt lat="48.00519" lon="6.68201">
        <ele>598.56</ele>
        <time>2013-05-20T08:28:52Z</time>
      </trkpt>
      <trkpt lat="48.00527" lon="6.6822">
        <ele>600</ele>
        <time>2013-05-20T08:29:01Z</time>
      </trkpt>
      <trkpt lat="48.00539" lon="6.68243">
        <ele>600.48</ele>
        <time>2013-05-20T08:29:14Z</time>
      </trkpt>
      <trkpt lat="48.00542" lon="6.68254">
        <ele>600.96</ele>
        <time>2013-05-20T08:29:20Z</time>
      </trkpt>
      <trkpt lat="48.00544" lon="6.68281">
        <ele>597.6</ele>
        <time>2013-05-20T08:29:29Z</time>
      </trkpt>
      <trkpt lat="48.00545" lon="6.68285">
        <ele>597.12</ele>
        <time>2013-05-20T08:29:30Z</time>
      </trkpt>
      <trkpt lat="48.0055" lon="6.68301">
        <ele>594.71</ele>
        <time>2013-05-20T08:29:35Z</time>
      </trkpt>
      <trkpt lat="48.00555" lon="6.68342">
        <ele>592.31</ele>
        <time>2013-05-20T08:29:43Z</time>
      </trkpt>
      <trkpt lat="48.00556" lon="6.68355">
        <ele>592.79</ele>
        <time>2013-05-20T08:29:46Z</time>
      </trkpt>
      <trkpt lat="48.00555" lon="6.68398">
        <ele>591.35</ele>
        <time>2013-05-20T08:29:52Z</time>
      </trkpt>
      <trkpt lat="48.00553" lon="6.6841">
        <ele>589.91</ele>
        <time>2013-05-20T08:29:54Z</time>
      </trkpt>
      <trkpt lat="48.00552" lon="6.68443">
        <ele>586.54</ele>
        <time>2013-05-20T08:29:58Z</time>
      </trkpt>
      <trkpt lat="48.00553" lon="6.68453">
        <ele>585.58</ele>
        <time>2013-05-20T08:30:00Z</time>
      </trkpt>
      <trkpt lat="48.00563" lon="6.68484">
        <ele>585.58</ele>
        <time>2013-05-20T08:30:07Z</time>
      </trkpt>
      <trkpt lat="48.00564" lon="6.68497">
        <ele>586.06</ele>
        <time>2013-05-20T08:30:15Z</time>
      </trkpt>
      <trkpt lat="48.00559" lon="6.68509">
        <ele>585.1</ele>
        <time>2013-05-20T08:30:19Z</time>
      </trkpt>
      <trkpt lat="48.00555" lon="6.68521">
        <ele>583.18</ele>
        <time>2013-05-20T08:30:22Z</time>
      </trkpt>
      <trkpt lat="48.00559" lon="6.68549">
        <ele>579.81</ele>
        <time>2013-05-20T08:30:29Z</time>
      </trkpt>
      <trkpt lat="48.00561" lon="6.68553">
        <ele>579.33</ele>
        <time>2013-05-20T08:30:30Z</time>
      </trkpt>
      <trkpt lat="48.00563" lon="6.68562">
        <ele>577.89</ele>
        <time>2013-05-20T08:30:32Z</time>
      </trkpt>
      <trkpt lat="48.00561" lon="6.68572">
        <ele>577.89</ele>
        <time>2013-05-20T08:30:35Z</time>
      </trkpt>
      <trkpt lat="48.00548" lon="6.68609">
        <ele>576.93</ele>
        <time>2013-05-20T08:30:45Z</time>
      </trkpt>
      <trkpt lat="48.00549" lon="6.68635">
        <ele>575.01</ele>
        <time>2013-05-20T08:30:52Z</time>
      </trkpt>
      <trkpt lat="48.00549" lon="6.6864">
        <ele>575.01</ele>
        <time>2013-05-20T08:30:53Z</time>
      </trkpt>
      <trkpt lat="48.00549" lon="6.68645">
        <ele>574.04</ele>
        <time>2013-05-20T08:30:54Z</time>
      </trkpt>
      <trkpt lat="48.00548" lon="6.68653">
        <ele>573.08</ele>
        <time>2013-05-20T08:30:55Z</time>
      </trkpt>
      <trkpt lat="48.00548" lon="6.68668">
        <ele>571.64</ele>
        <time>2013-05-20T08:30:57Z</time>
      </trkpt>
      <trkpt lat="48.00548" lon="6.68674">
        <ele>570.2</ele>
        <time>2013-05-20T08:30:58Z</time>
      </trkpt>
      <trkpt lat="48.00548" lon="6.68708">
        <ele>568.76</ele>
        <time>2013-05-20T08:31:06Z</time>
      </trkpt>
      <trkpt lat="48.00551" lon="6.68724">
        <ele>567.32</ele>
        <time>2013-05-20T08:31:08Z</time>
      </trkpt>
      <trkpt lat="48.00552" lon="6.68746">
        <ele>564.43</ele>
        <time>2013-05-20T08:31:12Z</time>
      </trkpt>
      <trkpt lat="48.00552" lon="6.68749">
        <ele>564.43</ele>
        <time>2013-05-20T08:31:13Z</time>
      </trkpt>
      <trkpt lat="48.00546" lon="6.68754">
        <ele>562.99</ele>
        <time>2013-05-20T08:31:20Z</time>
      </trkpt>
      <trkpt lat="48.0054" lon="6.68757">
        <ele>561.55</ele>
        <time>2013-05-20T08:31:23Z</time>
      </trkpt>
      <trkpt lat="48.00536" lon="6.68781">
        <ele>559.62</ele>
        <time>2013-05-20T08:31:33Z</time>
      </trkpt>
      <trkpt lat="48.00534" lon="6.68779">
        <ele>559.14</ele>
        <time>2013-05-20T08:31:34Z</time>
      </trkpt>
      <trkpt lat="48.00533" lon="6.68777">
        <ele>559.14</ele>
        <time>2013-05-20T08:31:35Z</time>
      </trkpt>
      <trkpt lat="48.00531" lon="6.68773">
        <ele>557.7</ele>
        <time>2013-05-20T08:31:36Z</time>
      </trkpt>
      <trkpt lat="48.00529" lon="6.68769">
        <ele>558.66</ele>
        <time>2013-05-20T08:31:37Z</time>
      </trkpt>
      <trkpt lat="48.00513" lon="6.68732">
        <ele>555.3</ele>
        <time>2013-05-20T08:31:45Z</time>
      </trkpt>
      <trkpt lat="48.00511" lon="6.68725">
        <ele>555.78</ele>
        <time>2013-05-20T08:31:46Z</time>
      </trkpt>
      <trkpt lat="48.00503" lon="6.68704">
        <ele>554.34</ele>
        <time>2013-05-20T08:31:49Z</time>
      </trkpt>
      <trkpt lat="48.00501" lon="6.68698">
        <ele>553.38</ele>
        <time>2013-05-20T08:31:50Z</time>
      </trkpt>
      <trkpt lat="48.00498" lon="6.68692">
        <ele>552.41</ele>
        <time>2013-05-20T08:31:51Z</time>
      </trkpt>
      <trkpt lat="48.00496" lon="6.68688">
        <ele>551.93</ele>
        <time>2013-05-20T08:31:52Z</time>
      </trkpt>
      <trkpt lat="48.00493" lon="6.68684">
        <ele>550.97</ele>
        <time>2013-05-20T08:31:53Z</time>
      </trkpt>
      <trkpt lat="48.00486" lon="6.68674">
        <ele>549.53</ele>
        <time>2013-05-20T08:31:55Z</time>
      </trkpt>
      <trkpt lat="48.00484" lon="6.68668">
        <ele>549.53</ele>
        <time>2013-05-20T08:31:56Z</time>
      </trkpt>
      <trkpt lat="48.00481" lon="6.68662">
        <ele>549.05</ele>
        <time>2013-05-20T08:31:57Z</time>
      </trkpt>
      <trkpt lat="48.00468" lon="6.68629">
        <ele>546.17</ele>
        <time>2013-05-20T08:32:02Z</time>
      </trkpt>
      <trkpt lat="48.00464" lon="6.68624">
        <ele>546.17</ele>
        <time>2013-05-20T08:32:03Z</time>
      </trkpt>
      <trkpt lat="48.00446" lon="6.68612">
        <ele>544.72</ele>
        <time>2013-05-20T08:32:07Z</time>
      </trkpt>
      <trkpt lat="48.00434" lon="6.68602">
        <ele>543.28</ele>
        <time>2013-05-20T08:32:12Z</time>
      </trkpt>
      <trkpt lat="48.00426" lon="6.68599">
        <ele>545.2</ele>
        <time>2013-05-20T08:32:24Z</time>
      </trkpt>
      <trkpt lat="48.00426" lon="6.686">
        <ele>545.2</ele>
        <time>2013-05-20T08:32:25Z</time>
      </trkpt>
      <trkpt lat="48.0043" lon="6.68611">
        <ele>544.24</ele>
        <time>2013-05-20T08:32:42Z</time>
      </trkpt>
      <trkpt lat="48.00431" lon="6.6861">
        <ele>544.72</ele>
        <time>2013-05-20T08:33:21Z</time>
      </trkpt>
      <trkpt lat="48.00427" lon="6.68608">
        <ele>544.72</ele>
        <time>2013-05-20T08:33:55Z</time>
      </trkpt>
      <trkpt lat="48.00425" lon="6.68599">
        <ele>544.72</ele>
        <time>2013-05-20T08:34:30Z</time>
      </trkpt>
      <trkpt lat="48.00425" lon="6.68589">
        <ele>544.24</ele>
        <time>2013-05-20T08:35:07Z</time>
      </trkpt>
      <trkpt lat="48.00425" lon="6.68605">
        <ele>545.2</ele>
        <time>2013-05-20T08:35:45Z</time>
      </trkpt>
      <trkpt lat="48.00426" lon="6.68604">
        <ele>545.69</ele>
        <time>2013-05-20T08:36:16Z</time>
      </trkpt>
      <trkpt lat="48.00421" lon="6.68607">
        <ele>546.17</ele>
        <time>2013-05-20T08:36:44Z</time>
      </trkpt>
      <trkpt lat="48.00422" lon="6.686">
        <ele>546.17</ele>
        <time>2013-05-20T08:37:11Z</time>
      </trkpt>
      <trkpt lat="48.00426" lon="6.68593">
        <ele>545.2</ele>
        <time>2013-05-20T08:37:44Z</time>
      </trkpt>
      <trkpt lat="48.00428" lon="6.686">
        <ele>545.69</ele>
        <time>2013-05-20T08:38:02Z</time>
      </trkpt>
      <trkpt lat="48.00425" lon="6.68599">
        <ele>546.65</ele>
        <time>2013-05-20T08:38:13Z</time>
      </trkpt>
      <trkpt lat="48.00422" lon="6.68595">
        <ele>546.17</ele>
        <time>2013-05-20T08:38:31Z</time>
      </trkpt>
      <trkpt lat="48.00418" lon="6.68595">
        <ele>546.17</ele>
        <time>2013-05-20T08:38:51Z</time>
      </trkpt>
      <trkpt lat="48.00422" lon="6.68596">
        <ele>545.2</ele>
        <time>2013-05-20T08:39:21Z</time>
      </trkpt>
      <trkpt lat="48.0042" lon="6.68597">
        <ele>546.17</ele>
        <time>2013-05-20T08:39:24Z</time>
      </trkpt>
      <trkpt lat="48.00418" lon="6.68598">
        <ele>546.17</ele>
        <time>2013-05-20T08:39:25Z</time>
      </trkpt>
      <trkpt lat="48.00417" lon="6.686">
        <ele>546.17</ele>
        <time>2013-05-20T08:39:26Z</time>
      </trkpt>
      <trkpt lat="48.00416" lon="6.68601">
        <ele>546.17</ele>
        <time>2013-05-20T08:39:27Z</time>
      </trkpt>
      <trkpt lat="48.00415" lon="6.68604">
        <ele>546.65</ele>
        <time>2013-05-20T08:39:28Z</time>
      </trkpt>
      <trkpt lat="48.00414" lon="6.68606">
        <ele>546.65</ele>
        <time>2013-05-20T08:39:29Z</time>
      </trkpt>
      <trkpt lat="48.00413" lon="6.68608">
        <ele>547.13</ele>
        <time>2013-05-20T08:39:30Z</time>
      </trkpt>
      <trkpt lat="48.00412" lon="6.68611">
        <ele>547.13</ele>
        <time>2013-05-20T08:39:31Z</time>
      </trkpt>
      <trkpt lat="48.00411" lon="6.68614">
        <ele>547.61</ele>
        <time>2013-05-20T08:39:32Z</time>
      </trkpt>
      <trkpt lat="48.0041" lon="6.68617">
        <ele>548.09</ele>
        <time>2013-05-20T08:39:33Z</time>
      </trkpt>
      <trkpt lat="48.0041" lon="6.68619">
        <ele>548.57</ele>
        <time>2013-05-20T08:39:34Z</time>
      </trkpt>
      <trkpt lat="48.00409" lon="6.68622">
        <ele>548.09</ele>
        <time>2013-05-20T08:39:35Z</time>
      </trkpt>
      <trkpt lat="48.00408" lon="6.68625">
        <ele>548.09</ele>
        <time>2013-05-20T08:39:36Z</time>
      </trkpt>
      <trkpt lat="48.00406" lon="6.68632">
        <ele>549.53</ele>
        <time>2013-05-20T08:39:39Z</time>
      </trkpt>
      <trkpt lat="48.0039" lon="6.68665">
        <ele>551.45</ele>
        <time>2013-05-20T08:39:51Z</time>
      </trkpt>
      <trkpt lat="48.00364" lon="6.68687">
        <ele>553.86</ele>
        <time>2013-05-20T08:40:04Z</time>
      </trkpt>
      <trkpt lat="48.00343" lon="6.68697">
        <ele>557.22</ele>
        <time>2013-05-20T08:40:16Z</time>
      </trkpt>
      <trkpt lat="48.00336" lon="6.68694">
        <ele>557.7</ele>
        <time>2013-05-20T08:40:21Z</time>
      </trkpt>
      <trkpt lat="48.00334" lon="6.68694">
        <ele>557.7</ele>
        <time>2013-05-20T08:40:22Z</time>
      </trkpt>
      <trkpt lat="48.00332" lon="6.68694">
        <ele>557.7</ele>
        <time>2013-05-20T08:40:23Z</time>
      </trkpt>
      <trkpt lat="48.00331" lon="6.68693">
        <ele>557.7</ele>
        <time>2013-05-20T08:40:24Z</time>
      </trkpt>
      <trkpt lat="48.00329" lon="6.68693">
        <ele>558.18</ele>
        <time>2013-05-20T08:40:25Z</time>
      </trkpt>
      <trkpt lat="48.00327" lon="6.68693">
        <ele>558.66</ele>
        <time>2013-05-20T08:40:26Z</time>
      </trkpt>
      <trkpt lat="48.00325" lon="6.68693">
        <ele>558.66</ele>
        <time>2013-05-20T08:40:27Z</time>
      </trkpt>
      <trkpt lat="48.00309" lon="6.68697">
        <ele>560.59</ele>
        <time>2013-05-20T08:40:35Z</time>
      </trkpt>
      <trkpt lat="48.00304" lon="6.687">
        <ele>561.55</ele>
        <time>2013-05-20T08:40:38Z</time>
      </trkpt>
      <trkpt lat="48.00279" lon="6.68706">
        <ele>563.95</ele>
        <time>2013-05-20T08:40:50Z</time>
      </trkpt>
      <trkpt lat="48.00253" lon="6.68718">
        <ele>567.32</ele>
        <time>2013-05-20T08:41:04Z</time>
      </trkpt>
      <trkpt lat="48.00233" lon="6.68723">
        <ele>569.72</ele>
        <time>2013-05-20T08:41:16Z</time>
      </trkpt>
      <trkpt lat="48.00204" lon="6.68714">
        <ele>572.12</ele>
        <time>2013-05-20T08:41:30Z</time>
      </trkpt>
      <trkpt lat="48.00184" lon="6.68693">
        <ele>575.01</ele>
        <time>2013-05-20T08:41:43Z</time>
      </trkpt>
      <trkpt lat="48.00183" lon="6.68691">
        <ele>575.49</ele>
        <time>2013-05-20T08:41:44Z</time>
      </trkpt>
      <trkpt lat="48.00181" lon="6.68688">
        <ele>575.49</ele>
        <time>2013-05-20T08:41:45Z</time>
      </trkpt>
      <trkpt lat="48.00181" lon="6.68686">
        <ele>575.97</ele>
        <time>2013-05-20T08:41:46Z</time>
      </trkpt>
      <trkpt lat="48.00179" lon="6.68684">
        <ele>576.45</ele>
        <time>2013-05-20T08:41:47Z</time>
      </trkpt>
      <trkpt lat="48.00165" lon="6.68652">
        <ele>578.85</ele>
        <time>2013-05-20T08:42:02Z</time>
      </trkpt>
      <trkpt lat="48.0016" lon="6.68638">
        <ele>580.29</ele>
        <time>2013-05-20T08:42:08Z</time>
      </trkpt>
      <trkpt lat="48.0016" lon="6.68636">
        <ele>580.77</ele>
        <time>2013-05-20T08:42:09Z</time>
      </trkpt>
      <trkpt lat="48.0016" lon="6.68633">
        <ele>580.29</ele>
        <time>2013-05-20T08:42:10Z</time>
      </trkpt>
      <trkpt lat="48.0016" lon="6.6863">
        <ele>580.29</ele>
        <time>2013-05-20T08:42:11Z</time>
      </trkpt>
      <trkpt lat="48.00159" lon="6.68629">
        <ele>581.25</ele>
        <time>2013-05-20T08:42:12Z</time>
      </trkpt>
      <trkpt lat="48.00159" lon="6.68626">
        <ele>581.25</ele>
        <time>2013-05-20T08:42:13Z</time>
      </trkpt>
      <trkpt lat="48.00158" lon="6.68623">
        <ele>581.25</ele>
        <time>2013-05-20T08:42:14Z</time>
      </trkpt>
      <trkpt lat="48.00158" lon="6.68621">
        <ele>581.73</ele>
        <time>2013-05-20T08:42:15Z</time>
      </trkpt>
      <trkpt lat="48.00157" lon="6.68618">
        <ele>581.73</ele>
        <time>2013-05-20T08:42:16Z</time>
      </trkpt>
      <trkpt lat="48.00156" lon="6.68616">
        <ele>582.22</ele>
        <time>2013-05-20T08:42:17Z</time>
      </trkpt>
      <trkpt lat="48.00156" lon="6.68612">
        <ele>582.22</ele>
        <time>2013-05-20T08:42:19Z</time>
      </trkpt>
      <trkpt lat="48.00155" lon="6.68609">
        <ele>582.22</ele>
        <time>2013-05-20T08:42:20Z</time>
      </trkpt>
      <trkpt lat="48.00155" lon="6.68605">
        <ele>582.22</ele>
        <time>2013-05-20T08:42:22Z</time>
      </trkpt>
      <trkpt lat="48.00155" lon="6.68603">
        <ele>582.22</ele>
        <time>2013-05-20T08:42:23Z</time>
      </trkpt>
      <trkpt lat="48.00153" lon="6.68599">
        <ele>582.22</ele>
        <time>2013-05-20T08:42:25Z</time>
      </trkpt>
      <trkpt lat="48.00152" lon="6.68598">
        <ele>582.22</ele>
        <time>2013-05-20T08:42:26Z</time>
      </trkpt>
      <trkpt lat="48.00151" lon="6.68595">
        <ele>582.22</ele>
        <time>2013-05-20T08:42:27Z</time>
      </trkpt>
      <trkpt lat="48.0015" lon="6.68593">
        <ele>582.7</ele>
        <time>2013-05-20T08:42:28Z</time>
      </trkpt>
      <trkpt lat="48.00149" lon="6.68591">
        <ele>582.7</ele>
        <time>2013-05-20T08:42:29Z</time>
      </trkpt>
      <trkpt lat="48.00147" lon="6.68589">
        <ele>583.66</ele>
        <time>2013-05-20T08:42:30Z</time>
      </trkpt>
      <trkpt lat="48.00146" lon="6.68587">
        <ele>582.7</ele>
        <time>2013-05-20T08:42:31Z</time>
      </trkpt>
      <trkpt lat="48.00139" lon="6.68579">
        <ele>584.62</ele>
        <time>2013-05-20T08:42:37Z</time>
      </trkpt>
      <trkpt lat="48.00122" lon="6.68567">
        <ele>586.54</ele>
        <time>2013-05-20T08:42:46Z</time>
      </trkpt>
      <trkpt lat="48.00119" lon="6.68566">
        <ele>587.02</ele>
        <time>2013-05-20T08:42:48Z</time>
      </trkpt>
      <trkpt lat="48.00114" lon="6.6857">
        <ele>587.02</ele>
        <time>2013-05-20T08:42:53Z</time>
      </trkpt>
      <trkpt lat="48.00097" lon="6.68583">
        <ele>587.98</ele>
        <time>2013-05-20T08:43:04Z</time>
      </trkpt>
      <trkpt lat="48.00072" lon="6.68601">
        <ele>590.39</ele>
        <time>2013-05-20T08:43:20Z</time>
      </trkpt>
      <trkpt lat="48.00052" lon="6.68621">
        <ele>592.31</ele>
        <time>2013-05-20T08:43:33Z</time>
      </trkpt>
      <trkpt lat="48.00038" lon="6.68633">
        <ele>594.23</ele>
        <time>2013-05-20T08:43:42Z</time>
      </trkpt>
      <trkpt lat="48.0003" lon="6.6864">
        <ele>595.19</ele>
        <time>2013-05-20T08:43:46Z</time>
      </trkpt>
      <trkpt lat="48.00012" lon="6.6866">
        <ele>596.64</ele>
        <time>2013-05-20T08:43:58Z</time>
      </trkpt>
      <trkpt lat="47.99999" lon="6.68666">
        <ele>599.04</ele>
        <time>2013-05-20T08:44:07Z</time>
      </trkpt>
      <trkpt lat="47.99995" lon="6.68657">
        <ele>600</ele>
        <time>2013-05-20T08:44:12Z</time>
      </trkpt>
      <trkpt lat="47.99999" lon="6.68643">
        <ele>601.92</ele>
        <time>2013-05-20T08:44:19Z</time>
      </trkpt>
      <trkpt lat="48.00008" lon="6.68621">
        <ele>603.85</ele>
        <time>2013-05-20T08:44:31Z</time>
      </trkpt>
      <trkpt lat="48.00013" lon="6.68609">
        <ele>605.29</ele>
        <time>2013-05-20T08:44:37Z</time>
      </trkpt>
      <trkpt lat="48.00016" lon="6.68591">
        <ele>607.21</ele>
        <time>2013-05-20T08:44:45Z</time>
      </trkpt>
      <trkpt lat="48.00022" lon="6.68574">
        <ele>608.65</ele>
        <time>2013-05-20T08:44:52Z</time>
      </trkpt>
      <trkpt lat="48.00029" lon="6.68541">
        <ele>610.57</ele>
        <time>2013-05-20T08:45:05Z</time>
      </trkpt>
      <trkpt lat="48.00039" lon="6.68513">
        <ele>612.02</ele>
        <time>2013-05-20T08:45:18Z</time>
      </trkpt>
      <trkpt lat="48.00037" lon="6.68508">
        <ele>612.5</ele>
        <time>2013-05-20T08:45:20Z</time>
      </trkpt>
      <trkpt lat="48.00034" lon="6.68503">
        <ele>612.98</ele>
        <time>2013-05-20T08:45:25Z</time>
      </trkpt>
      <trkpt lat="48.00023" lon="6.68505">
        <ele>613.94</ele>
        <time>2013-05-20T08:45:38Z</time>
      </trkpt>
      <trkpt lat="48.00017" lon="6.68508">
        <ele>613.94</ele>
        <time>2013-05-20T08:45:50Z</time>
      </trkpt>
      <trkpt lat="48.00017" lon="6.68509">
        <ele>614.42</ele>
        <time>2013-05-20T08:45:51Z</time>
      </trkpt>
      <trkpt lat="48.00015" lon="6.68514">
        <ele>614.42</ele>
        <time>2013-05-20T08:45:54Z</time>
      </trkpt>
      <trkpt lat="48.00013" lon="6.68519">
        <ele>615.86</ele>
        <time>2013-05-20T08:46:10Z</time>
      </trkpt>
      <trkpt lat="48.00021" lon="6.68508">
        <ele>615.38</ele>
        <time>2013-05-20T08:46:44Z</time>
      </trkpt>
      <trkpt lat="48.00017" lon="6.6853">
        <ele>615.86</ele>
        <time>2013-05-20T08:47:18Z</time>
      </trkpt>
      <trkpt lat="48.00009" lon="6.68537">
        <ele>616.82</ele>
        <time>2013-05-20T08:47:52Z</time>
      </trkpt>
      <trkpt lat="48" lon="6.68528">
        <ele>617.3</ele>
        <time>2013-05-20T08:48:11Z</time>
      </trkpt>
      <trkpt lat="47.99987" lon="6.68552">
        <ele>620.67</ele>
        <time>2013-05-20T08:48:23Z</time>
      </trkpt>
      <trkpt lat="47.99972" lon="6.68559">
        <ele>621.63</ele>
        <time>2013-05-20T08:48:31Z</time>
      </trkpt>
      <trkpt lat="47.99965" lon="6.6856">
        <ele>621.63</ele>
        <time>2013-05-20T08:48:35Z</time>
      </trkpt>
      <trkpt lat="47.99942" lon="6.68583">
        <ele>624.03</ele>
        <time>2013-05-20T08:48:48Z</time>
      </trkpt>
      <trkpt lat="47.99912" lon="6.6861">
        <ele>625.96</ele>
        <time>2013-05-20T08:48:58Z</time>
      </trkpt>
      <trkpt lat="47.9988" lon="6.68632">
        <ele>629.32</ele>
        <time>2013-05-20T08:49:10Z</time>
      </trkpt>
      <trkpt lat="47.99851" lon="6.68654">
        <ele>630.76</ele>
        <time>2013-05-20T08:49:23Z</time>
      </trkpt>
      <trkpt lat="47.99824" lon="6.68683">
        <ele>631.72</ele>
        <time>2013-05-20T08:49:37Z</time>
      </trkpt>
      <trkpt lat="47.99819" lon="6.6869">
        <ele>632.68</ele>
        <time>2013-05-20T08:49:40Z</time>
      </trkpt>
      <trkpt lat="47.99799" lon="6.68732">
        <ele>634.13</ele>
        <time>2013-05-20T08:49:53Z</time>
      </trkpt>
      <trkpt lat="47.99781" lon="6.68759">
        <ele>634.61</ele>
        <time>2013-05-20T08:50:04Z</time>
      </trkpt>
      <trkpt lat="47.99768" lon="6.68769">
        <ele>637.49</ele>
        <time>2013-05-20T08:50:12Z</time>
      </trkpt>
      <trkpt lat="47.9976" lon="6.68773">
        <ele>637.97</ele>
        <time>2013-05-20T08:50:16Z</time>
      </trkpt>
      <trkpt lat="47.99746" lon="6.68785">
        <ele>640.38</ele>
        <time>2013-05-20T08:50:27Z</time>
      </trkpt>
      <trkpt lat="47.99736" lon="6.68789">
        <ele>642.3</ele>
        <time>2013-05-20T08:50:35Z</time>
      </trkpt>
      <trkpt lat="47.99728" lon="6.68799">
        <ele>644.22</ele>
        <time>2013-05-20T08:50:42Z</time>
      </trkpt>
      <trkpt lat="47.99715" lon="6.6881">
        <ele>644.22</ele>
        <time>2013-05-20T08:50:51Z</time>
      </trkpt>
      <trkpt lat="47.99704" lon="6.68842">
        <ele>642.78</ele>
        <time>2013-05-20T08:51:00Z</time>
      </trkpt>
      <trkpt lat="47.99683" lon="6.68902">
        <ele>642.78</ele>
        <time>2013-05-20T08:51:13Z</time>
      </trkpt>
      <trkpt lat="47.9968" lon="6.68913">
        <ele>641.34</ele>
        <time>2013-05-20T08:51:15Z</time>
      </trkpt>
      <trkpt lat="47.99672" lon="6.68975">
        <ele>640.86</ele>
        <time>2013-05-20T08:51:25Z</time>
      </trkpt>
      <trkpt lat="47.99675" lon="6.69022">
        <ele>642.3</ele>
        <time>2013-05-20T08:51:35Z</time>
      </trkpt>
      <trkpt lat="47.99669" lon="6.69052">
        <ele>644.7</ele>
        <time>2013-05-20T08:51:42Z</time>
      </trkpt>
      <trkpt lat="47.99667" lon="6.69067">
        <ele>646.14</ele>
        <time>2013-05-20T08:51:45Z</time>
      </trkpt>
      <trkpt lat="47.99658" lon="6.69113">
        <ele>646.14</ele>
        <time>2013-05-20T08:51:57Z</time>
      </trkpt>
      <trkpt lat="47.99643" lon="6.6917">
        <ele>648.55</ele>
        <time>2013-05-20T08:52:10Z</time>
      </trkpt>
      <trkpt lat="47.99647" lon="6.69213">
        <ele>649.99</ele>
        <time>2013-05-20T08:52:22Z</time>
      </trkpt>
      <trkpt lat="47.99655" lon="6.69264">
        <ele>646.62</ele>
        <time>2013-05-20T08:52:33Z</time>
      </trkpt>
      <trkpt lat="47.99656" lon="6.69271">
        <ele>646.14</ele>
        <time>2013-05-20T08:52:34Z</time>
      </trkpt>
      <trkpt lat="47.99658" lon="6.69286">
        <ele>645.18</ele>
        <time>2013-05-20T08:52:36Z</time>
      </trkpt>
      <trkpt lat="47.99658" lon="6.69309">
        <ele>642.3</ele>
        <time>2013-05-20T08:52:39Z</time>
      </trkpt>
      <trkpt lat="47.99638" lon="6.69384">
        <ele>641.82</ele>
        <time>2013-05-20T08:52:53Z</time>
      </trkpt>
      <trkpt lat="47.99612" lon="6.69421">
        <ele>641.82</ele>
        <time>2013-05-20T08:53:05Z</time>
      </trkpt>
      <trkpt lat="47.9959" lon="6.69466">
        <ele>639.89</ele>
        <time>2013-05-20T08:53:16Z</time>
      </trkpt>
      <trkpt lat="47.99584" lon="6.69493">
        <ele>640.38</ele>
        <time>2013-05-20T08:53:21Z</time>
      </trkpt>
      <trkpt lat="47.99571" lon="6.69528">
        <ele>636.05</ele>
        <time>2013-05-20T08:53:26Z</time>
      </trkpt>
      <trkpt lat="47.99564" lon="6.69546">
        <ele>632.68</ele>
        <time>2013-05-20T08:53:28Z</time>
      </trkpt>
      <trkpt lat="47.99559" lon="6.69563">
        <ele>629.32</ele>
        <time>2013-05-20T08:53:31Z</time>
      </trkpt>
      <trkpt lat="47.99557" lon="6.69572">
        <ele>627.4</ele>
        <time>2013-05-20T08:53:34Z</time>
      </trkpt>
      <trkpt lat="47.99555" lon="6.69595">
        <ele>624.51</ele>
        <time>2013-05-20T08:53:40Z</time>
      </trkpt>
      <trkpt lat="47.99558" lon="6.69603">
        <ele>623.07</ele>
        <time>2013-05-20T08:53:42Z</time>
      </trkpt>
      <trkpt lat="47.99561" lon="6.69616">
        <ele>621.15</ele>
        <time>2013-05-20T08:53:45Z</time>
      </trkpt>
      <trkpt lat="47.9957" lon="6.69649">
        <ele>617.3</ele>
        <time>2013-05-20T08:53:52Z</time>
      </trkpt>
      <trkpt lat="47.99573" lon="6.69654">
        <ele>616.82</ele>
        <time>2013-05-20T08:53:53Z</time>
      </trkpt>
      <trkpt lat="47.99585" lon="6.69672">
        <ele>615.38</ele>
        <time>2013-05-20T08:53:57Z</time>
      </trkpt>
      <trkpt lat="47.9959" lon="6.69676">
        <ele>615.38</ele>
        <time>2013-05-20T08:53:58Z</time>
      </trkpt>
      <trkpt lat="47.99595" lon="6.6968">
        <ele>614.42</ele>
        <time>2013-05-20T08:53:59Z</time>
      </trkpt>
      <trkpt lat="47.99603" lon="6.69688">
        <ele>612.02</ele>
        <time>2013-05-20T08:54:01Z</time>
      </trkpt>
      <trkpt lat="47.99605" lon="6.69695">
        <ele>611.54</ele>
        <time>2013-05-20T08:54:02Z</time>
      </trkpt>
      <trkpt lat="47.99606" lon="6.69703">
        <ele>610.57</ele>
        <time>2013-05-20T08:54:03Z</time>
      </trkpt>
      <trkpt lat="47.99607" lon="6.69708">
        <ele>610.57</ele>
        <time>2013-05-20T08:54:04Z</time>
      </trkpt>
      <trkpt lat="47.99617" lon="6.69749">
        <ele>607.21</ele>
        <time>2013-05-20T08:54:11Z</time>
      </trkpt>
      <trkpt lat="47.9962" lon="6.69759">
        <ele>606.25</ele>
        <time>2013-05-20T08:54:13Z</time>
      </trkpt>
      <trkpt lat="47.99631" lon="6.69781">
        <ele>604.81</ele>
        <time>2013-05-20T08:54:17Z</time>
      </trkpt>
      <trkpt lat="47.99644" lon="6.69804">
        <ele>602.4</ele>
        <time>2013-05-20T08:54:21Z</time>
      </trkpt>
      <trkpt lat="47.99647" lon="6.69809">
        <ele>600.96</ele>
        <time>2013-05-20T08:54:22Z</time>
      </trkpt>
      <trkpt lat="47.99651" lon="6.69813">
        <ele>599.04</ele>
        <time>2013-05-20T08:54:23Z</time>
      </trkpt>
      <trkpt lat="47.99655" lon="6.69817">
        <ele>598.56</ele>
        <time>2013-05-20T08:54:24Z</time>
      </trkpt>
      <trkpt lat="47.99675" lon="6.69839">
        <ele>595.19</ele>
        <time>2013-05-20T08:54:28Z</time>
      </trkpt>
      <trkpt lat="47.99681" lon="6.69847">
        <ele>594.71</ele>
        <time>2013-05-20T08:54:29Z</time>
      </trkpt>
      <trkpt lat="47.99685" lon="6.69857">
        <ele>593.75</ele>
        <time>2013-05-20T08:54:30Z</time>
      </trkpt>
      <trkpt lat="47.99688" lon="6.69866">
        <ele>592.31</ele>
        <time>2013-05-20T08:54:31Z</time>
      </trkpt>
      <trkpt lat="47.99691" lon="6.69874">
        <ele>590.87</ele>
        <time>2013-05-20T08:54:32Z</time>
      </trkpt>
      <trkpt lat="47.99694" lon="6.6988">
        <ele>588.46</ele>
        <time>2013-05-20T08:54:33Z</time>
      </trkpt>
      <trkpt lat="47.99698" lon="6.69885">
        <ele>587.5</ele>
        <time>2013-05-20T08:54:34Z</time>
      </trkpt>
      <trkpt lat="47.99703" lon="6.6989">
        <ele>587.98</ele>
        <time>2013-05-20T08:54:35Z</time>
      </trkpt>
      <trkpt lat="47.99707" lon="6.69894">
        <ele>587.5</ele>
        <time>2013-05-20T08:54:36Z</time>
      </trkpt>
      <trkpt lat="47.99711" lon="6.69897">
        <ele>585.58</ele>
        <time>2013-05-20T08:54:37Z</time>
      </trkpt>
      <trkpt lat="47.99714" lon="6.69901">
        <ele>585.1</ele>
        <time>2013-05-20T08:54:38Z</time>
      </trkpt>
      <trkpt lat="47.99718" lon="6.69905">
        <ele>583.66</ele>
        <time>2013-05-20T08:54:39Z</time>
      </trkpt>
      <trkpt lat="47.99722" lon="6.69909">
        <ele>582.22</ele>
        <time>2013-05-20T08:54:40Z</time>
      </trkpt>
      <trkpt lat="47.99739" lon="6.69927">
        <ele>576.93</ele>
        <time>2013-05-20T08:54:44Z</time>
      </trkpt>
      <trkpt lat="47.99751" lon="6.69942">
        <ele>573.08</ele>
        <time>2013-05-20T08:54:47Z</time>
      </trkpt>
      <trkpt lat="47.99755" lon="6.69946">
        <ele>573.08</ele>
        <time>2013-05-20T08:54:48Z</time>
      </trkpt>
      <trkpt lat="47.99759" lon="6.69949">
        <ele>571.64</ele>
        <time>2013-05-20T08:54:49Z</time>
      </trkpt>
      <trkpt lat="47.99762" lon="6.69953">
        <ele>571.16</ele>
        <time>2013-05-20T08:54:50Z</time>
      </trkpt>
      <trkpt lat="47.99765" lon="6.69956">
        <ele>570.2</ele>
        <time>2013-05-20T08:54:51Z</time>
      </trkpt>
      <trkpt lat="47.99767" lon="6.69959">
        <ele>569.72</ele>
        <time>2013-05-20T08:54:52Z</time>
      </trkpt>
      <trkpt lat="47.99779" lon="6.69974">
        <ele>567.8</ele>
        <time>2013-05-20T08:54:56Z</time>
      </trkpt>
      <trkpt lat="47.99782" lon="6.6998">
        <ele>567.32</ele>
        <time>2013-05-20T08:54:57Z</time>
      </trkpt>
      <trkpt lat="47.99786" lon="6.69985">
        <ele>565.39</ele>
        <time>2013-05-20T08:54:58Z</time>
      </trkpt>
      <trkpt lat="47.99789" lon="6.69991">
        <ele>565.39</ele>
        <time>2013-05-20T08:54:59Z</time>
      </trkpt>
      <trkpt lat="47.99794" lon="6.70002">
        <ele>561.55</ele>
        <time>2013-05-20T08:55:01Z</time>
      </trkpt>
      <trkpt lat="47.99796" lon="6.70012">
        <ele>560.11</ele>
        <time>2013-05-20T08:55:03Z</time>
      </trkpt>
      <trkpt lat="47.99795" lon="6.70012">
        <ele>560.11</ele>
        <time>2013-05-20T08:55:04Z</time>
      </trkpt>
      <trkpt lat="47.99794" lon="6.70012">
        <ele>560.11</ele>
        <time>2013-05-20T08:55:05Z</time>
      </trkpt>
      <trkpt lat="47.99793" lon="6.7001">
        <ele>560.11</ele>
        <time>2013-05-20T08:55:06Z</time>
      </trkpt>
      <trkpt lat="47.99793" lon="6.70009">
        <ele>560.11</ele>
        <time>2013-05-20T08:55:07Z</time>
      </trkpt>
      <trkpt lat="47.99791" lon="6.70008">
        <ele>559.62</ele>
        <time>2013-05-20T08:55:08Z</time>
      </trkpt>
      <trkpt lat="47.99774" lon="6.69995">
        <ele>560.11</ele>
        <time>2013-05-20T08:55:22Z</time>
      </trkpt>
      <trkpt lat="47.99773" lon="6.69994">
        <ele>560.59</ele>
        <time>2013-05-20T08:55:23Z</time>
      </trkpt>
      <trkpt lat="47.99771" lon="6.69993">
        <ele>561.07</ele>
        <time>2013-05-20T08:55:25Z</time>
      </trkpt>
      <trkpt lat="47.99769" lon="6.69992">
        <ele>561.55</ele>
        <time>2013-05-20T08:55:27Z</time>
      </trkpt>
      <trkpt lat="47.99768" lon="6.69991">
        <ele>561.55</ele>
        <time>2013-05-20T08:55:28Z</time>
      </trkpt>
      <trkpt lat="47.9974" lon="6.69973">
        <ele>563.47</ele>
        <time>2013-05-20T08:55:42Z</time>
      </trkpt>
      <trkpt lat="47.99701" lon="6.69958">
        <ele>564.91</ele>
        <time>2013-05-20T08:55:57Z</time>
      </trkpt>
      <trkpt lat="47.99667" lon="6.69949">
        <ele>565.39</ele>
        <time>2013-05-20T08:56:09Z</time>
      </trkpt>
      <trkpt lat="47.99629" lon="6.69927">
        <ele>566.83</ele>
        <time>2013-05-20T08:56:25Z</time>
      </trkpt>
      <trkpt lat="47.99594" lon="6.6992">
        <ele>568.76</ele>
        <time>2013-05-20T08:56:40Z</time>
      </trkpt>
      <trkpt lat="47.9957" lon="6.69941">
        <ele>569.72</ele>
        <time>2013-05-20T08:56:52Z</time>
      </trkpt>
      <trkpt lat="47.9955" lon="6.6996">
        <ele>572.12</ele>
        <time>2013-05-20T08:57:02Z</time>
      </trkpt>
      <trkpt lat="47.99548" lon="6.69962">
        <ele>571.64</ele>
        <time>2013-05-20T08:57:03Z</time>
      </trkpt>
      <trkpt lat="47.99546" lon="6.69964">
        <ele>571.64</ele>
        <time>2013-05-20T08:57:04Z</time>
      </trkpt>
      <trkpt lat="47.99524" lon="6.6998">
        <ele>573.56</ele>
        <time>2013-05-20T08:57:18Z</time>
      </trkpt>
      <trkpt lat="47.99504" lon="6.6999">
        <ele>575.97</ele>
        <time>2013-05-20T08:57:28Z</time>
      </trkpt>
      <trkpt lat="47.99492" lon="6.69998">
        <ele>577.41</ele>
        <time>2013-05-20T08:57:36Z</time>
      </trkpt>
      <trkpt lat="47.9949" lon="6.69999">
        <ele>577.89</ele>
        <time>2013-05-20T08:57:37Z</time>
      </trkpt>
      <trkpt lat="47.99489" lon="6.7">
        <ele>577.89</ele>
        <time>2013-05-20T08:57:38Z</time>
      </trkpt>
      <trkpt lat="47.99487" lon="6.70001">
        <ele>577.41</ele>
        <time>2013-05-20T08:57:39Z</time>
      </trkpt>
      <trkpt lat="47.99486" lon="6.70003">
        <ele>578.37</ele>
        <time>2013-05-20T08:57:40Z</time>
      </trkpt>
      <trkpt lat="47.99485" lon="6.70005">
        <ele>578.37</ele>
        <time>2013-05-20T08:57:41Z</time>
      </trkpt>
      <trkpt lat="47.99483" lon="6.7001">
        <ele>579.33</ele>
        <time>2013-05-20T08:57:44Z</time>
      </trkpt>
      <trkpt lat="47.99482" lon="6.70012">
        <ele>578.85</ele>
        <time>2013-05-20T08:57:45Z</time>
      </trkpt>
      <trkpt lat="47.99482" lon="6.70015">
        <ele>579.33</ele>
        <time>2013-05-20T08:57:46Z</time>
      </trkpt>
      <trkpt lat="47.99481" lon="6.70018">
        <ele>579.81</ele>
        <time>2013-05-20T08:57:47Z</time>
      </trkpt>
      <trkpt lat="47.9948" lon="6.7002">
        <ele>579.81</ele>
        <time>2013-05-20T08:57:48Z</time>
      </trkpt>
      <trkpt lat="47.99479" lon="6.70023">
        <ele>580.29</ele>
        <time>2013-05-20T08:57:49Z</time>
      </trkpt>
      <trkpt lat="47.99478" lon="6.70025">
        <ele>579.81</ele>
        <time>2013-05-20T08:57:50Z</time>
      </trkpt>
      <trkpt lat="47.99476" lon="6.70043">
        <ele>581.73</ele>
        <time>2013-05-20T08:57:57Z</time>
      </trkpt>
      <trkpt lat="47.99475" lon="6.70046">
        <ele>581.25</ele>
        <time>2013-05-20T08:57:58Z</time>
      </trkpt>
      <trkpt lat="47.99475" lon="6.70048">
        <ele>581.73</ele>
        <time>2013-05-20T08:57:59Z</time>
      </trkpt>
      <trkpt lat="47.99468" lon="6.70069">
        <ele>583.66</ele>
        <time>2013-05-20T08:58:07Z</time>
      </trkpt>
      <trkpt lat="47.99453" lon="6.70098">
        <ele>585.1</ele>
        <time>2013-05-20T08:58:20Z</time>
      </trkpt>
      <trkpt lat="47.99453" lon="6.701">
        <ele>585.58</ele>
        <time>2013-05-20T08:58:21Z</time>
      </trkpt>
      <trkpt lat="47.99452" lon="6.70102">
        <ele>585.1</ele>
        <time>2013-05-20T08:58:22Z</time>
      </trkpt>
      <trkpt lat="47.99454" lon="6.70113">
        <ele>586.06</ele>
        <time>2013-05-20T08:58:27Z</time>
      </trkpt>
      <trkpt lat="47.99454" lon="6.70116">
        <ele>586.54</ele>
        <time>2013-05-20T08:58:28Z</time>
      </trkpt>
      <trkpt lat="47.99453" lon="6.70119">
        <ele>587.02</ele>
        <time>2013-05-20T08:58:29Z</time>
      </trkpt>
      <trkpt lat="47.99451" lon="6.70123">
        <ele>587.02</ele>
        <time>2013-05-20T08:58:30Z</time>
      </trkpt>
      <trkpt lat="47.9945" lon="6.70127">
        <ele>587.02</ele>
        <time>2013-05-20T08:58:31Z</time>
      </trkpt>
      <trkpt lat="47.99436" lon="6.70161">
        <ele>588.46</ele>
        <time>2013-05-20T08:58:44Z</time>
      </trkpt>
      <trkpt lat="47.99419" lon="6.70199">
        <ele>589.43</ele>
        <time>2013-05-20T08:58:57Z</time>
      </trkpt>
      <trkpt lat="47.99393" lon="6.7023">
        <ele>590.39</ele>
        <time>2013-05-20T08:59:08Z</time>
      </trkpt>
      <trkpt lat="47.99391" lon="6.7023">
        <ele>590.87</ele>
        <time>2013-05-20T08:59:09Z</time>
      </trkpt>
      <trkpt lat="47.99389" lon="6.70229">
        <ele>590.39</ele>
        <time>2013-05-20T08:59:10Z</time>
      </trkpt>
      <trkpt lat="47.99386" lon="6.70228">
        <ele>591.35</ele>
        <time>2013-05-20T08:59:11Z</time>
      </trkpt>
      <trkpt lat="47.99384" lon="6.70226">
        <ele>590.87</ele>
        <time>2013-05-20T08:59:12Z</time>
      </trkpt>
      <trkpt lat="47.99382" lon="6.70224">
        <ele>590.87</ele>
        <time>2013-05-20T08:59:13Z</time>
      </trkpt>
      <trkpt lat="47.9938" lon="6.70222">
        <ele>591.35</ele>
        <time>2013-05-20T08:59:14Z</time>
      </trkpt>
      <trkpt lat="47.99364" lon="6.70192">
        <ele>593.75</ele>
        <time>2013-05-20T08:59:26Z</time>
      </trkpt>
      <trkpt lat="47.99354" lon="6.70174">
        <ele>595.19</ele>
        <time>2013-05-20T08:59:34Z</time>
      </trkpt>
      <trkpt lat="47.99353" lon="6.70171">
        <ele>595.67</ele>
        <time>2013-05-20T08:59:35Z</time>
      </trkpt>
      <trkpt lat="47.99352" lon="6.7017">
        <ele>595.67</ele>
        <time>2013-05-20T08:59:36Z</time>
      </trkpt>
      <trkpt lat="47.99351" lon="6.70167">
        <ele>595.19</ele>
        <time>2013-05-20T08:59:37Z</time>
      </trkpt>
      <trkpt lat="47.9935" lon="6.70164">
        <ele>596.15</ele>
        <time>2013-05-20T08:59:38Z</time>
      </trkpt>
      <trkpt lat="47.99349" lon="6.70162">
        <ele>595.19</ele>
        <time>2013-05-20T08:59:39Z</time>
      </trkpt>
      <trkpt lat="47.99348" lon="6.70159">
        <ele>595.67</ele>
        <time>2013-05-20T08:59:40Z</time>
      </trkpt>
      <trkpt lat="47.99334" lon="6.70133">
        <ele>598.56</ele>
        <time>2013-05-20T08:59:52Z</time>
      </trkpt>
      <trkpt lat="47.9931" lon="6.70109">
        <ele>600.48</ele>
        <time>2013-05-20T09:00:06Z</time>
      </trkpt>
      <trkpt lat="47.99286" lon="6.70096">
        <ele>602.88</ele>
        <time>2013-05-20T09:00:21Z</time>
      </trkpt>
      <trkpt lat="47.99267" lon="6.70091">
        <ele>606.25</ele>
        <time>2013-05-20T09:00:34Z</time>
      </trkpt>
      <trkpt lat="47.99257" lon="6.70091">
        <ele>606.25</ele>
        <time>2013-05-20T09:00:39Z</time>
      </trkpt>
      <trkpt lat="47.99255" lon="6.70091">
        <ele>606.73</ele>
        <time>2013-05-20T09:00:40Z</time>
      </trkpt>
      <trkpt lat="47.99253" lon="6.70091">
        <ele>606.73</ele>
        <time>2013-05-20T09:00:41Z</time>
      </trkpt>
      <trkpt lat="47.9925" lon="6.70091">
        <ele>607.21</ele>
        <time>2013-05-20T09:00:42Z</time>
      </trkpt>
      <trkpt lat="47.99248" lon="6.7009">
        <ele>607.21</ele>
        <time>2013-05-20T09:00:43Z</time>
      </trkpt>
      <trkpt lat="47.99244" lon="6.70091">
        <ele>607.21</ele>
        <time>2013-05-20T09:00:44Z</time>
      </trkpt>
      <trkpt lat="47.99241" lon="6.70092">
        <ele>607.21</ele>
        <time>2013-05-20T09:00:45Z</time>
      </trkpt>
      <trkpt lat="47.99238" lon="6.70092">
        <ele>607.69</ele>
        <time>2013-05-20T09:00:46Z</time>
      </trkpt>
      <trkpt lat="47.99225" lon="6.70098">
        <ele>608.17</ele>
        <time>2013-05-20T09:00:57Z</time>
      </trkpt>
      <trkpt lat="47.99223" lon="6.70101">
        <ele>608.65</ele>
        <time>2013-05-20T09:00:59Z</time>
      </trkpt>
      <trkpt lat="47.99223" lon="6.70104">
        <ele>609.13</ele>
        <time>2013-05-20T09:01:00Z</time>
      </trkpt>
      <trkpt lat="47.99222" lon="6.70106">
        <ele>609.13</ele>
        <time>2013-05-20T09:01:01Z</time>
      </trkpt>
      <trkpt lat="47.99216" lon="6.70144">
        <ele>611.06</ele>
        <time>2013-05-20T09:01:14Z</time>
      </trkpt>
      <trkpt lat="47.99214" lon="6.70146">
        <ele>611.06</ele>
        <time>2013-05-20T09:01:15Z</time>
      </trkpt>
      <trkpt lat="47.99213" lon="6.7015">
        <ele>611.06</ele>
        <time>2013-05-20T09:01:16Z</time>
      </trkpt>
      <trkpt lat="47.99212" lon="6.70153">
        <ele>611.06</ele>
        <time>2013-05-20T09:01:17Z</time>
      </trkpt>
      <trkpt lat="47.99211" lon="6.70156">
        <ele>611.06</ele>
        <time>2013-05-20T09:01:18Z</time>
      </trkpt>
      <trkpt lat="47.9921" lon="6.70159">
        <ele>612.02</ele>
        <time>2013-05-20T09:01:19Z</time>
      </trkpt>
      <trkpt lat="47.99208" lon="6.70162">
        <ele>611.54</ele>
        <time>2013-05-20T09:01:20Z</time>
      </trkpt>
      <trkpt lat="47.99207" lon="6.70165">
        <ele>612.02</ele>
        <time>2013-05-20T09:01:21Z</time>
      </trkpt>
      <trkpt lat="47.99206" lon="6.70168">
        <ele>612.02</ele>
        <time>2013-05-20T09:01:22Z</time>
      </trkpt>
      <trkpt lat="47.99205" lon="6.7017">
        <ele>612.5</ele>
        <time>2013-05-20T09:01:23Z</time>
      </trkpt>
      <trkpt lat="47.99204" lon="6.70172">
        <ele>612.02</ele>
        <time>2013-05-20T09:01:24Z</time>
      </trkpt>
      <trkpt lat="47.99194" lon="6.70187">
        <ele>613.46</ele>
        <time>2013-05-20T09:01:31Z</time>
      </trkpt>
      <trkpt lat="47.99193" lon="6.7019">
        <ele>612.98</ele>
        <time>2013-05-20T09:01:32Z</time>
      </trkpt>
      <trkpt lat="47.99174" lon="6.7022">
        <ele>613.94</ele>
        <time>2013-05-20T09:01:44Z</time>
      </trkpt>
      <trkpt lat="47.99173" lon="6.70223">
        <ele>614.42</ele>
        <time>2013-05-20T09:01:45Z</time>
      </trkpt>
      <trkpt lat="47.99171" lon="6.70226">
        <ele>614.9</ele>
        <time>2013-05-20T09:01:46Z</time>
      </trkpt>
      <trkpt lat="47.99156" lon="6.70256">
        <ele>615.86</ele>
        <time>2013-05-20T09:01:58Z</time>
      </trkpt>
      <trkpt lat="47.9915" lon="6.70262">
        <ele>616.34</ele>
        <time>2013-05-20T09:01:59Z</time>
      </trkpt>
      <trkpt lat="47.99148" lon="6.70264">
        <ele>615.86</ele>
        <time>2013-05-20T09:02:00Z</time>
      </trkpt>
      <trkpt lat="47.99119" lon="6.70286">
        <ele>617.78</ele>
        <time>2013-05-20T09:02:12Z</time>
      </trkpt>
      <trkpt lat="47.99117" lon="6.70287">
        <ele>614.42</ele>
        <time>2013-05-20T09:02:13Z</time>
      </trkpt>
      <trkpt lat="47.99116" lon="6.70288">
        <ele>619.23</ele>
        <time>2013-05-20T09:02:14Z</time>
      </trkpt>
      <trkpt lat="47.99114" lon="6.7029">
        <ele>615.86</ele>
        <time>2013-05-20T09:02:15Z</time>
      </trkpt>
      <trkpt lat="47.99108" lon="6.70298">
        <ele>612.02</ele>
        <time>2013-05-20T09:02:19Z</time>
      </trkpt>
      <trkpt lat="47.99107" lon="6.703">
        <ele>623.07</ele>
        <time>2013-05-20T09:02:20Z</time>
      </trkpt>
      <trkpt lat="47.99106" lon="6.70302">
        <ele>621.15</ele>
        <time>2013-05-20T09:02:21Z</time>
      </trkpt>
      <trkpt lat="47.99105" lon="6.70305">
        <ele>618.75</ele>
        <time>2013-05-20T09:02:22Z</time>
      </trkpt>
      <trkpt lat="47.99104" lon="6.70307">
        <ele>618.26</ele>
        <time>2013-05-20T09:02:23Z</time>
      </trkpt>
      <trkpt lat="47.99103" lon="6.7031">
        <ele>618.75</ele>
        <time>2013-05-20T09:02:24Z</time>
      </trkpt>
      <trkpt lat="47.99102" lon="6.70316">
        <ele>613.94</ele>
        <time>2013-05-20T09:02:26Z</time>
      </trkpt>
      <trkpt lat="47.991" lon="6.70318">
        <ele>621.15</ele>
        <time>2013-05-20T09:02:27Z</time>
      </trkpt>
      <trkpt lat="47.99099" lon="6.70321">
        <ele>617.3</ele>
        <time>2013-05-20T09:02:28Z</time>
      </trkpt>
      <trkpt lat="47.99096" lon="6.70326">
        <ele>620.67</ele>
        <time>2013-05-20T09:02:30Z</time>
      </trkpt>
      <trkpt lat="47.99091" lon="6.70334">
        <ele>617.3</ele>
        <time>2013-05-20T09:02:34Z</time>
      </trkpt>
      <trkpt lat="47.99089" lon="6.70336">
        <ele>621.15</ele>
        <time>2013-05-20T09:02:35Z</time>
      </trkpt>
      <trkpt lat="47.99087" lon="6.70339">
        <ele>615.38</ele>
        <time>2013-05-20T09:02:36Z</time>
      </trkpt>
      <trkpt lat="47.99082" lon="6.70344">
        <ele>623.07</ele>
        <time>2013-05-20T09:02:38Z</time>
      </trkpt>
      <trkpt lat="47.99079" lon="6.70347">
        <ele>621.63</ele>
        <time>2013-05-20T09:02:39Z</time>
      </trkpt>
      <trkpt lat="47.99075" lon="6.70351">
        <ele>620.19</ele>
        <time>2013-05-20T09:02:41Z</time>
      </trkpt>
      <trkpt lat="47.99071" lon="6.70359">
        <ele>621.63</ele>
        <time>2013-05-20T09:02:51Z</time>
      </trkpt>
      <trkpt lat="47.9907" lon="6.70361">
        <ele>621.63</ele>
        <time>2013-05-20T09:02:52Z</time>
      </trkpt>
      <trkpt lat="47.99069" lon="6.70363">
        <ele>622.11</ele>
        <time>2013-05-20T09:02:53Z</time>
      </trkpt>
      <trkpt lat="47.99066" lon="6.70366">
        <ele>622.59</ele>
        <time>2013-05-20T09:02:54Z</time>
      </trkpt>
      <trkpt lat="47.99064" lon="6.70367">
        <ele>622.59</ele>
        <time>2013-05-20T09:02:55Z</time>
      </trkpt>
      <trkpt lat="47.99062" lon="6.70369">
        <ele>622.11</ele>
        <time>2013-05-20T09:02:56Z</time>
      </trkpt>
      <trkpt lat="47.9906" lon="6.7037">
        <ele>622.11</ele>
        <time>2013-05-20T09:02:57Z</time>
      </trkpt>
      <trkpt lat="47.99058" lon="6.70372">
        <ele>622.59</ele>
        <time>2013-05-20T09:02:58Z</time>
      </trkpt>
      <trkpt lat="47.99056" lon="6.70374">
        <ele>623.07</ele>
        <time>2013-05-20T09:02:59Z</time>
      </trkpt>
      <trkpt lat="47.99054" lon="6.70377">
        <ele>622.59</ele>
        <time>2013-05-20T09:03:00Z</time>
      </trkpt>
      <trkpt lat="47.99052" lon="6.70379">
        <ele>623.07</ele>
        <time>2013-05-20T09:03:01Z</time>
      </trkpt>
      <trkpt lat="47.99025" lon="6.70394">
        <ele>624.03</ele>
        <time>2013-05-20T09:03:12Z</time>
      </trkpt>
      <trkpt lat="47.98996" lon="6.70413">
        <ele>626.44</ele>
        <time>2013-05-20T09:03:25Z</time>
      </trkpt>
      <trkpt lat="47.98987" lon="6.7042">
        <ele>626.92</ele>
        <time>2013-05-20T09:03:29Z</time>
      </trkpt>
      <trkpt lat="47.98986" lon="6.70422">
        <ele>626.44</ele>
        <time>2013-05-20T09:03:30Z</time>
      </trkpt>
      <trkpt lat="47.9896" lon="6.70446">
        <ele>627.88</ele>
        <time>2013-05-20T09:03:44Z</time>
      </trkpt>
      <trkpt lat="47.98948" lon="6.70455">
        <ele>628.84</ele>
        <time>2013-05-20T09:03:51Z</time>
      </trkpt>
      <trkpt lat="47.98947" lon="6.70456">
        <ele>628.84</ele>
        <time>2013-05-20T09:03:52Z</time>
      </trkpt>
      <trkpt lat="47.98945" lon="6.70457">
        <ele>629.32</ele>
        <time>2013-05-20T09:03:53Z</time>
      </trkpt>
      <trkpt lat="47.98918" lon="6.70478">
        <ele>631.24</ele>
        <time>2013-05-20T09:04:07Z</time>
      </trkpt>
      <trkpt lat="47.98916" lon="6.70479">
        <ele>631.24</ele>
        <time>2013-05-20T09:04:08Z</time>
      </trkpt>
      <trkpt lat="47.98901" lon="6.70508">
        <ele>631.72</ele>
        <time>2013-05-20T09:04:22Z</time>
      </trkpt>
      <trkpt lat="47.98889" lon="6.70542">
        <ele>634.61</ele>
        <time>2013-05-20T09:04:34Z</time>
      </trkpt>
      <trkpt lat="47.9887" lon="6.70584">
        <ele>636.05</ele>
        <time>2013-05-20T09:04:49Z</time>
      </trkpt>
      <trkpt lat="47.98847" lon="6.70612">
        <ele>637.49</ele>
        <time>2013-05-20T09:05:01Z</time>
      </trkpt>
      <trkpt lat="47.98816" lon="6.70635">
        <ele>638.93</ele>
        <time>2013-05-20T09:05:15Z</time>
      </trkpt>
      <trkpt lat="47.98789" lon="6.70642">
        <ele>640.86</ele>
        <time>2013-05-20T09:05:28Z</time>
      </trkpt>
      <trkpt lat="47.98773" lon="6.70652">
        <ele>637.49</ele>
        <time>2013-05-20T09:05:33Z</time>
      </trkpt>
      <trkpt lat="47.98769" lon="6.70654">
        <ele>635.57</ele>
        <time>2013-05-20T09:05:34Z</time>
      </trkpt>
      <trkpt lat="47.98755" lon="6.7066">
        <ele>631.72</ele>
        <time>2013-05-20T09:05:37Z</time>
      </trkpt>
      <trkpt lat="47.98739" lon="6.70668">
        <ele>630.28</ele>
        <time>2013-05-20T09:05:41Z</time>
      </trkpt>
      <trkpt lat="47.98697" lon="6.70711">
        <ele>626.44</ele>
        <time>2013-05-20T09:05:51Z</time>
      </trkpt>
      <trkpt lat="47.9869" lon="6.70731">
        <ele>625.96</ele>
        <time>2013-05-20T09:05:55Z</time>
      </trkpt>
      <trkpt lat="47.98679" lon="6.70745">
        <ele>623.55</ele>
        <time>2013-05-20T09:05:58Z</time>
      </trkpt>
      <trkpt lat="47.98674" lon="6.7075">
        <ele>623.07</ele>
        <time>2013-05-20T09:05:59Z</time>
      </trkpt>
      <trkpt lat="47.9867" lon="6.70755">
        <ele>622.11</ele>
        <time>2013-05-20T09:06:00Z</time>
      </trkpt>
      <trkpt lat="47.9864" lon="6.70818">
        <ele>620.19</ele>
        <time>2013-05-20T09:06:12Z</time>
      </trkpt>
      <trkpt lat="47.98624" lon="6.70833">
        <ele>621.63</ele>
        <time>2013-05-20T09:06:20Z</time>
      </trkpt>
      <trkpt lat="47.98612" lon="6.70881">
        <ele>621.63</ele>
        <time>2013-05-20T09:06:32Z</time>
      </trkpt>
      <trkpt lat="47.98611" lon="6.70886">
        <ele>621.15</ele>
        <time>2013-05-20T09:06:33Z</time>
      </trkpt>
      <trkpt lat="47.98613" lon="6.70914">
        <ele>623.55</ele>
        <time>2013-05-20T09:06:40Z</time>
      </trkpt>
      <trkpt lat="47.98588" lon="6.70946">
        <ele>624.99</ele>
        <time>2013-05-20T09:06:52Z</time>
      </trkpt>
      <trkpt lat="47.98576" lon="6.70953">
        <ele>623.07</ele>
        <time>2013-05-20T09:06:56Z</time>
      </trkpt>
      <trkpt lat="47.98556" lon="6.70965">
        <ele>618.75</ele>
        <time>2013-05-20T09:07:00Z</time>
      </trkpt>
      <trkpt lat="47.98546" lon="6.70973">
        <ele>616.82</ele>
        <time>2013-05-20T09:07:03Z</time>
      </trkpt>
      <trkpt lat="47.98523" lon="6.70985">
        <ele>616.82</ele>
        <time>2013-05-20T09:07:13Z</time>
      </trkpt>
      <trkpt lat="47.98492" lon="6.71011">
        <ele>613.94</ele>
        <time>2013-05-20T09:07:25Z</time>
      </trkpt>
      <trkpt lat="47.98483" lon="6.71018">
        <ele>610.09</ele>
        <time>2013-05-20T09:07:28Z</time>
      </trkpt>
      <trkpt lat="47.98476" lon="6.71021">
        <ele>606.73</ele>
        <time>2013-05-20T09:07:31Z</time>
      </trkpt>
      <trkpt lat="47.98461" lon="6.71018">
        <ele>602.88</ele>
        <time>2013-05-20T09:07:35Z</time>
      </trkpt>
      <trkpt lat="47.98441" lon="6.71017">
        <ele>598.56</ele>
        <time>2013-05-20T09:07:40Z</time>
      </trkpt>
      <trkpt lat="47.98432" lon="6.7102">
        <ele>595.19</ele>
        <time>2013-05-20T09:07:42Z</time>
      </trkpt>
      <trkpt lat="47.98428" lon="6.71022">
        <ele>594.23</ele>
        <time>2013-05-20T09:07:43Z</time>
      </trkpt>
      <trkpt lat="47.98424" lon="6.71023">
        <ele>592.79</ele>
        <time>2013-05-20T09:07:44Z</time>
      </trkpt>
      <trkpt lat="47.9842" lon="6.71023">
        <ele>591.35</ele>
        <time>2013-05-20T09:07:45Z</time>
      </trkpt>
      <trkpt lat="47.98416" lon="6.71023">
        <ele>591.35</ele>
        <time>2013-05-20T09:07:46Z</time>
      </trkpt>
      <trkpt lat="47.984" lon="6.7102">
        <ele>587.02</ele>
        <time>2013-05-20T09:07:50Z</time>
      </trkpt>
      <trkpt lat="47.98396" lon="6.71019">
        <ele>586.06</ele>
        <time>2013-05-20T09:07:51Z</time>
      </trkpt>
      <trkpt lat="47.98391" lon="6.71019">
        <ele>585.58</ele>
        <time>2013-05-20T09:07:52Z</time>
      </trkpt>
      <trkpt lat="47.98383" lon="6.71019">
        <ele>582.7</ele>
        <time>2013-05-20T09:07:54Z</time>
      </trkpt>
      <trkpt lat="47.98379" lon="6.71017">
        <ele>582.22</ele>
        <time>2013-05-20T09:07:55Z</time>
      </trkpt>
      <trkpt lat="47.98374" lon="6.71015">
        <ele>581.25</ele>
        <time>2013-05-20T09:07:56Z</time>
      </trkpt>
      <trkpt lat="47.98361" lon="6.71007">
        <ele>577.41</ele>
        <time>2013-05-20T09:07:59Z</time>
      </trkpt>
      <trkpt lat="47.98354" lon="6.71004">
        <ele>575.01</ele>
        <time>2013-05-20T09:08:01Z</time>
      </trkpt>
      <trkpt lat="47.98345" lon="6.70997">
        <ele>574.04</ele>
        <time>2013-05-20T09:08:03Z</time>
      </trkpt>
      <trkpt lat="47.9834" lon="6.70993">
        <ele>573.08</ele>
        <time>2013-05-20T09:08:04Z</time>
      </trkpt>
      <trkpt lat="47.98336" lon="6.70988">
        <ele>572.6</ele>
        <time>2013-05-20T09:08:05Z</time>
      </trkpt>
      <trkpt lat="47.98333" lon="6.70984">
        <ele>572.12</ele>
        <time>2013-05-20T09:08:06Z</time>
      </trkpt>
      <trkpt lat="47.9833" lon="6.70981">
        <ele>571.16</ele>
        <time>2013-05-20T09:08:07Z</time>
      </trkpt>
      <trkpt lat="47.98327" lon="6.70979">
        <ele>571.16</ele>
        <time>2013-05-20T09:08:08Z</time>
      </trkpt>
      <trkpt lat="47.98325" lon="6.70978">
        <ele>571.16</ele>
        <time>2013-05-20T09:08:09Z</time>
      </trkpt>
      <trkpt lat="47.98319" lon="6.70976">
        <ele>569.24</ele>
        <time>2013-05-20T09:08:12Z</time>
      </trkpt>
      <trkpt lat="47.98316" lon="6.70978">
        <ele>567.8</ele>
        <time>2013-05-20T09:08:14Z</time>
      </trkpt>
      <trkpt lat="47.98312" lon="6.70981">
        <ele>566.83</ele>
        <time>2013-05-20T09:08:24Z</time>
      </trkpt>
      <trkpt lat="47.98308" lon="6.70983">
        <ele>567.32</ele>
        <time>2013-05-20T09:08:31Z</time>
      </trkpt>
      <trkpt lat="47.98308" lon="6.70984">
        <ele>567.32</ele>
        <time>2013-05-20T09:08:32Z</time>
      </trkpt>
      <trkpt lat="47.98301" lon="6.70997">
        <ele>566.83</ele>
        <time>2013-05-20T09:08:37Z</time>
      </trkpt>
      <trkpt lat="47.983" lon="6.70999">
        <ele>566.83</ele>
        <time>2013-05-20T09:08:38Z</time>
      </trkpt>
      <trkpt lat="47.983" lon="6.71001">
        <ele>566.35</ele>
        <time>2013-05-20T09:08:39Z</time>
      </trkpt>
      <trkpt lat="47.98298" lon="6.71004">
        <ele>566.83</ele>
        <time>2013-05-20T09:08:40Z</time>
      </trkpt>
      <trkpt lat="47.98296" lon="6.71008">
        <ele>566.35</ele>
        <time>2013-05-20T09:08:41Z</time>
      </trkpt>
      <trkpt lat="47.98295" lon="6.71012">
        <ele>566.83</ele>
        <time>2013-05-20T09:08:42Z</time>
      </trkpt>
      <trkpt lat="47.98294" lon="6.71018">
        <ele>566.35</ele>
        <time>2013-05-20T09:08:43Z</time>
      </trkpt>
      <trkpt lat="47.98294" lon="6.71023">
        <ele>566.83</ele>
        <time>2013-05-20T09:08:44Z</time>
      </trkpt>
      <trkpt lat="47.98292" lon="6.71027">
        <ele>565.87</ele>
        <time>2013-05-20T09:08:45Z</time>
      </trkpt>
      <trkpt lat="47.98291" lon="6.7103">
        <ele>564.91</ele>
        <time>2013-05-20T09:08:46Z</time>
      </trkpt>
      <trkpt lat="47.98289" lon="6.71032">
        <ele>564.43</ele>
        <time>2013-05-20T09:08:47Z</time>
      </trkpt>
      <trkpt lat="47.98288" lon="6.71034">
        <ele>564.91</ele>
        <time>2013-05-20T09:08:48Z</time>
      </trkpt>
      <trkpt lat="47.98288" lon="6.71036">
        <ele>563.95</ele>
        <time>2013-05-20T09:08:49Z</time>
      </trkpt>
      <trkpt lat="47.98284" lon="6.71048">
        <ele>562.03</ele>
        <time>2013-05-20T09:08:59Z</time>
      </trkpt>
      <trkpt lat="47.98279" lon="6.71057">
        <ele>562.03</ele>
        <time>2013-05-20T09:09:05Z</time>
      </trkpt>
      <trkpt lat="47.98278" lon="6.71058">
        <ele>562.03</ele>
        <time>2013-05-20T09:09:06Z</time>
      </trkpt>
      <trkpt lat="47.98276" lon="6.71059">
        <ele>562.03</ele>
        <time>2013-05-20T09:09:07Z</time>
      </trkpt>
      <trkpt lat="47.98274" lon="6.7106">
        <ele>562.03</ele>
        <time>2013-05-20T09:09:08Z</time>
      </trkpt>
      <trkpt lat="47.98272" lon="6.71062">
        <ele>562.99</ele>
        <time>2013-05-20T09:09:09Z</time>
      </trkpt>
      <trkpt lat="47.98271" lon="6.71062">
        <ele>563.47</ele>
        <time>2013-05-20T09:09:10Z</time>
      </trkpt>
      <trkpt lat="47.9827" lon="6.71064">
        <ele>562.99</ele>
        <time>2013-05-20T09:09:11Z</time>
      </trkpt>
      <trkpt lat="47.98246" lon="6.71075">
        <ele>566.35</ele>
        <time>2013-05-20T09:09:25Z</time>
      </trkpt>
      <trkpt lat="47.98229" lon="6.71091">
        <ele>569.24</ele>
        <time>2013-05-20T09:09:35Z</time>
      </trkpt>
      <trkpt lat="47.98208" lon="6.7111">
        <ele>572.6</ele>
        <time>2013-05-20T09:09:49Z</time>
      </trkpt>
      <trkpt lat="47.98207" lon="6.7111">
        <ele>573.08</ele>
        <time>2013-05-20T09:09:50Z</time>
      </trkpt>
      <trkpt lat="47.98193" lon="6.71122">
        <ele>576.45</ele>
        <time>2013-05-20T09:10:01Z</time>
      </trkpt>
      <trkpt lat="47.98187" lon="6.71125">
        <ele>577.41</ele>
        <time>2013-05-20T09:10:05Z</time>
      </trkpt>
      <trkpt lat="47.9817" lon="6.71135">
        <ele>580.29</ele>
        <time>2013-05-20T09:10:16Z</time>
      </trkpt>
      <trkpt lat="47.9816" lon="6.71144">
        <ele>581.25</ele>
        <time>2013-05-20T09:10:23Z</time>
      </trkpt>
      <trkpt lat="47.98157" lon="6.71146">
        <ele>582.22</ele>
        <time>2013-05-20T09:10:38Z</time>
      </trkpt>
      <trkpt lat="47.98153" lon="6.71151">
        <ele>582.22</ele>
        <time>2013-05-20T09:11:06Z</time>
      </trkpt>
      <trkpt lat="47.9815" lon="6.71157">
        <ele>582.7</ele>
        <time>2013-05-20T09:11:30Z</time>
      </trkpt>
      <trkpt lat="47.98131" lon="6.71163">
        <ele>585.58</ele>
        <time>2013-05-20T09:11:44Z</time>
      </trkpt>
      <trkpt lat="47.98127" lon="6.71165">
        <ele>586.06</ele>
        <time>2013-05-20T09:11:46Z</time>
      </trkpt>
      <trkpt lat="47.98125" lon="6.71165">
        <ele>586.54</ele>
        <time>2013-05-20T09:11:47Z</time>
      </trkpt>
      <trkpt lat="47.98123" lon="6.71166">
        <ele>586.54</ele>
        <time>2013-05-20T09:11:48Z</time>
      </trkpt>
      <trkpt lat="47.98096" lon="6.71184">
        <ele>589.91</ele>
        <time>2013-05-20T09:12:06Z</time>
      </trkpt>
      <trkpt lat="47.98081" lon="6.71189">
        <ele>592.79</ele>
        <time>2013-05-20T09:12:16Z</time>
      </trkpt>
      <trkpt lat="47.98072" lon="6.71193">
        <ele>594.23</ele>
        <time>2013-05-20T09:12:21Z</time>
      </trkpt>
      <trkpt lat="47.98071" lon="6.71193">
        <ele>594.71</ele>
        <time>2013-05-20T09:12:22Z</time>
      </trkpt>
      <trkpt lat="47.98069" lon="6.71193">
        <ele>595.19</ele>
        <time>2013-05-20T09:12:23Z</time>
      </trkpt>
      <trkpt lat="47.98068" lon="6.71194">
        <ele>595.19</ele>
        <time>2013-05-20T09:12:24Z</time>
      </trkpt>
      <trkpt lat="47.98059" lon="6.71197">
        <ele>598.08</ele>
        <time>2013-05-20T09:12:31Z</time>
      </trkpt>
      <trkpt lat="47.98058" lon="6.71197">
        <ele>597.6</ele>
        <time>2013-05-20T09:12:32Z</time>
      </trkpt>
      <trkpt lat="47.98037" lon="6.71183">
        <ele>598.08</ele>
        <time>2013-05-20T09:12:44Z</time>
      </trkpt>
      <trkpt lat="47.98007" lon="6.71152">
        <ele>598.56</ele>
        <time>2013-05-20T09:12:59Z</time>
      </trkpt>
      <trkpt lat="47.97982" lon="6.7113">
        <ele>600</ele>
        <time>2013-05-20T09:13:13Z</time>
      </trkpt>
      <trkpt lat="47.97968" lon="6.71107">
        <ele>602.88</ele>
        <time>2013-05-20T09:13:23Z</time>
      </trkpt>
      <trkpt lat="47.97958" lon="6.71103">
        <ele>603.36</ele>
        <time>2013-05-20T09:13:29Z</time>
      </trkpt>
      <trkpt lat="47.97956" lon="6.71105">
        <ele>603.36</ele>
        <time>2013-05-20T09:13:30Z</time>
      </trkpt>
      <trkpt lat="47.97945" lon="6.71109">
        <ele>599.52</ele>
        <time>2013-05-20T09:13:33Z</time>
      </trkpt>
      <trkpt lat="47.97942" lon="6.7111">
        <ele>599.52</ele>
        <time>2013-05-20T09:13:34Z</time>
      </trkpt>
      <trkpt lat="47.9791" lon="6.7112">
        <ele>595.67</ele>
        <time>2013-05-20T09:13:41Z</time>
      </trkpt>
      <trkpt lat="47.97903" lon="6.71125">
        <ele>594.71</ele>
        <time>2013-05-20T09:13:43Z</time>
      </trkpt>
      <trkpt lat="47.97885" lon="6.7115">
        <ele>591.35</ele>
        <time>2013-05-20T09:13:49Z</time>
      </trkpt>
      <trkpt lat="47.97876" lon="6.71159">
        <ele>587.5</ele>
        <time>2013-05-20T09:13:52Z</time>
      </trkpt>
      <trkpt lat="47.97845" lon="6.71181">
        <ele>585.58</ele>
        <time>2013-05-20T09:14:02Z</time>
      </trkpt>
      <trkpt lat="47.97832" lon="6.71193">
        <ele>587.98</ele>
        <time>2013-05-20T09:14:09Z</time>
      </trkpt>
      <trkpt lat="47.97828" lon="6.712">
        <ele>587.98</ele>
        <time>2013-05-20T09:14:13Z</time>
      </trkpt>
      <trkpt lat="47.97807" lon="6.71209">
        <ele>590.87</ele>
        <time>2013-05-20T09:14:26Z</time>
      </trkpt>
      <trkpt lat="47.97787" lon="6.71215">
        <ele>592.31</ele>
        <time>2013-05-20T09:14:40Z</time>
      </trkpt>
      <trkpt lat="47.97771" lon="6.71225">
        <ele>595.19</ele>
        <time>2013-05-20T09:14:52Z</time>
      </trkpt>
      <trkpt lat="47.9776" lon="6.71231">
        <ele>597.6</ele>
        <time>2013-05-20T09:15:05Z</time>
      </trkpt>
      <trkpt lat="47.97735" lon="6.71245">
        <ele>598.08</ele>
        <time>2013-05-20T09:15:21Z</time>
      </trkpt>
      <trkpt lat="47.97728" lon="6.7125">
        <ele>598.56</ele>
        <time>2013-05-20T09:15:25Z</time>
      </trkpt>
      <trkpt lat="47.97727" lon="6.71251">
        <ele>598.08</ele>
        <time>2013-05-20T09:15:26Z</time>
      </trkpt>
      <trkpt lat="47.97726" lon="6.71252">
        <ele>598.56</ele>
        <time>2013-05-20T09:15:27Z</time>
      </trkpt>
      <trkpt lat="47.97711" lon="6.71265">
        <ele>600</ele>
        <time>2013-05-20T09:15:43Z</time>
      </trkpt>
      <trkpt lat="47.97704" lon="6.7128">
        <ele>599.52</ele>
        <time>2013-05-20T09:15:59Z</time>
      </trkpt>
      <trkpt lat="47.97699" lon="6.71284">
        <ele>598.08</ele>
        <time>2013-05-20T09:16:31Z</time>
      </trkpt>
      <trkpt lat="47.97703" lon="6.71285">
        <ele>600</ele>
        <time>2013-05-20T09:16:57Z</time>
      </trkpt>
      <trkpt lat="47.97706" lon="6.71284">
        <ele>599.04</ele>
        <time>2013-05-20T09:17:23Z</time>
      </trkpt>
      <trkpt lat="47.97684" lon="6.71297">
        <ele>597.6</ele>
        <time>2013-05-20T09:17:37Z</time>
      </trkpt>
      <trkpt lat="47.97657" lon="6.7131">
        <ele>598.56</ele>
        <time>2013-05-20T09:17:51Z</time>
      </trkpt>
      <trkpt lat="47.97656" lon="6.71312">
        <ele>598.56</ele>
        <time>2013-05-20T09:17:52Z</time>
      </trkpt>
      <trkpt lat="47.97654" lon="6.71313">
        <ele>598.56</ele>
        <time>2013-05-20T09:17:53Z</time>
      </trkpt>
      <trkpt lat="47.97652" lon="6.71315">
        <ele>598.56</ele>
        <time>2013-05-20T09:17:54Z</time>
      </trkpt>
      <trkpt lat="47.97651" lon="6.71317">
        <ele>598.56</ele>
        <time>2013-05-20T09:17:55Z</time>
      </trkpt>
      <trkpt lat="47.97649" lon="6.71319">
        <ele>598.08</ele>
        <time>2013-05-20T09:17:56Z</time>
      </trkpt>
      <trkpt lat="47.97647" lon="6.71321">
        <ele>597.12</ele>
        <time>2013-05-20T09:17:57Z</time>
      </trkpt>
      <trkpt lat="47.97644" lon="6.71323">
        <ele>596.64</ele>
        <time>2013-05-20T09:17:58Z</time>
      </trkpt>
      <trkpt lat="47.97635" lon="6.71334">
        <ele>594.71</ele>
        <time>2013-05-20T09:18:02Z</time>
      </trkpt>
      <trkpt lat="47.97624" lon="6.71348">
        <ele>591.35</ele>
        <time>2013-05-20T09:18:07Z</time>
      </trkpt>
      <trkpt lat="47.97618" lon="6.71351">
        <ele>589.91</ele>
        <time>2013-05-20T09:18:09Z</time>
      </trkpt>
      <trkpt lat="47.97611" lon="6.71355">
        <ele>586.54</ele>
        <time>2013-05-20T09:18:12Z</time>
      </trkpt>
      <trkpt lat="47.97607" lon="6.71359">
        <ele>585.58</ele>
        <time>2013-05-20T09:18:14Z</time>
      </trkpt>
      <trkpt lat="47.97605" lon="6.71363">
        <ele>582.7</ele>
        <time>2013-05-20T09:18:19Z</time>
      </trkpt>
      <trkpt lat="47.97605" lon="6.71365">
        <ele>582.22</ele>
        <time>2013-05-20T09:18:33Z</time>
      </trkpt>
      <trkpt lat="47.97597" lon="6.71374">
        <ele>579.81</ele>
        <time>2013-05-20T09:18:47Z</time>
      </trkpt>
      <trkpt lat="47.97595" lon="6.71384">
        <ele>577.41</ele>
        <time>2013-05-20T09:18:58Z</time>
      </trkpt>
      <trkpt lat="47.97584" lon="6.71402">
        <ele>575.01</ele>
        <time>2013-05-20T09:19:04Z</time>
      </trkpt>
      <trkpt lat="47.97578" lon="6.71413">
        <ele>574.04</ele>
        <time>2013-05-20T09:19:06Z</time>
      </trkpt>
      <trkpt lat="47.97565" lon="6.71431">
        <ele>571.16</ele>
        <time>2013-05-20T09:19:10Z</time>
      </trkpt>
      <trkpt lat="47.97561" lon="6.71434">
        <ele>571.64</ele>
        <time>2013-05-20T09:19:11Z</time>
      </trkpt>
      <trkpt lat="47.97533" lon="6.71447">
        <ele>568.28</ele>
        <time>2013-05-20T09:19:22Z</time>
      </trkpt>
      <trkpt lat="47.97529" lon="6.71446">
        <ele>566.83</ele>
        <time>2013-05-20T09:19:24Z</time>
      </trkpt>
      <trkpt lat="47.97524" lon="6.71442">
        <ele>562.99</ele>
        <time>2013-05-20T09:19:28Z</time>
      </trkpt>
      <trkpt lat="47.9752" lon="6.71443">
        <ele>562.99</ele>
        <time>2013-05-20T09:19:32Z</time>
      </trkpt>
      <trkpt lat="47.97507" lon="6.71442">
        <ele>561.07</ele>
        <time>2013-05-20T09:19:37Z</time>
      </trkpt>
      <trkpt lat="47.97497" lon="6.71442">
        <ele>559.14</ele>
        <time>2013-05-20T09:19:40Z</time>
      </trkpt>
      <trkpt lat="47.97488" lon="6.71443">
        <ele>557.7</ele>
        <time>2013-05-20T09:19:42Z</time>
      </trkpt>
      <trkpt lat="47.97478" lon="6.71445">
        <ele>555.78</ele>
        <time>2013-05-20T09:19:44Z</time>
      </trkpt>
      <trkpt lat="47.97474" lon="6.71445">
        <ele>555.3</ele>
        <time>2013-05-20T09:19:45Z</time>
      </trkpt>
      <trkpt lat="47.97455" lon="6.71449">
        <ele>551.93</ele>
        <time>2013-05-20T09:19:49Z</time>
      </trkpt>
      <trkpt lat="47.97445" lon="6.71448">
        <ele>549.05</ele>
        <time>2013-05-20T09:19:51Z</time>
      </trkpt>
      <trkpt lat="47.97435" lon="6.71444">
        <ele>545.69</ele>
        <time>2013-05-20T09:19:54Z</time>
      </trkpt>
      <trkpt lat="47.97421" lon="6.71442">
        <ele>541.36</ele>
        <time>2013-05-20T09:19:59Z</time>
      </trkpt>
      <trkpt lat="47.97412" lon="6.71442">
        <ele>537.99</ele>
        <time>2013-05-20T09:20:09Z</time>
      </trkpt>
      <trkpt lat="47.97408" lon="6.71442">
        <ele>537.03</ele>
        <time>2013-05-20T09:20:20Z</time>
      </trkpt>
      <trkpt lat="47.97401" lon="6.71446">
        <ele>536.07</ele>
        <time>2013-05-20T09:20:30Z</time>
      </trkpt>
      <trkpt lat="47.97398" lon="6.71448">
        <ele>535.11</ele>
        <time>2013-05-20T09:20:36Z</time>
      </trkpt>
      <trkpt lat="47.97388" lon="6.71444">
        <ele>536.07</ele>
        <time>2013-05-20T09:20:42Z</time>
      </trkpt>
      <trkpt lat="47.97361" lon="6.71421">
        <ele>539.92</ele>
        <time>2013-05-20T09:20:57Z</time>
      </trkpt>
      <trkpt lat="47.97343" lon="6.71409">
        <ele>541.36</ele>
        <time>2013-05-20T09:21:06Z</time>
      </trkpt>
      <trkpt lat="47.97321" lon="6.71388">
        <ele>543.28</ele>
        <time>2013-05-20T09:21:18Z</time>
      </trkpt>
      <trkpt lat="47.97304" lon="6.7137">
        <ele>546.17</ele>
        <time>2013-05-20T09:21:27Z</time>
      </trkpt>
      <trkpt lat="47.97276" lon="6.71342">
        <ele>549.05</ele>
        <time>2013-05-20T09:21:41Z</time>
      </trkpt>
      <trkpt lat="47.97247" lon="6.71325">
        <ele>551.93</ele>
        <time>2013-05-20T09:21:55Z</time>
      </trkpt>
      <trkpt lat="47.97219" lon="6.71319">
        <ele>554.82</ele>
        <time>2013-05-20T09:22:10Z</time>
      </trkpt>
      <trkpt lat="47.97202" lon="6.71318">
        <ele>558.18</ele>
        <time>2013-05-20T09:22:20Z</time>
      </trkpt>
      <trkpt lat="47.9718" lon="6.71308">
        <ele>561.07</ele>
        <time>2013-05-20T09:22:35Z</time>
      </trkpt>
      <trkpt lat="47.97164" lon="6.7129">
        <ele>562.99</ele>
        <time>2013-05-20T09:22:49Z</time>
      </trkpt>
      <trkpt lat="47.97161" lon="6.71288">
        <ele>563.47</ele>
        <time>2013-05-20T09:22:51Z</time>
      </trkpt>
      <trkpt lat="47.9716" lon="6.71287">
        <ele>563.95</ele>
        <time>2013-05-20T09:22:52Z</time>
      </trkpt>
      <trkpt lat="47.97159" lon="6.71286">
        <ele>563.95</ele>
        <time>2013-05-20T09:22:53Z</time>
      </trkpt>
      <trkpt lat="47.97148" lon="6.7128">
        <ele>565.39</ele>
        <time>2013-05-20T09:23:00Z</time>
      </trkpt>
      <trkpt lat="47.97147" lon="6.71278">
        <ele>565.39</ele>
        <time>2013-05-20T09:23:01Z</time>
      </trkpt>
      <trkpt lat="47.97146" lon="6.71277">
        <ele>565.39</ele>
        <time>2013-05-20T09:23:02Z</time>
      </trkpt>
      <trkpt lat="47.97145" lon="6.71276">
        <ele>565.87</ele>
        <time>2013-05-20T09:23:03Z</time>
      </trkpt>
      <trkpt lat="47.97144" lon="6.71274">
        <ele>565.87</ele>
        <time>2013-05-20T09:23:04Z</time>
      </trkpt>
      <trkpt lat="47.97143" lon="6.71272">
        <ele>566.35</ele>
        <time>2013-05-20T09:23:05Z</time>
      </trkpt>
      <trkpt lat="47.97142" lon="6.7127">
        <ele>566.35</ele>
        <time>2013-05-20T09:23:06Z</time>
      </trkpt>
      <trkpt lat="47.97125" lon="6.71242">
        <ele>565.87</ele>
        <time>2013-05-20T09:23:18Z</time>
      </trkpt>
      <trkpt lat="47.97108" lon="6.71208">
        <ele>566.83</ele>
        <time>2013-05-20T09:23:30Z</time>
      </trkpt>
      <trkpt lat="47.97097" lon="6.71185">
        <ele>566.83</ele>
        <time>2013-05-20T09:23:39Z</time>
      </trkpt>
      <trkpt lat="47.97095" lon="6.71185">
        <ele>567.32</ele>
        <time>2013-05-20T09:23:40Z</time>
      </trkpt>
      <trkpt lat="47.97094" lon="6.71185">
        <ele>567.8</ele>
        <time>2013-05-20T09:23:41Z</time>
      </trkpt>
      <trkpt lat="47.97087" lon="6.71187">
        <ele>569.24</ele>
        <time>2013-05-20T09:23:46Z</time>
      </trkpt>
      <trkpt lat="47.97085" lon="6.71188">
        <ele>570.68</ele>
        <time>2013-05-20T09:23:48Z</time>
      </trkpt>
      <trkpt lat="47.97077" lon="6.71192">
        <ele>572.12</ele>
        <time>2013-05-20T09:23:54Z</time>
      </trkpt>
      <trkpt lat="47.97065" lon="6.71203">
        <ele>574.53</ele>
        <time>2013-05-20T09:24:03Z</time>
      </trkpt>
      <trkpt lat="47.9706" lon="6.71207">
        <ele>574.53</ele>
        <time>2013-05-20T09:24:04Z</time>
      </trkpt>
      <trkpt lat="47.97057" lon="6.7121">
        <ele>574.04</ele>
        <time>2013-05-20T09:24:05Z</time>
      </trkpt>
      <trkpt lat="47.97055" lon="6.71211">
        <ele>574.04</ele>
        <time>2013-05-20T09:24:06Z</time>
      </trkpt>
      <trkpt lat="47.97052" lon="6.71213">
        <ele>575.01</ele>
        <time>2013-05-20T09:24:07Z</time>
      </trkpt>
      <trkpt lat="47.9705" lon="6.71215">
        <ele>575.49</ele>
        <time>2013-05-20T09:24:08Z</time>
      </trkpt>
      <trkpt lat="47.97038" lon="6.71231">
        <ele>576.45</ele>
        <time>2013-05-20T09:24:14Z</time>
      </trkpt>
      <trkpt lat="47.97037" lon="6.71233">
        <ele>576.93</ele>
        <time>2013-05-20T09:24:15Z</time>
      </trkpt>
      <trkpt lat="47.97035" lon="6.71235">
        <ele>576.93</ele>
        <time>2013-05-20T09:24:16Z</time>
      </trkpt>
      <trkpt lat="47.97034" lon="6.71238">
        <ele>576.93</ele>
        <time>2013-05-20T09:24:17Z</time>
      </trkpt>
      <trkpt lat="47.97033" lon="6.71241">
        <ele>576.93</ele>
        <time>2013-05-20T09:24:18Z</time>
      </trkpt>
      <trkpt lat="47.97032" lon="6.71242">
        <ele>576.93</ele>
        <time>2013-05-20T09:24:19Z</time>
      </trkpt>
      <trkpt lat="47.97021" lon="6.71269">
        <ele>577.89</ele>
        <time>2013-05-20T09:24:31Z</time>
      </trkpt>
      <trkpt lat="47.97013" lon="6.71287">
        <ele>580.29</ele>
        <time>2013-05-20T09:24:43Z</time>
      </trkpt>
      <trkpt lat="47.96998" lon="6.71319">
        <ele>582.7</ele>
        <time>2013-05-20T09:24:57Z</time>
      </trkpt>
      <trkpt lat="47.96996" lon="6.71323">
        <ele>583.66</ele>
        <time>2013-05-20T09:24:59Z</time>
      </trkpt>
      <trkpt lat="47.96972" lon="6.71353">
        <ele>586.54</ele>
        <time>2013-05-20T09:25:11Z</time>
      </trkpt>
      <trkpt lat="47.96971" lon="6.71354">
        <ele>586.54</ele>
        <time>2013-05-20T09:25:12Z</time>
      </trkpt>
      <trkpt lat="47.96963" lon="6.71364">
        <ele>589.43</ele>
        <time>2013-05-20T09:25:23Z</time>
      </trkpt>
      <trkpt lat="47.9696" lon="6.71368">
        <ele>590.87</ele>
        <time>2013-05-20T09:25:26Z</time>
      </trkpt>
      <trkpt lat="47.96947" lon="6.71379">
        <ele>593.27</ele>
        <time>2013-05-20T09:25:37Z</time>
      </trkpt>
      <trkpt lat="47.96946" lon="6.7138">
        <ele>593.75</ele>
        <time>2013-05-20T09:25:38Z</time>
      </trkpt>
      <trkpt lat="47.96938" lon="6.71386">
        <ele>595.19</ele>
        <time>2013-05-20T09:25:43Z</time>
      </trkpt>
      <trkpt lat="47.96937" lon="6.71386">
        <ele>595.19</ele>
        <time>2013-05-20T09:25:44Z</time>
      </trkpt>
      <trkpt lat="47.96929" lon="6.71383">
        <ele>598.56</ele>
        <time>2013-05-20T09:25:54Z</time>
      </trkpt>
      <trkpt lat="47.96929" lon="6.71379">
        <ele>599.52</ele>
        <time>2013-05-20T09:25:57Z</time>
      </trkpt>
      <trkpt lat="47.96929" lon="6.71377">
        <ele>600</ele>
        <time>2013-05-20T09:25:58Z</time>
      </trkpt>
      <trkpt lat="47.96929" lon="6.71375">
        <ele>600.48</ele>
        <time>2013-05-20T09:25:59Z</time>
      </trkpt>
      <trkpt lat="47.9693" lon="6.71373">
        <ele>600.96</ele>
        <time>2013-05-20T09:26:00Z</time>
      </trkpt>
      <trkpt lat="47.9693" lon="6.71371">
        <ele>600.96</ele>
        <time>2013-05-20T09:26:01Z</time>
      </trkpt>
      <trkpt lat="47.96931" lon="6.71368">
        <ele>601.44</ele>
        <time>2013-05-20T09:26:02Z</time>
      </trkpt>
      <trkpt lat="47.96931" lon="6.71365">
        <ele>601.44</ele>
        <time>2013-05-20T09:26:03Z</time>
      </trkpt>
      <trkpt lat="47.96931" lon="6.71363">
        <ele>601.44</ele>
        <time>2013-05-20T09:26:04Z</time>
      </trkpt>
      <trkpt lat="47.9693" lon="6.7136">
        <ele>601.44</ele>
        <time>2013-05-20T09:26:05Z</time>
      </trkpt>
      <trkpt lat="47.96931" lon="6.71346">
        <ele>603.36</ele>
        <time>2013-05-20T09:26:12Z</time>
      </trkpt>
      <trkpt lat="47.96931" lon="6.71344">
        <ele>603.85</ele>
        <time>2013-05-20T09:26:13Z</time>
      </trkpt>
      <trkpt lat="47.9693" lon="6.71342">
        <ele>603.85</ele>
        <time>2013-05-20T09:26:14Z</time>
      </trkpt>
      <trkpt lat="47.9693" lon="6.71339">
        <ele>604.81</ele>
        <time>2013-05-20T09:26:15Z</time>
      </trkpt>
      <trkpt lat="47.9693" lon="6.71337">
        <ele>604.33</ele>
        <time>2013-05-20T09:26:16Z</time>
      </trkpt>
      <trkpt lat="47.96929" lon="6.71335">
        <ele>604.33</ele>
        <time>2013-05-20T09:26:17Z</time>
      </trkpt>
      <trkpt lat="47.96928" lon="6.71333">
        <ele>604.81</ele>
        <time>2013-05-20T09:26:18Z</time>
      </trkpt>
      <trkpt lat="47.96927" lon="6.71331">
        <ele>605.77</ele>
        <time>2013-05-20T09:26:19Z</time>
      </trkpt>
      <trkpt lat="47.96925" lon="6.71329">
        <ele>605.77</ele>
        <time>2013-05-20T09:26:20Z</time>
      </trkpt>
      <trkpt lat="47.96924" lon="6.71328">
        <ele>605.77</ele>
        <time>2013-05-20T09:26:21Z</time>
      </trkpt>
      <trkpt lat="47.96924" lon="6.71327">
        <ele>606.73</ele>
        <time>2013-05-20T09:26:22Z</time>
      </trkpt>
      <trkpt lat="47.96922" lon="6.71326">
        <ele>606.73</ele>
        <time>2013-05-20T09:26:23Z</time>
      </trkpt>
      <trkpt lat="47.96907" lon="6.71335">
        <ele>608.65</ele>
        <time>2013-05-20T09:26:35Z</time>
      </trkpt>
      <trkpt lat="47.96904" lon="6.71337">
        <ele>609.61</ele>
        <time>2013-05-20T09:26:38Z</time>
      </trkpt>
      <trkpt lat="47.9689" lon="6.71353">
        <ele>612.02</ele>
        <time>2013-05-20T09:26:51Z</time>
      </trkpt>
      <trkpt lat="47.9688" lon="6.71365">
        <ele>614.42</ele>
        <time>2013-05-20T09:27:02Z</time>
      </trkpt>
      <trkpt lat="47.96878" lon="6.71367">
        <ele>614.42</ele>
        <time>2013-05-20T09:27:03Z</time>
      </trkpt>
      <trkpt lat="47.96865" lon="6.71389">
        <ele>615.86</ele>
        <time>2013-05-20T09:27:14Z</time>
      </trkpt>
      <trkpt lat="47.96852" lon="6.71405">
        <ele>618.75</ele>
        <time>2013-05-20T09:27:27Z</time>
      </trkpt>
      <trkpt lat="47.9684" lon="6.71416">
        <ele>619.71</ele>
        <time>2013-05-20T09:27:38Z</time>
      </trkpt>
      <trkpt lat="47.96838" lon="6.71417">
        <ele>620.19</ele>
        <time>2013-05-20T09:27:39Z</time>
      </trkpt>
      <trkpt lat="47.96832" lon="6.71421">
        <ele>621.63</ele>
        <time>2013-05-20T09:27:45Z</time>
      </trkpt>
      <trkpt lat="47.96831" lon="6.71422">
        <ele>621.63</ele>
        <time>2013-05-20T09:27:46Z</time>
      </trkpt>
      <trkpt lat="47.96805" lon="6.71439">
        <ele>624.51</ele>
        <time>2013-05-20T09:28:01Z</time>
      </trkpt>
      <trkpt lat="47.96803" lon="6.7144">
        <ele>624.51</ele>
        <time>2013-05-20T09:28:02Z</time>
      </trkpt>
      <trkpt lat="47.96802" lon="6.71441">
        <ele>624.99</ele>
        <time>2013-05-20T09:28:03Z</time>
      </trkpt>
      <trkpt lat="47.9678" lon="6.71451">
        <ele>626.92</ele>
        <time>2013-05-20T09:28:19Z</time>
      </trkpt>
      <trkpt lat="47.96763" lon="6.7146">
        <ele>629.32</ele>
        <time>2013-05-20T09:28:32Z</time>
      </trkpt>
      <trkpt lat="47.96746" lon="6.71468">
        <ele>632.2</ele>
        <time>2013-05-20T09:28:44Z</time>
      </trkpt>
      <trkpt lat="47.9672" lon="6.71472">
        <ele>635.09</ele>
        <time>2013-05-20T09:29:01Z</time>
      </trkpt>
      <trkpt lat="47.96696" lon="6.71465">
        <ele>638.45</ele>
        <time>2013-05-20T09:29:15Z</time>
      </trkpt>
      <trkpt lat="47.96684" lon="6.71448">
        <ele>641.34</ele>
        <time>2013-05-20T09:29:25Z</time>
      </trkpt>
      <trkpt lat="47.96673" lon="6.71425">
        <ele>644.7</ele>
        <time>2013-05-20T09:29:36Z</time>
      </trkpt>
      <trkpt lat="47.96662" lon="6.71404">
        <ele>646.14</ele>
        <time>2013-05-20T09:29:47Z</time>
      </trkpt>
      <trkpt lat="47.96643" lon="6.71379">
        <ele>646.62</ele>
        <time>2013-05-20T09:30:02Z</time>
      </trkpt>
      <trkpt lat="47.96642" lon="6.71379">
        <ele>646.62</ele>
        <time>2013-05-20T09:30:03Z</time>
      </trkpt>
      <trkpt lat="47.9664" lon="6.71377">
        <ele>647.1</ele>
        <time>2013-05-20T09:30:05Z</time>
      </trkpt>
      <trkpt lat="47.96639" lon="6.71375">
        <ele>647.59</ele>
        <time>2013-05-20T09:30:06Z</time>
      </trkpt>
      <trkpt lat="47.96638" lon="6.71374">
        <ele>647.59</ele>
        <time>2013-05-20T09:30:17Z</time>
      </trkpt>
      <trkpt lat="47.96637" lon="6.71377">
        <ele>647.1</ele>
        <time>2013-05-20T09:30:37Z</time>
      </trkpt>
      <trkpt lat="47.96637" lon="6.71381">
        <ele>647.1</ele>
        <time>2013-05-20T09:31:04Z</time>
      </trkpt>
      <trkpt lat="47.96636" lon="6.71385">
        <ele>646.62</ele>
        <time>2013-05-20T09:31:12Z</time>
      </trkpt>
      <trkpt lat="47.96635" lon="6.71386">
        <ele>646.62</ele>
        <time>2013-05-20T09:31:13Z</time>
      </trkpt>
      <trkpt lat="47.96634" lon="6.71388">
        <ele>647.1</ele>
        <time>2013-05-20T09:31:14Z</time>
      </trkpt>
      <trkpt lat="47.96632" lon="6.71388">
        <ele>647.59</ele>
        <time>2013-05-20T09:31:16Z</time>
      </trkpt>
      <trkpt lat="47.96611" lon="6.71408">
        <ele>648.55</ele>
        <time>2013-05-20T09:31:30Z</time>
      </trkpt>
      <trkpt lat="47.96594" lon="6.71435">
        <ele>649.03</ele>
        <time>2013-05-20T09:31:43Z</time>
      </trkpt>
      <trkpt lat="47.96571" lon="6.7146">
        <ele>649.99</ele>
        <time>2013-05-20T09:31:59Z</time>
      </trkpt>
      <trkpt lat="47.96557" lon="6.71472">
        <ele>653.35</ele>
        <time>2013-05-20T09:32:10Z</time>
      </trkpt>
      <trkpt lat="47.96549" lon="6.71479">
        <ele>655.76</ele>
        <time>2013-05-20T09:32:18Z</time>
      </trkpt>
      <trkpt lat="47.96543" lon="6.71486">
        <ele>656.24</ele>
        <time>2013-05-20T09:32:23Z</time>
      </trkpt>
      <trkpt lat="47.96541" lon="6.71488">
        <ele>656.24</ele>
        <time>2013-05-20T09:32:24Z</time>
      </trkpt>
      <trkpt lat="47.96528" lon="6.71499">
        <ele>658.64</ele>
        <time>2013-05-20T09:32:35Z</time>
      </trkpt>
      <trkpt lat="47.96511" lon="6.71514">
        <ele>661.04</ele>
        <time>2013-05-20T09:32:46Z</time>
      </trkpt>
      <trkpt lat="47.96495" lon="6.71537">
        <ele>662.49</ele>
        <time>2013-05-20T09:33:00Z</time>
      </trkpt>
      <trkpt lat="47.96483" lon="6.71564">
        <ele>665.85</ele>
        <time>2013-05-20T09:33:13Z</time>
      </trkpt>
      <trkpt lat="47.9648" lon="6.71568">
        <ele>665.85</ele>
        <time>2013-05-20T09:33:15Z</time>
      </trkpt>
      <trkpt lat="47.96479" lon="6.71569">
        <ele>666.81</ele>
        <time>2013-05-20T09:33:16Z</time>
      </trkpt>
      <trkpt lat="47.96478" lon="6.71571">
        <ele>666.81</ele>
        <time>2013-05-20T09:33:17Z</time>
      </trkpt>
      <trkpt lat="47.96477" lon="6.71573">
        <ele>666.81</ele>
        <time>2013-05-20T09:33:18Z</time>
      </trkpt>
      <trkpt lat="47.96476" lon="6.71574">
        <ele>666.81</ele>
        <time>2013-05-20T09:33:19Z</time>
      </trkpt>
      <trkpt lat="47.96463" lon="6.71588">
        <ele>669.22</ele>
        <time>2013-05-20T09:33:29Z</time>
      </trkpt>
      <trkpt lat="47.96462" lon="6.7159">
        <ele>669.7</ele>
        <time>2013-05-20T09:33:30Z</time>
      </trkpt>
      <trkpt lat="47.96462" lon="6.71592">
        <ele>669.22</ele>
        <time>2013-05-20T09:33:31Z</time>
      </trkpt>
      <trkpt lat="47.96461" lon="6.71594">
        <ele>669.7</ele>
        <time>2013-05-20T09:33:32Z</time>
      </trkpt>
      <trkpt lat="47.9646" lon="6.71596">
        <ele>669.7</ele>
        <time>2013-05-20T09:33:33Z</time>
      </trkpt>
      <trkpt lat="47.96457" lon="6.71603">
        <ele>669.7</ele>
        <time>2013-05-20T09:33:37Z</time>
      </trkpt>
      <trkpt lat="47.96456" lon="6.71605">
        <ele>669.7</ele>
        <time>2013-05-20T09:33:38Z</time>
      </trkpt>
      <trkpt lat="47.96455" lon="6.71607">
        <ele>670.18</ele>
        <time>2013-05-20T09:33:39Z</time>
      </trkpt>
      <trkpt lat="47.96449" lon="6.71621">
        <ele>668.25</ele>
        <time>2013-05-20T09:33:43Z</time>
      </trkpt>
      <trkpt lat="47.96447" lon="6.71627">
        <ele>669.7</ele>
        <time>2013-05-20T09:33:44Z</time>
      </trkpt>
      <trkpt lat="47.96441" lon="6.71642">
        <ele>667.77</ele>
        <time>2013-05-20T09:33:46Z</time>
      </trkpt>
      <trkpt lat="47.96437" lon="6.71647">
        <ele>667.29</ele>
        <time>2013-05-20T09:33:47Z</time>
      </trkpt>
      <trkpt lat="47.96433" lon="6.71651">
        <ele>666.81</ele>
        <time>2013-05-20T09:33:48Z</time>
      </trkpt>
      <trkpt lat="47.9643" lon="6.71654">
        <ele>666.33</ele>
        <time>2013-05-20T09:33:49Z</time>
      </trkpt>
      <trkpt lat="47.96427" lon="6.71658">
        <ele>665.85</ele>
        <time>2013-05-20T09:33:50Z</time>
      </trkpt>
      <trkpt lat="47.96425" lon="6.71662">
        <ele>665.85</ele>
        <time>2013-05-20T09:33:51Z</time>
      </trkpt>
      <trkpt lat="47.96424" lon="6.71665">
        <ele>665.85</ele>
        <time>2013-05-20T09:33:52Z</time>
      </trkpt>
      <trkpt lat="47.96424" lon="6.71669">
        <ele>664.89</ele>
        <time>2013-05-20T09:33:53Z</time>
      </trkpt>
      <trkpt lat="47.96424" lon="6.71673">
        <ele>665.85</ele>
        <time>2013-05-20T09:33:54Z</time>
      </trkpt>
      <trkpt lat="47.96424" lon="6.71678">
        <ele>665.37</ele>
        <time>2013-05-20T09:33:55Z</time>
      </trkpt>
      <trkpt lat="47.96423" lon="6.71682">
        <ele>665.37</ele>
        <time>2013-05-20T09:33:56Z</time>
      </trkpt>
      <trkpt lat="47.96421" lon="6.71686">
        <ele>665.37</ele>
        <time>2013-05-20T09:33:57Z</time>
      </trkpt>
      <trkpt lat="47.9642" lon="6.71688">
        <ele>665.85</ele>
        <time>2013-05-20T09:33:58Z</time>
      </trkpt>
      <trkpt lat="47.96419" lon="6.71691">
        <ele>665.37</ele>
        <time>2013-05-20T09:33:59Z</time>
      </trkpt>
      <trkpt lat="47.96418" lon="6.71694">
        <ele>665.37</ele>
        <time>2013-05-20T09:34:00Z</time>
      </trkpt>
      <trkpt lat="47.96411" lon="6.71705">
        <ele>666.33</ele>
        <time>2013-05-20T09:34:04Z</time>
      </trkpt>
      <trkpt lat="47.96392" lon="6.71766">
        <ele>666.33</ele>
        <time>2013-05-20T09:34:19Z</time>
      </trkpt>
      <trkpt lat="47.96379" lon="6.71799">
        <ele>669.22</ele>
        <time>2013-05-20T09:34:29Z</time>
      </trkpt>
      <trkpt lat="47.96378" lon="6.71816">
        <ele>670.66</ele>
        <time>2013-05-20T09:34:34Z</time>
      </trkpt>
      <trkpt lat="47.96377" lon="6.71818">
        <ele>670.66</ele>
        <time>2013-05-20T09:34:35Z</time>
      </trkpt>
      <trkpt lat="47.96376" lon="6.71823">
        <ele>671.62</ele>
        <time>2013-05-20T09:34:37Z</time>
      </trkpt>
      <trkpt lat="47.96377" lon="6.71826">
        <ele>672.58</ele>
        <time>2013-05-20T09:34:38Z</time>
      </trkpt>
      <trkpt lat="47.96376" lon="6.71829">
        <ele>672.58</ele>
        <time>2013-05-20T09:34:39Z</time>
      </trkpt>
      <trkpt lat="47.96374" lon="6.71869">
        <ele>672.1</ele>
        <time>2013-05-20T09:34:50Z</time>
      </trkpt>
      <trkpt lat="47.96374" lon="6.71884">
        <ele>670.18</ele>
        <time>2013-05-20T09:34:53Z</time>
      </trkpt>
      <trkpt lat="47.9637" lon="6.71891">
        <ele>669.7</ele>
        <time>2013-05-20T09:34:54Z</time>
      </trkpt>
      <trkpt lat="47.96366" lon="6.71898">
        <ele>669.22</ele>
        <time>2013-05-20T09:34:55Z</time>
      </trkpt>
      <trkpt lat="47.96357" lon="6.71907">
        <ele>668.25</ele>
        <time>2013-05-20T09:34:56Z</time>
      </trkpt>
      <trkpt lat="47.9635" lon="6.71913">
        <ele>666.81</ele>
        <time>2013-05-20T09:34:57Z</time>
      </trkpt>
      <trkpt lat="47.96344" lon="6.71918">
        <ele>666.33</ele>
        <time>2013-05-20T09:34:58Z</time>
      </trkpt>
      <trkpt lat="47.96316" lon="6.71936">
        <ele>666.33</ele>
        <time>2013-05-20T09:35:07Z</time>
      </trkpt>
      <trkpt lat="47.96284" lon="6.71945">
        <ele>665.37</ele>
        <time>2013-05-20T09:35:18Z</time>
      </trkpt>
      <trkpt lat="47.96273" lon="6.71953">
        <ele>664.89</ele>
        <time>2013-05-20T09:35:22Z</time>
      </trkpt>
      <trkpt lat="47.96271" lon="6.71956">
        <ele>664.89</ele>
        <time>2013-05-20T09:35:23Z</time>
      </trkpt>
      <trkpt lat="47.96268" lon="6.71958">
        <ele>664.41</ele>
        <time>2013-05-20T09:35:24Z</time>
      </trkpt>
      <trkpt lat="47.96264" lon="6.71961">
        <ele>663.45</ele>
        <time>2013-05-20T09:35:25Z</time>
      </trkpt>
      <trkpt lat="47.9626" lon="6.71964">
        <ele>664.41</ele>
        <time>2013-05-20T09:35:26Z</time>
      </trkpt>
      <trkpt lat="47.96255" lon="6.71967">
        <ele>662.97</ele>
        <time>2013-05-20T09:35:27Z</time>
      </trkpt>
      <trkpt lat="47.96216" lon="6.71968">
        <ele>662.49</ele>
        <time>2013-05-20T09:35:36Z</time>
      </trkpt>
      <trkpt lat="47.96183" lon="6.7198">
        <ele>662.49</ele>
        <time>2013-05-20T09:35:48Z</time>
      </trkpt>
      <trkpt lat="47.96176" lon="6.71981">
        <ele>664.41</ele>
        <time>2013-05-20T09:35:52Z</time>
      </trkpt>
      <trkpt lat="47.96137" lon="6.71968">
        <ele>664.89</ele>
        <time>2013-05-20T09:36:06Z</time>
      </trkpt>
      <trkpt lat="47.961" lon="6.71947">
        <ele>663.45</ele>
        <time>2013-05-20T09:36:18Z</time>
      </trkpt>
      <trkpt lat="47.96062" lon="6.71925">
        <ele>663.45</ele>
        <time>2013-05-20T09:36:31Z</time>
      </trkpt>
      <trkpt lat="47.96033" lon="6.71898">
        <ele>663.45</ele>
        <time>2013-05-20T09:36:43Z</time>
      </trkpt>
      <trkpt lat="47.96008" lon="6.71878">
        <ele>664.41</ele>
        <time>2013-05-20T09:36:57Z</time>
      </trkpt>
      <trkpt lat="47.95998" lon="6.7187">
        <ele>665.85</ele>
        <time>2013-05-20T09:37:04Z</time>
      </trkpt>
      <trkpt lat="47.9599" lon="6.71859">
        <ele>669.22</ele>
        <time>2013-05-20T09:37:11Z</time>
      </trkpt>
      <trkpt lat="47.95989" lon="6.71858">
        <ele>669.7</ele>
        <time>2013-05-20T09:37:12Z</time>
      </trkpt>
      <trkpt lat="47.95973" lon="6.71846">
        <ele>672.58</ele>
        <time>2013-05-20T09:37:24Z</time>
      </trkpt>
      <trkpt lat="47.95971" lon="6.71844">
        <ele>673.06</ele>
        <time>2013-05-20T09:37:26Z</time>
      </trkpt>
      <trkpt lat="47.95951" lon="6.71832">
        <ele>676.42</ele>
        <time>2013-05-20T09:37:40Z</time>
      </trkpt>
      <trkpt lat="47.95943" lon="6.71818">
        <ele>678.83</ele>
        <time>2013-05-20T09:37:49Z</time>
      </trkpt>
      <trkpt lat="47.95938" lon="6.71797">
        <ele>682.19</ele>
        <time>2013-05-20T09:38:00Z</time>
      </trkpt>
      <trkpt lat="47.95936" lon="6.71769">
        <ele>684.6</ele>
        <time>2013-05-20T09:38:15Z</time>
      </trkpt>
      <trkpt lat="47.95935" lon="6.71765">
        <ele>685.56</ele>
        <time>2013-05-20T09:38:17Z</time>
      </trkpt>
      <trkpt lat="47.95934" lon="6.71762">
        <ele>686.52</ele>
        <time>2013-05-20T09:38:19Z</time>
      </trkpt>
      <trkpt lat="47.95934" lon="6.7176">
        <ele>687</ele>
        <time>2013-05-20T09:38:20Z</time>
      </trkpt>
      <trkpt lat="47.95932" lon="6.71751">
        <ele>687.96</ele>
        <time>2013-05-20T09:38:25Z</time>
      </trkpt>
      <trkpt lat="47.95929" lon="6.71727">
        <ele>690.84</ele>
        <time>2013-05-20T09:38:38Z</time>
      </trkpt>
      <trkpt lat="47.95928" lon="6.71699">
        <ele>693.25</ele>
        <time>2013-05-20T09:38:52Z</time>
      </trkpt>
      <trkpt lat="47.95927" lon="6.71689">
        <ele>692.77</ele>
        <time>2013-05-20T09:38:56Z</time>
      </trkpt>
      <trkpt lat="47.95927" lon="6.71687">
        <ele>692.29</ele>
        <time>2013-05-20T09:38:57Z</time>
      </trkpt>
      <trkpt lat="47.95917" lon="6.71658">
        <ele>693.25</ele>
        <time>2013-05-20T09:39:09Z</time>
      </trkpt>
      <trkpt lat="47.95916" lon="6.71656">
        <ele>693.25</ele>
        <time>2013-05-20T09:39:10Z</time>
      </trkpt>
      <trkpt lat="47.95915" lon="6.71652">
        <ele>693.25</ele>
        <time>2013-05-20T09:39:11Z</time>
      </trkpt>
      <trkpt lat="47.95914" lon="6.71649">
        <ele>693.25</ele>
        <time>2013-05-20T09:39:12Z</time>
      </trkpt>
      <trkpt lat="47.95912" lon="6.71646">
        <ele>694.21</ele>
        <time>2013-05-20T09:39:13Z</time>
      </trkpt>
      <trkpt lat="47.95911" lon="6.71644">
        <ele>693.73</ele>
        <time>2013-05-20T09:39:14Z</time>
      </trkpt>
      <trkpt lat="47.95908" lon="6.71636">
        <ele>694.69</ele>
        <time>2013-05-20T09:39:17Z</time>
      </trkpt>
      <trkpt lat="47.95906" lon="6.71629">
        <ele>695.65</ele>
        <time>2013-05-20T09:39:20Z</time>
      </trkpt>
      <trkpt lat="47.95912" lon="6.71621">
        <ele>697.09</ele>
        <time>2013-05-20T09:39:28Z</time>
      </trkpt>
      <trkpt lat="47.95927" lon="6.71625">
        <ele>699.02</ele>
        <time>2013-05-20T09:39:40Z</time>
      </trkpt>
      <trkpt lat="47.95936" lon="6.71629">
        <ele>702.38</ele>
        <time>2013-05-20T09:39:50Z</time>
      </trkpt>
      <trkpt lat="47.95943" lon="6.71638">
        <ele>703.82</ele>
        <time>2013-05-20T09:39:56Z</time>
      </trkpt>
      <trkpt lat="47.95956" lon="6.71661">
        <ele>706.23</ele>
        <time>2013-05-20T09:40:12Z</time>
      </trkpt>
      <trkpt lat="47.9597" lon="6.71678">
        <ele>709.11</ele>
        <time>2013-05-20T09:40:27Z</time>
      </trkpt>
      <trkpt lat="47.95978" lon="6.7168">
        <ele>711.03</ele>
        <time>2013-05-20T09:40:35Z</time>
      </trkpt>
      <trkpt lat="47.95985" lon="6.71681">
        <ele>711.99</ele>
        <time>2013-05-20T09:40:43Z</time>
      </trkpt>
      <trkpt lat="47.96" lon="6.71689">
        <ele>714.88</ele>
        <time>2013-05-20T09:40:58Z</time>
      </trkpt>
      <trkpt lat="47.96013" lon="6.71695">
        <ele>717.76</ele>
        <time>2013-05-20T09:41:11Z</time>
      </trkpt>
      <trkpt lat="47.96026" lon="6.71704">
        <ele>719.68</ele>
        <time>2013-05-20T09:41:23Z</time>
      </trkpt>
      <trkpt lat="47.96039" lon="6.71711">
        <ele>722.09</ele>
        <time>2013-05-20T09:41:36Z</time>
      </trkpt>
      <trkpt lat="47.96054" lon="6.71716">
        <ele>724.01</ele>
        <time>2013-05-20T09:41:50Z</time>
      </trkpt>
      <trkpt lat="47.96063" lon="6.71722">
        <ele>724.97</ele>
        <time>2013-05-20T09:42:04Z</time>
      </trkpt>
      <trkpt lat="47.96066" lon="6.71725">
        <ele>725.45</ele>
        <time>2013-05-20T09:42:18Z</time>
      </trkpt>
      <trkpt lat="47.96068" lon="6.71727">
        <ele>725.93</ele>
        <time>2013-05-20T09:42:40Z</time>
      </trkpt>
      <trkpt lat="47.96069" lon="6.7173">
        <ele>725.45</ele>
        <time>2013-05-20T09:43:00Z</time>
      </trkpt>
      <trkpt lat="47.96081" lon="6.71734">
        <ele>727.37</ele>
        <time>2013-05-20T09:43:16Z</time>
      </trkpt>
      <trkpt lat="47.9609" lon="6.71736">
        <ele>729.3</ele>
        <time>2013-05-20T09:43:30Z</time>
      </trkpt>
      <trkpt lat="47.96094" lon="6.71739">
        <ele>730.26</ele>
        <time>2013-05-20T09:43:54Z</time>
      </trkpt>
      <trkpt lat="47.96101" lon="6.71739">
        <ele>730.26</ele>
        <time>2013-05-20T09:44:10Z</time>
      </trkpt>
      <trkpt lat="47.96106" lon="6.71744">
        <ele>731.22</ele>
        <time>2013-05-20T09:44:31Z</time>
      </trkpt>
      <trkpt lat="47.96119" lon="6.71751">
        <ele>733.14</ele>
        <time>2013-05-20T09:44:43Z</time>
      </trkpt>
      <trkpt lat="47.96127" lon="6.71753">
        <ele>734.58</ele>
        <time>2013-05-20T09:44:49Z</time>
      </trkpt>
      <trkpt lat="47.96132" lon="6.71755">
        <ele>736.03</ele>
        <time>2013-05-20T09:44:53Z</time>
      </trkpt>
      <trkpt lat="47.96154" lon="6.71754">
        <ele>738.91</ele>
        <time>2013-05-20T09:45:08Z</time>
      </trkpt>
      <trkpt lat="47.96166" lon="6.71752">
        <ele>740.83</ele>
        <time>2013-05-20T09:45:16Z</time>
      </trkpt>
      <trkpt lat="47.96187" lon="6.71736">
        <ele>742.76</ele>
        <time>2013-05-20T09:45:30Z</time>
      </trkpt>
      <trkpt lat="47.96192" lon="6.71734">
        <ele>743.24</ele>
        <time>2013-05-20T09:45:34Z</time>
      </trkpt>
      <trkpt lat="47.96209" lon="6.71732">
        <ele>746.6</ele>
        <time>2013-05-20T09:45:47Z</time>
      </trkpt>
      <trkpt lat="47.96222" lon="6.71733">
        <ele>749.97</ele>
        <time>2013-05-20T09:45:57Z</time>
      </trkpt>
      <trkpt lat="47.96227" lon="6.71728">
        <ele>749.97</ele>
        <time>2013-05-20T09:46:09Z</time>
      </trkpt>
      <trkpt lat="47.96235" lon="6.71727">
        <ele>752.85</ele>
        <time>2013-05-20T09:46:21Z</time>
      </trkpt>
      <trkpt lat="47.96236" lon="6.71727">
        <ele>753.33</ele>
        <time>2013-05-20T09:46:22Z</time>
      </trkpt>
      <trkpt lat="47.96241" lon="6.71705">
        <ele>753.81</ele>
        <time>2013-05-20T09:46:37Z</time>
      </trkpt>
      <trkpt lat="47.96241" lon="6.71695">
        <ele>755.73</ele>
        <time>2013-05-20T09:46:51Z</time>
      </trkpt>
      <trkpt lat="47.96237" lon="6.71688">
        <ele>755.25</ele>
        <time>2013-05-20T09:47:06Z</time>
      </trkpt>
      <trkpt lat="47.96238" lon="6.71686">
        <ele>756.69</ele>
        <time>2013-05-20T09:47:31Z</time>
      </trkpt>
      <trkpt lat="47.96244" lon="6.71684">
        <ele>756.21</ele>
        <time>2013-05-20T09:48:12Z</time>
      </trkpt>
      <trkpt lat="47.96241" lon="6.71683">
        <ele>756.21</ele>
        <time>2013-05-20T09:48:53Z</time>
      </trkpt>
      <trkpt lat="47.96241" lon="6.71682">
        <ele>756.69</ele>
        <time>2013-05-20T09:49:26Z</time>
      </trkpt>
      <trkpt lat="47.96241" lon="6.71681">
        <ele>756.69</ele>
        <time>2013-05-20T09:50:02Z</time>
      </trkpt>
      <trkpt lat="47.96243" lon="6.71686">
        <ele>756.21</ele>
        <time>2013-05-20T09:50:41Z</time>
      </trkpt>
      <trkpt lat="47.9624" lon="6.71687">
        <ele>757.66</ele>
        <time>2013-05-20T09:51:18Z</time>
      </trkpt>
      <trkpt lat="47.96239" lon="6.71687">
        <ele>757.66</ele>
        <time>2013-05-20T09:51:57Z</time>
      </trkpt>
      <trkpt lat="47.96239" lon="6.71688">
        <ele>757.66</ele>
        <time>2013-05-20T09:52:20Z</time>
      </trkpt>
      <trkpt lat="47.96238" lon="6.71674">
        <ele>757.66</ele>
        <time>2013-05-20T09:52:33Z</time>
      </trkpt>
      <trkpt lat="47.96234" lon="6.71659">
        <ele>759.58</ele>
        <time>2013-05-20T09:52:46Z</time>
      </trkpt>
      <trkpt lat="47.9623" lon="6.71641">
        <ele>762.94</ele>
        <time>2013-05-20T09:52:57Z</time>
      </trkpt>
      <trkpt lat="47.96228" lon="6.71639">
        <ele>763.9</ele>
        <time>2013-05-20T09:52:59Z</time>
      </trkpt>
      <trkpt lat="47.96226" lon="6.71634">
        <ele>764.87</ele>
        <time>2013-05-20T09:53:03Z</time>
      </trkpt>
      <trkpt lat="47.96212" lon="6.71628">
        <ele>767.75</ele>
        <time>2013-05-20T09:53:17Z</time>
      </trkpt>
      <trkpt lat="47.96205" lon="6.71635">
        <ele>768.71</ele>
        <time>2013-05-20T09:53:29Z</time>
      </trkpt>
      <trkpt lat="47.96192" lon="6.71648">
        <ele>770.63</ele>
        <time>2013-05-20T09:53:44Z</time>
      </trkpt>
      <trkpt lat="47.9619" lon="6.71649">
        <ele>770.63</ele>
        <time>2013-05-20T09:53:46Z</time>
      </trkpt>
      <trkpt lat="47.96178" lon="6.71656">
        <ele>772.08</ele>
        <time>2013-05-20T09:54:01Z</time>
      </trkpt>
      <trkpt lat="47.96165" lon="6.71658">
        <ele>773.04</ele>
        <time>2013-05-20T09:54:16Z</time>
      </trkpt>
      <trkpt lat="47.96153" lon="6.71646">
        <ele>775.44</ele>
        <time>2013-05-20T09:54:31Z</time>
      </trkpt>
      <trkpt lat="47.96146" lon="6.71641">
        <ele>777.84</ele>
        <time>2013-05-20T09:54:39Z</time>
      </trkpt>
      <trkpt lat="47.96132" lon="6.71624">
        <ele>780.25</ele>
        <time>2013-05-20T09:54:59Z</time>
      </trkpt>
      <trkpt lat="47.96127" lon="6.71613">
        <ele>781.21</ele>
        <time>2013-05-20T09:55:15Z</time>
      </trkpt>
      <trkpt lat="47.96122" lon="6.71601">
        <ele>784.57</ele>
        <time>2013-05-20T09:55:26Z</time>
      </trkpt>
      <trkpt lat="47.96117" lon="6.71592">
        <ele>786.02</ele>
        <time>2013-05-20T09:55:40Z</time>
      </trkpt>
      <trkpt lat="47.96112" lon="6.71576">
        <ele>788.42</ele>
        <time>2013-05-20T09:55:55Z</time>
      </trkpt>
      <trkpt lat="47.96108" lon="6.71563">
        <ele>789.86</ele>
        <time>2013-05-20T09:56:09Z</time>
      </trkpt>
      <trkpt lat="47.96105" lon="6.71556">
        <ele>790.82</ele>
        <time>2013-05-20T09:56:17Z</time>
      </trkpt>
      <trkpt lat="47.96098" lon="6.71542">
        <ele>792.74</ele>
        <time>2013-05-20T09:56:32Z</time>
      </trkpt>
      <trkpt lat="47.9609" lon="6.71522">
        <ele>796.11</ele>
        <time>2013-05-20T09:56:48Z</time>
      </trkpt>
      <trkpt lat="47.96088" lon="6.71515">
        <ele>796.59</ele>
        <time>2013-05-20T09:56:53Z</time>
      </trkpt>
      <trkpt lat="47.96079" lon="6.715">
        <ele>796.59</ele>
        <time>2013-05-20T09:57:08Z</time>
      </trkpt>
      <trkpt lat="47.96073" lon="6.71485">
        <ele>799.95</ele>
        <time>2013-05-20T09:57:21Z</time>
      </trkpt>
      <trkpt lat="47.96069" lon="6.71476">
        <ele>802.84</ele>
        <time>2013-05-20T09:57:31Z</time>
      </trkpt>
      <trkpt lat="47.96062" lon="6.7146">
        <ele>803.8</ele>
        <time>2013-05-20T09:57:45Z</time>
      </trkpt>
      <trkpt lat="47.96057" lon="6.71445">
        <ele>806.2</ele>
        <time>2013-05-20T09:57:59Z</time>
      </trkpt>
      <trkpt lat="47.96054" lon="6.71442">
        <ele>807.16</ele>
        <time>2013-05-20T09:58:03Z</time>
      </trkpt>
      <trkpt lat="47.96047" lon="6.71429">
        <ele>810.53</ele>
        <time>2013-05-20T09:58:17Z</time>
      </trkpt>
      <trkpt lat="47.96048" lon="6.71422">
        <ele>810.53</ele>
        <time>2013-05-20T09:58:31Z</time>
      </trkpt>
      <trkpt lat="47.96054" lon="6.7142">
        <ele>810.53</ele>
        <time>2013-05-20T09:59:06Z</time>
      </trkpt>
      <trkpt lat="47.96056" lon="6.71424">
        <ele>813.89</ele>
        <time>2013-05-20T09:59:15Z</time>
      </trkpt>
      <trkpt lat="47.9606" lon="6.71424">
        <ele>814.37</ele>
        <time>2013-05-20T09:59:21Z</time>
      </trkpt>
      <trkpt lat="47.96067" lon="6.71429">
        <ele>815.34</ele>
        <time>2013-05-20T09:59:35Z</time>
      </trkpt>
      <trkpt lat="47.96072" lon="6.71433">
        <ele>816.78</ele>
        <time>2013-05-20T09:59:41Z</time>
      </trkpt>
      <trkpt lat="47.96089" lon="6.71442">
        <ele>817.74</ele>
        <time>2013-05-20T09:59:54Z</time>
      </trkpt>
      <trkpt lat="47.96105" lon="6.71447">
        <ele>820.62</ele>
        <time>2013-05-20T10:00:03Z</time>
      </trkpt>
      <trkpt lat="47.96112" lon="6.71446">
        <ele>821.1</ele>
        <time>2013-05-20T10:00:07Z</time>
      </trkpt>
      <trkpt lat="47.96129" lon="6.71436">
        <ele>824.95</ele>
        <time>2013-05-20T10:00:21Z</time>
      </trkpt>
      <trkpt lat="47.96143" lon="6.71416">
        <ele>826.87</ele>
        <time>2013-05-20T10:00:34Z</time>
      </trkpt>
      <trkpt lat="47.96149" lon="6.71402">
        <ele>828.31</ele>
        <time>2013-05-20T10:00:46Z</time>
      </trkpt>
      <trkpt lat="47.96155" lon="6.71374">
        <ele>830.72</ele>
        <time>2013-05-20T10:00:58Z</time>
      </trkpt>
      <trkpt lat="47.96157" lon="6.71371">
        <ele>830.24</ele>
        <time>2013-05-20T10:01:00Z</time>
      </trkpt>
      <trkpt lat="47.96162" lon="6.71352">
        <ele>834.08</ele>
        <time>2013-05-20T10:01:10Z</time>
      </trkpt>
      <trkpt lat="47.96166" lon="6.71347">
        <ele>835.04</ele>
        <time>2013-05-20T10:01:19Z</time>
      </trkpt>
      <trkpt lat="47.96172" lon="6.71339">
        <ele>835.04</ele>
        <time>2013-05-20T10:01:36Z</time>
      </trkpt>
      <trkpt lat="47.96172" lon="6.71338">
        <ele>835.04</ele>
        <time>2013-05-20T10:02:03Z</time>
      </trkpt>
      <trkpt lat="47.96173" lon="6.71335">
        <ele>834.56</ele>
        <time>2013-05-20T10:02:37Z</time>
      </trkpt>
      <trkpt lat="47.96174" lon="6.71337">
        <ele>835.04</ele>
        <time>2013-05-20T10:03:13Z</time>
      </trkpt>
      <trkpt lat="47.96176" lon="6.71334">
        <ele>834.56</ele>
        <time>2013-05-20T10:03:54Z</time>
      </trkpt>
      <trkpt lat="47.96174" lon="6.71335">
        <ele>834.56</ele>
        <time>2013-05-20T10:04:34Z</time>
      </trkpt>
      <trkpt lat="47.96172" lon="6.71336">
        <ele>835.04</ele>
        <time>2013-05-20T10:04:47Z</time>
      </trkpt>
      <trkpt lat="47.96172" lon="6.71335">
        <ele>836</ele>
        <time>2013-05-20T10:05:23Z</time>
      </trkpt>
      <trkpt lat="47.96171" lon="6.71338">
        <ele>835.52</ele>
        <time>2013-05-20T10:05:50Z</time>
      </trkpt>
      <trkpt lat="47.96173" lon="6.71337">
        <ele>835.04</ele>
        <time>2013-05-20T10:06:13Z</time>
      </trkpt>
      <trkpt lat="47.96172" lon="6.71336">
        <ele>835.52</ele>
        <time>2013-05-20T10:06:32Z</time>
      </trkpt>
      <trkpt lat="47.96177" lon="6.71332">
        <ele>835.52</ele>
        <time>2013-05-20T10:06:36Z</time>
      </trkpt>
      <trkpt lat="47.96179" lon="6.71329">
        <ele>834.56</ele>
        <time>2013-05-20T10:06:37Z</time>
      </trkpt>
      <trkpt lat="47.96185" lon="6.71308">
        <ele>833.6</ele>
        <time>2013-05-20T10:06:42Z</time>
      </trkpt>
      <trkpt lat="47.96184" lon="6.71304">
        <ele>833.12</ele>
        <time>2013-05-20T10:06:43Z</time>
      </trkpt>
      <trkpt lat="47.96165" lon="6.71264">
        <ele>829.76</ele>
        <time>2013-05-20T10:06:51Z</time>
      </trkpt>
      <trkpt lat="47.96157" lon="6.71243">
        <ele>827.35</ele>
        <time>2013-05-20T10:06:54Z</time>
      </trkpt>
      <trkpt lat="47.96154" lon="6.71235">
        <ele>827.35</ele>
        <time>2013-05-20T10:06:55Z</time>
      </trkpt>
      <trkpt lat="47.9615" lon="6.71228">
        <ele>826.39</ele>
        <time>2013-05-20T10:06:56Z</time>
      </trkpt>
      <trkpt lat="47.96147" lon="6.7122">
        <ele>825.43</ele>
        <time>2013-05-20T10:06:57Z</time>
      </trkpt>
      <trkpt lat="47.96145" lon="6.71211">
        <ele>825.43</ele>
        <time>2013-05-20T10:06:58Z</time>
      </trkpt>
      <trkpt lat="47.96144" lon="6.71201">
        <ele>825.43</ele>
        <time>2013-05-20T10:06:59Z</time>
      </trkpt>
      <trkpt lat="47.96145" lon="6.7119">
        <ele>826.87</ele>
        <time>2013-05-20T10:07:00Z</time>
      </trkpt>
      <trkpt lat="47.96146" lon="6.7118">
        <ele>827.83</ele>
        <time>2013-05-20T10:07:01Z</time>
      </trkpt>
      <trkpt lat="47.96147" lon="6.71171">
        <ele>826.39</ele>
        <time>2013-05-20T10:07:02Z</time>
      </trkpt>
      <trkpt lat="47.96145" lon="6.71162">
        <ele>823.99</ele>
        <time>2013-05-20T10:07:03Z</time>
      </trkpt>
      <trkpt lat="47.96143" lon="6.71151">
        <ele>823.99</ele>
        <time>2013-05-20T10:07:04Z</time>
      </trkpt>
      <trkpt lat="47.9614" lon="6.71141">
        <ele>822.55</ele>
        <time>2013-05-20T10:07:05Z</time>
      </trkpt>
      <trkpt lat="47.9614" lon="6.7113">
        <ele>821.58</ele>
        <time>2013-05-20T10:07:06Z</time>
      </trkpt>
      <trkpt lat="47.96141" lon="6.71119">
        <ele>820.62</ele>
        <time>2013-05-20T10:07:07Z</time>
      </trkpt>
      <trkpt lat="47.96143" lon="6.71108">
        <ele>819.66</ele>
        <time>2013-05-20T10:07:08Z</time>
      </trkpt>
      <trkpt lat="47.96147" lon="6.71096">
        <ele>817.74</ele>
        <time>2013-05-20T10:07:09Z</time>
      </trkpt>
      <trkpt lat="47.96151" lon="6.71085">
        <ele>817.26</ele>
        <time>2013-05-20T10:07:10Z</time>
      </trkpt>
      <trkpt lat="47.96154" lon="6.71074">
        <ele>816.3</ele>
        <time>2013-05-20T10:07:11Z</time>
      </trkpt>
      <trkpt lat="47.96158" lon="6.71064">
        <ele>814.85</ele>
        <time>2013-05-20T10:07:12Z</time>
      </trkpt>
      <trkpt lat="47.96166" lon="6.71038">
        <ele>812.45</ele>
        <time>2013-05-20T10:07:15Z</time>
      </trkpt>
      <trkpt lat="47.96171" lon="6.71014">
        <ele>809.09</ele>
        <time>2013-05-20T10:07:18Z</time>
      </trkpt>
      <trkpt lat="47.96175" lon="6.70985">
        <ele>805.24</ele>
        <time>2013-05-20T10:07:21Z</time>
      </trkpt>
      <trkpt lat="47.96174" lon="6.70973">
        <ele>804.28</ele>
        <time>2013-05-20T10:07:22Z</time>
      </trkpt>
      <trkpt lat="47.96172" lon="6.70951">
        <ele>803.8</ele>
        <time>2013-05-20T10:07:24Z</time>
      </trkpt>
      <trkpt lat="47.96163" lon="6.70906">
        <ele>801.88</ele>
        <time>2013-05-20T10:07:28Z</time>
      </trkpt>
      <trkpt lat="47.96149" lon="6.70856">
        <ele>801.88</ele>
        <time>2013-05-20T10:07:36Z</time>
      </trkpt>
      <trkpt lat="47.96143" lon="6.70826">
        <ele>803.8</ele>
        <time>2013-05-20T10:07:46Z</time>
      </trkpt>
      <trkpt lat="47.96142" lon="6.70824">
        <ele>804.28</ele>
        <time>2013-05-20T10:07:47Z</time>
      </trkpt>
      <trkpt lat="47.96134" lon="6.70807">
        <ele>806.68</ele>
        <time>2013-05-20T10:07:55Z</time>
      </trkpt>
      <trkpt lat="47.96134" lon="6.70802">
        <ele>807.16</ele>
        <time>2013-05-20T10:07:57Z</time>
      </trkpt>
      <trkpt lat="47.96134" lon="6.70799">
        <ele>807.64</ele>
        <time>2013-05-20T10:07:58Z</time>
      </trkpt>
      <trkpt lat="47.96135" lon="6.70796">
        <ele>807.64</ele>
        <time>2013-05-20T10:07:59Z</time>
      </trkpt>
      <trkpt lat="47.96136" lon="6.70787">
        <ele>809.09</ele>
        <time>2013-05-20T10:08:02Z</time>
      </trkpt>
      <trkpt lat="47.96136" lon="6.70784">
        <ele>810.05</ele>
        <time>2013-05-20T10:08:03Z</time>
      </trkpt>
      <trkpt lat="47.96136" lon="6.70781">
        <ele>809.09</ele>
        <time>2013-05-20T10:08:04Z</time>
      </trkpt>
      <trkpt lat="47.96136" lon="6.70778">
        <ele>809.57</ele>
        <time>2013-05-20T10:08:05Z</time>
      </trkpt>
      <trkpt lat="47.96136" lon="6.70775">
        <ele>809.09</ele>
        <time>2013-05-20T10:08:06Z</time>
      </trkpt>
      <trkpt lat="47.96136" lon="6.70773">
        <ele>810.05</ele>
        <time>2013-05-20T10:08:07Z</time>
      </trkpt>
      <trkpt lat="47.96135" lon="6.70762">
        <ele>810.53</ele>
        <time>2013-05-20T10:08:11Z</time>
      </trkpt>
      <trkpt lat="47.96134" lon="6.70759">
        <ele>810.53</ele>
        <time>2013-05-20T10:08:12Z</time>
      </trkpt>
      <trkpt lat="47.96133" lon="6.70757">
        <ele>811.01</ele>
        <time>2013-05-20T10:08:13Z</time>
      </trkpt>
      <trkpt lat="47.96133" lon="6.70754">
        <ele>811.49</ele>
        <time>2013-05-20T10:08:14Z</time>
      </trkpt>
      <trkpt lat="47.96132" lon="6.70751">
        <ele>811.49</ele>
        <time>2013-05-20T10:08:15Z</time>
      </trkpt>
      <trkpt lat="47.96132" lon="6.70748">
        <ele>811.01</ele>
        <time>2013-05-20T10:08:16Z</time>
      </trkpt>
      <trkpt lat="47.96133" lon="6.70745">
        <ele>811.49</ele>
        <time>2013-05-20T10:08:17Z</time>
      </trkpt>
      <trkpt lat="47.96133" lon="6.70743">
        <ele>811.97</ele>
        <time>2013-05-20T10:08:18Z</time>
      </trkpt>
      <trkpt lat="47.96133" lon="6.7074">
        <ele>811.97</ele>
        <time>2013-05-20T10:08:19Z</time>
      </trkpt>
      <trkpt lat="47.96133" lon="6.70738">
        <ele>811.97</ele>
        <time>2013-05-20T10:08:20Z</time>
      </trkpt>
      <trkpt lat="47.96133" lon="6.70735">
        <ele>811.97</ele>
        <time>2013-05-20T10:08:21Z</time>
      </trkpt>
      <trkpt lat="47.96133" lon="6.70732">
        <ele>811.97</ele>
        <time>2013-05-20T10:08:22Z</time>
      </trkpt>
      <trkpt lat="47.96134" lon="6.70729">
        <ele>812.45</ele>
        <time>2013-05-20T10:08:23Z</time>
      </trkpt>
      <trkpt lat="47.96133" lon="6.70699">
        <ele>814.37</ele>
        <time>2013-05-20T10:08:36Z</time>
      </trkpt>
      <trkpt lat="47.96133" lon="6.70697">
        <ele>814.85</ele>
        <time>2013-05-20T10:08:37Z</time>
      </trkpt>
      <trkpt lat="47.96133" lon="6.70694">
        <ele>814.85</ele>
        <time>2013-05-20T10:08:38Z</time>
      </trkpt>
      <trkpt lat="47.96134" lon="6.70691">
        <ele>815.34</ele>
        <time>2013-05-20T10:08:39Z</time>
      </trkpt>
      <trkpt lat="47.96135" lon="6.70689">
        <ele>814.85</ele>
        <time>2013-05-20T10:08:40Z</time>
      </trkpt>
      <trkpt lat="47.96136" lon="6.70686">
        <ele>815.34</ele>
        <time>2013-05-20T10:08:41Z</time>
      </trkpt>
      <trkpt lat="47.96136" lon="6.70683">
        <ele>815.82</ele>
        <time>2013-05-20T10:08:42Z</time>
      </trkpt>
      <trkpt lat="47.96136" lon="6.70672">
        <ele>816.3</ele>
        <time>2013-05-20T10:08:47Z</time>
      </trkpt>
      <trkpt lat="47.96135" lon="6.70669">
        <ele>816.3</ele>
        <time>2013-05-20T10:08:48Z</time>
      </trkpt>
      <trkpt lat="47.96134" lon="6.70667">
        <ele>816.3</ele>
        <time>2013-05-20T10:08:49Z</time>
      </trkpt>
      <trkpt lat="47.96141" lon="6.70626">
        <ele>815.34</ele>
        <time>2013-05-20T10:09:01Z</time>
      </trkpt>
      <trkpt lat="47.96155" lon="6.70609">
        <ele>814.37</ele>
        <time>2013-05-20T10:09:05Z</time>
      </trkpt>
      <trkpt lat="47.96165" lon="6.70612">
        <ele>814.37</ele>
        <time>2013-05-20T10:09:07Z</time>
      </trkpt>
      <trkpt lat="47.96184" lon="6.70633">
        <ele>812.93</ele>
        <time>2013-05-20T10:09:12Z</time>
      </trkpt>
      <trkpt lat="47.96188" lon="6.70634">
        <ele>812.45</ele>
        <time>2013-05-20T10:09:13Z</time>
      </trkpt>
      <trkpt lat="47.96191" lon="6.70634">
        <ele>811.97</ele>
        <time>2013-05-20T10:09:14Z</time>
      </trkpt>
      <trkpt lat="47.96196" lon="6.7063">
        <ele>811.97</ele>
        <time>2013-05-20T10:09:15Z</time>
      </trkpt>
      <trkpt lat="47.962" lon="6.70626">
        <ele>811.97</ele>
        <time>2013-05-20T10:09:16Z</time>
      </trkpt>
      <trkpt lat="47.96204" lon="6.70621">
        <ele>811.01</ele>
        <time>2013-05-20T10:09:17Z</time>
      </trkpt>
      <trkpt lat="47.96209" lon="6.70615">
        <ele>811.01</ele>
        <time>2013-05-20T10:09:18Z</time>
      </trkpt>
      <trkpt lat="47.96213" lon="6.7061">
        <ele>811.01</ele>
        <time>2013-05-20T10:09:19Z</time>
      </trkpt>
      <trkpt lat="47.96226" lon="6.70593">
        <ele>810.53</ele>
        <time>2013-05-20T10:09:22Z</time>
      </trkpt>
      <trkpt lat="47.96258" lon="6.70562">
        <ele>809.09</ele>
        <time>2013-05-20T10:09:31Z</time>
      </trkpt>
      <trkpt lat="47.96262" lon="6.70563">
        <ele>809.09</ele>
        <time>2013-05-20T10:09:32Z</time>
      </trkpt>
      <trkpt lat="47.96267" lon="6.70563">
        <ele>809.09</ele>
        <time>2013-05-20T10:09:33Z</time>
      </trkpt>
      <trkpt lat="47.96272" lon="6.70562">
        <ele>808.13</ele>
        <time>2013-05-20T10:09:34Z</time>
      </trkpt>
      <trkpt lat="47.96278" lon="6.7056">
        <ele>808.61</ele>
        <time>2013-05-20T10:09:35Z</time>
      </trkpt>
      <trkpt lat="47.96285" lon="6.70557">
        <ele>807.16</ele>
        <time>2013-05-20T10:09:36Z</time>
      </trkpt>
      <trkpt lat="47.96293" lon="6.70556">
        <ele>807.64</ele>
        <time>2013-05-20T10:09:37Z</time>
      </trkpt>
      <trkpt lat="47.963" lon="6.70554">
        <ele>807.16</ele>
        <time>2013-05-20T10:09:38Z</time>
      </trkpt>
      <trkpt lat="47.96306" lon="6.70552">
        <ele>806.2</ele>
        <time>2013-05-20T10:09:39Z</time>
      </trkpt>
      <trkpt lat="47.96313" lon="6.7055">
        <ele>805.72</ele>
        <time>2013-05-20T10:09:40Z</time>
      </trkpt>
      <trkpt lat="47.96351" lon="6.70546">
        <ele>803.32</ele>
        <time>2013-05-20T10:09:45Z</time>
      </trkpt>
      <trkpt lat="47.96359" lon="6.70547">
        <ele>802.84</ele>
        <time>2013-05-20T10:09:46Z</time>
      </trkpt>
      <trkpt lat="47.96367" lon="6.70547">
        <ele>800.92</ele>
        <time>2013-05-20T10:09:47Z</time>
      </trkpt>
      <trkpt lat="47.96376" lon="6.70547">
        <ele>800.92</ele>
        <time>2013-05-20T10:09:48Z</time>
      </trkpt>
      <trkpt lat="47.96393" lon="6.70547">
        <ele>798.03</ele>
        <time>2013-05-20T10:09:50Z</time>
      </trkpt>
      <trkpt lat="47.96421" lon="6.70546">
        <ele>793.71</ele>
        <time>2013-05-20T10:09:53Z</time>
      </trkpt>
      <trkpt lat="47.96431" lon="6.70547">
        <ele>793.71</ele>
        <time>2013-05-20T10:09:54Z</time>
      </trkpt>
      <trkpt lat="47.9644" lon="6.7055">
        <ele>792.26</ele>
        <time>2013-05-20T10:09:55Z</time>
      </trkpt>
      <trkpt lat="47.96449" lon="6.70553">
        <ele>791.3</ele>
        <time>2013-05-20T10:09:56Z</time>
      </trkpt>
      <trkpt lat="47.96458" lon="6.7056">
        <ele>791.78</ele>
        <time>2013-05-20T10:09:57Z</time>
      </trkpt>
      <trkpt lat="47.96466" lon="6.70568">
        <ele>790.34</ele>
        <time>2013-05-20T10:09:58Z</time>
      </trkpt>
      <trkpt lat="47.96473" lon="6.70576">
        <ele>789.86</ele>
        <time>2013-05-20T10:09:59Z</time>
      </trkpt>
      <trkpt lat="47.96478" lon="6.70583">
        <ele>788.42</ele>
        <time>2013-05-20T10:10:00Z</time>
      </trkpt>
      <trkpt lat="47.96484" lon="6.7059">
        <ele>788.42</ele>
        <time>2013-05-20T10:10:01Z</time>
      </trkpt>
      <trkpt lat="47.96494" lon="6.70604">
        <ele>786.5</ele>
        <time>2013-05-20T10:10:03Z</time>
      </trkpt>
      <trkpt lat="47.96499" lon="6.70611">
        <ele>786.02</ele>
        <time>2013-05-20T10:10:04Z</time>
      </trkpt>
      <trkpt lat="47.96506" lon="6.70615">
        <ele>784.57</ele>
        <time>2013-05-20T10:10:05Z</time>
      </trkpt>
      <trkpt lat="47.96512" lon="6.70618">
        <ele>785.05</ele>
        <time>2013-05-20T10:10:06Z</time>
      </trkpt>
      <trkpt lat="47.96519" lon="6.70619">
        <ele>784.09</ele>
        <time>2013-05-20T10:10:07Z</time>
      </trkpt>
      <trkpt lat="47.96526" lon="6.70619">
        <ele>783.61</ele>
        <time>2013-05-20T10:10:08Z</time>
      </trkpt>
      <trkpt lat="47.96533" lon="6.70617">
        <ele>783.13</ele>
        <time>2013-05-20T10:10:09Z</time>
      </trkpt>
      <trkpt lat="47.9654" lon="6.70613">
        <ele>783.13</ele>
        <time>2013-05-20T10:10:10Z</time>
      </trkpt>
      <trkpt lat="47.96547" lon="6.70607">
        <ele>783.13</ele>
        <time>2013-05-20T10:10:11Z</time>
      </trkpt>
      <trkpt lat="47.96553" lon="6.70601">
        <ele>782.17</ele>
        <time>2013-05-20T10:10:12Z</time>
      </trkpt>
      <trkpt lat="47.96559" lon="6.70595">
        <ele>782.65</ele>
        <time>2013-05-20T10:10:13Z</time>
      </trkpt>
      <trkpt lat="47.96565" lon="6.70586">
        <ele>782.17</ele>
        <time>2013-05-20T10:10:14Z</time>
      </trkpt>
      <trkpt lat="47.9657" lon="6.70575">
        <ele>781.69</ele>
        <time>2013-05-20T10:10:15Z</time>
      </trkpt>
      <trkpt lat="47.96583" lon="6.70546">
        <ele>779.77</ele>
        <time>2013-05-20T10:10:18Z</time>
      </trkpt>
      <trkpt lat="47.96589" lon="6.70541">
        <ele>778.81</ele>
        <time>2013-05-20T10:10:19Z</time>
      </trkpt>
      <trkpt lat="47.96596" lon="6.70543">
        <ele>777.84</ele>
        <time>2013-05-20T10:10:20Z</time>
      </trkpt>
      <trkpt lat="47.96602" lon="6.70546">
        <ele>777.84</ele>
        <time>2013-05-20T10:10:21Z</time>
      </trkpt>
      <trkpt lat="47.96608" lon="6.7055">
        <ele>776.4</ele>
        <time>2013-05-20T10:10:22Z</time>
      </trkpt>
      <trkpt lat="47.96615" lon="6.70555">
        <ele>776.4</ele>
        <time>2013-05-20T10:10:23Z</time>
      </trkpt>
      <trkpt lat="47.96622" lon="6.70558">
        <ele>774.96</ele>
        <time>2013-05-20T10:10:24Z</time>
      </trkpt>
      <trkpt lat="47.96629" lon="6.7056">
        <ele>774</ele>
        <time>2013-05-20T10:10:25Z</time>
      </trkpt>
      <trkpt lat="47.96636" lon="6.70561">
        <ele>772.56</ele>
        <time>2013-05-20T10:10:26Z</time>
      </trkpt>
      <trkpt lat="47.96649" lon="6.70565">
        <ele>770.63</ele>
        <time>2013-05-20T10:10:28Z</time>
      </trkpt>
      <trkpt lat="47.96655" lon="6.70568">
        <ele>769.19</ele>
        <time>2013-05-20T10:10:29Z</time>
      </trkpt>
      <trkpt lat="47.96662" lon="6.70573">
        <ele>767.75</ele>
        <time>2013-05-20T10:10:30Z</time>
      </trkpt>
      <trkpt lat="47.96675" lon="6.70585">
        <ele>764.39</ele>
        <time>2013-05-20T10:10:32Z</time>
      </trkpt>
      <trkpt lat="47.96698" lon="6.70601">
        <ele>761.02</ele>
        <time>2013-05-20T10:10:35Z</time>
      </trkpt>
      <trkpt lat="47.96714" lon="6.70612">
        <ele>757.66</ele>
        <time>2013-05-20T10:10:37Z</time>
      </trkpt>
      <trkpt lat="47.96725" lon="6.7062">
        <ele>754.29</ele>
        <time>2013-05-20T10:10:39Z</time>
      </trkpt>
      <trkpt lat="47.96728" lon="6.70624">
        <ele>753.33</ele>
        <time>2013-05-20T10:10:40Z</time>
      </trkpt>
      <trkpt lat="47.96729" lon="6.70626">
        <ele>753.81</ele>
        <time>2013-05-20T10:10:41Z</time>
      </trkpt>
      <trkpt lat="47.9673" lon="6.70629">
        <ele>753.33</ele>
        <time>2013-05-20T10:10:42Z</time>
      </trkpt>
      <trkpt lat="47.9673" lon="6.70631">
        <ele>753.33</ele>
        <time>2013-05-20T10:10:43Z</time>
      </trkpt>
      <trkpt lat="47.96731" lon="6.70631">
        <ele>752.85</ele>
        <time>2013-05-20T10:10:45Z</time>
      </trkpt>
      <trkpt lat="47.9673" lon="6.7063">
        <ele>751.89</ele>
        <time>2013-05-20T10:10:46Z</time>
      </trkpt>
      <trkpt lat="47.9673" lon="6.70628">
        <ele>752.85</ele>
        <time>2013-05-20T10:10:48Z</time>
      </trkpt>
      <trkpt lat="47.96733" lon="6.70625">
        <ele>752.85</ele>
        <time>2013-05-20T10:10:51Z</time>
      </trkpt>
      <trkpt lat="47.96737" lon="6.70619">
        <ele>754.29</ele>
        <time>2013-05-20T10:10:58Z</time>
      </trkpt>
      <trkpt lat="47.96737" lon="6.70617">
        <ele>754.29</ele>
        <time>2013-05-20T10:10:59Z</time>
      </trkpt>
      <trkpt lat="47.96739" lon="6.70616">
        <ele>755.25</ele>
        <time>2013-05-20T10:11:00Z</time>
      </trkpt>
      <trkpt lat="47.9674" lon="6.70614">
        <ele>755.25</ele>
        <time>2013-05-20T10:11:01Z</time>
      </trkpt>
      <trkpt lat="47.96746" lon="6.70606">
        <ele>757.18</ele>
        <time>2013-05-20T10:11:07Z</time>
      </trkpt>
      <trkpt lat="47.9676" lon="6.70591">
        <ele>759.1</ele>
        <time>2013-05-20T10:11:20Z</time>
      </trkpt>
      <trkpt lat="47.96778" lon="6.70587">
        <ele>759.58</ele>
        <time>2013-05-20T10:11:31Z</time>
      </trkpt>
      <trkpt lat="47.96798" lon="6.70581">
        <ele>759.1</ele>
        <time>2013-05-20T10:11:41Z</time>
      </trkpt>
      <trkpt lat="47.96825" lon="6.70572">
        <ele>760.54</ele>
        <time>2013-05-20T10:11:54Z</time>
      </trkpt>
      <trkpt lat="47.96847" lon="6.70569">
        <ele>759.58</ele>
        <time>2013-05-20T10:12:06Z</time>
      </trkpt>
      <trkpt lat="47.96858" lon="6.70564">
        <ele>758.14</ele>
        <time>2013-05-20T10:12:12Z</time>
      </trkpt>
      <trkpt lat="47.9686" lon="6.70564">
        <ele>758.62</ele>
        <time>2013-05-20T10:12:13Z</time>
      </trkpt>
      <trkpt lat="47.96862" lon="6.70563">
        <ele>758.14</ele>
        <time>2013-05-20T10:12:14Z</time>
      </trkpt>
      <trkpt lat="47.96864" lon="6.70562">
        <ele>758.62</ele>
        <time>2013-05-20T10:12:15Z</time>
      </trkpt>
      <trkpt lat="47.96866" lon="6.70561">
        <ele>758.14</ele>
        <time>2013-05-20T10:12:16Z</time>
      </trkpt>
      <trkpt lat="47.96869" lon="6.7056">
        <ele>758.62</ele>
        <time>2013-05-20T10:12:17Z</time>
      </trkpt>
      <trkpt lat="47.9687" lon="6.70559">
        <ele>758.14</ele>
        <time>2013-05-20T10:12:18Z</time>
      </trkpt>
      <trkpt lat="47.96899" lon="6.70555">
        <ele>759.58</ele>
        <time>2013-05-20T10:12:31Z</time>
      </trkpt>
      <trkpt lat="47.9692" lon="6.70549">
        <ele>759.1</ele>
        <time>2013-05-20T10:12:41Z</time>
      </trkpt>
      <trkpt lat="47.96937" lon="6.70541">
        <ele>755.73</ele>
        <time>2013-05-20T10:12:48Z</time>
      </trkpt>
      <trkpt lat="47.96943" lon="6.70538">
        <ele>754.77</ele>
        <time>2013-05-20T10:12:50Z</time>
      </trkpt>
      <trkpt lat="47.9697" lon="6.7052">
        <ele>753.81</ele>
        <time>2013-05-20T10:12:59Z</time>
      </trkpt>
      <trkpt lat="47.96983" lon="6.70514">
        <ele>754.29</ele>
        <time>2013-05-20T10:13:10Z</time>
      </trkpt>
      <trkpt lat="47.96989" lon="6.70507">
        <ele>754.77</ele>
        <time>2013-05-20T10:13:16Z</time>
      </trkpt>
      <trkpt lat="47.96996" lon="6.70503">
        <ele>754.29</ele>
        <time>2013-05-20T10:13:20Z</time>
      </trkpt>
      <trkpt lat="47.97003" lon="6.705">
        <ele>754.29</ele>
        <time>2013-05-20T10:13:24Z</time>
      </trkpt>
      <trkpt lat="47.97006" lon="6.70498">
        <ele>753.81</ele>
        <time>2013-05-20T10:13:26Z</time>
      </trkpt>
      <trkpt lat="47.97021" lon="6.70482">
        <ele>751.41</ele>
        <time>2013-05-20T10:13:33Z</time>
      </trkpt>
      <trkpt lat="47.97024" lon="6.70479">
        <ele>750.93</ele>
        <time>2013-05-20T10:13:34Z</time>
      </trkpt>
      <trkpt lat="47.9703" lon="6.70474">
        <ele>749.49</ele>
        <time>2013-05-20T10:13:36Z</time>
      </trkpt>
      <trkpt lat="47.97051" lon="6.70453">
        <ele>750.45</ele>
        <time>2013-05-20T10:13:46Z</time>
      </trkpt>
      <trkpt lat="47.97053" lon="6.70452">
        <ele>750.93</ele>
        <time>2013-05-20T10:13:47Z</time>
      </trkpt>
      <trkpt lat="47.97054" lon="6.70451">
        <ele>750.93</ele>
        <time>2013-05-20T10:13:48Z</time>
      </trkpt>
      <trkpt lat="47.97056" lon="6.7045">
        <ele>750.93</ele>
        <time>2013-05-20T10:13:49Z</time>
      </trkpt>
      <trkpt lat="47.97058" lon="6.70449">
        <ele>750.93</ele>
        <time>2013-05-20T10:13:50Z</time>
      </trkpt>
      <trkpt lat="47.9706" lon="6.70447">
        <ele>751.41</ele>
        <time>2013-05-20T10:13:51Z</time>
      </trkpt>
      <trkpt lat="47.97062" lon="6.70447">
        <ele>751.41</ele>
        <time>2013-05-20T10:13:52Z</time>
      </trkpt>
      <trkpt lat="47.97075" lon="6.70431">
        <ele>751.89</ele>
        <time>2013-05-20T10:14:04Z</time>
      </trkpt>
      <trkpt lat="47.97078" lon="6.70427">
        <ele>752.37</ele>
        <time>2013-05-20T10:14:07Z</time>
      </trkpt>
      <trkpt lat="47.97088" lon="6.7041">
        <ele>755.25</ele>
        <time>2013-05-20T10:14:18Z</time>
      </trkpt>
      <trkpt lat="47.97092" lon="6.70403">
        <ele>757.18</ele>
        <time>2013-05-20T10:14:23Z</time>
      </trkpt>
      <trkpt lat="47.97095" lon="6.70398">
        <ele>757.66</ele>
        <time>2013-05-20T10:14:27Z</time>
      </trkpt>
      <trkpt lat="47.97108" lon="6.70388">
        <ele>759.1</ele>
        <time>2013-05-20T10:14:39Z</time>
      </trkpt>
      <trkpt lat="47.97117" lon="6.70384">
        <ele>759.58</ele>
        <time>2013-05-20T10:14:46Z</time>
      </trkpt>
      <trkpt lat="47.97128" lon="6.70384">
        <ele>759.58</ele>
        <time>2013-05-20T10:14:59Z</time>
      </trkpt>
      <trkpt lat="47.97143" lon="6.70381">
        <ele>761.98</ele>
        <time>2013-05-20T10:15:15Z</time>
      </trkpt>
      <trkpt lat="47.97155" lon="6.7038">
        <ele>762.94</ele>
        <time>2013-05-20T10:15:32Z</time>
      </trkpt>
      <trkpt lat="47.97163" lon="6.70382">
        <ele>762.94</ele>
        <time>2013-05-20T10:15:45Z</time>
      </trkpt>
      <trkpt lat="47.97178" lon="6.70388">
        <ele>761.98</ele>
        <time>2013-05-20T10:15:54Z</time>
      </trkpt>
      <trkpt lat="47.97201" lon="6.70386">
        <ele>762.46</ele>
        <time>2013-05-20T10:16:07Z</time>
      </trkpt>
      <trkpt lat="47.97228" lon="6.7038">
        <ele>762.46</ele>
        <time>2013-05-20T10:16:22Z</time>
      </trkpt>
      <trkpt lat="47.97245" lon="6.70374">
        <ele>761.98</ele>
        <time>2013-05-20T10:16:31Z</time>
      </trkpt>
      <trkpt lat="47.97268" lon="6.70367">
        <ele>761.98</ele>
        <time>2013-05-20T10:16:44Z</time>
      </trkpt>
      <trkpt lat="47.97275" lon="6.70366">
        <ele>762.46</ele>
        <time>2013-05-20T10:16:48Z</time>
      </trkpt>
      <trkpt lat="47.9729" lon="6.70371">
        <ele>761.98</ele>
        <time>2013-05-20T10:16:56Z</time>
      </trkpt>
      <trkpt lat="47.97303" lon="6.70384">
        <ele>760.54</ele>
        <time>2013-05-20T10:17:05Z</time>
      </trkpt>
      <trkpt lat="47.97315" lon="6.70415">
        <ele>761.5</ele>
        <time>2013-05-20T10:17:18Z</time>
      </trkpt>
      <trkpt lat="47.97318" lon="6.70439">
        <ele>759.58</ele>
        <time>2013-05-20T10:17:26Z</time>
      </trkpt>
      <trkpt lat="47.97316" lon="6.70472">
        <ele>756.21</ele>
        <time>2013-05-20T10:17:35Z</time>
      </trkpt>
      <trkpt lat="47.97317" lon="6.70496">
        <ele>752.85</ele>
        <time>2013-05-20T10:17:41Z</time>
      </trkpt>
      <trkpt lat="47.97317" lon="6.70499">
        <ele>752.85</ele>
        <time>2013-05-20T10:17:42Z</time>
      </trkpt>
      <trkpt lat="47.97321" lon="6.70512">
        <ele>752.37</ele>
        <time>2013-05-20T10:17:47Z</time>
      </trkpt>
      <trkpt lat="47.97326" lon="6.70525">
        <ele>752.85</ele>
        <time>2013-05-20T10:17:51Z</time>
      </trkpt>
      <trkpt lat="47.97331" lon="6.70558">
        <ele>751.89</ele>
        <time>2013-05-20T10:18:04Z</time>
      </trkpt>
      <trkpt lat="47.97338" lon="6.70588">
        <ele>750.93</ele>
        <time>2013-05-20T10:18:16Z</time>
      </trkpt>
      <trkpt lat="47.97338" lon="6.7059">
        <ele>752.37</ele>
        <time>2013-05-20T10:18:17Z</time>
      </trkpt>
      <trkpt lat="47.97346" lon="6.70608">
        <ele>752.37</ele>
        <time>2013-05-20T10:18:24Z</time>
      </trkpt>
      <trkpt lat="47.97363" lon="6.70629">
        <ele>755.25</ele>
        <time>2013-05-20T10:18:33Z</time>
      </trkpt>
      <trkpt lat="47.97372" lon="6.70631">
        <ele>755.73</ele>
        <time>2013-05-20T10:18:40Z</time>
      </trkpt>
      <trkpt lat="47.97378" lon="6.70637">
        <ele>755.25</ele>
        <time>2013-05-20T10:18:44Z</time>
      </trkpt>
      <trkpt lat="47.97396" lon="6.70652">
        <ele>752.85</ele>
        <time>2013-05-20T10:18:54Z</time>
      </trkpt>
      <trkpt lat="47.97402" lon="6.70655">
        <ele>751.89</ele>
        <time>2013-05-20T10:18:58Z</time>
      </trkpt>
      <trkpt lat="47.97409" lon="6.70654">
        <ele>751.89</ele>
        <time>2013-05-20T10:19:02Z</time>
      </trkpt>
      <trkpt lat="47.97424" lon="6.70654">
        <ele>749.49</ele>
        <time>2013-05-20T10:19:09Z</time>
      </trkpt>
      <trkpt lat="47.97444" lon="6.70655">
        <ele>746.12</ele>
        <time>2013-05-20T10:19:16Z</time>
      </trkpt>
      <trkpt lat="47.97455" lon="6.70647">
        <ele>747.08</ele>
        <time>2013-05-20T10:19:24Z</time>
      </trkpt>
      <trkpt lat="47.97465" lon="6.70643">
        <ele>743.72</ele>
        <time>2013-05-20T10:19:32Z</time>
      </trkpt>
      <trkpt lat="47.97469" lon="6.70641">
        <ele>742.76</ele>
        <time>2013-05-20T10:19:35Z</time>
      </trkpt>
      <trkpt lat="47.97483" lon="6.70637">
        <ele>739.87</ele>
        <time>2013-05-20T10:19:42Z</time>
      </trkpt>
      <trkpt lat="47.97485" lon="6.70636">
        <ele>739.39</ele>
        <time>2013-05-20T10:19:43Z</time>
      </trkpt>
      <trkpt lat="47.97504" lon="6.70623">
        <ele>739.39</ele>
        <time>2013-05-20T10:19:54Z</time>
      </trkpt>
      <trkpt lat="47.97522" lon="6.70607">
        <ele>739.39</ele>
        <time>2013-05-20T10:20:05Z</time>
      </trkpt>
      <trkpt lat="47.97524" lon="6.70604">
        <ele>739.39</ele>
        <time>2013-05-20T10:20:06Z</time>
      </trkpt>
      <trkpt lat="47.97563" lon="6.70586">
        <ele>741.79</ele>
        <time>2013-05-20T10:20:21Z</time>
      </trkpt>
      <trkpt lat="47.97568" lon="6.70586">
        <ele>742.28</ele>
        <time>2013-05-20T10:20:23Z</time>
      </trkpt>
      <trkpt lat="47.97575" lon="6.70588">
        <ele>743.24</ele>
        <time>2013-05-20T10:20:27Z</time>
      </trkpt>
      <trkpt lat="47.9758" lon="6.70588">
        <ele>744.2</ele>
        <time>2013-05-20T10:20:30Z</time>
      </trkpt>
      <trkpt lat="47.97588" lon="6.70596">
        <ele>745.16</ele>
        <time>2013-05-20T10:20:35Z</time>
      </trkpt>
      <trkpt lat="47.9759" lon="6.70601">
        <ele>745.16</ele>
        <time>2013-05-20T10:20:37Z</time>
      </trkpt>
      <trkpt lat="47.97591" lon="6.70602">
        <ele>744.68</ele>
        <time>2013-05-20T10:20:38Z</time>
      </trkpt>
      <trkpt lat="47.976" lon="6.70611">
        <ele>745.16</ele>
        <time>2013-05-20T10:20:45Z</time>
      </trkpt>
      <trkpt lat="47.9761" lon="6.70628">
        <ele>744.68</ele>
        <time>2013-05-20T10:20:54Z</time>
      </trkpt>
      <trkpt lat="47.9762" lon="6.70653">
        <ele>744.2</ele>
        <time>2013-05-20T10:21:02Z</time>
      </trkpt>
      <trkpt lat="47.97637" lon="6.70685">
        <ele>743.24</ele>
        <time>2013-05-20T10:21:14Z</time>
      </trkpt>
      <trkpt lat="47.97642" lon="6.70693">
        <ele>742.76</ele>
        <time>2013-05-20T10:21:17Z</time>
      </trkpt>
      <trkpt lat="47.97643" lon="6.70695">
        <ele>742.28</ele>
        <time>2013-05-20T10:21:18Z</time>
      </trkpt>
      <trkpt lat="47.97644" lon="6.70699">
        <ele>742.76</ele>
        <time>2013-05-20T10:21:19Z</time>
      </trkpt>
      <trkpt lat="47.97645" lon="6.70701">
        <ele>741.79</ele>
        <time>2013-05-20T10:21:20Z</time>
      </trkpt>
      <trkpt lat="47.97645" lon="6.70704">
        <ele>741.79</ele>
        <time>2013-05-20T10:21:21Z</time>
      </trkpt>
      <trkpt lat="47.97645" lon="6.70707">
        <ele>741.79</ele>
        <time>2013-05-20T10:21:22Z</time>
      </trkpt>
      <trkpt lat="47.97646" lon="6.7071">
        <ele>741.79</ele>
        <time>2013-05-20T10:21:23Z</time>
      </trkpt>
      <trkpt lat="47.97646" lon="6.70714">
        <ele>741.31</ele>
        <time>2013-05-20T10:21:24Z</time>
      </trkpt>
      <trkpt lat="47.97649" lon="6.70738">
        <ele>737.95</ele>
        <time>2013-05-20T10:21:29Z</time>
      </trkpt>
      <trkpt lat="47.97654" lon="6.70761">
        <ele>736.03</ele>
        <time>2013-05-20T10:21:33Z</time>
      </trkpt>
      <trkpt lat="47.97659" lon="6.70784">
        <ele>732.66</ele>
        <time>2013-05-20T10:21:38Z</time>
      </trkpt>
      <trkpt lat="47.97661" lon="6.70794">
        <ele>731.7</ele>
        <time>2013-05-20T10:21:40Z</time>
      </trkpt>
      <trkpt lat="47.97662" lon="6.708">
        <ele>730.74</ele>
        <time>2013-05-20T10:21:41Z</time>
      </trkpt>
      <trkpt lat="47.97664" lon="6.70808">
        <ele>730.74</ele>
        <time>2013-05-20T10:21:42Z</time>
      </trkpt>
      <trkpt lat="47.97665" lon="6.70816">
        <ele>730.74</ele>
        <time>2013-05-20T10:21:43Z</time>
      </trkpt>
      <trkpt lat="47.97675" lon="6.70847">
        <ele>727.37</ele>
        <time>2013-05-20T10:21:48Z</time>
      </trkpt>
      <trkpt lat="47.97685" lon="6.7086">
        <ele>726.89</ele>
        <time>2013-05-20T10:21:55Z</time>
      </trkpt>
      <trkpt lat="47.97705" lon="6.70872">
        <ele>723.53</ele>
        <time>2013-05-20T10:22:02Z</time>
      </trkpt>
      <trkpt lat="47.97709" lon="6.70872">
        <ele>723.05</ele>
        <time>2013-05-20T10:22:03Z</time>
      </trkpt>
      <trkpt lat="47.97711" lon="6.70871">
        <ele>723.53</ele>
        <time>2013-05-20T10:22:04Z</time>
      </trkpt>
      <trkpt lat="47.97713" lon="6.7087">
        <ele>722.57</ele>
        <time>2013-05-20T10:22:05Z</time>
      </trkpt>
      <trkpt lat="47.97715" lon="6.70868">
        <ele>722.57</ele>
        <time>2013-05-20T10:22:06Z</time>
      </trkpt>
      <trkpt lat="47.97716" lon="6.70865">
        <ele>722.57</ele>
        <time>2013-05-20T10:22:07Z</time>
      </trkpt>
      <trkpt lat="47.97717" lon="6.70863">
        <ele>722.57</ele>
        <time>2013-05-20T10:22:08Z</time>
      </trkpt>
      <trkpt lat="47.97736" lon="6.70816">
        <ele>720.65</ele>
        <time>2013-05-20T10:22:19Z</time>
      </trkpt>
      <trkpt lat="47.9776" lon="6.70785">
        <ele>719.68</ele>
        <time>2013-05-20T10:22:27Z</time>
      </trkpt>
      <trkpt lat="47.97764" lon="6.70782">
        <ele>718.72</ele>
        <time>2013-05-20T10:22:28Z</time>
      </trkpt>
      <trkpt lat="47.97775" lon="6.70778">
        <ele>718.24</ele>
        <time>2013-05-20T10:22:30Z</time>
      </trkpt>
      <trkpt lat="47.97781" lon="6.70776">
        <ele>717.76</ele>
        <time>2013-05-20T10:22:31Z</time>
      </trkpt>
      <trkpt lat="47.97801" lon="6.70766">
        <ele>716.32</ele>
        <time>2013-05-20T10:22:34Z</time>
      </trkpt>
      <trkpt lat="47.97815" lon="6.7076">
        <ele>715.36</ele>
        <time>2013-05-20T10:22:36Z</time>
      </trkpt>
      <trkpt lat="47.97823" lon="6.70757">
        <ele>714.88</ele>
        <time>2013-05-20T10:22:37Z</time>
      </trkpt>
      <trkpt lat="47.97832" lon="6.70755">
        <ele>715.36</ele>
        <time>2013-05-20T10:22:38Z</time>
      </trkpt>
      <trkpt lat="47.97854" lon="6.70751">
        <ele>712.47</ele>
        <time>2013-05-20T10:22:41Z</time>
      </trkpt>
      <trkpt lat="47.97861" lon="6.70753">
        <ele>711.99</ele>
        <time>2013-05-20T10:22:42Z</time>
      </trkpt>
      <trkpt lat="47.97867" lon="6.70755">
        <ele>711.51</ele>
        <time>2013-05-20T10:22:43Z</time>
      </trkpt>
      <trkpt lat="47.97872" lon="6.7076">
        <ele>710.55</ele>
        <time>2013-05-20T10:22:44Z</time>
      </trkpt>
      <trkpt lat="47.97878" lon="6.70767">
        <ele>709.59</ele>
        <time>2013-05-20T10:22:45Z</time>
      </trkpt>
      <trkpt lat="47.97883" lon="6.70775">
        <ele>709.11</ele>
        <time>2013-05-20T10:22:46Z</time>
      </trkpt>
      <trkpt lat="47.97888" lon="6.70781">
        <ele>708.63</ele>
        <time>2013-05-20T10:22:47Z</time>
      </trkpt>
      <trkpt lat="47.979" lon="6.70792">
        <ele>707.19</ele>
        <time>2013-05-20T10:22:49Z</time>
      </trkpt>
      <trkpt lat="47.97913" lon="6.70803">
        <ele>704.78</ele>
        <time>2013-05-20T10:22:51Z</time>
      </trkpt>
      <trkpt lat="47.97937" lon="6.70828">
        <ele>704.3</ele>
        <time>2013-05-20T10:22:55Z</time>
      </trkpt>
      <trkpt lat="47.97948" lon="6.70832">
        <ele>703.34</ele>
        <time>2013-05-20T10:22:57Z</time>
      </trkpt>
      <trkpt lat="47.97954" lon="6.70832">
        <ele>702.86</ele>
        <time>2013-05-20T10:22:58Z</time>
      </trkpt>
      <trkpt lat="47.97959" lon="6.70831">
        <ele>701.9</ele>
        <time>2013-05-20T10:22:59Z</time>
      </trkpt>
      <trkpt lat="47.97964" lon="6.70828">
        <ele>701.42</ele>
        <time>2013-05-20T10:23:00Z</time>
      </trkpt>
      <trkpt lat="47.97968" lon="6.70823">
        <ele>700.46</ele>
        <time>2013-05-20T10:23:01Z</time>
      </trkpt>
      <trkpt lat="47.97973" lon="6.70818">
        <ele>700.94</ele>
        <time>2013-05-20T10:23:02Z</time>
      </trkpt>
      <trkpt lat="47.97988" lon="6.70802">
        <ele>699.98</ele>
        <time>2013-05-20T10:23:05Z</time>
      </trkpt>
      <trkpt lat="47.97998" lon="6.70793">
        <ele>699.02</ele>
        <time>2013-05-20T10:23:07Z</time>
      </trkpt>
      <trkpt lat="47.98044" lon="6.70717">
        <ele>698.05</ele>
        <time>2013-05-20T10:23:17Z</time>
      </trkpt>
      <trkpt lat="47.98063" lon="6.70668">
        <ele>695.65</ele>
        <time>2013-05-20T10:23:27Z</time>
      </trkpt>
      <trkpt lat="47.9809" lon="6.70611">
        <ele>694.69</ele>
        <time>2013-05-20T10:23:39Z</time>
      </trkpt>
      <trkpt lat="47.98093" lon="6.70606">
        <ele>694.21</ele>
        <time>2013-05-20T10:23:40Z</time>
      </trkpt>
      <trkpt lat="47.98097" lon="6.70602">
        <ele>693.73</ele>
        <time>2013-05-20T10:23:41Z</time>
      </trkpt>
      <trkpt lat="47.98121" lon="6.70568">
        <ele>689.88</ele>
        <time>2013-05-20T10:23:48Z</time>
      </trkpt>
      <trkpt lat="47.98138" lon="6.70547">
        <ele>689.4</ele>
        <time>2013-05-20T10:23:51Z</time>
      </trkpt>
      <trkpt lat="47.98144" lon="6.70535">
        <ele>688.92</ele>
        <time>2013-05-20T10:23:52Z</time>
      </trkpt>
      <trkpt lat="47.98155" lon="6.70514">
        <ele>687</ele>
        <time>2013-05-20T10:23:54Z</time>
      </trkpt>
      <trkpt lat="47.98166" lon="6.70496">
        <ele>677.87</ele>
        <time>2013-05-20T10:23:56Z</time>
      </trkpt>
      <trkpt lat="47.98172" lon="6.70487">
        <ele>674.02</ele>
        <time>2013-05-20T10:23:57Z</time>
      </trkpt>
      <trkpt lat="47.98178" lon="6.70479">
        <ele>674.02</ele>
        <time>2013-05-20T10:23:58Z</time>
      </trkpt>
      <trkpt lat="47.98211" lon="6.70447">
        <ele>670.66</ele>
        <time>2013-05-20T10:24:03Z</time>
      </trkpt>
      <trkpt lat="47.98219" lon="6.70445">
        <ele>670.18</ele>
        <time>2013-05-20T10:24:04Z</time>
      </trkpt>
      <trkpt lat="47.98226" lon="6.70445">
        <ele>670.18</ele>
        <time>2013-05-20T10:24:05Z</time>
      </trkpt>
      <trkpt lat="47.98233" lon="6.70445">
        <ele>668.73</ele>
        <time>2013-05-20T10:24:06Z</time>
      </trkpt>
      <trkpt lat="47.98241" lon="6.70447">
        <ele>669.22</ele>
        <time>2013-05-20T10:24:07Z</time>
      </trkpt>
      <trkpt lat="47.98245" lon="6.70449">
        <ele>669.22</ele>
        <time>2013-05-20T10:24:08Z</time>
      </trkpt>
      <trkpt lat="47.9825" lon="6.70451">
        <ele>669.22</ele>
        <time>2013-05-20T10:24:09Z</time>
      </trkpt>
      <trkpt lat="47.98272" lon="6.70464">
        <ele>667.77</ele>
        <time>2013-05-20T10:24:14Z</time>
      </trkpt>
      <trkpt lat="47.98277" lon="6.70466">
        <ele>667.77</ele>
        <time>2013-05-20T10:24:15Z</time>
      </trkpt>
      <trkpt lat="47.98281" lon="6.70468">
        <ele>667.77</ele>
        <time>2013-05-20T10:24:16Z</time>
      </trkpt>
      <trkpt lat="47.98288" lon="6.70472">
        <ele>667.77</ele>
        <time>2013-05-20T10:24:18Z</time>
      </trkpt>
      <trkpt lat="47.98293" lon="6.70473">
        <ele>667.29</ele>
        <time>2013-05-20T10:24:19Z</time>
      </trkpt>
      <trkpt lat="47.98319" lon="6.70487">
        <ele>667.29</ele>
        <time>2013-05-20T10:24:26Z</time>
      </trkpt>
      <trkpt lat="47.98342" lon="6.7052">
        <ele>665.37</ele>
        <time>2013-05-20T10:24:32Z</time>
      </trkpt>
      <trkpt lat="47.98346" lon="6.70528">
        <ele>665.37</ele>
        <time>2013-05-20T10:24:33Z</time>
      </trkpt>
      <trkpt lat="47.98349" lon="6.70535">
        <ele>665.37</ele>
        <time>2013-05-20T10:24:34Z</time>
      </trkpt>
      <trkpt lat="47.98362" lon="6.70569">
        <ele>664.41</ele>
        <time>2013-05-20T10:24:40Z</time>
      </trkpt>
      <trkpt lat="47.9837" lon="6.70583">
        <ele>663.45</ele>
        <time>2013-05-20T10:24:43Z</time>
      </trkpt>
      <trkpt lat="47.98374" lon="6.70588">
        <ele>662.97</ele>
        <time>2013-05-20T10:24:44Z</time>
      </trkpt>
      <trkpt lat="47.98413" lon="6.70653">
        <ele>662.49</ele>
        <time>2013-05-20T10:24:57Z</time>
      </trkpt>
      <trkpt lat="47.98415" lon="6.70658">
        <ele>662.01</ele>
        <time>2013-05-20T10:24:58Z</time>
      </trkpt>
      <trkpt lat="47.98418" lon="6.70663">
        <ele>662.49</ele>
        <time>2013-05-20T10:24:59Z</time>
      </trkpt>
      <trkpt lat="47.98421" lon="6.70666">
        <ele>661.52</ele>
        <time>2013-05-20T10:25:00Z</time>
      </trkpt>
      <trkpt lat="47.98423" lon="6.70671">
        <ele>661.52</ele>
        <time>2013-05-20T10:25:01Z</time>
      </trkpt>
      <trkpt lat="47.98424" lon="6.70676">
        <ele>661.04</ele>
        <time>2013-05-20T10:25:02Z</time>
      </trkpt>
      <trkpt lat="47.9845" lon="6.70742">
        <ele>660.08</ele>
        <time>2013-05-20T10:25:14Z</time>
      </trkpt>
      <trkpt lat="47.98453" lon="6.70748">
        <ele>660.08</ele>
        <time>2013-05-20T10:25:15Z</time>
      </trkpt>
      <trkpt lat="47.98467" lon="6.7077">
        <ele>659.12</ele>
        <time>2013-05-20T10:25:19Z</time>
      </trkpt>
      <trkpt lat="47.9847" lon="6.70775">
        <ele>659.6</ele>
        <time>2013-05-20T10:25:20Z</time>
      </trkpt>
      <trkpt lat="47.98475" lon="6.7078">
        <ele>659.12</ele>
        <time>2013-05-20T10:25:21Z</time>
      </trkpt>
      <trkpt lat="47.98483" lon="6.70788">
        <ele>658.16</ele>
        <time>2013-05-20T10:25:23Z</time>
      </trkpt>
      <trkpt lat="47.98488" lon="6.70791">
        <ele>658.16</ele>
        <time>2013-05-20T10:25:24Z</time>
      </trkpt>
      <trkpt lat="47.98493" lon="6.70794">
        <ele>658.16</ele>
        <time>2013-05-20T10:25:25Z</time>
      </trkpt>
      <trkpt lat="47.98517" lon="6.70801">
        <ele>658.16</ele>
        <time>2013-05-20T10:25:30Z</time>
      </trkpt>
      <trkpt lat="47.98531" lon="6.708">
        <ele>657.2</ele>
        <time>2013-05-20T10:25:33Z</time>
      </trkpt>
      <trkpt lat="47.98535" lon="6.70799">
        <ele>657.68</ele>
        <time>2013-05-20T10:25:34Z</time>
      </trkpt>
      <trkpt lat="47.98543" lon="6.70797">
        <ele>656.72</ele>
        <time>2013-05-20T10:25:36Z</time>
      </trkpt>
      <trkpt lat="47.98547" lon="6.70796">
        <ele>656.72</ele>
        <time>2013-05-20T10:25:37Z</time>
      </trkpt>
      <trkpt lat="47.98581" lon="6.7077">
        <ele>655.28</ele>
        <time>2013-05-20T10:25:48Z</time>
      </trkpt>
      <trkpt lat="47.98586" lon="6.70766">
        <ele>654.8</ele>
        <time>2013-05-20T10:25:49Z</time>
      </trkpt>
      <trkpt lat="47.98591" lon="6.70763">
        <ele>654.8</ele>
        <time>2013-05-20T10:25:50Z</time>
      </trkpt>
      <trkpt lat="47.98596" lon="6.7076">
        <ele>654.31</ele>
        <time>2013-05-20T10:25:51Z</time>
      </trkpt>
      <trkpt lat="47.98601" lon="6.70756">
        <ele>654.8</ele>
        <time>2013-05-20T10:25:52Z</time>
      </trkpt>
      <trkpt lat="47.98606" lon="6.70751">
        <ele>653.83</ele>
        <time>2013-05-20T10:25:53Z</time>
      </trkpt>
      <trkpt lat="47.98629" lon="6.70728">
        <ele>652.87</ele>
        <time>2013-05-20T10:25:58Z</time>
      </trkpt>
      <trkpt lat="47.98634" lon="6.70722">
        <ele>652.87</ele>
        <time>2013-05-20T10:25:59Z</time>
      </trkpt>
      <trkpt lat="47.98638" lon="6.70716">
        <ele>652.39</ele>
        <time>2013-05-20T10:26:00Z</time>
      </trkpt>
      <trkpt lat="47.98641" lon="6.7071">
        <ele>652.39</ele>
        <time>2013-05-20T10:26:01Z</time>
      </trkpt>
      <trkpt lat="47.98644" lon="6.70704">
        <ele>652.87</ele>
        <time>2013-05-20T10:26:02Z</time>
      </trkpt>
      <trkpt lat="47.9865" lon="6.70693">
        <ele>652.39</ele>
        <time>2013-05-20T10:26:04Z</time>
      </trkpt>
      <trkpt lat="47.98658" lon="6.70684">
        <ele>651.91</ele>
        <time>2013-05-20T10:26:06Z</time>
      </trkpt>
      <trkpt lat="47.98661" lon="6.70681">
        <ele>650.95</ele>
        <time>2013-05-20T10:26:07Z</time>
      </trkpt>
      <trkpt lat="47.98664" lon="6.70678">
        <ele>650.95</ele>
        <time>2013-05-20T10:26:08Z</time>
      </trkpt>
      <trkpt lat="47.98681" lon="6.70664">
        <ele>650.95</ele>
        <time>2013-05-20T10:26:12Z</time>
      </trkpt>
      <trkpt lat="47.98685" lon="6.70661">
        <ele>651.43</ele>
        <time>2013-05-20T10:26:13Z</time>
      </trkpt>
      <trkpt lat="47.9872" lon="6.70636">
        <ele>649.51</ele>
        <time>2013-05-20T10:26:21Z</time>
      </trkpt>
      <trkpt lat="47.98745" lon="6.70627">
        <ele>648.55</ele>
        <time>2013-05-20T10:26:26Z</time>
      </trkpt>
      <trkpt lat="47.98759" lon="6.70623">
        <ele>646.62</ele>
        <time>2013-05-20T10:26:29Z</time>
      </trkpt>
      <trkpt lat="47.98763" lon="6.70624">
        <ele>646.62</ele>
        <time>2013-05-20T10:26:30Z</time>
      </trkpt>
      <trkpt lat="47.98767" lon="6.70626">
        <ele>646.62</ele>
        <time>2013-05-20T10:26:31Z</time>
      </trkpt>
      <trkpt lat="47.98771" lon="6.70629">
        <ele>645.66</ele>
        <time>2013-05-20T10:26:32Z</time>
      </trkpt>
      <trkpt lat="47.98774" lon="6.70633">
        <ele>645.66</ele>
        <time>2013-05-20T10:26:33Z</time>
      </trkpt>
      <trkpt lat="47.98777" lon="6.70637">
        <ele>645.66</ele>
        <time>2013-05-20T10:26:34Z</time>
      </trkpt>
      <trkpt lat="47.9878" lon="6.7064">
        <ele>646.14</ele>
        <time>2013-05-20T10:26:35Z</time>
      </trkpt>
      <trkpt lat="47.98784" lon="6.70643">
        <ele>645.18</ele>
        <time>2013-05-20T10:26:36Z</time>
      </trkpt>
      <trkpt lat="47.98788" lon="6.70644">
        <ele>645.18</ele>
        <time>2013-05-20T10:26:37Z</time>
      </trkpt>
      <trkpt lat="47.98793" lon="6.70645">
        <ele>645.18</ele>
        <time>2013-05-20T10:26:38Z</time>
      </trkpt>
      <trkpt lat="47.98797" lon="6.70646">
        <ele>644.22</ele>
        <time>2013-05-20T10:26:39Z</time>
      </trkpt>
      <trkpt lat="47.98802" lon="6.70647">
        <ele>644.7</ele>
        <time>2013-05-20T10:26:40Z</time>
      </trkpt>
      <trkpt lat="47.98805" lon="6.70646">
        <ele>644.7</ele>
        <time>2013-05-20T10:26:41Z</time>
      </trkpt>
      <trkpt lat="47.98809" lon="6.70645">
        <ele>643.74</ele>
        <time>2013-05-20T10:26:42Z</time>
      </trkpt>
      <trkpt lat="47.98814" lon="6.70644">
        <ele>642.78</ele>
        <time>2013-05-20T10:26:43Z</time>
      </trkpt>
      <trkpt lat="47.98827" lon="6.70638">
        <ele>642.3</ele>
        <time>2013-05-20T10:26:46Z</time>
      </trkpt>
      <trkpt lat="47.98831" lon="6.70635">
        <ele>642.3</ele>
        <time>2013-05-20T10:26:47Z</time>
      </trkpt>
      <trkpt lat="47.98835" lon="6.70628">
        <ele>642.78</ele>
        <time>2013-05-20T10:26:48Z</time>
      </trkpt>
      <trkpt lat="47.98856" lon="6.70599">
        <ele>642.3</ele>
        <time>2013-05-20T10:26:53Z</time>
      </trkpt>
      <trkpt lat="47.9886" lon="6.70596">
        <ele>641.34</ele>
        <time>2013-05-20T10:26:54Z</time>
      </trkpt>
      <trkpt lat="47.98863" lon="6.70594">
        <ele>641.82</ele>
        <time>2013-05-20T10:26:55Z</time>
      </trkpt>
      <trkpt lat="47.98878" lon="6.70576">
        <ele>638.45</ele>
        <time>2013-05-20T10:27:01Z</time>
      </trkpt>
      <trkpt lat="47.9888" lon="6.70571">
        <ele>638.45</ele>
        <time>2013-05-20T10:27:02Z</time>
      </trkpt>
      <trkpt lat="47.9889" lon="6.7055">
        <ele>635.57</ele>
        <time>2013-05-20T10:27:07Z</time>
      </trkpt>
      <trkpt lat="47.98897" lon="6.70538">
        <ele>633.17</ele>
        <time>2013-05-20T10:27:12Z</time>
      </trkpt>
      <trkpt lat="47.98898" lon="6.70535">
        <ele>631.72</ele>
        <time>2013-05-20T10:27:13Z</time>
      </trkpt>
      <trkpt lat="47.989" lon="6.70532">
        <ele>631.24</ele>
        <time>2013-05-20T10:27:14Z</time>
      </trkpt>
      <trkpt lat="47.98902" lon="6.7053">
        <ele>631.72</ele>
        <time>2013-05-20T10:27:15Z</time>
      </trkpt>
      <trkpt lat="47.98905" lon="6.70529">
        <ele>630.76</ele>
        <time>2013-05-20T10:27:16Z</time>
      </trkpt>
      <trkpt lat="47.98907" lon="6.70529">
        <ele>631.24</ele>
        <time>2013-05-20T10:27:17Z</time>
      </trkpt>
      <trkpt lat="47.98914" lon="6.70523">
        <ele>629.8</ele>
        <time>2013-05-20T10:27:24Z</time>
      </trkpt>
      <trkpt lat="47.98918" lon="6.70526">
        <ele>629.32</ele>
        <time>2013-05-20T10:27:39Z</time>
      </trkpt>
      <trkpt lat="47.98932" lon="6.70524">
        <ele>627.88</ele>
        <time>2013-05-20T10:27:57Z</time>
      </trkpt>
      <trkpt lat="47.98933" lon="6.70523">
        <ele>626.92</ele>
        <time>2013-05-20T10:27:59Z</time>
      </trkpt>
      <trkpt lat="47.98935" lon="6.70523">
        <ele>626.92</ele>
        <time>2013-05-20T10:28:00Z</time>
      </trkpt>
      <trkpt lat="47.9894" lon="6.7052">
        <ele>625.47</ele>
        <time>2013-05-20T10:28:03Z</time>
      </trkpt>
      <trkpt lat="47.98951" lon="6.7051">
        <ele>621.63</ele>
        <time>2013-05-20T10:28:08Z</time>
      </trkpt>
      <trkpt lat="47.98964" lon="6.70508">
        <ele>618.26</ele>
        <time>2013-05-20T10:28:15Z</time>
      </trkpt>
      <trkpt lat="47.98975" lon="6.70502">
        <ele>619.23</ele>
        <time>2013-05-20T10:28:22Z</time>
      </trkpt>
      <trkpt lat="47.98979" lon="6.70501">
        <ele>618.26</ele>
        <time>2013-05-20T10:28:24Z</time>
      </trkpt>
      <trkpt lat="47.98997" lon="6.70488">
        <ele>614.9</ele>
        <time>2013-05-20T10:28:31Z</time>
      </trkpt>
      <trkpt lat="47.99" lon="6.70487">
        <ele>604.81</ele>
        <time>2013-05-20T10:28:35Z</time>
      </trkpt>
      <trkpt lat="47.99003" lon="6.70485">
        <ele>602.4</ele>
        <time>2013-05-20T10:28:39Z</time>
      </trkpt>
      <trkpt lat="47.99004" lon="6.70482">
        <ele>605.77</ele>
        <time>2013-05-20T10:28:49Z</time>
      </trkpt>
      <trkpt lat="47.99006" lon="6.70477">
        <ele>606.73</ele>
        <time>2013-05-20T10:29:00Z</time>
      </trkpt>
      <trkpt lat="47.99007" lon="6.7048">
        <ele>606.73</ele>
        <time>2013-05-20T10:29:18Z</time>
      </trkpt>
      <trkpt lat="47.99014" lon="6.70476">
        <ele>606.73</ele>
        <time>2013-05-20T10:29:28Z</time>
      </trkpt>
      <trkpt lat="47.99025" lon="6.70468">
        <ele>606.25</ele>
        <time>2013-05-20T10:29:35Z</time>
      </trkpt>
      <trkpt lat="47.9903" lon="6.70467">
        <ele>604.33</ele>
        <time>2013-05-20T10:29:38Z</time>
      </trkpt>
      <trkpt lat="47.99036" lon="6.70464">
        <ele>603.36</ele>
        <time>2013-05-20T10:29:44Z</time>
      </trkpt>
      <trkpt lat="47.99037" lon="6.70462">
        <ele>594.23</ele>
        <time>2013-05-20T10:29:45Z</time>
      </trkpt>
      <trkpt lat="47.99043" lon="6.70458">
        <ele>592.79</ele>
        <time>2013-05-20T10:29:48Z</time>
      </trkpt>
      <trkpt lat="47.99054" lon="6.7045">
        <ele>590.39</ele>
        <time>2013-05-20T10:29:59Z</time>
      </trkpt>
      <trkpt lat="47.99068" lon="6.70453">
        <ele>587.98</ele>
        <time>2013-05-20T10:30:12Z</time>
      </trkpt>
      <trkpt lat="47.99068" lon="6.70454">
        <ele>587.5</ele>
        <time>2013-05-20T10:30:13Z</time>
      </trkpt>
      <trkpt lat="47.99072" lon="6.70456">
        <ele>587.02</ele>
        <time>2013-05-20T10:30:18Z</time>
      </trkpt>
      <trkpt lat="47.99081" lon="6.70458">
        <ele>585.1</ele>
        <time>2013-05-20T10:30:31Z</time>
      </trkpt>
      <trkpt lat="47.99088" lon="6.70458">
        <ele>582.7</ele>
        <time>2013-05-20T10:30:36Z</time>
      </trkpt>
      <trkpt lat="47.99102" lon="6.70451">
        <ele>579.81</ele>
        <time>2013-05-20T10:30:43Z</time>
      </trkpt>
      <trkpt lat="47.99116" lon="6.70441">
        <ele>577.41</ele>
        <time>2013-05-20T10:30:48Z</time>
      </trkpt>
      <trkpt lat="47.99131" lon="6.70432">
        <ele>574.53</ele>
        <time>2013-05-20T10:30:54Z</time>
      </trkpt>
      <trkpt lat="47.99136" lon="6.70431">
        <ele>573.08</ele>
        <time>2013-05-20T10:30:55Z</time>
      </trkpt>
      <trkpt lat="47.99144" lon="6.70429">
        <ele>572.12</ele>
        <time>2013-05-20T10:30:58Z</time>
      </trkpt>
      <trkpt lat="47.99157" lon="6.70425">
        <ele>569.72</ele>
        <time>2013-05-20T10:31:01Z</time>
      </trkpt>
      <trkpt lat="47.99179" lon="6.70421">
        <ele>566.83</ele>
        <time>2013-05-20T10:31:08Z</time>
      </trkpt>
      <trkpt lat="47.99186" lon="6.70413">
        <ele>563.95</ele>
        <time>2013-05-20T10:31:17Z</time>
      </trkpt>
      <trkpt lat="47.99191" lon="6.70406">
        <ele>561.55</ele>
        <time>2013-05-20T10:31:24Z</time>
      </trkpt>
      <trkpt lat="47.99193" lon="6.70406">
        <ele>559.62</ele>
        <time>2013-05-20T10:31:26Z</time>
      </trkpt>
      <trkpt lat="47.99194" lon="6.70408">
        <ele>558.66</ele>
        <time>2013-05-20T10:31:27Z</time>
      </trkpt>
      <trkpt lat="47.99195" lon="6.7041">
        <ele>557.7</ele>
        <time>2013-05-20T10:31:28Z</time>
      </trkpt>
      <trkpt lat="47.99197" lon="6.70412">
        <ele>556.26</ele>
        <time>2013-05-20T10:31:29Z</time>
      </trkpt>
      <trkpt lat="47.99199" lon="6.70414">
        <ele>555.3</ele>
        <time>2013-05-20T10:31:30Z</time>
      </trkpt>
      <trkpt lat="47.99202" lon="6.70416">
        <ele>553.38</ele>
        <time>2013-05-20T10:31:31Z</time>
      </trkpt>
      <trkpt lat="47.99205" lon="6.70416">
        <ele>553.38</ele>
        <time>2013-05-20T10:31:32Z</time>
      </trkpt>
      <trkpt lat="47.9921" lon="6.70416">
        <ele>553.38</ele>
        <time>2013-05-20T10:31:33Z</time>
      </trkpt>
      <trkpt lat="47.99222" lon="6.70416">
        <ele>550.49</ele>
        <time>2013-05-20T10:31:36Z</time>
      </trkpt>
      <trkpt lat="47.9923" lon="6.70415">
        <ele>548.57</ele>
        <time>2013-05-20T10:31:38Z</time>
      </trkpt>
      <trkpt lat="47.99235" lon="6.70418">
        <ele>547.61</ele>
        <time>2013-05-20T10:31:40Z</time>
      </trkpt>
      <trkpt lat="47.9924" lon="6.70422">
        <ele>546.65</ele>
        <time>2013-05-20T10:31:43Z</time>
      </trkpt>
      <trkpt lat="47.9925" lon="6.70427">
        <ele>544.72</ele>
        <time>2013-05-20T10:31:45Z</time>
      </trkpt>
      <trkpt lat="47.99266" lon="6.70439">
        <ele>542.8</ele>
        <time>2013-05-20T10:31:50Z</time>
      </trkpt>
      <trkpt lat="47.9927" lon="6.70441">
        <ele>541.36</ele>
        <time>2013-05-20T10:31:52Z</time>
      </trkpt>
      <trkpt lat="47.99286" lon="6.70441">
        <ele>539.92</ele>
        <time>2013-05-20T10:31:57Z</time>
      </trkpt>
      <trkpt lat="47.9929" lon="6.70446">
        <ele>539.44</ele>
        <time>2013-05-20T10:31:59Z</time>
      </trkpt>
      <trkpt lat="47.99303" lon="6.70478">
        <ele>537.03</ele>
        <time>2013-05-20T10:32:06Z</time>
      </trkpt>
      <trkpt lat="47.99311" lon="6.70501">
        <ele>535.11</ele>
        <time>2013-05-20T10:32:10Z</time>
      </trkpt>
      <trkpt lat="47.99312" lon="6.70516">
        <ele>534.15</ele>
        <time>2013-05-20T10:32:13Z</time>
      </trkpt>
      <trkpt lat="47.99313" lon="6.70538">
        <ele>532.71</ele>
        <time>2013-05-20T10:32:16Z</time>
      </trkpt>
      <trkpt lat="47.99315" lon="6.70553">
        <ele>531.75</ele>
        <time>2013-05-20T10:32:18Z</time>
      </trkpt>
      <trkpt lat="47.9932" lon="6.70572">
        <ele>529.34</ele>
        <time>2013-05-20T10:32:21Z</time>
      </trkpt>
      <trkpt lat="47.99326" lon="6.70604">
        <ele>526.46</ele>
        <time>2013-05-20T10:32:28Z</time>
      </trkpt>
      <trkpt lat="47.99342" lon="6.70619">
        <ele>523.09</ele>
        <time>2013-05-20T10:32:32Z</time>
      </trkpt>
      <trkpt lat="47.99367" lon="6.70622">
        <ele>520.69</ele>
        <time>2013-05-20T10:32:37Z</time>
      </trkpt>
      <trkpt lat="47.99377" lon="6.70652">
        <ele>516.85</ele>
        <time>2013-05-20T10:32:44Z</time>
      </trkpt>
      <trkpt lat="47.99378" lon="6.70659">
        <ele>516.37</ele>
        <time>2013-05-20T10:32:46Z</time>
      </trkpt>
      <trkpt lat="47.99378" lon="6.70668">
        <ele>515.4</ele>
        <time>2013-05-20T10:32:48Z</time>
      </trkpt>
      <trkpt lat="47.99392" lon="6.7069">
        <ele>511.56</ele>
        <time>2013-05-20T10:32:57Z</time>
      </trkpt>
      <trkpt lat="47.99404" lon="6.70689">
        <ele>510.6</ele>
        <time>2013-05-20T10:33:01Z</time>
      </trkpt>
      <trkpt lat="47.9943" lon="6.70672">
        <ele>506.75</ele>
        <time>2013-05-20T10:33:11Z</time>
      </trkpt>
      <trkpt lat="47.99445" lon="6.7066">
        <ele>502.91</ele>
        <time>2013-05-20T10:33:16Z</time>
      </trkpt>
      <trkpt lat="47.99449" lon="6.70657">
        <ele>502.43</ele>
        <time>2013-05-20T10:33:17Z</time>
      </trkpt>
      <trkpt lat="47.99464" lon="6.70639">
        <ele>499.06</ele>
        <time>2013-05-20T10:33:25Z</time>
      </trkpt>
      <trkpt lat="47.99466" lon="6.70636">
        <ele>499.06</ele>
        <time>2013-05-20T10:33:26Z</time>
      </trkpt>
      <trkpt lat="47.99472" lon="6.70631">
        <ele>497.14</ele>
        <time>2013-05-20T10:33:31Z</time>
      </trkpt>
      <trkpt lat="47.99481" lon="6.70622">
        <ele>493.29</ele>
        <time>2013-05-20T10:33:38Z</time>
      </trkpt>
      <trkpt lat="47.99506" lon="6.70596">
        <ele>492.33</ele>
        <time>2013-05-20T10:33:56Z</time>
      </trkpt>
      <trkpt lat="47.99518" lon="6.70602">
        <ele>490.41</ele>
        <time>2013-05-20T10:34:03Z</time>
      </trkpt>
      <trkpt lat="47.9953" lon="6.70616">
        <ele>488.49</ele>
        <time>2013-05-20T10:34:16Z</time>
      </trkpt>
      <trkpt lat="47.99541" lon="6.70618">
        <ele>486.56</ele>
        <time>2013-05-20T10:34:29Z</time>
      </trkpt>
      <trkpt lat="47.99549" lon="6.70615">
        <ele>485.6</ele>
        <time>2013-05-20T10:34:37Z</time>
      </trkpt>
      <trkpt lat="47.99558" lon="6.70614">
        <ele>482.24</ele>
        <time>2013-05-20T10:34:49Z</time>
      </trkpt>
      <trkpt lat="47.99569" lon="6.7061">
        <ele>480.32</ele>
        <time>2013-05-20T10:35:00Z</time>
      </trkpt>
      <trkpt lat="47.99586" lon="6.70603">
        <ele>476.95</ele>
        <time>2013-05-20T10:35:14Z</time>
      </trkpt>
      <trkpt lat="47.99593" lon="6.70601">
        <ele>476.47</ele>
        <time>2013-05-20T10:35:24Z</time>
      </trkpt>
      <trkpt lat="47.99592" lon="6.70611">
        <ele>475.99</ele>
        <time>2013-05-20T10:35:29Z</time>
      </trkpt>
      <trkpt lat="47.99595" lon="6.70614">
        <ele>475.51</ele>
        <time>2013-05-20T10:35:31Z</time>
      </trkpt>
      <trkpt lat="47.99611" lon="6.70613">
        <ele>473.11</ele>
        <time>2013-05-20T10:35:39Z</time>
      </trkpt>
      <trkpt lat="47.99614" lon="6.70624">
        <ele>472.14</ele>
        <time>2013-05-20T10:35:43Z</time>
      </trkpt>
      <trkpt lat="47.99618" lon="6.70631">
        <ele>471.66</ele>
        <time>2013-05-20T10:35:45Z</time>
      </trkpt>
      <trkpt lat="47.99626" lon="6.7064">
        <ele>470.7</ele>
        <time>2013-05-20T10:35:49Z</time>
      </trkpt>
      <trkpt lat="47.99628" lon="6.7064">
        <ele>469.74</ele>
        <time>2013-05-20T10:35:50Z</time>
      </trkpt>
      <trkpt lat="47.9963" lon="6.7064">
        <ele>470.22</ele>
        <time>2013-05-20T10:35:51Z</time>
      </trkpt>
      <trkpt lat="47.99631" lon="6.7064">
        <ele>470.22</ele>
        <time>2013-05-20T10:35:52Z</time>
      </trkpt>
      <trkpt lat="47.99639" lon="6.70637">
        <ele>469.26</ele>
        <time>2013-05-20T10:36:04Z</time>
      </trkpt>
      <trkpt lat="47.99646" lon="6.7064">
        <ele>466.86</ele>
        <time>2013-05-20T10:36:18Z</time>
      </trkpt>
      <trkpt lat="47.99646" lon="6.70637">
        <ele>466.38</ele>
        <time>2013-05-20T10:36:25Z</time>
      </trkpt>
      <trkpt lat="47.99647" lon="6.70634">
        <ele>467.34</ele>
        <time>2013-05-20T10:36:27Z</time>
      </trkpt>
      <trkpt lat="47.99655" lon="6.7064">
        <ele>466.38</ele>
        <time>2013-05-20T10:36:36Z</time>
      </trkpt>
      <trkpt lat="47.99661" lon="6.70639">
        <ele>464.93</ele>
        <time>2013-05-20T10:36:41Z</time>
      </trkpt>
      <trkpt lat="47.99668" lon="6.70634">
        <ele>464.93</ele>
        <time>2013-05-20T10:36:47Z</time>
      </trkpt>
      <trkpt lat="47.99679" lon="6.70625">
        <ele>463.97</ele>
        <time>2013-05-20T10:36:59Z</time>
      </trkpt>
      <trkpt lat="47.99693" lon="6.70627">
        <ele>463.01</ele>
        <time>2013-05-20T10:37:12Z</time>
      </trkpt>
      <trkpt lat="47.99705" lon="6.70628">
        <ele>461.09</ele>
        <time>2013-05-20T10:37:24Z</time>
      </trkpt>
      <trkpt lat="47.99708" lon="6.7063">
        <ele>461.57</ele>
        <time>2013-05-20T10:37:28Z</time>
      </trkpt>
      <trkpt lat="47.99716" lon="6.70631">
        <ele>459.65</ele>
        <time>2013-05-20T10:37:33Z</time>
      </trkpt>
      <trkpt lat="47.99726" lon="6.7063">
        <ele>458.21</ele>
        <time>2013-05-20T10:37:37Z</time>
      </trkpt>
      <trkpt lat="47.99729" lon="6.70627">
        <ele>457.72</ele>
        <time>2013-05-20T10:37:38Z</time>
      </trkpt>
      <trkpt lat="47.99732" lon="6.70626">
        <ele>456.76</ele>
        <time>2013-05-20T10:37:39Z</time>
      </trkpt>
      <trkpt lat="47.99752" lon="6.70626">
        <ele>453.4</ele>
        <time>2013-05-20T10:37:46Z</time>
      </trkpt>
      <trkpt lat="47.99765" lon="6.70613">
        <ele>452.44</ele>
        <time>2013-05-20T10:37:49Z</time>
      </trkpt>
      <trkpt lat="47.99771" lon="6.70604">
        <ele>451.48</ele>
        <time>2013-05-20T10:37:50Z</time>
      </trkpt>
      <trkpt lat="47.99776" lon="6.70597">
        <ele>450.52</ele>
        <time>2013-05-20T10:37:51Z</time>
      </trkpt>
      <trkpt lat="47.99779" lon="6.70591">
        <ele>450.52</ele>
        <time>2013-05-20T10:37:52Z</time>
      </trkpt>
      <trkpt lat="47.99781" lon="6.70585">
        <ele>450.03</ele>
        <time>2013-05-20T10:37:53Z</time>
      </trkpt>
      <trkpt lat="47.99783" lon="6.70579">
        <ele>449.07</ele>
        <time>2013-05-20T10:37:54Z</time>
      </trkpt>
      <trkpt lat="47.99786" lon="6.70572">
        <ele>447.63</ele>
        <time>2013-05-20T10:37:56Z</time>
      </trkpt>
      <trkpt lat="47.99801" lon="6.70548">
        <ele>446.19</ele>
        <time>2013-05-20T10:38:03Z</time>
      </trkpt>
      <trkpt lat="47.99805" lon="6.70547">
        <ele>446.19</ele>
        <time>2013-05-20T10:38:06Z</time>
      </trkpt>
      <trkpt lat="47.99808" lon="6.70542">
        <ele>445.71</ele>
        <time>2013-05-20T10:38:10Z</time>
      </trkpt>
      <trkpt lat="47.99809" lon="6.70541">
        <ele>446.19</ele>
        <time>2013-05-20T10:38:11Z</time>
      </trkpt>
      <trkpt lat="47.99826" lon="6.70532">
        <ele>445.71</ele>
        <time>2013-05-20T10:38:19Z</time>
      </trkpt>
      <trkpt lat="47.99828" lon="6.70532">
        <ele>445.23</ele>
        <time>2013-05-20T10:38:20Z</time>
      </trkpt>
      <trkpt lat="47.9983" lon="6.70532">
        <ele>445.71</ele>
        <time>2013-05-20T10:38:21Z</time>
      </trkpt>
      <trkpt lat="47.99832" lon="6.70532">
        <ele>445.71</ele>
        <time>2013-05-20T10:38:22Z</time>
      </trkpt>
      <trkpt lat="47.99834" lon="6.70531">
        <ele>445.23</ele>
        <time>2013-05-20T10:38:23Z</time>
      </trkpt>
      <trkpt lat="47.99835" lon="6.7053">
        <ele>445.23</ele>
        <time>2013-05-20T10:38:24Z</time>
      </trkpt>
      <trkpt lat="47.99837" lon="6.70528">
        <ele>445.23</ele>
        <time>2013-05-20T10:38:25Z</time>
      </trkpt>
      <trkpt lat="47.99857" lon="6.70521">
        <ele>442.82</ele>
        <time>2013-05-20T10:38:33Z</time>
      </trkpt>
      <trkpt lat="47.99869" lon="6.70517">
        <ele>442.34</ele>
        <time>2013-05-20T10:38:37Z</time>
      </trkpt>
      <trkpt lat="47.99873" lon="6.70516">
        <ele>440.9</ele>
        <time>2013-05-20T10:38:39Z</time>
      </trkpt>
      <trkpt lat="47.99876" lon="6.70513">
        <ele>440.9</ele>
        <time>2013-05-20T10:38:40Z</time>
      </trkpt>
      <trkpt lat="47.99879" lon="6.7051">
        <ele>439.94</ele>
        <time>2013-05-20T10:38:41Z</time>
      </trkpt>
      <trkpt lat="47.99883" lon="6.70508">
        <ele>440.42</ele>
        <time>2013-05-20T10:38:42Z</time>
      </trkpt>
      <trkpt lat="47.99886" lon="6.70507">
        <ele>438.98</ele>
        <time>2013-05-20T10:38:43Z</time>
      </trkpt>
      <trkpt lat="47.99892" lon="6.705">
        <ele>437.54</ele>
        <time>2013-05-20T10:38:46Z</time>
      </trkpt>
      <trkpt lat="47.99893" lon="6.70496">
        <ele>437.54</ele>
        <time>2013-05-20T10:38:47Z</time>
      </trkpt>
      <trkpt lat="47.99901" lon="6.70476">
        <ele>438.02</ele>
        <time>2013-05-20T10:38:52Z</time>
      </trkpt>
      <trkpt lat="47.99903" lon="6.70476">
        <ele>438.02</ele>
        <time>2013-05-20T10:38:53Z</time>
      </trkpt>
      <trkpt lat="47.99907" lon="6.70477">
        <ele>437.54</ele>
        <time>2013-05-20T10:38:55Z</time>
      </trkpt>
      <trkpt lat="47.9991" lon="6.70476">
        <ele>437.54</ele>
        <time>2013-05-20T10:38:56Z</time>
      </trkpt>
      <trkpt lat="47.99914" lon="6.70475">
        <ele>437.06</ele>
        <time>2013-05-20T10:38:57Z</time>
      </trkpt>
      <trkpt lat="47.99918" lon="6.70473">
        <ele>437.54</ele>
        <time>2013-05-20T10:38:58Z</time>
      </trkpt>
      <trkpt lat="47.99937" lon="6.70463">
        <ele>435.13</ele>
        <time>2013-05-20T10:39:02Z</time>
      </trkpt>
      <trkpt lat="47.99946" lon="6.70461">
        <ele>433.69</ele>
        <time>2013-05-20T10:39:04Z</time>
      </trkpt>
      <trkpt lat="47.99951" lon="6.7046">
        <ele>432.25</ele>
        <time>2013-05-20T10:39:05Z</time>
      </trkpt>
      <trkpt lat="47.99956" lon="6.70459">
        <ele>429.37</ele>
        <time>2013-05-20T10:39:06Z</time>
      </trkpt>
      <trkpt lat="47.99974" lon="6.7045">
        <ele>428.4</ele>
        <time>2013-05-20T10:39:08Z</time>
      </trkpt>
      <trkpt lat="47.99981" lon="6.70447">
        <ele>427.44</ele>
        <time>2013-05-20T10:39:09Z</time>
      </trkpt>
      <trkpt lat="47.99986" lon="6.70447">
        <ele>427.92</ele>
        <time>2013-05-20T10:39:10Z</time>
      </trkpt>
      <trkpt lat="47.99991" lon="6.70445">
        <ele>426.96</ele>
        <time>2013-05-20T10:39:11Z</time>
      </trkpt>
      <trkpt lat="47.99994" lon="6.70446">
        <ele>428.4</ele>
        <time>2013-05-20T10:39:12Z</time>
      </trkpt>
      <trkpt lat="48.00014" lon="6.70445">
        <ele>426.48</ele>
        <time>2013-05-20T10:39:15Z</time>
      </trkpt>
      <trkpt lat="48.00019" lon="6.70446">
        <ele>426</ele>
        <time>2013-05-20T10:39:16Z</time>
      </trkpt>
      <trkpt lat="48.00024" lon="6.70446">
        <ele>426</ele>
        <time>2013-05-20T10:39:17Z</time>
      </trkpt>
      <trkpt lat="48.0003" lon="6.70446">
        <ele>426</ele>
        <time>2013-05-20T10:39:18Z</time>
      </trkpt>
      <trkpt lat="48.00034" lon="6.70447">
        <ele>426</ele>
        <time>2013-05-20T10:39:19Z</time>
      </trkpt>
      <trkpt lat="48.00038" lon="6.70449">
        <ele>426</ele>
        <time>2013-05-20T10:39:20Z</time>
      </trkpt>
      <trkpt lat="48.00041" lon="6.7045">
        <ele>425.04</ele>
        <time>2013-05-20T10:39:21Z</time>
      </trkpt>
      <trkpt lat="48.00046" lon="6.70452">
        <ele>425.52</ele>
        <time>2013-05-20T10:39:22Z</time>
      </trkpt>
      <trkpt lat="48.00049" lon="6.70452">
        <ele>425.52</ele>
        <time>2013-05-20T10:39:23Z</time>
      </trkpt>
      <trkpt lat="48.00066" lon="6.7044">
        <ele>418.79</ele>
        <time>2013-05-20T10:39:30Z</time>
      </trkpt>
      <trkpt lat="48.00072" lon="6.70434">
        <ele>417.83</ele>
        <time>2013-05-20T10:39:32Z</time>
      </trkpt>
      <trkpt lat="48.00112" lon="6.70415">
        <ele>417.35</ele>
        <time>2013-05-20T10:39:44Z</time>
      </trkpt>
      <trkpt lat="48.00153" lon="6.7039">
        <ele>417.35</ele>
        <time>2013-05-20T10:39:55Z</time>
      </trkpt>
      <trkpt lat="48.0018" lon="6.70382">
        <ele>416.87</ele>
        <time>2013-05-20T10:40:01Z</time>
      </trkpt>
      <trkpt lat="48.00228" lon="6.70387">
        <ele>416.87</ele>
        <time>2013-05-20T10:40:12Z</time>
      </trkpt>
      <trkpt lat="48.00265" lon="6.70386">
        <ele>417.83</ele>
        <time>2013-05-20T10:40:19Z</time>
      </trkpt>
      <trkpt lat="48.0027" lon="6.70386">
        <ele>416.87</ele>
        <time>2013-05-20T10:40:20Z</time>
      </trkpt>
      <trkpt lat="48.00298" lon="6.70386">
        <ele>420.23</ele>
        <time>2013-05-20T10:40:26Z</time>
      </trkpt>
      <trkpt lat="48.00315" lon="6.70389">
        <ele>417.35</ele>
        <time>2013-05-20T10:40:30Z</time>
      </trkpt>
      <trkpt lat="48.00324" lon="6.7039">
        <ele>416.39</ele>
        <time>2013-05-20T10:40:32Z</time>
      </trkpt>
      <trkpt lat="48.004" lon="6.70408">
        <ele>415.43</ele>
        <time>2013-05-20T10:40:48Z</time>
      </trkpt>
      <trkpt lat="48.00477" lon="6.70409">
        <ele>416.39</ele>
        <time>2013-05-20T10:41:02Z</time>
      </trkpt>
      <trkpt lat="48.00549" lon="6.70393">
        <ele>415.91</ele>
        <time>2013-05-20T10:41:15Z</time>
      </trkpt>
      <trkpt lat="48.00604" lon="6.70364">
        <ele>416.39</ele>
        <time>2013-05-20T10:41:31Z</time>
      </trkpt>
      <trkpt lat="48.00609" lon="6.70365">
        <ele>416.87</ele>
        <time>2013-05-20T10:41:34Z</time>
      </trkpt>
      <trkpt lat="48.00611" lon="6.70366">
        <ele>416.39</ele>
        <time>2013-05-20T10:41:35Z</time>
      </trkpt>
      <trkpt lat="48.00612" lon="6.70366">
        <ele>416.87</ele>
        <time>2013-05-20T10:41:36Z</time>
      </trkpt>
      <trkpt lat="48.00614" lon="6.70366">
        <ele>416.87</ele>
        <time>2013-05-20T10:41:37Z</time>
      </trkpt>
      <trkpt lat="48.00615" lon="6.70366">
        <ele>416.87</ele>
        <time>2013-05-20T10:41:38Z</time>
      </trkpt>
      <trkpt lat="48.00617" lon="6.70366">
        <ele>416.39</ele>
        <time>2013-05-20T10:41:39Z</time>
      </trkpt>
      <trkpt lat="48.00641" lon="6.70374">
        <ele>416.39</ele>
        <time>2013-05-20T10:41:51Z</time>
      </trkpt>
      <trkpt lat="48.00641" lon="6.70375">
        <ele>415.91</ele>
        <time>2013-05-20T10:41:52Z</time>
      </trkpt>
      <trkpt lat="48.00642" lon="6.70377">
        <ele>415.43</ele>
        <time>2013-05-20T10:41:53Z</time>
      </trkpt>
      <trkpt lat="48.00644" lon="6.70379">
        <ele>415.91</ele>
        <time>2013-05-20T10:41:54Z</time>
      </trkpt>
      <trkpt lat="48.00646" lon="6.7038">
        <ele>416.39</ele>
        <time>2013-05-20T10:41:55Z</time>
      </trkpt>
      <trkpt lat="48.00648" lon="6.70382">
        <ele>416.39</ele>
        <time>2013-05-20T10:41:56Z</time>
      </trkpt>
      <trkpt lat="48.00651" lon="6.70384">
        <ele>416.39</ele>
        <time>2013-05-20T10:41:57Z</time>
      </trkpt>
      <trkpt lat="48.00654" lon="6.70385">
        <ele>416.39</ele>
        <time>2013-05-20T10:41:58Z</time>
      </trkpt>
      <trkpt lat="48.00657" lon="6.70385">
        <ele>416.39</ele>
        <time>2013-05-20T10:41:59Z</time>
      </trkpt>
      <trkpt lat="48.0066" lon="6.70384">
        <ele>415.43</ele>
        <time>2013-05-20T10:42:00Z</time>
      </trkpt>
      <trkpt lat="48.00663" lon="6.70382">
        <ele>415.91</ele>
        <time>2013-05-20T10:42:01Z</time>
      </trkpt>
      <trkpt lat="48.00667" lon="6.70382">
        <ele>415.91</ele>
        <time>2013-05-20T10:42:02Z</time>
      </trkpt>
      <trkpt lat="48.00671" lon="6.70381">
        <ele>416.39</ele>
        <time>2013-05-20T10:42:03Z</time>
      </trkpt>
      <trkpt lat="48.00742" lon="6.70366">
        <ele>416.39</ele>
        <time>2013-05-20T10:42:18Z</time>
      </trkpt>
      <trkpt lat="48.00828" lon="6.7035">
        <ele>414.95</ele>
        <time>2013-05-20T10:42:35Z</time>
      </trkpt>
      <trkpt lat="48.0089" lon="6.70337">
        <ele>415.91</ele>
        <time>2013-05-20T10:42:47Z</time>
      </trkpt>
      <trkpt lat="48.00988" lon="6.70315">
        <ele>414.95</ele>
        <time>2013-05-20T10:43:05Z</time>
      </trkpt>
      <trkpt lat="48.01102" lon="6.7028">
        <ele>413.02</ele>
        <time>2013-05-20T10:43:23Z</time>
      </trkpt>
      <trkpt lat="48.01203" lon="6.7024">
        <ele>412.06</ele>
        <time>2013-05-20T10:43:40Z</time>
      </trkpt>
      <trkpt lat="48.0124" lon="6.70224">
        <ele>411.58</ele>
        <time>2013-05-20T10:43:47Z</time>
      </trkpt>
      <trkpt lat="48.01245" lon="6.70221">
        <ele>411.1</ele>
        <time>2013-05-20T10:43:48Z</time>
      </trkpt>
      <trkpt lat="48.0133" lon="6.70187">
        <ele>412.06</ele>
        <time>2013-05-20T10:44:03Z</time>
      </trkpt>
      <trkpt lat="48.01336" lon="6.70184">
        <ele>412.06</ele>
        <time>2013-05-20T10:44:04Z</time>
      </trkpt>
      <trkpt lat="48.01429" lon="6.70113">
        <ele>410.62</ele>
        <time>2013-05-20T10:44:22Z</time>
      </trkpt>
      <trkpt lat="48.01464" lon="6.70069">
        <ele>411.58</ele>
        <time>2013-05-20T10:44:30Z</time>
      </trkpt>
      <trkpt lat="48.01511" lon="6.69989">
        <ele>409.66</ele>
        <time>2013-05-20T10:44:42Z</time>
      </trkpt>
      <trkpt lat="48.01561" lon="6.69839">
        <ele>408.7</ele>
        <time>2013-05-20T10:45:01Z</time>
      </trkpt>
      <trkpt lat="48.01583" lon="6.69707">
        <ele>408.7</ele>
        <time>2013-05-20T10:45:16Z</time>
      </trkpt>
      <trkpt lat="48.01601" lon="6.69558">
        <ele>408.22</ele>
        <time>2013-05-20T10:45:33Z</time>
      </trkpt>
      <trkpt lat="48.01609" lon="6.69505">
        <ele>407.26</ele>
        <time>2013-05-20T10:45:39Z</time>
      </trkpt>
      <trkpt lat="48.01637" lon="6.69306">
        <ele>406.77</ele>
        <time>2013-05-20T10:46:02Z</time>
      </trkpt>
      <trkpt lat="48.01647" lon="6.6925">
        <ele>407.26</ele>
        <time>2013-05-20T10:46:09Z</time>
      </trkpt>
      <trkpt lat="48.0165" lon="6.69236">
        <ele>406.77</ele>
        <time>2013-05-20T10:46:11Z</time>
      </trkpt>
      <trkpt lat="48.0165" lon="6.69228">
        <ele>406.77</ele>
        <time>2013-05-20T10:46:12Z</time>
      </trkpt>
      <trkpt lat="48.0165" lon="6.69222">
        <ele>406.77</ele>
        <time>2013-05-20T10:46:13Z</time>
      </trkpt>
      <trkpt lat="48.01651" lon="6.69216">
        <ele>407.26</ele>
        <time>2013-05-20T10:46:14Z</time>
      </trkpt>
      <trkpt lat="48.01652" lon="6.6921">
        <ele>407.26</ele>
        <time>2013-05-20T10:46:15Z</time>
      </trkpt>
      <trkpt lat="48.01654" lon="6.69198">
        <ele>407.26</ele>
        <time>2013-05-20T10:46:17Z</time>
      </trkpt>
      <trkpt lat="48.01656" lon="6.69193">
        <ele>407.26</ele>
        <time>2013-05-20T10:46:18Z</time>
      </trkpt>
      <trkpt lat="48.01656" lon="6.69187">
        <ele>407.26</ele>
        <time>2013-05-20T10:46:19Z</time>
      </trkpt>
      <trkpt lat="48.01656" lon="6.69182">
        <ele>406.77</ele>
        <time>2013-05-20T10:46:20Z</time>
      </trkpt>
      <trkpt lat="48.01656" lon="6.69177">
        <ele>407.26</ele>
        <time>2013-05-20T10:46:21Z</time>
      </trkpt>
      <trkpt lat="48.01657" lon="6.69171">
        <ele>406.29</ele>
        <time>2013-05-20T10:46:22Z</time>
      </trkpt>
      <trkpt lat="48.01657" lon="6.69165">
        <ele>406.29</ele>
        <time>2013-05-20T10:46:23Z</time>
      </trkpt>
      <trkpt lat="48.01665" lon="6.69113">
        <ele>405.81</ele>
        <time>2013-05-20T10:46:32Z</time>
      </trkpt>
      <trkpt lat="48.01666" lon="6.69101">
        <ele>406.29</ele>
        <time>2013-05-20T10:46:34Z</time>
      </trkpt>
      <trkpt lat="48.01669" lon="6.69087">
        <ele>406.77</ele>
        <time>2013-05-20T10:46:36Z</time>
      </trkpt>
      <trkpt lat="48.01674" lon="6.69048">
        <ele>405.33</ele>
        <time>2013-05-20T10:46:41Z</time>
      </trkpt>
      <trkpt lat="48.01676" lon="6.69032">
        <ele>406.77</ele>
        <time>2013-05-20T10:46:43Z</time>
      </trkpt>
      <trkpt lat="48.01697" lon="6.68891">
        <ele>406.29</ele>
        <time>2013-05-20T10:46:59Z</time>
      </trkpt>
      <trkpt lat="48.01705" lon="6.6883">
        <ele>406.29</ele>
        <time>2013-05-20T10:47:06Z</time>
      </trkpt>
      <trkpt lat="48.01726" lon="6.68689">
        <ele>404.85</ele>
        <time>2013-05-20T10:47:23Z</time>
      </trkpt>
      <trkpt lat="48.01734" lon="6.68655">
        <ele>405.33</ele>
        <time>2013-05-20T10:47:28Z</time>
      </trkpt>
      <trkpt lat="48.01733" lon="6.68643">
        <ele>403.89</ele>
        <time>2013-05-20T10:47:30Z</time>
      </trkpt>
      <trkpt lat="48.01734" lon="6.68632">
        <ele>404.85</ele>
        <time>2013-05-20T10:47:32Z</time>
      </trkpt>
      <trkpt lat="48.01736" lon="6.68626">
        <ele>405.33</ele>
        <time>2013-05-20T10:47:33Z</time>
      </trkpt>
      <trkpt lat="48.01738" lon="6.68621">
        <ele>405.33</ele>
        <time>2013-05-20T10:47:34Z</time>
      </trkpt>
      <trkpt lat="48.01739" lon="6.68616">
        <ele>404.85</ele>
        <time>2013-05-20T10:47:35Z</time>
      </trkpt>
      <trkpt lat="48.01739" lon="6.6861">
        <ele>404.85</ele>
        <time>2013-05-20T10:47:36Z</time>
      </trkpt>
      <trkpt lat="48.0174" lon="6.68589">
        <ele>406.77</ele>
        <time>2013-05-20T10:47:40Z</time>
      </trkpt>
      <trkpt lat="48.01749" lon="6.68527">
        <ele>402.93</ele>
        <time>2013-05-20T10:47:50Z</time>
      </trkpt>
      <trkpt lat="48.01764" lon="6.68428">
        <ele>405.33</ele>
        <time>2013-05-20T10:48:03Z</time>
      </trkpt>
      <trkpt lat="48.01785" lon="6.6828">
        <ele>406.29</ele>
        <time>2013-05-20T10:48:20Z</time>
      </trkpt>
      <trkpt lat="48.01785" lon="6.68128">
        <ele>405.81</ele>
        <time>2013-05-20T10:48:39Z</time>
      </trkpt>
      <trkpt lat="48.01762" lon="6.67991">
        <ele>404.37</ele>
        <time>2013-05-20T10:48:57Z</time>
      </trkpt>
      <trkpt lat="48.01737" lon="6.67866">
        <ele>405.81</ele>
        <time>2013-05-20T10:49:14Z</time>
      </trkpt>
      <trkpt lat="48.01708" lon="6.67732">
        <ele>405.33</ele>
        <time>2013-05-20T10:49:32Z</time>
      </trkpt>
      <trkpt lat="48.01684" lon="6.67591">
        <ele>403.89</ele>
        <time>2013-05-20T10:49:51Z</time>
      </trkpt>
      <trkpt lat="48.01678" lon="6.67501">
        <ele>402.93</ele>
        <time>2013-05-20T10:50:03Z</time>
      </trkpt>
      <trkpt lat="48.01679" lon="6.67494">
        <ele>403.89</ele>
        <time>2013-05-20T10:50:04Z</time>
      </trkpt>
      <trkpt lat="48.01679" lon="6.67486">
        <ele>404.85</ele>
        <time>2013-05-20T10:50:05Z</time>
      </trkpt>
      <trkpt lat="48.0168" lon="6.67479">
        <ele>406.29</ele>
        <time>2013-05-20T10:50:06Z</time>
      </trkpt>
      <trkpt lat="48.0168" lon="6.67472">
        <ele>404.85</ele>
        <time>2013-05-20T10:50:07Z</time>
      </trkpt>
      <trkpt lat="48.01681" lon="6.67465">
        <ele>404.85</ele>
        <time>2013-05-20T10:50:08Z</time>
      </trkpt>
      <trkpt lat="48.01691" lon="6.67338">
        <ele>405.81</ele>
        <time>2013-05-20T10:50:25Z</time>
      </trkpt>
      <trkpt lat="48.01693" lon="6.67267">
        <ele>405.81</ele>
        <time>2013-05-20T10:50:35Z</time>
      </trkpt>
      <trkpt lat="48.01692" lon="6.6726">
        <ele>406.29</ele>
        <time>2013-05-20T10:50:36Z</time>
      </trkpt>
      <trkpt lat="48.01689" lon="6.67214">
        <ele>406.29</ele>
        <time>2013-05-20T10:50:43Z</time>
      </trkpt>
      <trkpt lat="48.01689" lon="6.67208">
        <ele>406.77</ele>
        <time>2013-05-20T10:50:44Z</time>
      </trkpt>
      <trkpt lat="48.01689" lon="6.67202">
        <ele>406.77</ele>
        <time>2013-05-20T10:50:45Z</time>
      </trkpt>
      <trkpt lat="48.01688" lon="6.67197">
        <ele>407.26</ele>
        <time>2013-05-20T10:50:46Z</time>
      </trkpt>
      <trkpt lat="48.01685" lon="6.67192">
        <ele>406.77</ele>
        <time>2013-05-20T10:50:47Z</time>
      </trkpt>
      <trkpt lat="48.01683" lon="6.67187">
        <ele>406.29</ele>
        <time>2013-05-20T10:50:48Z</time>
      </trkpt>
      <trkpt lat="48.01681" lon="6.67182">
        <ele>406.29</ele>
        <time>2013-05-20T10:50:49Z</time>
      </trkpt>
      <trkpt lat="48.01678" lon="6.67177">
        <ele>406.77</ele>
        <time>2013-05-20T10:50:50Z</time>
      </trkpt>
      <trkpt lat="48.01675" lon="6.67172">
        <ele>406.77</ele>
        <time>2013-05-20T10:50:51Z</time>
      </trkpt>
      <trkpt lat="48.01673" lon="6.67168">
        <ele>405.81</ele>
        <time>2013-05-20T10:50:52Z</time>
      </trkpt>
      <trkpt lat="48.01671" lon="6.67163">
        <ele>406.77</ele>
        <time>2013-05-20T10:50:53Z</time>
      </trkpt>
      <trkpt lat="48.0167" lon="6.67157">
        <ele>407.26</ele>
        <time>2013-05-20T10:50:54Z</time>
      </trkpt>
      <trkpt lat="48.01669" lon="6.67152">
        <ele>406.29</ele>
        <time>2013-05-20T10:50:55Z</time>
      </trkpt>
      <trkpt lat="48.01668" lon="6.67146">
        <ele>405.33</ele>
        <time>2013-05-20T10:50:56Z</time>
      </trkpt>
      <trkpt lat="48.01666" lon="6.6714">
        <ele>406.77</ele>
        <time>2013-05-20T10:50:57Z</time>
      </trkpt>
      <trkpt lat="48.01632" lon="6.67011">
        <ele>406.29</ele>
        <time>2013-05-20T10:51:18Z</time>
      </trkpt>
      <trkpt lat="48.01582" lon="6.66901">
        <ele>406.77</ele>
        <time>2013-05-20T10:51:38Z</time>
      </trkpt>
      <trkpt lat="48.01563" lon="6.66851">
        <ele>407.26</ele>
        <time>2013-05-20T10:51:47Z</time>
      </trkpt>
      <trkpt lat="48.01546" lon="6.66815">
        <ele>405.81</ele>
        <time>2013-05-20T10:51:56Z</time>
      </trkpt>
      <trkpt lat="48.01543" lon="6.6681">
        <ele>405.33</ele>
        <time>2013-05-20T10:51:57Z</time>
      </trkpt>
      <trkpt lat="48.01542" lon="6.66804">
        <ele>405.33</ele>
        <time>2013-05-20T10:51:58Z</time>
      </trkpt>
      <trkpt lat="48.0154" lon="6.66799">
        <ele>405.33</ele>
        <time>2013-05-20T10:51:59Z</time>
      </trkpt>
      <trkpt lat="48.01538" lon="6.66793">
        <ele>405.33</ele>
        <time>2013-05-20T10:52:00Z</time>
      </trkpt>
      <trkpt lat="48.01536" lon="6.6679">
        <ele>405.33</ele>
        <time>2013-05-20T10:52:01Z</time>
      </trkpt>
      <trkpt lat="48.01533" lon="6.66787">
        <ele>404.85</ele>
        <time>2013-05-20T10:52:02Z</time>
      </trkpt>
      <trkpt lat="48.01505" lon="6.66727">
        <ele>405.81</ele>
        <time>2013-05-20T10:52:14Z</time>
      </trkpt>
      <trkpt lat="48.01477" lon="6.66675">
        <ele>405.33</ele>
        <time>2013-05-20T10:52:24Z</time>
      </trkpt>
      <trkpt lat="48.01474" lon="6.6667">
        <ele>404.85</ele>
        <time>2013-05-20T10:52:25Z</time>
      </trkpt>
      <trkpt lat="48.0146" lon="6.66643">
        <ele>403.41</ele>
        <time>2013-05-20T10:52:30Z</time>
      </trkpt>
      <trkpt lat="48.01415" lon="6.66543">
        <ele>402.45</ele>
        <time>2013-05-20T10:52:46Z</time>
      </trkpt>
      <trkpt lat="48.01407" lon="6.66521">
        <ele>401.49</ele>
        <time>2013-05-20T10:52:49Z</time>
      </trkpt>
      <trkpt lat="48.01405" lon="6.66513">
        <ele>402.45</ele>
        <time>2013-05-20T10:52:50Z</time>
      </trkpt>
      <trkpt lat="48.01379" lon="6.66408">
        <ele>403.41</ele>
        <time>2013-05-20T10:53:04Z</time>
      </trkpt>
      <trkpt lat="48.01346" lon="6.66243">
        <ele>404.37</ele>
        <time>2013-05-20T10:53:24Z</time>
      </trkpt>
      <trkpt lat="48.01317" lon="6.66136">
        <ele>405.81</ele>
        <time>2013-05-20T10:53:37Z</time>
      </trkpt>
      <trkpt lat="48.01312" lon="6.66122">
        <ele>404.85</ele>
        <time>2013-05-20T10:53:39Z</time>
      </trkpt>
      <trkpt lat="48.01283" lon="6.66059">
        <ele>404.85</ele>
        <time>2013-05-20T10:53:48Z</time>
      </trkpt>
      <trkpt lat="48.01218" lon="6.65961">
        <ele>404.37</ele>
        <time>2013-05-20T10:54:04Z</time>
      </trkpt>
      <trkpt lat="48.01166" lon="6.65914">
        <ele>401.49</ele>
        <time>2013-05-20T10:54:15Z</time>
      </trkpt>
      <trkpt lat="48.01137" lon="6.65895">
        <ele>401.97</ele>
        <time>2013-05-20T10:54:21Z</time>
      </trkpt>
      <trkpt lat="48.01091" lon="6.65871">
        <ele>399.57</ele>
        <time>2013-05-20T10:54:30Z</time>
      </trkpt>
      <trkpt lat="48.01071" lon="6.65861">
        <ele>401.49</ele>
        <time>2013-05-20T10:54:34Z</time>
      </trkpt>
      <trkpt lat="48.00987" lon="6.65816">
        <ele>400.05</ele>
        <time>2013-05-20T10:54:50Z</time>
      </trkpt>
      <trkpt lat="48.00908" lon="6.65776">
        <ele>400.53</ele>
        <time>2013-05-20T10:55:05Z</time>
      </trkpt>
      <trkpt lat="48.00835" lon="6.65734">
        <ele>402.45</ele>
        <time>2013-05-20T10:55:19Z</time>
      </trkpt>
      <trkpt lat="48.00776" lon="6.65684">
        <ele>403.41</ele>
        <time>2013-05-20T10:55:32Z</time>
      </trkpt>
      <trkpt lat="48.00755" lon="6.65664">
        <ele>402.93</ele>
        <time>2013-05-20T10:55:38Z</time>
      </trkpt>
      <trkpt lat="48.00753" lon="6.6566">
        <ele>402.93</ele>
        <time>2013-05-20T10:55:39Z</time>
      </trkpt>
      <trkpt lat="48.00751" lon="6.65657">
        <ele>402.45</ele>
        <time>2013-05-20T10:55:40Z</time>
      </trkpt>
      <trkpt lat="48.00748" lon="6.65655">
        <ele>402.93</ele>
        <time>2013-05-20T10:55:41Z</time>
      </trkpt>
      <trkpt lat="48.00745" lon="6.65652">
        <ele>402.93</ele>
        <time>2013-05-20T10:55:42Z</time>
      </trkpt>
      <trkpt lat="48.00742" lon="6.65649">
        <ele>402.93</ele>
        <time>2013-05-20T10:55:43Z</time>
      </trkpt>
      <trkpt lat="48.0074" lon="6.65646">
        <ele>403.41</ele>
        <time>2013-05-20T10:55:44Z</time>
      </trkpt>
      <trkpt lat="48.00737" lon="6.65643">
        <ele>402.93</ele>
        <time>2013-05-20T10:55:45Z</time>
      </trkpt>
      <trkpt lat="48.00735" lon="6.65639">
        <ele>402.45</ele>
        <time>2013-05-20T10:55:46Z</time>
      </trkpt>
      <trkpt lat="48.00732" lon="6.65636">
        <ele>402.93</ele>
        <time>2013-05-20T10:55:47Z</time>
      </trkpt>
      <trkpt lat="48.00729" lon="6.65633">
        <ele>403.41</ele>
        <time>2013-05-20T10:55:48Z</time>
      </trkpt>
      <trkpt lat="48.00726" lon="6.65629">
        <ele>403.41</ele>
        <time>2013-05-20T10:55:49Z</time>
      </trkpt>
      <trkpt lat="48.00723" lon="6.65626">
        <ele>403.89</ele>
        <time>2013-05-20T10:55:50Z</time>
      </trkpt>
      <trkpt lat="48.00678" lon="6.65551">
        <ele>404.85</ele>
        <time>2013-05-20T10:56:06Z</time>
      </trkpt>
      <trkpt lat="48.00628" lon="6.65443">
        <ele>405.81</ele>
        <time>2013-05-20T10:56:26Z</time>
      </trkpt>
      <trkpt lat="48.00603" lon="6.65356">
        <ele>406.77</ele>
        <time>2013-05-20T10:56:40Z</time>
      </trkpt>
      <trkpt lat="48.00601" lon="6.6535">
        <ele>405.81</ele>
        <time>2013-05-20T10:56:41Z</time>
      </trkpt>
      <trkpt lat="48.00582" lon="6.65283">
        <ele>403.89</ele>
        <time>2013-05-20T10:56:54Z</time>
      </trkpt>
      <trkpt lat="48.00579" lon="6.65269">
        <ele>403.89</ele>
        <time>2013-05-20T10:56:58Z</time>
      </trkpt>
      <trkpt lat="48.00579" lon="6.65265">
        <ele>403.41</ele>
        <time>2013-05-20T10:56:59Z</time>
      </trkpt>
      <trkpt lat="48.00578" lon="6.65262">
        <ele>403.89</ele>
        <time>2013-05-20T10:57:00Z</time>
      </trkpt>
      <trkpt lat="48.00575" lon="6.65255">
        <ele>403.89</ele>
        <time>2013-05-20T10:57:02Z</time>
      </trkpt>
      <trkpt lat="48.00561" lon="6.65184">
        <ele>403.89</ele>
        <time>2013-05-20T10:57:17Z</time>
      </trkpt>
      <trkpt lat="48.00542" lon="6.65106">
        <ele>404.85</ele>
        <time>2013-05-20T10:57:30Z</time>
      </trkpt>
      <trkpt lat="48.00537" lon="6.65088">
        <ele>403.89</ele>
        <time>2013-05-20T10:57:33Z</time>
      </trkpt>
      <trkpt lat="48.00509" lon="6.6497">
        <ele>402.45</ele>
        <time>2013-05-20T10:57:50Z</time>
      </trkpt>
      <trkpt lat="48.00472" lon="6.64821">
        <ele>406.29</ele>
        <time>2013-05-20T10:58:09Z</time>
      </trkpt>
      <trkpt lat="48.0047" lon="6.64813">
        <ele>406.77</ele>
        <time>2013-05-20T10:58:10Z</time>
      </trkpt>
      <trkpt lat="48.00462" lon="6.64785">
        <ele>403.41</ele>
        <time>2013-05-20T10:58:14Z</time>
      </trkpt>
      <trkpt lat="48.00448" lon="6.64729">
        <ele>401.49</ele>
        <time>2013-05-20T10:58:23Z</time>
      </trkpt>
      <trkpt lat="48.00448" lon="6.64725">
        <ele>401.49</ele>
        <time>2013-05-20T10:58:24Z</time>
      </trkpt>
      <trkpt lat="48.00446" lon="6.6472">
        <ele>401.97</ele>
        <time>2013-05-20T10:58:25Z</time>
      </trkpt>
      <trkpt lat="48.00438" lon="6.64687">
        <ele>401.97</ele>
        <time>2013-05-20T10:58:31Z</time>
      </trkpt>
      <trkpt lat="48.00408" lon="6.64566">
        <ele>401.01</ele>
        <time>2013-05-20T10:58:49Z</time>
      </trkpt>
      <trkpt lat="48.00404" lon="6.64552">
        <ele>403.89</ele>
        <time>2013-05-20T10:58:51Z</time>
      </trkpt>
      <trkpt lat="48.00403" lon="6.64545">
        <ele>402.93</ele>
        <time>2013-05-20T10:58:52Z</time>
      </trkpt>
      <trkpt lat="48.00384" lon="6.64473">
        <ele>403.41</ele>
        <time>2013-05-20T10:59:02Z</time>
      </trkpt>
      <trkpt lat="48.00361" lon="6.64375">
        <ele>402.45</ele>
        <time>2013-05-20T10:59:18Z</time>
      </trkpt>
      <trkpt lat="48.00361" lon="6.64371">
        <ele>401.01</ele>
        <time>2013-05-20T10:59:19Z</time>
      </trkpt>
      <trkpt lat="48.00359" lon="6.64368">
        <ele>401.49</ele>
        <time>2013-05-20T10:59:20Z</time>
      </trkpt>
      <trkpt lat="48.00358" lon="6.64364">
        <ele>401.49</ele>
        <time>2013-05-20T10:59:21Z</time>
      </trkpt>
      <trkpt lat="48.00356" lon="6.64361">
        <ele>401.01</ele>
        <time>2013-05-20T10:59:22Z</time>
      </trkpt>
      <trkpt lat="48.00353" lon="6.6436">
        <ele>401.01</ele>
        <time>2013-05-20T10:59:23Z</time>
      </trkpt>
      <trkpt lat="48.00351" lon="6.6436">
        <ele>400.53</ele>
        <time>2013-05-20T10:59:24Z</time>
      </trkpt>
      <trkpt lat="48.0035" lon="6.64361">
        <ele>400.05</ele>
        <time>2013-05-20T10:59:25Z</time>
      </trkpt>
      <trkpt lat="48.00346" lon="6.64359">
        <ele>401.49</ele>
        <time>2013-05-20T10:59:30Z</time>
      </trkpt>
      <trkpt lat="48.00345" lon="6.64358">
        <ele>401.49</ele>
        <time>2013-05-20T10:59:31Z</time>
      </trkpt>
      <trkpt lat="48.00346" lon="6.64357">
        <ele>401.97</ele>
        <time>2013-05-20T10:59:34Z</time>
      </trkpt>
      <trkpt lat="48.00348" lon="6.64366">
        <ele>401.01</ele>
        <time>2013-05-20T10:59:39Z</time>
      </trkpt>
      <trkpt lat="48.0034" lon="6.64409">
        <ele>399.57</ele>
        <time>2013-05-20T10:59:51Z</time>
      </trkpt>
      <trkpt lat="48.00309" lon="6.64495">
        <ele>400.53</ele>
        <time>2013-05-20T11:00:08Z</time>
      </trkpt>
      <trkpt lat="48.00277" lon="6.64565">
        <ele>400.05</ele>
        <time>2013-05-20T11:00:20Z</time>
      </trkpt>
      <trkpt lat="48.00274" lon="6.6457">
        <ele>399.57</ele>
        <time>2013-05-20T11:00:21Z</time>
      </trkpt>
      <trkpt lat="48.00269" lon="6.64574">
        <ele>399.57</ele>
        <time>2013-05-20T11:00:22Z</time>
      </trkpt>
      <trkpt lat="48.00265" lon="6.64577">
        <ele>400.05</ele>
        <time>2013-05-20T11:00:23Z</time>
      </trkpt>
      <trkpt lat="48.00261" lon="6.64578">
        <ele>399.08</ele>
        <time>2013-05-20T11:00:24Z</time>
      </trkpt>
      <trkpt lat="48.00256" lon="6.64578">
        <ele>399.57</ele>
        <time>2013-05-20T11:00:25Z</time>
      </trkpt>
      <trkpt lat="48.00251" lon="6.64576">
        <ele>399.08</ele>
        <time>2013-05-20T11:00:26Z</time>
      </trkpt>
      <trkpt lat="48.00237" lon="6.64572">
        <ele>399.08</ele>
        <time>2013-05-20T11:00:29Z</time>
      </trkpt>
      <trkpt lat="48.00233" lon="6.64571">
        <ele>399.08</ele>
        <time>2013-05-20T11:00:30Z</time>
      </trkpt>
      <trkpt lat="48.00165" lon="6.64548">
        <ele>398.6</ele>
        <time>2013-05-20T11:00:45Z</time>
      </trkpt>
      <trkpt lat="48.00142" lon="6.64541">
        <ele>398.12</ele>
        <time>2013-05-20T11:00:50Z</time>
      </trkpt>
      <trkpt lat="48.0011" lon="6.6453">
        <ele>397.16</ele>
        <time>2013-05-20T11:00:57Z</time>
      </trkpt>
      <trkpt lat="48.00066" lon="6.64513">
        <ele>398.12</ele>
        <time>2013-05-20T11:01:09Z</time>
      </trkpt>
      <trkpt lat="48.00065" lon="6.64512">
        <ele>397.16</ele>
        <time>2013-05-20T11:01:10Z</time>
      </trkpt>
      <trkpt lat="48.00065" lon="6.64509">
        <ele>398.12</ele>
        <time>2013-05-20T11:01:12Z</time>
      </trkpt>
      <trkpt lat="48.00067" lon="6.64509">
        <ele>398.12</ele>
        <time>2013-05-20T11:01:13Z</time>
      </trkpt>
      <trkpt lat="48.00069" lon="6.6451">
        <ele>398.12</ele>
        <time>2013-05-20T11:01:14Z</time>
      </trkpt>
      <trkpt lat="48.00071" lon="6.64509">
        <ele>398.12</ele>
        <time>2013-05-20T11:01:15Z</time>
      </trkpt>
      <trkpt lat="48.00073" lon="6.64506">
        <ele>397.64</ele>
        <time>2013-05-20T11:01:16Z</time>
      </trkpt>
      <trkpt lat="48.00074" lon="6.64501">
        <ele>398.6</ele>
        <time>2013-05-20T11:01:17Z</time>
      </trkpt>
      <trkpt lat="48.00075" lon="6.64496">
        <ele>398.12</ele>
        <time>2013-05-20T11:01:18Z</time>
      </trkpt>
      <trkpt lat="48.00076" lon="6.64489">
        <ele>398.6</ele>
        <time>2013-05-20T11:01:19Z</time>
      </trkpt>
      <trkpt lat="48.00076" lon="6.64483">
        <ele>398.6</ele>
        <time>2013-05-20T11:01:20Z</time>
      </trkpt>
      <trkpt lat="48.00077" lon="6.64359">
        <ele>399.08</ele>
        <time>2013-05-20T11:01:38Z</time>
      </trkpt>
      <trkpt lat="48.00079" lon="6.64241">
        <ele>399.08</ele>
        <time>2013-05-20T11:01:56Z</time>
      </trkpt>
      <trkpt lat="48.00077" lon="6.64118">
        <ele>399.57</ele>
        <time>2013-05-20T11:02:15Z</time>
      </trkpt>
      <trkpt lat="48.00072" lon="6.6406">
        <ele>399.08</ele>
        <time>2013-05-20T11:02:27Z</time>
      </trkpt>
      <trkpt lat="48.00069" lon="6.64057">
        <ele>399.57</ele>
        <time>2013-05-20T11:02:38Z</time>
      </trkpt>
      <trkpt lat="48.00068" lon="6.64058">
        <ele>400.05</ele>
        <time>2013-05-20T11:02:39Z</time>
      </trkpt>
      <trkpt lat="48.00067" lon="6.6406">
        <ele>400.05</ele>
        <time>2013-05-20T11:02:40Z</time>
      </trkpt>
      <trkpt lat="48.00046" lon="6.64103">
        <ele>399.57</ele>
        <time>2013-05-20T11:02:50Z</time>
      </trkpt>
      <trkpt lat="48.00004" lon="6.64194">
        <ele>400.05</ele>
        <time>2013-05-20T11:03:06Z</time>
      </trkpt>
      <trkpt lat="47.9998" lon="6.64243">
        <ele>400.53</ele>
        <time>2013-05-20T11:03:15Z</time>
      </trkpt>
      <trkpt lat="47.99934" lon="6.64349">
        <ele>400.53</ele>
        <time>2013-05-20T11:03:34Z</time>
      </trkpt>
      <trkpt lat="47.99933" lon="6.64355">
        <ele>400.53</ele>
        <time>2013-05-20T11:03:35Z</time>
      </trkpt>
      <trkpt lat="47.99933" lon="6.64361">
        <ele>400.53</ele>
        <time>2013-05-20T11:03:36Z</time>
      </trkpt>
      <trkpt lat="47.99935" lon="6.64368">
        <ele>401.01</ele>
        <time>2013-05-20T11:03:37Z</time>
      </trkpt>
      <trkpt lat="47.99937" lon="6.64375">
        <ele>401.01</ele>
        <time>2013-05-20T11:03:38Z</time>
      </trkpt>
      <trkpt lat="47.99952" lon="6.64435">
        <ele>401.01</ele>
        <time>2013-05-20T11:03:47Z</time>
      </trkpt>
      <trkpt lat="47.99952" lon="6.64441">
        <ele>401.01</ele>
        <time>2013-05-20T11:03:48Z</time>
      </trkpt>
      <trkpt lat="47.9995" lon="6.64445">
        <ele>401.01</ele>
        <time>2013-05-20T11:03:49Z</time>
      </trkpt>
      <trkpt lat="47.99948" lon="6.64447">
        <ele>401.49</ele>
        <time>2013-05-20T11:03:50Z</time>
      </trkpt>
      <trkpt lat="47.99944" lon="6.64449">
        <ele>401.01</ele>
        <time>2013-05-20T11:03:51Z</time>
      </trkpt>
      <trkpt lat="47.99941" lon="6.64448">
        <ele>401.97</ele>
        <time>2013-05-20T11:03:52Z</time>
      </trkpt>
      <trkpt lat="47.99937" lon="6.64446">
        <ele>401.97</ele>
        <time>2013-05-20T11:03:53Z</time>
      </trkpt>
      <trkpt lat="47.99926" lon="6.64438">
        <ele>402.45</ele>
        <time>2013-05-20T11:03:56Z</time>
      </trkpt>
      <trkpt lat="47.99912" lon="6.64433">
        <ele>403.41</ele>
        <time>2013-05-20T11:04:02Z</time>
      </trkpt>
      <trkpt lat="47.99905" lon="6.64424">
        <ele>403.41</ele>
        <time>2013-05-20T11:04:06Z</time>
      </trkpt>
      <trkpt lat="47.99893" lon="6.64416">
        <ele>406.29</ele>
        <time>2013-05-20T11:04:14Z</time>
      </trkpt>
      <trkpt lat="47.99893" lon="6.64415">
        <ele>406.77</ele>
        <time>2013-05-20T11:04:15Z</time>
      </trkpt>
      <trkpt lat="47.99891" lon="6.64411">
        <ele>408.22</ele>
        <time>2013-05-20T11:04:31Z</time>
      </trkpt>
      <trkpt lat="47.99892" lon="6.64411">
        <ele>411.1</ele>
        <time>2013-05-20T11:04:41Z</time>
      </trkpt>
      <trkpt lat="47.99892" lon="6.64405">
        <ele>410.14</ele>
        <time>2013-05-20T11:05:01Z</time>
      </trkpt>
      <trkpt lat="47.99892" lon="6.64404">
        <ele>409.66</ele>
        <time>2013-05-20T11:05:17Z</time>
      </trkpt>
      <trkpt lat="47.99891" lon="6.64407">
        <ele>410.14</ele>
        <time>2013-05-20T11:05:26Z</time>
      </trkpt>
    </trkseg>
  </trk>
</gpx>